<?xml version="1.0" encoding="UTF-8" standalone="no" ?>
<gpx xmlns="http://www.topografix.com/GPX/1/1" xmlns:xsi="http://www.w3.org/2001/XMLSchema-instance" xsi:schemaLocation="http://www.topografix.com/GPX/1/1 http://www.topografix.com/GPX/1/1/gpx.xsd" version="1.1" creator="VisuGPX - https://www.visugpx.com">
  <metadata>
    <name>Les Rosaires-St-Quay-Portrieux</name>
    <desc><![CDATA[Boucle entre les Rosaires et Saint-Quay-Portrieux en suivant principalement la Velomaritime n°4.]]></desc>
  </metadata>
  <trk>
    <name><![CDATA[2022-09-09 08:48]]></name>
    <desc><![CDATA[<p>Heure de départ: 08:48 9 sept. 2022<br/>Heure d'arrivée: 14:38 9 sept. 2022<br/>Distance: 51,6 km (05:50)<br/>Temps déplacement: 04:04<br/>Vitesse moyenne: 8,84 km/h<br/>Vitesse moyenne mouv.: 12,69 km/h<br/>Vitesse Max.: 39,92 km/h<br/>Altitude minimale: 1 m<br/>Altitude maximale: 117 m<br/>Vitesse de montée: 492,1 m/h<br/>Vitesse de descente: -401,1 m/h<br/>Gain d'altitude: 1269 m<br/>Perte d'altitude: -1273 m<br/>Temps de montée: 02:34<br/>Temps de descente: 03:10<br/></p><hr align="center" width="480" style="height: 2px; width: 517px"/>]]></desc>
    <trkseg>
      <trkpt lat="48.56336" lon="-2.7553">
        <ele>9</ele>
        <time>2022-09-09T06:48:21Z</time>
      </trkpt>
      <trkpt lat="48.56327" lon="-2.7553">
        <ele>8.8</ele>
        <time>2022-09-09T06:49:03Z</time>
      </trkpt>
      <trkpt lat="48.56316" lon="-2.75535">
        <ele>8.4</ele>
        <time>2022-09-09T06:49:16Z</time>
      </trkpt>
      <trkpt lat="48.56307" lon="-2.75527">
        <ele>8</ele>
        <time>2022-09-09T06:49:22Z</time>
      </trkpt>
      <trkpt lat="48.56304" lon="-2.75512">
        <ele>8.1</ele>
        <time>2022-09-09T06:49:25Z</time>
      </trkpt>
      <trkpt lat="48.56302" lon="-2.75495">
        <ele>8</ele>
        <time>2022-09-09T06:49:28Z</time>
      </trkpt>
      <trkpt lat="48.56298" lon="-2.75479">
        <ele>7.5</ele>
        <time>2022-09-09T06:49:31Z</time>
      </trkpt>
      <trkpt lat="48.56293" lon="-2.75464">
        <ele>7.6</ele>
        <time>2022-09-09T06:49:34Z</time>
      </trkpt>
      <trkpt lat="48.56288" lon="-2.7545">
        <ele>8.2</ele>
        <time>2022-09-09T06:49:37Z</time>
      </trkpt>
      <trkpt lat="48.56282" lon="-2.75435">
        <ele>8.4</ele>
        <time>2022-09-09T06:49:40Z</time>
      </trkpt>
      <trkpt lat="48.56277" lon="-2.75418">
        <ele>8.1</ele>
        <time>2022-09-09T06:49:43Z</time>
      </trkpt>
      <trkpt lat="48.56272" lon="-2.75402">
        <ele>8.3</ele>
        <time>2022-09-09T06:49:46Z</time>
      </trkpt>
      <trkpt lat="48.56267" lon="-2.75385">
        <ele>8.3</ele>
        <time>2022-09-09T06:49:49Z</time>
      </trkpt>
      <trkpt lat="48.56262" lon="-2.75368">
        <ele>8.2</ele>
        <time>2022-09-09T06:49:52Z</time>
      </trkpt>
      <trkpt lat="48.56258" lon="-2.75353">
        <ele>8.3</ele>
        <time>2022-09-09T06:49:55Z</time>
      </trkpt>
      <trkpt lat="48.56253" lon="-2.75337">
        <ele>8.1</ele>
        <time>2022-09-09T06:49:58Z</time>
      </trkpt>
      <trkpt lat="48.56248" lon="-2.75321">
        <ele>8.2</ele>
        <time>2022-09-09T06:50:01Z</time>
      </trkpt>
      <trkpt lat="48.56243" lon="-2.75305">
        <ele>8.7</ele>
        <time>2022-09-09T06:50:04Z</time>
      </trkpt>
      <trkpt lat="48.56238" lon="-2.75289">
        <ele>8.7</ele>
        <time>2022-09-09T06:50:07Z</time>
      </trkpt>
      <trkpt lat="48.56233" lon="-2.75272">
        <ele>8.8</ele>
        <time>2022-09-09T06:50:10Z</time>
      </trkpt>
      <trkpt lat="48.56229" lon="-2.75256">
        <ele>8.9</ele>
        <time>2022-09-09T06:50:13Z</time>
      </trkpt>
      <trkpt lat="48.56225" lon="-2.75237">
        <ele>8.5</ele>
        <time>2022-09-09T06:50:16Z</time>
      </trkpt>
      <trkpt lat="48.56219" lon="-2.75225">
        <ele>8.3</ele>
        <time>2022-09-09T06:50:18Z</time>
      </trkpt>
      <trkpt lat="48.56214" lon="-2.75208">
        <ele>8.4</ele>
        <time>2022-09-09T06:50:21Z</time>
      </trkpt>
      <trkpt lat="48.5621" lon="-2.75191">
        <ele>8.3</ele>
        <time>2022-09-09T06:50:24Z</time>
      </trkpt>
      <trkpt lat="48.56206" lon="-2.75178">
        <ele>8</ele>
        <time>2022-09-09T06:50:26Z</time>
      </trkpt>
      <trkpt lat="48.562" lon="-2.75162">
        <ele>7.8</ele>
        <time>2022-09-09T06:50:29Z</time>
      </trkpt>
      <trkpt lat="48.56195" lon="-2.75144">
        <ele>8</ele>
        <time>2022-09-09T06:50:32Z</time>
      </trkpt>
      <trkpt lat="48.56191" lon="-2.75131">
        <ele>8.2</ele>
        <time>2022-09-09T06:50:35Z</time>
      </trkpt>
      <trkpt lat="48.56195" lon="-2.75117">
        <ele>8</ele>
        <time>2022-09-09T06:50:40Z</time>
      </trkpt>
      <trkpt lat="48.56207" lon="-2.75113">
        <ele>7.5</ele>
        <time>2022-09-09T06:50:43Z</time>
      </trkpt>
      <trkpt lat="48.56219" lon="-2.7511">
        <ele>7.1</ele>
        <time>2022-09-09T06:50:46Z</time>
      </trkpt>
      <trkpt lat="48.56232" lon="-2.75106">
        <ele>7.3</ele>
        <time>2022-09-09T06:50:49Z</time>
      </trkpt>
      <trkpt lat="48.56243" lon="-2.75103">
        <ele>7.7</ele>
        <time>2022-09-09T06:50:52Z</time>
      </trkpt>
      <trkpt lat="48.56252" lon="-2.75097">
        <ele>7.7</ele>
        <time>2022-09-09T06:50:56Z</time>
      </trkpt>
      <trkpt lat="48.5625" lon="-2.75082">
        <ele>7.8</ele>
        <time>2022-09-09T06:51:00Z</time>
      </trkpt>
      <trkpt lat="48.56245" lon="-2.75067">
        <ele>6.9</ele>
        <time>2022-09-09T06:51:03Z</time>
      </trkpt>
      <trkpt lat="48.56242" lon="-2.75052">
        <ele>6.2</ele>
        <time>2022-09-09T06:51:06Z</time>
      </trkpt>
      <trkpt lat="48.56238" lon="-2.75036">
        <ele>6</ele>
        <time>2022-09-09T06:51:09Z</time>
      </trkpt>
      <trkpt lat="48.56235" lon="-2.7502">
        <ele>6</ele>
        <time>2022-09-09T06:51:12Z</time>
      </trkpt>
      <trkpt lat="48.56232" lon="-2.75003">
        <ele>6</ele>
        <time>2022-09-09T06:51:15Z</time>
      </trkpt>
      <trkpt lat="48.56228" lon="-2.74986">
        <ele>6.8</ele>
        <time>2022-09-09T06:51:18Z</time>
      </trkpt>
      <trkpt lat="48.56223" lon="-2.74968">
        <ele>7.9</ele>
        <time>2022-09-09T06:51:21Z</time>
      </trkpt>
      <trkpt lat="48.56219" lon="-2.74951">
        <ele>8</ele>
        <time>2022-09-09T06:51:24Z</time>
      </trkpt>
      <trkpt lat="48.56215" lon="-2.74933">
        <ele>7.1</ele>
        <time>2022-09-09T06:51:27Z</time>
      </trkpt>
      <trkpt lat="48.5621" lon="-2.74915">
        <ele>6.3</ele>
        <time>2022-09-09T06:51:30Z</time>
      </trkpt>
      <trkpt lat="48.56206" lon="-2.74897">
        <ele>6.8</ele>
        <time>2022-09-09T06:51:33Z</time>
      </trkpt>
      <trkpt lat="48.56201" lon="-2.7488">
        <ele>7.2</ele>
        <time>2022-09-09T06:51:36Z</time>
      </trkpt>
      <trkpt lat="48.56196" lon="-2.74863">
        <ele>7.8</ele>
        <time>2022-09-09T06:51:39Z</time>
      </trkpt>
      <trkpt lat="48.56192" lon="-2.74845">
        <ele>7.4</ele>
        <time>2022-09-09T06:51:42Z</time>
      </trkpt>
      <trkpt lat="48.56188" lon="-2.74827">
        <ele>6.9</ele>
        <time>2022-09-09T06:51:45Z</time>
      </trkpt>
      <trkpt lat="48.56184" lon="-2.74809">
        <ele>6.8</ele>
        <time>2022-09-09T06:51:48Z</time>
      </trkpt>
      <trkpt lat="48.5618" lon="-2.74791">
        <ele>6.8</ele>
        <time>2022-09-09T06:51:51Z</time>
      </trkpt>
      <trkpt lat="48.56177" lon="-2.74774">
        <ele>6.8</ele>
        <time>2022-09-09T06:51:54Z</time>
      </trkpt>
      <trkpt lat="48.56169" lon="-2.74766">
        <ele>7.7</ele>
        <time>2022-09-09T06:52:01Z</time>
      </trkpt>
      <trkpt lat="48.56164" lon="-2.74777">
        <ele>8</ele>
        <time>2022-09-09T06:52:22Z</time>
      </trkpt>
      <trkpt lat="48.56156" lon="-2.74785">
        <ele>8</ele>
        <time>2022-09-09T06:52:26Z</time>
      </trkpt>
      <trkpt lat="48.56145" lon="-2.74788">
        <ele>8</ele>
        <time>2022-09-09T06:52:30Z</time>
      </trkpt>
      <trkpt lat="48.56135" lon="-2.74789">
        <ele>8.3</ele>
        <time>2022-09-09T06:52:34Z</time>
      </trkpt>
      <trkpt lat="48.56126" lon="-2.7479">
        <ele>8.9</ele>
        <time>2022-09-09T06:52:38Z</time>
      </trkpt>
      <trkpt lat="48.56117" lon="-2.74789">
        <ele>9.6</ele>
        <time>2022-09-09T06:52:43Z</time>
      </trkpt>
      <trkpt lat="48.56107" lon="-2.74789">
        <ele>10.5</ele>
        <time>2022-09-09T06:52:49Z</time>
      </trkpt>
      <trkpt lat="48.56098" lon="-2.74789">
        <ele>11.7</ele>
        <time>2022-09-09T06:52:55Z</time>
      </trkpt>
      <trkpt lat="48.56088" lon="-2.74788">
        <ele>12.8</ele>
        <time>2022-09-09T06:53:01Z</time>
      </trkpt>
      <trkpt lat="48.56079" lon="-2.74788">
        <ele>14.1</ele>
        <time>2022-09-09T06:53:08Z</time>
      </trkpt>
      <trkpt lat="48.56069" lon="-2.74785">
        <ele>15.5</ele>
        <time>2022-09-09T06:53:22Z</time>
      </trkpt>
      <trkpt lat="48.56059" lon="-2.74784">
        <ele>16.9</ele>
        <time>2022-09-09T06:53:29Z</time>
      </trkpt>
      <trkpt lat="48.56049" lon="-2.74783">
        <ele>18.7</ele>
        <time>2022-09-09T06:53:37Z</time>
      </trkpt>
      <trkpt lat="48.5604" lon="-2.74781">
        <ele>20.6</ele>
        <time>2022-09-09T06:53:45Z</time>
      </trkpt>
      <trkpt lat="48.56031" lon="-2.74779">
        <ele>22.4</ele>
        <time>2022-09-09T06:53:53Z</time>
      </trkpt>
      <trkpt lat="48.56023" lon="-2.74772">
        <ele>23.6</ele>
        <time>2022-09-09T06:54:07Z</time>
      </trkpt>
      <trkpt lat="48.56014" lon="-2.74768">
        <ele>25.3</ele>
        <time>2022-09-09T06:54:29Z</time>
      </trkpt>
      <trkpt lat="48.56005" lon="-2.74764">
        <ele>27</ele>
        <time>2022-09-09T06:54:38Z</time>
      </trkpt>
      <trkpt lat="48.55996" lon="-2.74758">
        <ele>28.5</ele>
        <time>2022-09-09T06:54:45Z</time>
      </trkpt>
      <trkpt lat="48.55988" lon="-2.74752">
        <ele>30.6</ele>
        <time>2022-09-09T06:54:53Z</time>
      </trkpt>
      <trkpt lat="48.5598" lon="-2.74745">
        <ele>32.5</ele>
        <time>2022-09-09T06:55:08Z</time>
      </trkpt>
      <trkpt lat="48.55973" lon="-2.74737">
        <ele>34</ele>
        <time>2022-09-09T06:55:30Z</time>
      </trkpt>
      <trkpt lat="48.55964" lon="-2.74731">
        <ele>36.7</ele>
        <time>2022-09-09T06:55:49Z</time>
      </trkpt>
      <trkpt lat="48.55957" lon="-2.74721">
        <ele>37.9</ele>
        <time>2022-09-09T06:56:08Z</time>
      </trkpt>
      <trkpt lat="48.55948" lon="-2.74719">
        <ele>40.9</ele>
        <time>2022-09-09T06:56:26Z</time>
      </trkpt>
      <trkpt lat="48.55939" lon="-2.74722">
        <ele>43.4</ele>
        <time>2022-09-09T06:56:47Z</time>
      </trkpt>
      <trkpt lat="48.5593" lon="-2.74725">
        <ele>46.3</ele>
        <time>2022-09-09T06:56:59Z</time>
      </trkpt>
      <trkpt lat="48.55921" lon="-2.74731">
        <ele>49.4</ele>
        <time>2022-09-09T06:57:15Z</time>
      </trkpt>
      <trkpt lat="48.55914" lon="-2.74741">
        <ele>52.9</ele>
        <time>2022-09-09T06:57:37Z</time>
      </trkpt>
      <trkpt lat="48.55907" lon="-2.74749">
        <ele>55.3</ele>
        <time>2022-09-09T06:57:56Z</time>
      </trkpt>
      <trkpt lat="48.55899" lon="-2.74756">
        <ele>57.2</ele>
        <time>2022-09-09T06:58:10Z</time>
      </trkpt>
      <trkpt lat="48.55892" lon="-2.74766">
        <ele>58.1</ele>
        <time>2022-09-09T06:58:24Z</time>
      </trkpt>
      <trkpt lat="48.55887" lon="-2.74778">
        <ele>58.5</ele>
        <time>2022-09-09T06:58:40Z</time>
      </trkpt>
      <trkpt lat="48.55879" lon="-2.74783">
        <ele>62.7</ele>
        <time>2022-09-09T06:59:07Z</time>
      </trkpt>
      <trkpt lat="48.5587" lon="-2.74785">
        <ele>65.6</ele>
        <time>2022-09-09T06:59:26Z</time>
      </trkpt>
      <trkpt lat="48.5586" lon="-2.74785">
        <ele>67.9</ele>
        <time>2022-09-09T06:59:47Z</time>
      </trkpt>
      <trkpt lat="48.55851" lon="-2.74782">
        <ele>69.5</ele>
        <time>2022-09-09T07:00:11Z</time>
      </trkpt>
      <trkpt lat="48.55843" lon="-2.74775">
        <ele>71.1</ele>
        <time>2022-09-09T07:00:27Z</time>
      </trkpt>
      <trkpt lat="48.55835" lon="-2.74768">
        <ele>73</ele>
        <time>2022-09-09T07:00:39Z</time>
      </trkpt>
      <trkpt lat="48.55828" lon="-2.74758">
        <ele>74.4</ele>
        <time>2022-09-09T07:01:05Z</time>
      </trkpt>
      <trkpt lat="48.5582" lon="-2.74752">
        <ele>75.9</ele>
        <time>2022-09-09T07:01:21Z</time>
      </trkpt>
      <trkpt lat="48.55813" lon="-2.74743">
        <ele>77.1</ele>
        <time>2022-09-09T07:01:31Z</time>
      </trkpt>
      <trkpt lat="48.55807" lon="-2.74732">
        <ele>77.8</ele>
        <time>2022-09-09T07:02:03Z</time>
      </trkpt>
      <trkpt lat="48.55799" lon="-2.74722">
        <ele>78.2</ele>
        <time>2022-09-09T07:02:13Z</time>
      </trkpt>
      <trkpt lat="48.55789" lon="-2.74716">
        <ele>78.6</ele>
        <time>2022-09-09T07:02:18Z</time>
      </trkpt>
      <trkpt lat="48.55781" lon="-2.7471">
        <ele>78.9</ele>
        <time>2022-09-09T07:02:22Z</time>
      </trkpt>
      <trkpt lat="48.55773" lon="-2.74702">
        <ele>79.5</ele>
        <time>2022-09-09T07:02:26Z</time>
      </trkpt>
      <trkpt lat="48.55764" lon="-2.74693">
        <ele>80.5</ele>
        <time>2022-09-09T07:02:31Z</time>
      </trkpt>
      <trkpt lat="48.55755" lon="-2.74687">
        <ele>81.5</ele>
        <time>2022-09-09T07:02:36Z</time>
      </trkpt>
      <trkpt lat="48.55747" lon="-2.7468">
        <ele>82.2</ele>
        <time>2022-09-09T07:02:41Z</time>
      </trkpt>
      <trkpt lat="48.55738" lon="-2.74674">
        <ele>82.8</ele>
        <time>2022-09-09T07:02:46Z</time>
      </trkpt>
      <trkpt lat="48.55729" lon="-2.74667">
        <ele>83.5</ele>
        <time>2022-09-09T07:02:51Z</time>
      </trkpt>
      <trkpt lat="48.5572" lon="-2.7466">
        <ele>84.1</ele>
        <time>2022-09-09T07:02:56Z</time>
      </trkpt>
      <trkpt lat="48.5571" lon="-2.74651">
        <ele>84.2</ele>
        <time>2022-09-09T07:03:01Z</time>
      </trkpt>
      <trkpt lat="48.557" lon="-2.74642">
        <ele>84.1</ele>
        <time>2022-09-09T07:03:05Z</time>
      </trkpt>
      <trkpt lat="48.5569" lon="-2.74634">
        <ele>84.1</ele>
        <time>2022-09-09T07:03:09Z</time>
      </trkpt>
      <trkpt lat="48.55682" lon="-2.74628">
        <ele>84.3</ele>
        <time>2022-09-09T07:03:39Z</time>
      </trkpt>
      <trkpt lat="48.55673" lon="-2.74622">
        <ele>84.3</ele>
        <time>2022-09-09T07:03:45Z</time>
      </trkpt>
      <trkpt lat="48.55665" lon="-2.74616">
        <ele>84.1</ele>
        <time>2022-09-09T07:03:48Z</time>
      </trkpt>
      <trkpt lat="48.55654" lon="-2.74609">
        <ele>83.5</ele>
        <time>2022-09-09T07:03:51Z</time>
      </trkpt>
      <trkpt lat="48.55643" lon="-2.74605">
        <ele>82.9</ele>
        <time>2022-09-09T07:04:15Z</time>
      </trkpt>
      <trkpt lat="48.55634" lon="-2.7461">
        <ele>82.6</ele>
        <time>2022-09-09T07:04:18Z</time>
      </trkpt>
      <trkpt lat="48.55633" lon="-2.74627">
        <ele>82.7</ele>
        <time>2022-09-09T07:04:21Z</time>
      </trkpt>
      <trkpt lat="48.55631" lon="-2.74641">
        <ele>82.8</ele>
        <time>2022-09-09T07:04:24Z</time>
      </trkpt>
      <trkpt lat="48.55628" lon="-2.74658">
        <ele>83</ele>
        <time>2022-09-09T07:04:28Z</time>
      </trkpt>
      <trkpt lat="48.55626" lon="-2.74671">
        <ele>83.1</ele>
        <time>2022-09-09T07:04:31Z</time>
      </trkpt>
      <trkpt lat="48.55623" lon="-2.74684">
        <ele>83.2</ele>
        <time>2022-09-09T07:04:34Z</time>
      </trkpt>
      <trkpt lat="48.5562" lon="-2.74698">
        <ele>83.3</ele>
        <time>2022-09-09T07:04:37Z</time>
      </trkpt>
      <trkpt lat="48.55617" lon="-2.74711">
        <ele>83.2</ele>
        <time>2022-09-09T07:04:40Z</time>
      </trkpt>
      <trkpt lat="48.55614" lon="-2.74728">
        <ele>83.3</ele>
        <time>2022-09-09T07:04:44Z</time>
      </trkpt>
      <trkpt lat="48.5561" lon="-2.74742">
        <ele>83.7</ele>
        <time>2022-09-09T07:04:47Z</time>
      </trkpt>
      <trkpt lat="48.55606" lon="-2.74756">
        <ele>83.8</ele>
        <time>2022-09-09T07:04:50Z</time>
      </trkpt>
      <trkpt lat="48.55603" lon="-2.74771">
        <ele>83.7</ele>
        <time>2022-09-09T07:04:53Z</time>
      </trkpt>
      <trkpt lat="48.55599" lon="-2.74786">
        <ele>83.9</ele>
        <time>2022-09-09T07:04:56Z</time>
      </trkpt>
      <trkpt lat="48.55596" lon="-2.74801">
        <ele>84.3</ele>
        <time>2022-09-09T07:04:59Z</time>
      </trkpt>
      <trkpt lat="48.55592" lon="-2.74815">
        <ele>84.5</ele>
        <time>2022-09-09T07:05:02Z</time>
      </trkpt>
      <trkpt lat="48.55588" lon="-2.74829">
        <ele>84.9</ele>
        <time>2022-09-09T07:05:05Z</time>
      </trkpt>
      <trkpt lat="48.55584" lon="-2.74843">
        <ele>85</ele>
        <time>2022-09-09T07:05:08Z</time>
      </trkpt>
      <trkpt lat="48.5558" lon="-2.74857">
        <ele>84.9</ele>
        <time>2022-09-09T07:05:11Z</time>
      </trkpt>
      <trkpt lat="48.55576" lon="-2.74872">
        <ele>84.7</ele>
        <time>2022-09-09T07:05:14Z</time>
      </trkpt>
      <trkpt lat="48.5557" lon="-2.74887">
        <ele>84.5</ele>
        <time>2022-09-09T07:05:17Z</time>
      </trkpt>
      <trkpt lat="48.55566" lon="-2.74902">
        <ele>84.8</ele>
        <time>2022-09-09T07:05:20Z</time>
      </trkpt>
      <trkpt lat="48.55561" lon="-2.74916">
        <ele>85.2</ele>
        <time>2022-09-09T07:05:23Z</time>
      </trkpt>
      <trkpt lat="48.55556" lon="-2.7493">
        <ele>85.5</ele>
        <time>2022-09-09T07:05:26Z</time>
      </trkpt>
      <trkpt lat="48.55551" lon="-2.74943">
        <ele>85.6</ele>
        <time>2022-09-09T07:05:29Z</time>
      </trkpt>
      <trkpt lat="48.55546" lon="-2.74956">
        <ele>85.4</ele>
        <time>2022-09-09T07:05:32Z</time>
      </trkpt>
      <trkpt lat="48.5554" lon="-2.7497">
        <ele>85.4</ele>
        <time>2022-09-09T07:05:35Z</time>
      </trkpt>
      <trkpt lat="48.55534" lon="-2.74984">
        <ele>85.6</ele>
        <time>2022-09-09T07:05:38Z</time>
      </trkpt>
      <trkpt lat="48.5553" lon="-2.74997">
        <ele>85.9</ele>
        <time>2022-09-09T07:05:41Z</time>
      </trkpt>
      <trkpt lat="48.55524" lon="-2.75008">
        <ele>85.8</ele>
        <time>2022-09-09T07:05:44Z</time>
      </trkpt>
      <trkpt lat="48.55519" lon="-2.75021">
        <ele>85.6</ele>
        <time>2022-09-09T07:05:47Z</time>
      </trkpt>
      <trkpt lat="48.55511" lon="-2.75035">
        <ele>85.6</ele>
        <time>2022-09-09T07:05:50Z</time>
      </trkpt>
      <trkpt lat="48.55503" lon="-2.75049">
        <ele>85.8</ele>
        <time>2022-09-09T07:05:53Z</time>
      </trkpt>
      <trkpt lat="48.55495" lon="-2.75063">
        <ele>85.7</ele>
        <time>2022-09-09T07:05:56Z</time>
      </trkpt>
      <trkpt lat="48.55487" lon="-2.75076">
        <ele>85.4</ele>
        <time>2022-09-09T07:05:59Z</time>
      </trkpt>
      <trkpt lat="48.5548" lon="-2.75091">
        <ele>85.5</ele>
        <time>2022-09-09T07:06:02Z</time>
      </trkpt>
      <trkpt lat="48.55473" lon="-2.75106">
        <ele>85.8</ele>
        <time>2022-09-09T07:06:05Z</time>
      </trkpt>
      <trkpt lat="48.55467" lon="-2.75122">
        <ele>85.8</ele>
        <time>2022-09-09T07:06:08Z</time>
      </trkpt>
      <trkpt lat="48.55461" lon="-2.75138">
        <ele>85.6</ele>
        <time>2022-09-09T07:06:11Z</time>
      </trkpt>
      <trkpt lat="48.55458" lon="-2.75155">
        <ele>85.5</ele>
        <time>2022-09-09T07:06:14Z</time>
      </trkpt>
      <trkpt lat="48.55454" lon="-2.75173">
        <ele>85.3</ele>
        <time>2022-09-09T07:06:17Z</time>
      </trkpt>
      <trkpt lat="48.5545" lon="-2.7519">
        <ele>85.2</ele>
        <time>2022-09-09T07:06:20Z</time>
      </trkpt>
      <trkpt lat="48.55446" lon="-2.75208">
        <ele>85.1</ele>
        <time>2022-09-09T07:06:23Z</time>
      </trkpt>
      <trkpt lat="48.55442" lon="-2.75225">
        <ele>85.1</ele>
        <time>2022-09-09T07:06:26Z</time>
      </trkpt>
      <trkpt lat="48.55437" lon="-2.75243">
        <ele>85.3</ele>
        <time>2022-09-09T07:06:29Z</time>
      </trkpt>
      <trkpt lat="48.55431" lon="-2.75259">
        <ele>85.3</ele>
        <time>2022-09-09T07:06:32Z</time>
      </trkpt>
      <trkpt lat="48.55424" lon="-2.75275">
        <ele>85.1</ele>
        <time>2022-09-09T07:06:35Z</time>
      </trkpt>
      <trkpt lat="48.55417" lon="-2.75292">
        <ele>85</ele>
        <time>2022-09-09T07:06:38Z</time>
      </trkpt>
      <trkpt lat="48.55409" lon="-2.75308">
        <ele>85.2</ele>
        <time>2022-09-09T07:06:41Z</time>
      </trkpt>
      <trkpt lat="48.55402" lon="-2.75325">
        <ele>84.8</ele>
        <time>2022-09-09T07:06:44Z</time>
      </trkpt>
      <trkpt lat="48.55396" lon="-2.75342">
        <ele>84.8</ele>
        <time>2022-09-09T07:06:47Z</time>
      </trkpt>
      <trkpt lat="48.55391" lon="-2.75359">
        <ele>84.9</ele>
        <time>2022-09-09T07:06:50Z</time>
      </trkpt>
      <trkpt lat="48.55387" lon="-2.75377">
        <ele>85.1</ele>
        <time>2022-09-09T07:06:53Z</time>
      </trkpt>
      <trkpt lat="48.55384" lon="-2.75396">
        <ele>85.2</ele>
        <time>2022-09-09T07:06:56Z</time>
      </trkpt>
      <trkpt lat="48.55382" lon="-2.75416">
        <ele>85.2</ele>
        <time>2022-09-09T07:06:59Z</time>
      </trkpt>
      <trkpt lat="48.55379" lon="-2.75429">
        <ele>85.4</ele>
        <time>2022-09-09T07:07:01Z</time>
      </trkpt>
      <trkpt lat="48.55377" lon="-2.75444">
        <ele>85.4</ele>
        <time>2022-09-09T07:07:03Z</time>
      </trkpt>
      <trkpt lat="48.55376" lon="-2.75459">
        <ele>85</ele>
        <time>2022-09-09T07:07:05Z</time>
      </trkpt>
      <trkpt lat="48.55373" lon="-2.75475">
        <ele>84.5</ele>
        <time>2022-09-09T07:07:07Z</time>
      </trkpt>
      <trkpt lat="48.55371" lon="-2.7549">
        <ele>84.4</ele>
        <time>2022-09-09T07:07:09Z</time>
      </trkpt>
      <trkpt lat="48.55371" lon="-2.75506">
        <ele>84.1</ele>
        <time>2022-09-09T07:07:11Z</time>
      </trkpt>
      <trkpt lat="48.55373" lon="-2.75521">
        <ele>83.4</ele>
        <time>2022-09-09T07:07:13Z</time>
      </trkpt>
      <trkpt lat="48.55377" lon="-2.75535">
        <ele>82.9</ele>
        <time>2022-09-09T07:07:15Z</time>
      </trkpt>
      <trkpt lat="48.55382" lon="-2.75549">
        <ele>82.5</ele>
        <time>2022-09-09T07:07:17Z</time>
      </trkpt>
      <trkpt lat="48.55389" lon="-2.75562">
        <ele>82</ele>
        <time>2022-09-09T07:07:19Z</time>
      </trkpt>
      <trkpt lat="48.55396" lon="-2.75575">
        <ele>81.5</ele>
        <time>2022-09-09T07:07:21Z</time>
      </trkpt>
      <trkpt lat="48.55404" lon="-2.7559">
        <ele>80.9</ele>
        <time>2022-09-09T07:07:23Z</time>
      </trkpt>
      <trkpt lat="48.55411" lon="-2.75606">
        <ele>80.4</ele>
        <time>2022-09-09T07:07:25Z</time>
      </trkpt>
      <trkpt lat="48.55417" lon="-2.75623">
        <ele>79.6</ele>
        <time>2022-09-09T07:07:27Z</time>
      </trkpt>
      <trkpt lat="48.55423" lon="-2.75638">
        <ele>79.2</ele>
        <time>2022-09-09T07:07:29Z</time>
      </trkpt>
      <trkpt lat="48.55431" lon="-2.75652">
        <ele>79.7</ele>
        <time>2022-09-09T07:07:31Z</time>
      </trkpt>
      <trkpt lat="48.55439" lon="-2.7566">
        <ele>80</ele>
        <time>2022-09-09T07:07:33Z</time>
      </trkpt>
      <trkpt lat="48.55448" lon="-2.75666">
        <ele>80.3</ele>
        <time>2022-09-09T07:07:35Z</time>
      </trkpt>
      <trkpt lat="48.55458" lon="-2.75676">
        <ele>81.3</ele>
        <time>2022-09-09T07:07:39Z</time>
      </trkpt>
      <trkpt lat="48.55466" lon="-2.75683">
        <ele>81.8</ele>
        <time>2022-09-09T07:07:42Z</time>
      </trkpt>
      <trkpt lat="48.55474" lon="-2.75692">
        <ele>82.1</ele>
        <time>2022-09-09T07:07:46Z</time>
      </trkpt>
      <trkpt lat="48.55482" lon="-2.75705">
        <ele>82.9</ele>
        <time>2022-09-09T07:07:50Z</time>
      </trkpt>
      <trkpt lat="48.55488" lon="-2.75716">
        <ele>83.2</ele>
        <time>2022-09-09T07:07:53Z</time>
      </trkpt>
      <trkpt lat="48.55494" lon="-2.75727">
        <ele>83.2</ele>
        <time>2022-09-09T07:07:57Z</time>
      </trkpt>
      <trkpt lat="48.55496" lon="-2.75743">
        <ele>83.2</ele>
        <time>2022-09-09T07:08:30Z</time>
      </trkpt>
      <trkpt lat="48.55499" lon="-2.75756">
        <ele>83</ele>
        <time>2022-09-09T07:08:33Z</time>
      </trkpt>
      <trkpt lat="48.55502" lon="-2.75771">
        <ele>82.9</ele>
        <time>2022-09-09T07:08:36Z</time>
      </trkpt>
      <trkpt lat="48.55506" lon="-2.75787">
        <ele>83.1</ele>
        <time>2022-09-09T07:08:39Z</time>
      </trkpt>
      <trkpt lat="48.55512" lon="-2.75803">
        <ele>83.5</ele>
        <time>2022-09-09T07:08:42Z</time>
      </trkpt>
      <trkpt lat="48.55518" lon="-2.75817">
        <ele>83.3</ele>
        <time>2022-09-09T07:08:45Z</time>
      </trkpt>
      <trkpt lat="48.55526" lon="-2.7583">
        <ele>83.1</ele>
        <time>2022-09-09T07:08:48Z</time>
      </trkpt>
      <trkpt lat="48.55534" lon="-2.75843">
        <ele>83.4</ele>
        <time>2022-09-09T07:08:51Z</time>
      </trkpt>
      <trkpt lat="48.55541" lon="-2.75856">
        <ele>83.8</ele>
        <time>2022-09-09T07:08:54Z</time>
      </trkpt>
      <trkpt lat="48.55547" lon="-2.75868">
        <ele>84</ele>
        <time>2022-09-09T07:08:57Z</time>
      </trkpt>
      <trkpt lat="48.55551" lon="-2.75882">
        <ele>84</ele>
        <time>2022-09-09T07:09:00Z</time>
      </trkpt>
      <trkpt lat="48.55555" lon="-2.75897">
        <ele>84</ele>
        <time>2022-09-09T07:09:03Z</time>
      </trkpt>
      <trkpt lat="48.55558" lon="-2.75912">
        <ele>84</ele>
        <time>2022-09-09T07:09:06Z</time>
      </trkpt>
      <trkpt lat="48.55562" lon="-2.75928">
        <ele>84.3</ele>
        <time>2022-09-09T07:09:09Z</time>
      </trkpt>
      <trkpt lat="48.55566" lon="-2.75943">
        <ele>84.6</ele>
        <time>2022-09-09T07:09:12Z</time>
      </trkpt>
      <trkpt lat="48.5557" lon="-2.75958">
        <ele>84.7</ele>
        <time>2022-09-09T07:09:15Z</time>
      </trkpt>
      <trkpt lat="48.55574" lon="-2.75972">
        <ele>85</ele>
        <time>2022-09-09T07:09:18Z</time>
      </trkpt>
      <trkpt lat="48.55578" lon="-2.75986">
        <ele>85.1</ele>
        <time>2022-09-09T07:09:21Z</time>
      </trkpt>
      <trkpt lat="48.55582" lon="-2.76001">
        <ele>85.1</ele>
        <time>2022-09-09T07:09:24Z</time>
      </trkpt>
      <trkpt lat="48.55586" lon="-2.76015">
        <ele>84.9</ele>
        <time>2022-09-09T07:09:27Z</time>
      </trkpt>
      <trkpt lat="48.55591" lon="-2.7603">
        <ele>85.1</ele>
        <time>2022-09-09T07:09:30Z</time>
      </trkpt>
      <trkpt lat="48.55597" lon="-2.76044">
        <ele>85.3</ele>
        <time>2022-09-09T07:09:33Z</time>
      </trkpt>
      <trkpt lat="48.55602" lon="-2.76058">
        <ele>85.3</ele>
        <time>2022-09-09T07:09:36Z</time>
      </trkpt>
      <trkpt lat="48.55609" lon="-2.76071">
        <ele>85.1</ele>
        <time>2022-09-09T07:09:39Z</time>
      </trkpt>
      <trkpt lat="48.55613" lon="-2.76083">
        <ele>85</ele>
        <time>2022-09-09T07:09:42Z</time>
      </trkpt>
      <trkpt lat="48.5562" lon="-2.76096">
        <ele>85</ele>
        <time>2022-09-09T07:09:46Z</time>
      </trkpt>
      <trkpt lat="48.55626" lon="-2.76108">
        <ele>85</ele>
        <time>2022-09-09T07:09:50Z</time>
      </trkpt>
      <trkpt lat="48.55633" lon="-2.76119">
        <ele>84.8</ele>
        <time>2022-09-09T07:09:54Z</time>
      </trkpt>
      <trkpt lat="48.55639" lon="-2.76133">
        <ele>84.2</ele>
        <time>2022-09-09T07:10:31Z</time>
      </trkpt>
      <trkpt lat="48.55648" lon="-2.76146">
        <ele>84.4</ele>
        <time>2022-09-09T07:10:35Z</time>
      </trkpt>
      <trkpt lat="48.55657" lon="-2.76157">
        <ele>84</ele>
        <time>2022-09-09T07:10:38Z</time>
      </trkpt>
      <trkpt lat="48.55668" lon="-2.76169">
        <ele>83.1</ele>
        <time>2022-09-09T07:10:41Z</time>
      </trkpt>
      <trkpt lat="48.55678" lon="-2.76182">
        <ele>83.1</ele>
        <time>2022-09-09T07:10:44Z</time>
      </trkpt>
      <trkpt lat="48.55684" lon="-2.76197">
        <ele>82.1</ele>
        <time>2022-09-09T07:10:47Z</time>
      </trkpt>
      <trkpt lat="48.55685" lon="-2.76214">
        <ele>82</ele>
        <time>2022-09-09T07:10:50Z</time>
      </trkpt>
      <trkpt lat="48.55682" lon="-2.76231">
        <ele>82.4</ele>
        <time>2022-09-09T07:10:53Z</time>
      </trkpt>
      <trkpt lat="48.55677" lon="-2.76247">
        <ele>82.9</ele>
        <time>2022-09-09T07:10:56Z</time>
      </trkpt>
      <trkpt lat="48.55672" lon="-2.76261">
        <ele>83.5</ele>
        <time>2022-09-09T07:10:59Z</time>
      </trkpt>
      <trkpt lat="48.55668" lon="-2.76273">
        <ele>83.9</ele>
        <time>2022-09-09T07:11:02Z</time>
      </trkpt>
      <trkpt lat="48.55663" lon="-2.76284">
        <ele>84.1</ele>
        <time>2022-09-09T07:11:05Z</time>
      </trkpt>
      <trkpt lat="48.55659" lon="-2.76298">
        <ele>84.3</ele>
        <time>2022-09-09T07:11:08Z</time>
      </trkpt>
      <trkpt lat="48.55654" lon="-2.76311">
        <ele>84.3</ele>
        <time>2022-09-09T07:11:11Z</time>
      </trkpt>
      <trkpt lat="48.55649" lon="-2.76328">
        <ele>83.8</ele>
        <time>2022-09-09T07:11:14Z</time>
      </trkpt>
      <trkpt lat="48.55644" lon="-2.76346">
        <ele>83.2</ele>
        <time>2022-09-09T07:11:17Z</time>
      </trkpt>
      <trkpt lat="48.55638" lon="-2.76363">
        <ele>83</ele>
        <time>2022-09-09T07:11:20Z</time>
      </trkpt>
      <trkpt lat="48.55634" lon="-2.76377">
        <ele>83.4</ele>
        <time>2022-09-09T07:11:23Z</time>
      </trkpt>
      <trkpt lat="48.55628" lon="-2.7639">
        <ele>83.8</ele>
        <time>2022-09-09T07:11:26Z</time>
      </trkpt>
      <trkpt lat="48.55623" lon="-2.76402">
        <ele>84.1</ele>
        <time>2022-09-09T07:11:29Z</time>
      </trkpt>
      <trkpt lat="48.55618" lon="-2.76418">
        <ele>84.5</ele>
        <time>2022-09-09T07:11:33Z</time>
      </trkpt>
      <trkpt lat="48.55613" lon="-2.76431">
        <ele>84.3</ele>
        <time>2022-09-09T07:11:36Z</time>
      </trkpt>
      <trkpt lat="48.55612" lon="-2.76449">
        <ele>84.1</ele>
        <time>2022-09-09T07:11:39Z</time>
      </trkpt>
      <trkpt lat="48.55615" lon="-2.76464">
        <ele>84.4</ele>
        <time>2022-09-09T07:11:42Z</time>
      </trkpt>
      <trkpt lat="48.5562" lon="-2.76477">
        <ele>84.6</ele>
        <time>2022-09-09T07:11:46Z</time>
      </trkpt>
      <trkpt lat="48.55625" lon="-2.76488">
        <ele>84.8</ele>
        <time>2022-09-09T07:11:51Z</time>
      </trkpt>
      <trkpt lat="48.55623" lon="-2.76504">
        <ele>85.8</ele>
        <time>2022-09-09T07:11:56Z</time>
      </trkpt>
      <trkpt lat="48.55618" lon="-2.76518">
        <ele>86.7</ele>
        <time>2022-09-09T07:12:00Z</time>
      </trkpt>
      <trkpt lat="48.55613" lon="-2.76531">
        <ele>87.2</ele>
        <time>2022-09-09T07:12:04Z</time>
      </trkpt>
      <trkpt lat="48.55609" lon="-2.76544">
        <ele>87.7</ele>
        <time>2022-09-09T07:12:08Z</time>
      </trkpt>
      <trkpt lat="48.55606" lon="-2.76557">
        <ele>88.4</ele>
        <time>2022-09-09T07:12:12Z</time>
      </trkpt>
      <trkpt lat="48.55603" lon="-2.7657">
        <ele>89.2</ele>
        <time>2022-09-09T07:12:16Z</time>
      </trkpt>
      <trkpt lat="48.55599" lon="-2.76583">
        <ele>89.6</ele>
        <time>2022-09-09T07:12:20Z</time>
      </trkpt>
      <trkpt lat="48.55596" lon="-2.76596">
        <ele>89.9</ele>
        <time>2022-09-09T07:12:24Z</time>
      </trkpt>
      <trkpt lat="48.55591" lon="-2.76609">
        <ele>90.2</ele>
        <time>2022-09-09T07:12:28Z</time>
      </trkpt>
      <trkpt lat="48.55586" lon="-2.76621">
        <ele>90.8</ele>
        <time>2022-09-09T07:12:32Z</time>
      </trkpt>
      <trkpt lat="48.5558" lon="-2.76634">
        <ele>91.7</ele>
        <time>2022-09-09T07:12:36Z</time>
      </trkpt>
      <trkpt lat="48.55575" lon="-2.76647">
        <ele>92.3</ele>
        <time>2022-09-09T07:12:40Z</time>
      </trkpt>
      <trkpt lat="48.55569" lon="-2.76661">
        <ele>92.8</ele>
        <time>2022-09-09T07:12:45Z</time>
      </trkpt>
      <trkpt lat="48.55565" lon="-2.76674">
        <ele>93</ele>
        <time>2022-09-09T07:12:49Z</time>
      </trkpt>
      <trkpt lat="48.55559" lon="-2.76687">
        <ele>93</ele>
        <time>2022-09-09T07:12:53Z</time>
      </trkpt>
      <trkpt lat="48.55553" lon="-2.767">
        <ele>93.5</ele>
        <time>2022-09-09T07:12:57Z</time>
      </trkpt>
      <trkpt lat="48.55548" lon="-2.76712">
        <ele>94.5</ele>
        <time>2022-09-09T07:13:01Z</time>
      </trkpt>
      <trkpt lat="48.55544" lon="-2.76726">
        <ele>95.1</ele>
        <time>2022-09-09T07:13:05Z</time>
      </trkpt>
      <trkpt lat="48.55539" lon="-2.76741">
        <ele>95.3</ele>
        <time>2022-09-09T07:13:09Z</time>
      </trkpt>
      <trkpt lat="48.55535" lon="-2.76757">
        <ele>95.3</ele>
        <time>2022-09-09T07:13:13Z</time>
      </trkpt>
      <trkpt lat="48.55532" lon="-2.76772">
        <ele>95.1</ele>
        <time>2022-09-09T07:13:17Z</time>
      </trkpt>
      <trkpt lat="48.55528" lon="-2.76788">
        <ele>95.4</ele>
        <time>2022-09-09T07:13:21Z</time>
      </trkpt>
      <trkpt lat="48.55523" lon="-2.76803">
        <ele>95.9</ele>
        <time>2022-09-09T07:13:25Z</time>
      </trkpt>
      <trkpt lat="48.55519" lon="-2.7682">
        <ele>96</ele>
        <time>2022-09-09T07:13:29Z</time>
      </trkpt>
      <trkpt lat="48.55515" lon="-2.76833">
        <ele>96</ele>
        <time>2022-09-09T07:13:32Z</time>
      </trkpt>
      <trkpt lat="48.55511" lon="-2.76845">
        <ele>96.4</ele>
        <time>2022-09-09T07:13:35Z</time>
      </trkpt>
      <trkpt lat="48.55507" lon="-2.76859">
        <ele>96.9</ele>
        <time>2022-09-09T07:13:38Z</time>
      </trkpt>
      <trkpt lat="48.55502" lon="-2.76873">
        <ele>97</ele>
        <time>2022-09-09T07:13:41Z</time>
      </trkpt>
      <trkpt lat="48.55498" lon="-2.76886">
        <ele>97.1</ele>
        <time>2022-09-09T07:13:44Z</time>
      </trkpt>
      <trkpt lat="48.55495" lon="-2.769">
        <ele>97.5</ele>
        <time>2022-09-09T07:13:47Z</time>
      </trkpt>
      <trkpt lat="48.55491" lon="-2.76913">
        <ele>97.9</ele>
        <time>2022-09-09T07:13:50Z</time>
      </trkpt>
      <trkpt lat="48.55487" lon="-2.76926">
        <ele>98</ele>
        <time>2022-09-09T07:13:53Z</time>
      </trkpt>
      <trkpt lat="48.55483" lon="-2.76938">
        <ele>98</ele>
        <time>2022-09-09T07:13:56Z</time>
      </trkpt>
      <trkpt lat="48.55479" lon="-2.76955">
        <ele>98.4</ele>
        <time>2022-09-09T07:14:00Z</time>
      </trkpt>
      <trkpt lat="48.55474" lon="-2.76971">
        <ele>99</ele>
        <time>2022-09-09T07:14:04Z</time>
      </trkpt>
      <trkpt lat="48.55469" lon="-2.76983">
        <ele>99.5</ele>
        <time>2022-09-09T07:14:07Z</time>
      </trkpt>
      <trkpt lat="48.55463" lon="-2.76999">
        <ele>100</ele>
        <time>2022-09-09T07:14:11Z</time>
      </trkpt>
      <trkpt lat="48.55459" lon="-2.7701">
        <ele>100.2</ele>
        <time>2022-09-09T07:14:14Z</time>
      </trkpt>
      <trkpt lat="48.55454" lon="-2.77022">
        <ele>100.5</ele>
        <time>2022-09-09T07:14:17Z</time>
      </trkpt>
      <trkpt lat="48.55449" lon="-2.77034">
        <ele>101.1</ele>
        <time>2022-09-09T07:14:20Z</time>
      </trkpt>
      <trkpt lat="48.55444" lon="-2.77045">
        <ele>101.6</ele>
        <time>2022-09-09T07:14:23Z</time>
      </trkpt>
      <trkpt lat="48.55438" lon="-2.77057">
        <ele>102</ele>
        <time>2022-09-09T07:14:26Z</time>
      </trkpt>
      <trkpt lat="48.55433" lon="-2.77068">
        <ele>102.3</ele>
        <time>2022-09-09T07:14:29Z</time>
      </trkpt>
      <trkpt lat="48.55424" lon="-2.7708">
        <ele>102.2</ele>
        <time>2022-09-09T07:14:33Z</time>
      </trkpt>
      <trkpt lat="48.55417" lon="-2.7709">
        <ele>102.2</ele>
        <time>2022-09-09T07:14:36Z</time>
      </trkpt>
      <trkpt lat="48.55409" lon="-2.77102">
        <ele>102.7</ele>
        <time>2022-09-09T07:14:40Z</time>
      </trkpt>
      <trkpt lat="48.55402" lon="-2.77112">
        <ele>103</ele>
        <time>2022-09-09T07:14:43Z</time>
      </trkpt>
      <trkpt lat="48.55393" lon="-2.77124">
        <ele>103</ele>
        <time>2022-09-09T07:14:46Z</time>
      </trkpt>
      <trkpt lat="48.55384" lon="-2.7713">
        <ele>102.9</ele>
        <time>2022-09-09T07:14:49Z</time>
      </trkpt>
      <trkpt lat="48.55374" lon="-2.77138">
        <ele>103</ele>
        <time>2022-09-09T07:14:52Z</time>
      </trkpt>
      <trkpt lat="48.55363" lon="-2.77147">
        <ele>103.3</ele>
        <time>2022-09-09T07:14:55Z</time>
      </trkpt>
      <trkpt lat="48.55351" lon="-2.77157">
        <ele>103.6</ele>
        <time>2022-09-09T07:14:58Z</time>
      </trkpt>
      <trkpt lat="48.5534" lon="-2.77166">
        <ele>104</ele>
        <time>2022-09-09T07:15:01Z</time>
      </trkpt>
      <trkpt lat="48.55328" lon="-2.77173">
        <ele>104</ele>
        <time>2022-09-09T07:15:04Z</time>
      </trkpt>
      <trkpt lat="48.55316" lon="-2.77178">
        <ele>104</ele>
        <time>2022-09-09T07:15:07Z</time>
      </trkpt>
      <trkpt lat="48.55305" lon="-2.77183">
        <ele>104</ele>
        <time>2022-09-09T07:15:10Z</time>
      </trkpt>
      <trkpt lat="48.55294" lon="-2.77187">
        <ele>104.4</ele>
        <time>2022-09-09T07:15:13Z</time>
      </trkpt>
      <trkpt lat="48.55283" lon="-2.7719">
        <ele>104.8</ele>
        <time>2022-09-09T07:15:16Z</time>
      </trkpt>
      <trkpt lat="48.55272" lon="-2.77193">
        <ele>105</ele>
        <time>2022-09-09T07:15:19Z</time>
      </trkpt>
      <trkpt lat="48.5526" lon="-2.77197">
        <ele>105</ele>
        <time>2022-09-09T07:15:22Z</time>
      </trkpt>
      <trkpt lat="48.55248" lon="-2.772">
        <ele>104.9</ele>
        <time>2022-09-09T07:15:25Z</time>
      </trkpt>
      <trkpt lat="48.55235" lon="-2.77203">
        <ele>104.6</ele>
        <time>2022-09-09T07:15:28Z</time>
      </trkpt>
      <trkpt lat="48.55223" lon="-2.77207">
        <ele>104.5</ele>
        <time>2022-09-09T07:15:31Z</time>
      </trkpt>
      <trkpt lat="48.55211" lon="-2.77211">
        <ele>104.8</ele>
        <time>2022-09-09T07:15:34Z</time>
      </trkpt>
      <trkpt lat="48.55198" lon="-2.77217">
        <ele>105</ele>
        <time>2022-09-09T07:15:37Z</time>
      </trkpt>
      <trkpt lat="48.55189" lon="-2.77219">
        <ele>104.8</ele>
        <time>2022-09-09T07:15:39Z</time>
      </trkpt>
      <trkpt lat="48.5518" lon="-2.77221">
        <ele>104.5</ele>
        <time>2022-09-09T07:15:41Z</time>
      </trkpt>
      <trkpt lat="48.55171" lon="-2.77223">
        <ele>104.2</ele>
        <time>2022-09-09T07:15:43Z</time>
      </trkpt>
      <trkpt lat="48.5516" lon="-2.77225">
        <ele>103.9</ele>
        <time>2022-09-09T07:15:45Z</time>
      </trkpt>
      <trkpt lat="48.5515" lon="-2.77228">
        <ele>103.6</ele>
        <time>2022-09-09T07:15:47Z</time>
      </trkpt>
      <trkpt lat="48.55139" lon="-2.77229">
        <ele>103.2</ele>
        <time>2022-09-09T07:15:49Z</time>
      </trkpt>
      <trkpt lat="48.55127" lon="-2.77232">
        <ele>103</ele>
        <time>2022-09-09T07:15:51Z</time>
      </trkpt>
      <trkpt lat="48.55115" lon="-2.77236">
        <ele>102.6</ele>
        <time>2022-09-09T07:15:53Z</time>
      </trkpt>
      <trkpt lat="48.55104" lon="-2.77239">
        <ele>102.6</ele>
        <time>2022-09-09T07:15:55Z</time>
      </trkpt>
      <trkpt lat="48.55093" lon="-2.77244">
        <ele>102.8</ele>
        <time>2022-09-09T07:15:57Z</time>
      </trkpt>
      <trkpt lat="48.55081" lon="-2.77247">
        <ele>102.9</ele>
        <time>2022-09-09T07:15:59Z</time>
      </trkpt>
      <trkpt lat="48.55071" lon="-2.77248">
        <ele>103</ele>
        <time>2022-09-09T07:16:01Z</time>
      </trkpt>
      <trkpt lat="48.55061" lon="-2.77249">
        <ele>103</ele>
        <time>2022-09-09T07:16:03Z</time>
      </trkpt>
      <trkpt lat="48.55052" lon="-2.77251">
        <ele>103.2</ele>
        <time>2022-09-09T07:16:05Z</time>
      </trkpt>
      <trkpt lat="48.55042" lon="-2.77252">
        <ele>103.6</ele>
        <time>2022-09-09T07:16:07Z</time>
      </trkpt>
      <trkpt lat="48.55029" lon="-2.77257">
        <ele>104</ele>
        <time>2022-09-09T07:16:10Z</time>
      </trkpt>
      <trkpt lat="48.55016" lon="-2.77262">
        <ele>104.6</ele>
        <time>2022-09-09T07:16:13Z</time>
      </trkpt>
      <trkpt lat="48.55003" lon="-2.77266">
        <ele>105.4</ele>
        <time>2022-09-09T07:16:16Z</time>
      </trkpt>
      <trkpt lat="48.5499" lon="-2.77268">
        <ele>105.8</ele>
        <time>2022-09-09T07:16:19Z</time>
      </trkpt>
      <trkpt lat="48.54978" lon="-2.77273">
        <ele>106</ele>
        <time>2022-09-09T07:16:22Z</time>
      </trkpt>
      <trkpt lat="48.54967" lon="-2.77276">
        <ele>106.2</ele>
        <time>2022-09-09T07:16:25Z</time>
      </trkpt>
      <trkpt lat="48.54958" lon="-2.77279">
        <ele>106.5</ele>
        <time>2022-09-09T07:16:28Z</time>
      </trkpt>
      <trkpt lat="48.54948" lon="-2.77283">
        <ele>106.9</ele>
        <time>2022-09-09T07:16:31Z</time>
      </trkpt>
      <trkpt lat="48.54937" lon="-2.77286">
        <ele>107.1</ele>
        <time>2022-09-09T07:16:34Z</time>
      </trkpt>
      <trkpt lat="48.54928" lon="-2.77289">
        <ele>107.3</ele>
        <time>2022-09-09T07:16:37Z</time>
      </trkpt>
      <trkpt lat="48.54919" lon="-2.77292">
        <ele>107.5</ele>
        <time>2022-09-09T07:16:40Z</time>
      </trkpt>
      <trkpt lat="48.54909" lon="-2.77295">
        <ele>107.6</ele>
        <time>2022-09-09T07:16:44Z</time>
      </trkpt>
      <trkpt lat="48.54899" lon="-2.77297">
        <ele>107.7</ele>
        <time>2022-09-09T07:16:49Z</time>
      </trkpt>
      <trkpt lat="48.54908" lon="-2.77303">
        <ele>107.9</ele>
        <time>2022-09-09T07:17:12Z</time>
      </trkpt>
      <trkpt lat="48.54916" lon="-2.773">
        <ele>107.8</ele>
        <time>2022-09-09T07:17:20Z</time>
      </trkpt>
      <trkpt lat="48.54912" lon="-2.77316">
        <ele>108.3</ele>
        <time>2022-09-09T07:17:34Z</time>
      </trkpt>
      <trkpt lat="48.54905" lon="-2.77329">
        <ele>108.5</ele>
        <time>2022-09-09T07:17:38Z</time>
      </trkpt>
      <trkpt lat="48.54898" lon="-2.77341">
        <ele>108.6</ele>
        <time>2022-09-09T07:17:41Z</time>
      </trkpt>
      <trkpt lat="48.54893" lon="-2.77353">
        <ele>108.8</ele>
        <time>2022-09-09T07:17:44Z</time>
      </trkpt>
      <trkpt lat="48.54886" lon="-2.77368">
        <ele>109.3</ele>
        <time>2022-09-09T07:17:48Z</time>
      </trkpt>
      <trkpt lat="48.5488" lon="-2.7738">
        <ele>109.7</ele>
        <time>2022-09-09T07:17:51Z</time>
      </trkpt>
      <trkpt lat="48.54875" lon="-2.77392">
        <ele>110.1</ele>
        <time>2022-09-09T07:17:54Z</time>
      </trkpt>
      <trkpt lat="48.54869" lon="-2.77403">
        <ele>110.1</ele>
        <time>2022-09-09T07:17:57Z</time>
      </trkpt>
      <trkpt lat="48.54863" lon="-2.77414">
        <ele>110</ele>
        <time>2022-09-09T07:18:00Z</time>
      </trkpt>
      <trkpt lat="48.54857" lon="-2.77427">
        <ele>110.4</ele>
        <time>2022-09-09T07:18:03Z</time>
      </trkpt>
      <trkpt lat="48.54851" lon="-2.7744">
        <ele>110.6</ele>
        <time>2022-09-09T07:18:06Z</time>
      </trkpt>
      <trkpt lat="48.54845" lon="-2.77453">
        <ele>110.7</ele>
        <time>2022-09-09T07:18:09Z</time>
      </trkpt>
      <trkpt lat="48.54839" lon="-2.77466">
        <ele>111</ele>
        <time>2022-09-09T07:18:12Z</time>
      </trkpt>
      <trkpt lat="48.54833" lon="-2.7748">
        <ele>111.3</ele>
        <time>2022-09-09T07:18:15Z</time>
      </trkpt>
      <trkpt lat="48.54827" lon="-2.77493">
        <ele>111.8</ele>
        <time>2022-09-09T07:18:18Z</time>
      </trkpt>
      <trkpt lat="48.54822" lon="-2.77508">
        <ele>112</ele>
        <time>2022-09-09T07:18:21Z</time>
      </trkpt>
      <trkpt lat="48.54816" lon="-2.77522">
        <ele>112</ele>
        <time>2022-09-09T07:18:24Z</time>
      </trkpt>
      <trkpt lat="48.54811" lon="-2.77536">
        <ele>112</ele>
        <time>2022-09-09T07:18:27Z</time>
      </trkpt>
      <trkpt lat="48.54806" lon="-2.7755">
        <ele>112</ele>
        <time>2022-09-09T07:18:30Z</time>
      </trkpt>
      <trkpt lat="48.54799" lon="-2.77563">
        <ele>112.1</ele>
        <time>2022-09-09T07:18:33Z</time>
      </trkpt>
      <trkpt lat="48.54792" lon="-2.77576">
        <ele>112.4</ele>
        <time>2022-09-09T07:18:36Z</time>
      </trkpt>
      <trkpt lat="48.54785" lon="-2.77588">
        <ele>112.8</ele>
        <time>2022-09-09T07:18:39Z</time>
      </trkpt>
      <trkpt lat="48.54777" lon="-2.77599">
        <ele>113</ele>
        <time>2022-09-09T07:18:42Z</time>
      </trkpt>
      <trkpt lat="48.54769" lon="-2.77611">
        <ele>113</ele>
        <time>2022-09-09T07:18:45Z</time>
      </trkpt>
      <trkpt lat="48.54761" lon="-2.77622">
        <ele>113</ele>
        <time>2022-09-09T07:18:48Z</time>
      </trkpt>
      <trkpt lat="48.54753" lon="-2.77633">
        <ele>113</ele>
        <time>2022-09-09T07:18:51Z</time>
      </trkpt>
      <trkpt lat="48.54746" lon="-2.77644">
        <ele>113</ele>
        <time>2022-09-09T07:18:54Z</time>
      </trkpt>
      <trkpt lat="48.54739" lon="-2.77656">
        <ele>113</ele>
        <time>2022-09-09T07:18:57Z</time>
      </trkpt>
      <trkpt lat="48.54732" lon="-2.77669">
        <ele>113</ele>
        <time>2022-09-09T07:19:00Z</time>
      </trkpt>
      <trkpt lat="48.54725" lon="-2.77682">
        <ele>113.1</ele>
        <time>2022-09-09T07:19:03Z</time>
      </trkpt>
      <trkpt lat="48.54717" lon="-2.77696">
        <ele>113</ele>
        <time>2022-09-09T07:19:06Z</time>
      </trkpt>
      <trkpt lat="48.54709" lon="-2.7771">
        <ele>113.3</ele>
        <time>2022-09-09T07:19:09Z</time>
      </trkpt>
      <trkpt lat="48.54701" lon="-2.77724">
        <ele>113.3</ele>
        <time>2022-09-09T07:19:12Z</time>
      </trkpt>
      <trkpt lat="48.54694" lon="-2.77737">
        <ele>113.5</ele>
        <time>2022-09-09T07:19:15Z</time>
      </trkpt>
      <trkpt lat="48.54687" lon="-2.77749">
        <ele>113.7</ele>
        <time>2022-09-09T07:19:18Z</time>
      </trkpt>
      <trkpt lat="48.5468" lon="-2.77761">
        <ele>113.5</ele>
        <time>2022-09-09T07:19:21Z</time>
      </trkpt>
      <trkpt lat="48.54673" lon="-2.77775">
        <ele>113.2</ele>
        <time>2022-09-09T07:19:24Z</time>
      </trkpt>
      <trkpt lat="48.54671" lon="-2.77792">
        <ele>113.6</ele>
        <time>2022-09-09T07:19:27Z</time>
      </trkpt>
      <trkpt lat="48.54678" lon="-2.77804">
        <ele>114</ele>
        <time>2022-09-09T07:19:30Z</time>
      </trkpt>
      <trkpt lat="48.54687" lon="-2.77813">
        <ele>114</ele>
        <time>2022-09-09T07:19:33Z</time>
      </trkpt>
      <trkpt lat="48.54696" lon="-2.77821">
        <ele>114</ele>
        <time>2022-09-09T07:19:36Z</time>
      </trkpt>
      <trkpt lat="48.54706" lon="-2.7783">
        <ele>114</ele>
        <time>2022-09-09T07:19:39Z</time>
      </trkpt>
      <trkpt lat="48.54715" lon="-2.77839">
        <ele>114</ele>
        <time>2022-09-09T07:19:42Z</time>
      </trkpt>
      <trkpt lat="48.54725" lon="-2.77848">
        <ele>114.1</ele>
        <time>2022-09-09T07:19:45Z</time>
      </trkpt>
      <trkpt lat="48.54735" lon="-2.77858">
        <ele>114.4</ele>
        <time>2022-09-09T07:19:48Z</time>
      </trkpt>
      <trkpt lat="48.54744" lon="-2.77868">
        <ele>114.8</ele>
        <time>2022-09-09T07:19:51Z</time>
      </trkpt>
      <trkpt lat="48.54752" lon="-2.77879">
        <ele>115</ele>
        <time>2022-09-09T07:19:54Z</time>
      </trkpt>
      <trkpt lat="48.5476" lon="-2.7789">
        <ele>115</ele>
        <time>2022-09-09T07:19:57Z</time>
      </trkpt>
      <trkpt lat="48.54769" lon="-2.77901">
        <ele>115</ele>
        <time>2022-09-09T07:20:00Z</time>
      </trkpt>
      <trkpt lat="48.54778" lon="-2.77914">
        <ele>115</ele>
        <time>2022-09-09T07:20:03Z</time>
      </trkpt>
      <trkpt lat="48.54787" lon="-2.77927">
        <ele>114.9</ele>
        <time>2022-09-09T07:20:06Z</time>
      </trkpt>
      <trkpt lat="48.54795" lon="-2.7794">
        <ele>114.5</ele>
        <time>2022-09-09T07:20:09Z</time>
      </trkpt>
      <trkpt lat="48.54805" lon="-2.77953">
        <ele>114</ele>
        <time>2022-09-09T07:20:12Z</time>
      </trkpt>
      <trkpt lat="48.54814" lon="-2.77966">
        <ele>114</ele>
        <time>2022-09-09T07:20:15Z</time>
      </trkpt>
      <trkpt lat="48.5482" lon="-2.77983">
        <ele>114</ele>
        <time>2022-09-09T07:20:18Z</time>
      </trkpt>
      <trkpt lat="48.54815" lon="-2.78">
        <ele>114</ele>
        <time>2022-09-09T07:20:21Z</time>
      </trkpt>
      <trkpt lat="48.54806" lon="-2.78014">
        <ele>114</ele>
        <time>2022-09-09T07:20:24Z</time>
      </trkpt>
      <trkpt lat="48.54798" lon="-2.78029">
        <ele>114</ele>
        <time>2022-09-09T07:20:27Z</time>
      </trkpt>
      <trkpt lat="48.5479" lon="-2.78043">
        <ele>114</ele>
        <time>2022-09-09T07:20:30Z</time>
      </trkpt>
      <trkpt lat="48.54783" lon="-2.78058">
        <ele>114</ele>
        <time>2022-09-09T07:20:33Z</time>
      </trkpt>
      <trkpt lat="48.54777" lon="-2.78073">
        <ele>114</ele>
        <time>2022-09-09T07:20:36Z</time>
      </trkpt>
      <trkpt lat="48.5477" lon="-2.78088">
        <ele>114.2</ele>
        <time>2022-09-09T07:20:39Z</time>
      </trkpt>
      <trkpt lat="48.54764" lon="-2.78104">
        <ele>114.1</ele>
        <time>2022-09-09T07:20:42Z</time>
      </trkpt>
      <trkpt lat="48.54761" lon="-2.78122">
        <ele>114</ele>
        <time>2022-09-09T07:20:45Z</time>
      </trkpt>
      <trkpt lat="48.54761" lon="-2.7814">
        <ele>114</ele>
        <time>2022-09-09T07:20:48Z</time>
      </trkpt>
      <trkpt lat="48.54759" lon="-2.78158">
        <ele>114</ele>
        <time>2022-09-09T07:20:51Z</time>
      </trkpt>
      <trkpt lat="48.54754" lon="-2.78175">
        <ele>114.2</ele>
        <time>2022-09-09T07:20:54Z</time>
      </trkpt>
      <trkpt lat="48.54748" lon="-2.78191">
        <ele>114.9</ele>
        <time>2022-09-09T07:20:57Z</time>
      </trkpt>
      <trkpt lat="48.54744" lon="-2.78208">
        <ele>115</ele>
        <time>2022-09-09T07:21:00Z</time>
      </trkpt>
      <trkpt lat="48.54739" lon="-2.78226">
        <ele>115</ele>
        <time>2022-09-09T07:21:03Z</time>
      </trkpt>
      <trkpt lat="48.54735" lon="-2.78243">
        <ele>115</ele>
        <time>2022-09-09T07:21:06Z</time>
      </trkpt>
      <trkpt lat="48.5473" lon="-2.78259">
        <ele>115</ele>
        <time>2022-09-09T07:21:09Z</time>
      </trkpt>
      <trkpt lat="48.54724" lon="-2.78275">
        <ele>115</ele>
        <time>2022-09-09T07:21:12Z</time>
      </trkpt>
      <trkpt lat="48.54718" lon="-2.78292">
        <ele>115.1</ele>
        <time>2022-09-09T07:21:15Z</time>
      </trkpt>
      <trkpt lat="48.54714" lon="-2.7831">
        <ele>115.3</ele>
        <time>2022-09-09T07:21:18Z</time>
      </trkpt>
      <trkpt lat="48.5471" lon="-2.78328">
        <ele>115.4</ele>
        <time>2022-09-09T07:21:21Z</time>
      </trkpt>
      <trkpt lat="48.54707" lon="-2.78346">
        <ele>115.8</ele>
        <time>2022-09-09T07:21:24Z</time>
      </trkpt>
      <trkpt lat="48.54703" lon="-2.78363">
        <ele>116</ele>
        <time>2022-09-09T07:21:27Z</time>
      </trkpt>
      <trkpt lat="48.54701" lon="-2.78381">
        <ele>116</ele>
        <time>2022-09-09T07:21:30Z</time>
      </trkpt>
      <trkpt lat="48.54699" lon="-2.78397">
        <ele>116</ele>
        <time>2022-09-09T07:21:33Z</time>
      </trkpt>
      <trkpt lat="48.54698" lon="-2.78412">
        <ele>116</ele>
        <time>2022-09-09T07:21:36Z</time>
      </trkpt>
      <trkpt lat="48.54697" lon="-2.78426">
        <ele>116</ele>
        <time>2022-09-09T07:21:39Z</time>
      </trkpt>
      <trkpt lat="48.54698" lon="-2.78442">
        <ele>116</ele>
        <time>2022-09-09T07:21:42Z</time>
      </trkpt>
      <trkpt lat="48.54704" lon="-2.78457">
        <ele>116</ele>
        <time>2022-09-09T07:21:45Z</time>
      </trkpt>
      <trkpt lat="48.54712" lon="-2.7847">
        <ele>116</ele>
        <time>2022-09-09T07:21:48Z</time>
      </trkpt>
      <trkpt lat="48.54721" lon="-2.78483">
        <ele>116</ele>
        <time>2022-09-09T07:21:51Z</time>
      </trkpt>
      <trkpt lat="48.5473" lon="-2.78497">
        <ele>116</ele>
        <time>2022-09-09T07:21:54Z</time>
      </trkpt>
      <trkpt lat="48.54739" lon="-2.78511">
        <ele>116</ele>
        <time>2022-09-09T07:21:57Z</time>
      </trkpt>
      <trkpt lat="48.54748" lon="-2.78524">
        <ele>116</ele>
        <time>2022-09-09T07:22:00Z</time>
      </trkpt>
      <trkpt lat="48.54757" lon="-2.78537">
        <ele>116.5</ele>
        <time>2022-09-09T07:22:03Z</time>
      </trkpt>
      <trkpt lat="48.54765" lon="-2.7855">
        <ele>116.9</ele>
        <time>2022-09-09T07:22:06Z</time>
      </trkpt>
      <trkpt lat="48.54774" lon="-2.78563">
        <ele>117.2</ele>
        <time>2022-09-09T07:22:09Z</time>
      </trkpt>
      <trkpt lat="48.54783" lon="-2.78575">
        <ele>117.8</ele>
        <time>2022-09-09T07:22:12Z</time>
      </trkpt>
      <trkpt lat="48.54791" lon="-2.78588">
        <ele>118.1</ele>
        <time>2022-09-09T07:22:15Z</time>
      </trkpt>
      <trkpt lat="48.548" lon="-2.78599">
        <ele>118.5</ele>
        <time>2022-09-09T07:22:18Z</time>
      </trkpt>
      <trkpt lat="48.54808" lon="-2.78611">
        <ele>119</ele>
        <time>2022-09-09T07:22:21Z</time>
      </trkpt>
      <trkpt lat="48.54816" lon="-2.78623">
        <ele>119.2</ele>
        <time>2022-09-09T07:22:24Z</time>
      </trkpt>
      <trkpt lat="48.54824" lon="-2.78633">
        <ele>119.5</ele>
        <time>2022-09-09T07:22:27Z</time>
      </trkpt>
      <trkpt lat="48.54832" lon="-2.78644">
        <ele>119.9</ele>
        <time>2022-09-09T07:22:30Z</time>
      </trkpt>
      <trkpt lat="48.5484" lon="-2.78656">
        <ele>120.1</ele>
        <time>2022-09-09T07:22:33Z</time>
      </trkpt>
      <trkpt lat="48.54848" lon="-2.78668">
        <ele>120.5</ele>
        <time>2022-09-09T07:22:36Z</time>
      </trkpt>
      <trkpt lat="48.54856" lon="-2.78681">
        <ele>120.8</ele>
        <time>2022-09-09T07:22:39Z</time>
      </trkpt>
      <trkpt lat="48.54865" lon="-2.78694">
        <ele>121.1</ele>
        <time>2022-09-09T07:22:42Z</time>
      </trkpt>
      <trkpt lat="48.54873" lon="-2.78704">
        <ele>121.4</ele>
        <time>2022-09-09T07:22:45Z</time>
      </trkpt>
      <trkpt lat="48.54882" lon="-2.78715">
        <ele>121.7</ele>
        <time>2022-09-09T07:22:48Z</time>
      </trkpt>
      <trkpt lat="48.54889" lon="-2.78725">
        <ele>122</ele>
        <time>2022-09-09T07:22:51Z</time>
      </trkpt>
      <trkpt lat="48.54897" lon="-2.78738">
        <ele>122.3</ele>
        <time>2022-09-09T07:22:55Z</time>
      </trkpt>
      <trkpt lat="48.54904" lon="-2.78748">
        <ele>122.5</ele>
        <time>2022-09-09T07:22:58Z</time>
      </trkpt>
      <trkpt lat="48.54911" lon="-2.78758">
        <ele>122.8</ele>
        <time>2022-09-09T07:23:01Z</time>
      </trkpt>
      <trkpt lat="48.54919" lon="-2.78768">
        <ele>123.1</ele>
        <time>2022-09-09T07:23:04Z</time>
      </trkpt>
      <trkpt lat="48.54926" lon="-2.78777">
        <ele>123.3</ele>
        <time>2022-09-09T07:23:07Z</time>
      </trkpt>
      <trkpt lat="48.54933" lon="-2.78787">
        <ele>123.8</ele>
        <time>2022-09-09T07:23:10Z</time>
      </trkpt>
      <trkpt lat="48.54941" lon="-2.78797">
        <ele>124.5</ele>
        <time>2022-09-09T07:23:13Z</time>
      </trkpt>
      <trkpt lat="48.54948" lon="-2.78807">
        <ele>125</ele>
        <time>2022-09-09T07:23:16Z</time>
      </trkpt>
      <trkpt lat="48.54955" lon="-2.78816">
        <ele>125.2</ele>
        <time>2022-09-09T07:23:19Z</time>
      </trkpt>
      <trkpt lat="48.54962" lon="-2.78826">
        <ele>125.3</ele>
        <time>2022-09-09T07:23:22Z</time>
      </trkpt>
      <trkpt lat="48.54969" lon="-2.78835">
        <ele>125.2</ele>
        <time>2022-09-09T07:23:25Z</time>
      </trkpt>
      <trkpt lat="48.54977" lon="-2.78845">
        <ele>125.8</ele>
        <time>2022-09-09T07:23:28Z</time>
      </trkpt>
      <trkpt lat="48.54984" lon="-2.78855">
        <ele>126.3</ele>
        <time>2022-09-09T07:23:31Z</time>
      </trkpt>
      <trkpt lat="48.54991" lon="-2.78863">
        <ele>126.3</ele>
        <time>2022-09-09T07:23:34Z</time>
      </trkpt>
      <trkpt lat="48.54999" lon="-2.78872">
        <ele>126</ele>
        <time>2022-09-09T07:23:37Z</time>
      </trkpt>
      <trkpt lat="48.55007" lon="-2.78882">
        <ele>126.2</ele>
        <time>2022-09-09T07:23:40Z</time>
      </trkpt>
      <trkpt lat="48.55014" lon="-2.78892">
        <ele>126.5</ele>
        <time>2022-09-09T07:23:43Z</time>
      </trkpt>
      <trkpt lat="48.55022" lon="-2.78902">
        <ele>126.8</ele>
        <time>2022-09-09T07:23:46Z</time>
      </trkpt>
      <trkpt lat="48.5503" lon="-2.78912">
        <ele>127</ele>
        <time>2022-09-09T07:23:49Z</time>
      </trkpt>
      <trkpt lat="48.55038" lon="-2.78921">
        <ele>127</ele>
        <time>2022-09-09T07:23:52Z</time>
      </trkpt>
      <trkpt lat="48.55048" lon="-2.78931">
        <ele>127</ele>
        <time>2022-09-09T07:23:56Z</time>
      </trkpt>
      <trkpt lat="48.55056" lon="-2.78943">
        <ele>127</ele>
        <time>2022-09-09T07:24:00Z</time>
      </trkpt>
      <trkpt lat="48.55063" lon="-2.78952">
        <ele>127.3</ele>
        <time>2022-09-09T07:24:03Z</time>
      </trkpt>
      <trkpt lat="48.5507" lon="-2.78963">
        <ele>127.5</ele>
        <time>2022-09-09T07:24:06Z</time>
      </trkpt>
      <trkpt lat="48.55078" lon="-2.78971">
        <ele>127.8</ele>
        <time>2022-09-09T07:24:09Z</time>
      </trkpt>
      <trkpt lat="48.55087" lon="-2.78978">
        <ele>128</ele>
        <time>2022-09-09T07:24:12Z</time>
      </trkpt>
      <trkpt lat="48.55095" lon="-2.78988">
        <ele>128</ele>
        <time>2022-09-09T07:24:15Z</time>
      </trkpt>
      <trkpt lat="48.55102" lon="-2.78997">
        <ele>128</ele>
        <time>2022-09-09T07:24:18Z</time>
      </trkpt>
      <trkpt lat="48.55111" lon="-2.79009">
        <ele>128</ele>
        <time>2022-09-09T07:24:21Z</time>
      </trkpt>
      <trkpt lat="48.55119" lon="-2.79019">
        <ele>128</ele>
        <time>2022-09-09T07:24:24Z</time>
      </trkpt>
      <trkpt lat="48.55129" lon="-2.79029">
        <ele>128</ele>
        <time>2022-09-09T07:24:27Z</time>
      </trkpt>
      <trkpt lat="48.55139" lon="-2.79041">
        <ele>128</ele>
        <time>2022-09-09T07:24:30Z</time>
      </trkpt>
      <trkpt lat="48.55149" lon="-2.79052">
        <ele>128</ele>
        <time>2022-09-09T07:24:33Z</time>
      </trkpt>
      <trkpt lat="48.55157" lon="-2.79061">
        <ele>127.9</ele>
        <time>2022-09-09T07:24:36Z</time>
      </trkpt>
      <trkpt lat="48.55166" lon="-2.79074">
        <ele>127.3</ele>
        <time>2022-09-09T07:24:39Z</time>
      </trkpt>
      <trkpt lat="48.55174" lon="-2.79082">
        <ele>127.3</ele>
        <time>2022-09-09T07:24:41Z</time>
      </trkpt>
      <trkpt lat="48.55188" lon="-2.79093">
        <ele>127.6</ele>
        <time>2022-09-09T07:24:44Z</time>
      </trkpt>
      <trkpt lat="48.55198" lon="-2.79103">
        <ele>127.4</ele>
        <time>2022-09-09T07:24:47Z</time>
      </trkpt>
      <trkpt lat="48.55208" lon="-2.79113">
        <ele>127.5</ele>
        <time>2022-09-09T07:24:50Z</time>
      </trkpt>
      <trkpt lat="48.55218" lon="-2.79121">
        <ele>127.6</ele>
        <time>2022-09-09T07:24:53Z</time>
      </trkpt>
      <trkpt lat="48.55228" lon="-2.79132">
        <ele>127.3</ele>
        <time>2022-09-09T07:24:56Z</time>
      </trkpt>
      <trkpt lat="48.55237" lon="-2.7914">
        <ele>127</ele>
        <time>2022-09-09T07:24:59Z</time>
      </trkpt>
      <trkpt lat="48.55246" lon="-2.79151">
        <ele>126.6</ele>
        <time>2022-09-09T07:25:03Z</time>
      </trkpt>
      <trkpt lat="48.55254" lon="-2.79159">
        <ele>126.3</ele>
        <time>2022-09-09T07:25:05Z</time>
      </trkpt>
      <trkpt lat="48.55262" lon="-2.79168">
        <ele>126</ele>
        <time>2022-09-09T07:25:07Z</time>
      </trkpt>
      <trkpt lat="48.5527" lon="-2.79182">
        <ele>125.7</ele>
        <time>2022-09-09T07:25:10Z</time>
      </trkpt>
      <trkpt lat="48.55278" lon="-2.79196">
        <ele>125.1</ele>
        <time>2022-09-09T07:25:13Z</time>
      </trkpt>
      <trkpt lat="48.55286" lon="-2.79206">
        <ele>125.2</ele>
        <time>2022-09-09T07:25:15Z</time>
      </trkpt>
      <trkpt lat="48.55294" lon="-2.79216">
        <ele>124.9</ele>
        <time>2022-09-09T07:25:17Z</time>
      </trkpt>
      <trkpt lat="48.55307" lon="-2.79231">
        <ele>124</ele>
        <time>2022-09-09T07:25:19Z</time>
      </trkpt>
      <trkpt lat="48.55319" lon="-2.79242">
        <ele>123.3</ele>
        <time>2022-09-09T07:25:21Z</time>
      </trkpt>
      <trkpt lat="48.55328" lon="-2.79249">
        <ele>122.4</ele>
        <time>2022-09-09T07:25:23Z</time>
      </trkpt>
      <trkpt lat="48.55338" lon="-2.79261">
        <ele>122.3</ele>
        <time>2022-09-09T07:25:25Z</time>
      </trkpt>
      <trkpt lat="48.55347" lon="-2.79272">
        <ele>122</ele>
        <time>2022-09-09T07:25:27Z</time>
      </trkpt>
      <trkpt lat="48.55357" lon="-2.79282">
        <ele>121.3</ele>
        <time>2022-09-09T07:25:29Z</time>
      </trkpt>
      <trkpt lat="48.55367" lon="-2.79293">
        <ele>120.9</ele>
        <time>2022-09-09T07:25:31Z</time>
      </trkpt>
      <trkpt lat="48.55376" lon="-2.79306">
        <ele>120.5</ele>
        <time>2022-09-09T07:25:33Z</time>
      </trkpt>
      <trkpt lat="48.55386" lon="-2.79317">
        <ele>120.1</ele>
        <time>2022-09-09T07:25:35Z</time>
      </trkpt>
      <trkpt lat="48.55396" lon="-2.79328">
        <ele>119.5</ele>
        <time>2022-09-09T07:25:37Z</time>
      </trkpt>
      <trkpt lat="48.55407" lon="-2.79339">
        <ele>118.6</ele>
        <time>2022-09-09T07:25:39Z</time>
      </trkpt>
      <trkpt lat="48.55418" lon="-2.7935">
        <ele>118</ele>
        <time>2022-09-09T07:25:41Z</time>
      </trkpt>
      <trkpt lat="48.55429" lon="-2.79362">
        <ele>117.6</ele>
        <time>2022-09-09T07:25:43Z</time>
      </trkpt>
      <trkpt lat="48.55441" lon="-2.79373">
        <ele>117.1</ele>
        <time>2022-09-09T07:25:45Z</time>
      </trkpt>
      <trkpt lat="48.5545" lon="-2.79382">
        <ele>116.8</ele>
        <time>2022-09-09T07:25:47Z</time>
      </trkpt>
      <trkpt lat="48.55459" lon="-2.79393">
        <ele>116.4</ele>
        <time>2022-09-09T07:25:49Z</time>
      </trkpt>
      <trkpt lat="48.55467" lon="-2.79402">
        <ele>116.1</ele>
        <time>2022-09-09T07:25:51Z</time>
      </trkpt>
      <trkpt lat="48.55479" lon="-2.79404">
        <ele>115.5</ele>
        <time>2022-09-09T07:25:53Z</time>
      </trkpt>
      <trkpt lat="48.55491" lon="-2.79404">
        <ele>114.7</ele>
        <time>2022-09-09T07:25:56Z</time>
      </trkpt>
      <trkpt lat="48.555" lon="-2.79399">
        <ele>114</ele>
        <time>2022-09-09T07:25:58Z</time>
      </trkpt>
      <trkpt lat="48.55508" lon="-2.7939">
        <ele>113.7</ele>
        <time>2022-09-09T07:26:00Z</time>
      </trkpt>
      <trkpt lat="48.55516" lon="-2.79381">
        <ele>113.4</ele>
        <time>2022-09-09T07:26:02Z</time>
      </trkpt>
      <trkpt lat="48.55523" lon="-2.79371">
        <ele>113.2</ele>
        <time>2022-09-09T07:26:05Z</time>
      </trkpt>
      <trkpt lat="48.55533" lon="-2.79373">
        <ele>113</ele>
        <time>2022-09-09T07:26:09Z</time>
      </trkpt>
      <trkpt lat="48.55537" lon="-2.79387">
        <ele>113</ele>
        <time>2022-09-09T07:26:12Z</time>
      </trkpt>
      <trkpt lat="48.55541" lon="-2.794">
        <ele>113.2</ele>
        <time>2022-09-09T07:26:15Z</time>
      </trkpt>
      <trkpt lat="48.55545" lon="-2.79414">
        <ele>113.3</ele>
        <time>2022-09-09T07:26:18Z</time>
      </trkpt>
      <trkpt lat="48.5555" lon="-2.79427">
        <ele>113.5</ele>
        <time>2022-09-09T07:26:21Z</time>
      </trkpt>
      <trkpt lat="48.55556" lon="-2.7944">
        <ele>113.8</ele>
        <time>2022-09-09T07:26:24Z</time>
      </trkpt>
      <trkpt lat="48.55561" lon="-2.79454">
        <ele>114</ele>
        <time>2022-09-09T07:26:27Z</time>
      </trkpt>
      <trkpt lat="48.55564" lon="-2.7947">
        <ele>114</ele>
        <time>2022-09-09T07:26:30Z</time>
      </trkpt>
      <trkpt lat="48.55567" lon="-2.79487">
        <ele>114.3</ele>
        <time>2022-09-09T07:26:33Z</time>
      </trkpt>
      <trkpt lat="48.55568" lon="-2.79503">
        <ele>114.5</ele>
        <time>2022-09-09T07:26:36Z</time>
      </trkpt>
      <trkpt lat="48.55571" lon="-2.79521">
        <ele>114.1</ele>
        <time>2022-09-09T07:26:39Z</time>
      </trkpt>
      <trkpt lat="48.55575" lon="-2.79539">
        <ele>114</ele>
        <time>2022-09-09T07:26:42Z</time>
      </trkpt>
      <trkpt lat="48.55578" lon="-2.79552">
        <ele>114</ele>
        <time>2022-09-09T07:26:44Z</time>
      </trkpt>
      <trkpt lat="48.55579" lon="-2.79567">
        <ele>114</ele>
        <time>2022-09-09T07:26:46Z</time>
      </trkpt>
      <trkpt lat="48.55579" lon="-2.79586">
        <ele>114</ele>
        <time>2022-09-09T07:26:49Z</time>
      </trkpt>
      <trkpt lat="48.55578" lon="-2.79606">
        <ele>114</ele>
        <time>2022-09-09T07:26:52Z</time>
      </trkpt>
      <trkpt lat="48.55577" lon="-2.79626">
        <ele>113.5</ele>
        <time>2022-09-09T07:26:55Z</time>
      </trkpt>
      <trkpt lat="48.55576" lon="-2.7964">
        <ele>113</ele>
        <time>2022-09-09T07:26:57Z</time>
      </trkpt>
      <trkpt lat="48.55578" lon="-2.79655">
        <ele>112.9</ele>
        <time>2022-09-09T07:26:59Z</time>
      </trkpt>
      <trkpt lat="48.55584" lon="-2.7967">
        <ele>112.4</ele>
        <time>2022-09-09T07:27:02Z</time>
      </trkpt>
      <trkpt lat="48.55594" lon="-2.79674">
        <ele>111.5</ele>
        <time>2022-09-09T07:27:04Z</time>
      </trkpt>
      <trkpt lat="48.55603" lon="-2.79675">
        <ele>111.1</ele>
        <time>2022-09-09T07:27:06Z</time>
      </trkpt>
      <trkpt lat="48.55616" lon="-2.79669">
        <ele>112</ele>
        <time>2022-09-09T07:27:09Z</time>
      </trkpt>
      <trkpt lat="48.55627" lon="-2.79661">
        <ele>111.7</ele>
        <time>2022-09-09T07:27:12Z</time>
      </trkpt>
      <trkpt lat="48.55639" lon="-2.79654">
        <ele>111.3</ele>
        <time>2022-09-09T07:27:15Z</time>
      </trkpt>
      <trkpt lat="48.5565" lon="-2.79651">
        <ele>110.5</ele>
        <time>2022-09-09T07:27:17Z</time>
      </trkpt>
      <trkpt lat="48.55661" lon="-2.7965">
        <ele>109.6</ele>
        <time>2022-09-09T07:27:19Z</time>
      </trkpt>
      <trkpt lat="48.55672" lon="-2.79648">
        <ele>109</ele>
        <time>2022-09-09T07:27:21Z</time>
      </trkpt>
      <trkpt lat="48.55684" lon="-2.79645">
        <ele>108.6</ele>
        <time>2022-09-09T07:27:23Z</time>
      </trkpt>
      <trkpt lat="48.55697" lon="-2.79646">
        <ele>107.7</ele>
        <time>2022-09-09T07:27:25Z</time>
      </trkpt>
      <trkpt lat="48.5571" lon="-2.79645">
        <ele>107.5</ele>
        <time>2022-09-09T07:27:27Z</time>
      </trkpt>
      <trkpt lat="48.55724" lon="-2.79644">
        <ele>107.2</ele>
        <time>2022-09-09T07:27:29Z</time>
      </trkpt>
      <trkpt lat="48.55739" lon="-2.79642">
        <ele>106.8</ele>
        <time>2022-09-09T07:27:31Z</time>
      </trkpt>
      <trkpt lat="48.55756" lon="-2.79639">
        <ele>106.6</ele>
        <time>2022-09-09T07:27:33Z</time>
      </trkpt>
      <trkpt lat="48.55767" lon="-2.79639">
        <ele>105.7</ele>
        <time>2022-09-09T07:27:35Z</time>
      </trkpt>
      <trkpt lat="48.55774" lon="-2.79647">
        <ele>103.2</ele>
        <time>2022-09-09T07:27:37Z</time>
      </trkpt>
      <trkpt lat="48.55779" lon="-2.79663">
        <ele>98.5</ele>
        <time>2022-09-09T07:27:40Z</time>
      </trkpt>
      <trkpt lat="48.55784" lon="-2.79682">
        <ele>90.4</ele>
        <time>2022-09-09T07:27:43Z</time>
      </trkpt>
      <trkpt lat="48.55788" lon="-2.79694">
        <ele>84.5</ele>
        <time>2022-09-09T07:27:45Z</time>
      </trkpt>
      <trkpt lat="48.55794" lon="-2.79713">
        <ele>77.8</ele>
        <time>2022-09-09T07:27:48Z</time>
      </trkpt>
      <trkpt lat="48.55798" lon="-2.79731">
        <ele>75.1</ele>
        <time>2022-09-09T07:27:51Z</time>
      </trkpt>
      <trkpt lat="48.55802" lon="-2.79748">
        <ele>76.5</ele>
        <time>2022-09-09T07:27:54Z</time>
      </trkpt>
      <trkpt lat="48.55807" lon="-2.79765">
        <ele>83.3</ele>
        <time>2022-09-09T07:27:57Z</time>
      </trkpt>
      <trkpt lat="48.55811" lon="-2.79782">
        <ele>90.5</ele>
        <time>2022-09-09T07:28:00Z</time>
      </trkpt>
      <trkpt lat="48.55816" lon="-2.79799">
        <ele>97.8</ele>
        <time>2022-09-09T07:28:03Z</time>
      </trkpt>
      <trkpt lat="48.55821" lon="-2.79814">
        <ele>101.9</ele>
        <time>2022-09-09T07:28:06Z</time>
      </trkpt>
      <trkpt lat="48.55831" lon="-2.79822">
        <ele>103.4</ele>
        <time>2022-09-09T07:28:09Z</time>
      </trkpt>
      <trkpt lat="48.55842" lon="-2.79817">
        <ele>102.1</ele>
        <time>2022-09-09T07:28:11Z</time>
      </trkpt>
      <trkpt lat="48.55855" lon="-2.79816">
        <ele>101.3</ele>
        <time>2022-09-09T07:28:13Z</time>
      </trkpt>
      <trkpt lat="48.5587" lon="-2.79818">
        <ele>101.6</ele>
        <time>2022-09-09T07:28:15Z</time>
      </trkpt>
      <trkpt lat="48.55884" lon="-2.79813">
        <ele>101.5</ele>
        <time>2022-09-09T07:28:17Z</time>
      </trkpt>
      <trkpt lat="48.55897" lon="-2.79809">
        <ele>101.3</ele>
        <time>2022-09-09T07:28:19Z</time>
      </trkpt>
      <trkpt lat="48.5591" lon="-2.79807">
        <ele>101.1</ele>
        <time>2022-09-09T07:28:21Z</time>
      </trkpt>
      <trkpt lat="48.5592" lon="-2.79811">
        <ele>99.6</ele>
        <time>2022-09-09T07:28:23Z</time>
      </trkpt>
      <trkpt lat="48.55927" lon="-2.79826">
        <ele>96.9</ele>
        <time>2022-09-09T07:28:26Z</time>
      </trkpt>
      <trkpt lat="48.5593" lon="-2.79846">
        <ele>97.1</ele>
        <time>2022-09-09T07:28:29Z</time>
      </trkpt>
      <trkpt lat="48.55932" lon="-2.7986">
        <ele>97.2</ele>
        <time>2022-09-09T07:28:32Z</time>
      </trkpt>
      <trkpt lat="48.55936" lon="-2.79876">
        <ele>97.1</ele>
        <time>2022-09-09T07:28:35Z</time>
      </trkpt>
      <trkpt lat="48.55937" lon="-2.79889">
        <ele>97.7</ele>
        <time>2022-09-09T07:28:38Z</time>
      </trkpt>
      <trkpt lat="48.55936" lon="-2.79903">
        <ele>99.1</ele>
        <time>2022-09-09T07:28:41Z</time>
      </trkpt>
      <trkpt lat="48.55934" lon="-2.7992">
        <ele>100.9</ele>
        <time>2022-09-09T07:28:45Z</time>
      </trkpt>
      <trkpt lat="48.55935" lon="-2.79938">
        <ele>102.5</ele>
        <time>2022-09-09T07:28:49Z</time>
      </trkpt>
      <trkpt lat="48.55938" lon="-2.79952">
        <ele>103.7</ele>
        <time>2022-09-09T07:28:52Z</time>
      </trkpt>
      <trkpt lat="48.55941" lon="-2.7997">
        <ele>106</ele>
        <time>2022-09-09T07:28:55Z</time>
      </trkpt>
      <trkpt lat="48.55945" lon="-2.79989">
        <ele>105.1</ele>
        <time>2022-09-09T07:28:58Z</time>
      </trkpt>
      <trkpt lat="48.55949" lon="-2.80003">
        <ele>103.7</ele>
        <time>2022-09-09T07:29:00Z</time>
      </trkpt>
      <trkpt lat="48.55954" lon="-2.80019">
        <ele>102.3</ele>
        <time>2022-09-09T07:29:02Z</time>
      </trkpt>
      <trkpt lat="48.55963" lon="-2.80032">
        <ele>100.7</ele>
        <time>2022-09-09T07:29:04Z</time>
      </trkpt>
      <trkpt lat="48.55973" lon="-2.80047">
        <ele>98.9</ele>
        <time>2022-09-09T07:29:06Z</time>
      </trkpt>
      <trkpt lat="48.55987" lon="-2.80059">
        <ele>98.2</ele>
        <time>2022-09-09T07:29:08Z</time>
      </trkpt>
      <trkpt lat="48.56" lon="-2.80071">
        <ele>99.2</ele>
        <time>2022-09-09T07:29:10Z</time>
      </trkpt>
      <trkpt lat="48.56013" lon="-2.80084">
        <ele>101.5</ele>
        <time>2022-09-09T07:29:12Z</time>
      </trkpt>
      <trkpt lat="48.56025" lon="-2.80092">
        <ele>102.3</ele>
        <time>2022-09-09T07:29:14Z</time>
      </trkpt>
      <trkpt lat="48.56034" lon="-2.80098">
        <ele>102.3</ele>
        <time>2022-09-09T07:29:16Z</time>
      </trkpt>
      <trkpt lat="48.56043" lon="-2.80105">
        <ele>102.5</ele>
        <time>2022-09-09T07:29:18Z</time>
      </trkpt>
      <trkpt lat="48.5605" lon="-2.80114">
        <ele>103.2</ele>
        <time>2022-09-09T07:29:21Z</time>
      </trkpt>
      <trkpt lat="48.56048" lon="-2.80128">
        <ele>104.2</ele>
        <time>2022-09-09T07:29:26Z</time>
      </trkpt>
      <trkpt lat="48.56049" lon="-2.80143">
        <ele>105.2</ele>
        <time>2022-09-09T07:29:31Z</time>
      </trkpt>
      <trkpt lat="48.5605" lon="-2.80157">
        <ele>105.8</ele>
        <time>2022-09-09T07:29:36Z</time>
      </trkpt>
      <trkpt lat="48.56051" lon="-2.80172">
        <ele>106.6</ele>
        <time>2022-09-09T07:29:41Z</time>
      </trkpt>
      <trkpt lat="48.5605" lon="-2.80187">
        <ele>107.7</ele>
        <time>2022-09-09T07:29:46Z</time>
      </trkpt>
      <trkpt lat="48.56049" lon="-2.80201">
        <ele>108.5</ele>
        <time>2022-09-09T07:29:51Z</time>
      </trkpt>
      <trkpt lat="48.56049" lon="-2.80216">
        <ele>109</ele>
        <time>2022-09-09T07:29:56Z</time>
      </trkpt>
      <trkpt lat="48.56053" lon="-2.80232">
        <ele>109.5</ele>
        <time>2022-09-09T07:30:01Z</time>
      </trkpt>
      <trkpt lat="48.56054" lon="-2.80249">
        <ele>110</ele>
        <time>2022-09-09T07:30:06Z</time>
      </trkpt>
      <trkpt lat="48.56055" lon="-2.80264">
        <ele>110</ele>
        <time>2022-09-09T07:30:10Z</time>
      </trkpt>
      <trkpt lat="48.56059" lon="-2.80279">
        <ele>110.5</ele>
        <time>2022-09-09T07:30:15Z</time>
      </trkpt>
      <trkpt lat="48.56063" lon="-2.80293">
        <ele>111</ele>
        <time>2022-09-09T07:30:21Z</time>
      </trkpt>
      <trkpt lat="48.56068" lon="-2.80281">
        <ele>111.8</ele>
        <time>2022-09-09T07:32:44Z</time>
      </trkpt>
      <trkpt lat="48.56068" lon="-2.80266">
        <ele>111.6</ele>
        <time>2022-09-09T07:32:49Z</time>
      </trkpt>
      <trkpt lat="48.56074" lon="-2.80252">
        <ele>112</ele>
        <time>2022-09-09T07:32:53Z</time>
      </trkpt>
      <trkpt lat="48.56079" lon="-2.80237">
        <ele>112.1</ele>
        <time>2022-09-09T07:32:57Z</time>
      </trkpt>
      <trkpt lat="48.56086" lon="-2.80222">
        <ele>112.3</ele>
        <time>2022-09-09T07:33:01Z</time>
      </trkpt>
      <trkpt lat="48.56093" lon="-2.80212">
        <ele>113.1</ele>
        <time>2022-09-09T07:33:04Z</time>
      </trkpt>
      <trkpt lat="48.561" lon="-2.80203">
        <ele>113.6</ele>
        <time>2022-09-09T07:33:07Z</time>
      </trkpt>
      <trkpt lat="48.56108" lon="-2.80191">
        <ele>113.7</ele>
        <time>2022-09-09T07:33:11Z</time>
      </trkpt>
      <trkpt lat="48.56116" lon="-2.80179">
        <ele>113.8</ele>
        <time>2022-09-09T07:33:15Z</time>
      </trkpt>
      <trkpt lat="48.56125" lon="-2.80167">
        <ele>114</ele>
        <time>2022-09-09T07:33:19Z</time>
      </trkpt>
      <trkpt lat="48.56133" lon="-2.80157">
        <ele>114.3</ele>
        <time>2022-09-09T07:33:22Z</time>
      </trkpt>
      <trkpt lat="48.5614" lon="-2.80146">
        <ele>114.3</ele>
        <time>2022-09-09T07:33:25Z</time>
      </trkpt>
      <trkpt lat="48.56149" lon="-2.80133">
        <ele>114.3</ele>
        <time>2022-09-09T07:33:28Z</time>
      </trkpt>
      <trkpt lat="48.56155" lon="-2.80118">
        <ele>114.6</ele>
        <time>2022-09-09T07:33:31Z</time>
      </trkpt>
      <trkpt lat="48.56162" lon="-2.80102">
        <ele>114.5</ele>
        <time>2022-09-09T07:33:34Z</time>
      </trkpt>
      <trkpt lat="48.56169" lon="-2.80089">
        <ele>114.2</ele>
        <time>2022-09-09T07:33:37Z</time>
      </trkpt>
      <trkpt lat="48.56176" lon="-2.80076">
        <ele>114</ele>
        <time>2022-09-09T07:33:40Z</time>
      </trkpt>
      <trkpt lat="48.56184" lon="-2.80063">
        <ele>114</ele>
        <time>2022-09-09T07:33:43Z</time>
      </trkpt>
      <trkpt lat="48.56185" lon="-2.80042">
        <ele>113.5</ele>
        <time>2022-09-09T07:33:46Z</time>
      </trkpt>
      <trkpt lat="48.56184" lon="-2.80028">
        <ele>113</ele>
        <time>2022-09-09T07:33:48Z</time>
      </trkpt>
      <trkpt lat="48.56183" lon="-2.80012">
        <ele>112.7</ele>
        <time>2022-09-09T07:33:50Z</time>
      </trkpt>
      <trkpt lat="48.5618" lon="-2.79995">
        <ele>112.3</ele>
        <time>2022-09-09T07:33:52Z</time>
      </trkpt>
      <trkpt lat="48.56176" lon="-2.79982">
        <ele>112</ele>
        <time>2022-09-09T07:33:54Z</time>
      </trkpt>
      <trkpt lat="48.5617" lon="-2.79969">
        <ele>111.8</ele>
        <time>2022-09-09T07:33:56Z</time>
      </trkpt>
      <trkpt lat="48.56162" lon="-2.7996">
        <ele>111.6</ele>
        <time>2022-09-09T07:33:58Z</time>
      </trkpt>
      <trkpt lat="48.56153" lon="-2.79955">
        <ele>111.7</ele>
        <time>2022-09-09T07:34:00Z</time>
      </trkpt>
      <trkpt lat="48.56142" lon="-2.7995">
        <ele>111.9</ele>
        <time>2022-09-09T07:34:03Z</time>
      </trkpt>
      <trkpt lat="48.56131" lon="-2.79947">
        <ele>112</ele>
        <time>2022-09-09T07:34:06Z</time>
      </trkpt>
      <trkpt lat="48.56121" lon="-2.7994">
        <ele>111.9</ele>
        <time>2022-09-09T07:34:10Z</time>
      </trkpt>
      <trkpt lat="48.56115" lon="-2.79925">
        <ele>111.9</ele>
        <time>2022-09-09T07:34:13Z</time>
      </trkpt>
      <trkpt lat="48.56115" lon="-2.7991">
        <ele>111.6</ele>
        <time>2022-09-09T07:34:15Z</time>
      </trkpt>
      <trkpt lat="48.56115" lon="-2.79895">
        <ele>111.2</ele>
        <time>2022-09-09T07:34:17Z</time>
      </trkpt>
      <trkpt lat="48.56116" lon="-2.79879">
        <ele>110.7</ele>
        <time>2022-09-09T07:34:19Z</time>
      </trkpt>
      <trkpt lat="48.56117" lon="-2.79863">
        <ele>110.1</ele>
        <time>2022-09-09T07:34:21Z</time>
      </trkpt>
      <trkpt lat="48.5612" lon="-2.7985">
        <ele>109.6</ele>
        <time>2022-09-09T07:34:23Z</time>
      </trkpt>
      <trkpt lat="48.56125" lon="-2.79835">
        <ele>109</ele>
        <time>2022-09-09T07:34:25Z</time>
      </trkpt>
      <trkpt lat="48.56128" lon="-2.79819">
        <ele>109</ele>
        <time>2022-09-09T07:34:27Z</time>
      </trkpt>
      <trkpt lat="48.56131" lon="-2.79805">
        <ele>109</ele>
        <time>2022-09-09T07:34:29Z</time>
      </trkpt>
      <trkpt lat="48.56135" lon="-2.79786">
        <ele>109.6</ele>
        <time>2022-09-09T07:34:32Z</time>
      </trkpt>
      <trkpt lat="48.5614" lon="-2.79767">
        <ele>110</ele>
        <time>2022-09-09T07:34:35Z</time>
      </trkpt>
      <trkpt lat="48.56144" lon="-2.79749">
        <ele>110</ele>
        <time>2022-09-09T07:34:38Z</time>
      </trkpt>
      <trkpt lat="48.56148" lon="-2.79736">
        <ele>110.2</ele>
        <time>2022-09-09T07:34:40Z</time>
      </trkpt>
      <trkpt lat="48.56152" lon="-2.79722">
        <ele>110.5</ele>
        <time>2022-09-09T07:34:42Z</time>
      </trkpt>
      <trkpt lat="48.56155" lon="-2.79709">
        <ele>110.6</ele>
        <time>2022-09-09T07:34:44Z</time>
      </trkpt>
      <trkpt lat="48.56159" lon="-2.79689">
        <ele>110.5</ele>
        <time>2022-09-09T07:34:47Z</time>
      </trkpt>
      <trkpt lat="48.56162" lon="-2.79676">
        <ele>110.1</ele>
        <time>2022-09-09T07:34:49Z</time>
      </trkpt>
      <trkpt lat="48.56166" lon="-2.79662">
        <ele>109.7</ele>
        <time>2022-09-09T07:34:51Z</time>
      </trkpt>
      <trkpt lat="48.56169" lon="-2.79648">
        <ele>109.2</ele>
        <time>2022-09-09T07:34:53Z</time>
      </trkpt>
      <trkpt lat="48.56172" lon="-2.79634">
        <ele>108.4</ele>
        <time>2022-09-09T07:34:55Z</time>
      </trkpt>
      <trkpt lat="48.56178" lon="-2.79619">
        <ele>107</ele>
        <time>2022-09-09T07:34:57Z</time>
      </trkpt>
      <trkpt lat="48.56182" lon="-2.79599">
        <ele>105.1</ele>
        <time>2022-09-09T07:34:59Z</time>
      </trkpt>
      <trkpt lat="48.56188" lon="-2.79579">
        <ele>103.6</ele>
        <time>2022-09-09T07:35:01Z</time>
      </trkpt>
      <trkpt lat="48.56192" lon="-2.79555">
        <ele>102.4</ele>
        <time>2022-09-09T07:35:03Z</time>
      </trkpt>
      <trkpt lat="48.56195" lon="-2.79542">
        <ele>102.1</ele>
        <time>2022-09-09T07:35:04Z</time>
      </trkpt>
      <trkpt lat="48.56201" lon="-2.79517">
        <ele>99.9</ele>
        <time>2022-09-09T07:35:06Z</time>
      </trkpt>
      <trkpt lat="48.56204" lon="-2.79504">
        <ele>98.8</ele>
        <time>2022-09-09T07:35:07Z</time>
      </trkpt>
      <trkpt lat="48.56208" lon="-2.79491">
        <ele>98</ele>
        <time>2022-09-09T07:35:08Z</time>
      </trkpt>
      <trkpt lat="48.56212" lon="-2.79477">
        <ele>97.3</ele>
        <time>2022-09-09T07:35:09Z</time>
      </trkpt>
      <trkpt lat="48.56216" lon="-2.79462">
        <ele>96.9</ele>
        <time>2022-09-09T07:35:10Z</time>
      </trkpt>
      <trkpt lat="48.56219" lon="-2.79447">
        <ele>97.1</ele>
        <time>2022-09-09T07:35:11Z</time>
      </trkpt>
      <trkpt lat="48.56222" lon="-2.79433">
        <ele>97</ele>
        <time>2022-09-09T07:35:12Z</time>
      </trkpt>
      <trkpt lat="48.56226" lon="-2.79419">
        <ele>96.4</ele>
        <time>2022-09-09T07:35:13Z</time>
      </trkpt>
      <trkpt lat="48.56228" lon="-2.79404">
        <ele>94.9</ele>
        <time>2022-09-09T07:35:14Z</time>
      </trkpt>
      <trkpt lat="48.56232" lon="-2.7939">
        <ele>93.9</ele>
        <time>2022-09-09T07:35:15Z</time>
      </trkpt>
      <trkpt lat="48.56236" lon="-2.79377">
        <ele>93.5</ele>
        <time>2022-09-09T07:35:16Z</time>
      </trkpt>
      <trkpt lat="48.56238" lon="-2.79363">
        <ele>93.2</ele>
        <time>2022-09-09T07:35:17Z</time>
      </trkpt>
      <trkpt lat="48.56242" lon="-2.79349">
        <ele>93</ele>
        <time>2022-09-09T07:35:18Z</time>
      </trkpt>
      <trkpt lat="48.56245" lon="-2.79335">
        <ele>92.8</ele>
        <time>2022-09-09T07:35:19Z</time>
      </trkpt>
      <trkpt lat="48.56249" lon="-2.79321">
        <ele>93.1</ele>
        <time>2022-09-09T07:35:20Z</time>
      </trkpt>
      <trkpt lat="48.56251" lon="-2.79307">
        <ele>93.3</ele>
        <time>2022-09-09T07:35:21Z</time>
      </trkpt>
      <trkpt lat="48.56254" lon="-2.79294">
        <ele>93.3</ele>
        <time>2022-09-09T07:35:22Z</time>
      </trkpt>
      <trkpt lat="48.56261" lon="-2.7927">
        <ele>94</ele>
        <time>2022-09-09T07:35:24Z</time>
      </trkpt>
      <trkpt lat="48.56266" lon="-2.79251">
        <ele>94.8</ele>
        <time>2022-09-09T07:35:26Z</time>
      </trkpt>
      <trkpt lat="48.56271" lon="-2.79235">
        <ele>96.2</ele>
        <time>2022-09-09T07:35:28Z</time>
      </trkpt>
      <trkpt lat="48.56274" lon="-2.79221">
        <ele>97.3</ele>
        <time>2022-09-09T07:35:30Z</time>
      </trkpt>
      <trkpt lat="48.56278" lon="-2.79204">
        <ele>98.7</ele>
        <time>2022-09-09T07:35:33Z</time>
      </trkpt>
      <trkpt lat="48.56281" lon="-2.79189">
        <ele>99.2</ele>
        <time>2022-09-09T07:35:36Z</time>
      </trkpt>
      <trkpt lat="48.56286" lon="-2.79176">
        <ele>99.5</ele>
        <time>2022-09-09T07:35:39Z</time>
      </trkpt>
      <trkpt lat="48.5629" lon="-2.7916">
        <ele>99.3</ele>
        <time>2022-09-09T07:35:43Z</time>
      </trkpt>
      <trkpt lat="48.56295" lon="-2.79144">
        <ele>98.9</ele>
        <time>2022-09-09T07:35:46Z</time>
      </trkpt>
      <trkpt lat="48.56298" lon="-2.7913">
        <ele>98.3</ele>
        <time>2022-09-09T07:35:48Z</time>
      </trkpt>
      <trkpt lat="48.56303" lon="-2.79115">
        <ele>97.9</ele>
        <time>2022-09-09T07:35:50Z</time>
      </trkpt>
      <trkpt lat="48.56308" lon="-2.79095">
        <ele>95.8</ele>
        <time>2022-09-09T07:35:52Z</time>
      </trkpt>
      <trkpt lat="48.56316" lon="-2.79075">
        <ele>93.8</ele>
        <time>2022-09-09T07:35:54Z</time>
      </trkpt>
      <trkpt lat="48.56324" lon="-2.7905">
        <ele>92.1</ele>
        <time>2022-09-09T07:35:56Z</time>
      </trkpt>
      <trkpt lat="48.56326" lon="-2.79037">
        <ele>91.2</ele>
        <time>2022-09-09T07:35:57Z</time>
      </trkpt>
      <trkpt lat="48.56329" lon="-2.79024">
        <ele>90.6</ele>
        <time>2022-09-09T07:35:58Z</time>
      </trkpt>
      <trkpt lat="48.56332" lon="-2.7901">
        <ele>90.9</ele>
        <time>2022-09-09T07:35:59Z</time>
      </trkpt>
      <trkpt lat="48.56335" lon="-2.78997">
        <ele>90.9</ele>
        <time>2022-09-09T07:36:00Z</time>
      </trkpt>
      <trkpt lat="48.5634" lon="-2.78972">
        <ele>89.9</ele>
        <time>2022-09-09T07:36:02Z</time>
      </trkpt>
      <trkpt lat="48.56344" lon="-2.78947">
        <ele>90.1</ele>
        <time>2022-09-09T07:36:04Z</time>
      </trkpt>
      <trkpt lat="48.56351" lon="-2.78925">
        <ele>89.7</ele>
        <time>2022-09-09T07:36:06Z</time>
      </trkpt>
      <trkpt lat="48.56356" lon="-2.78903">
        <ele>89.7</ele>
        <time>2022-09-09T07:36:08Z</time>
      </trkpt>
      <trkpt lat="48.5636" lon="-2.7888">
        <ele>89.6</ele>
        <time>2022-09-09T07:36:10Z</time>
      </trkpt>
      <trkpt lat="48.56366" lon="-2.78863">
        <ele>88.5</ele>
        <time>2022-09-09T07:36:12Z</time>
      </trkpt>
      <trkpt lat="48.56375" lon="-2.78854">
        <ele>87.2</ele>
        <time>2022-09-09T07:36:14Z</time>
      </trkpt>
      <trkpt lat="48.56387" lon="-2.78858">
        <ele>85.9</ele>
        <time>2022-09-09T07:36:16Z</time>
      </trkpt>
      <trkpt lat="48.56392" lon="-2.78871">
        <ele>85.7</ele>
        <time>2022-09-09T07:36:18Z</time>
      </trkpt>
      <trkpt lat="48.56397" lon="-2.78887">
        <ele>85.5</ele>
        <time>2022-09-09T07:36:20Z</time>
      </trkpt>
      <trkpt lat="48.56401" lon="-2.78902">
        <ele>85.3</ele>
        <time>2022-09-09T07:36:22Z</time>
      </trkpt>
      <trkpt lat="48.56405" lon="-2.78919">
        <ele>85.6</ele>
        <time>2022-09-09T07:36:24Z</time>
      </trkpt>
      <trkpt lat="48.5641" lon="-2.78935">
        <ele>85.4</ele>
        <time>2022-09-09T07:36:26Z</time>
      </trkpt>
      <trkpt lat="48.56416" lon="-2.78949">
        <ele>85.2</ele>
        <time>2022-09-09T07:36:28Z</time>
      </trkpt>
      <trkpt lat="48.56419" lon="-2.78964">
        <ele>85.6</ele>
        <time>2022-09-09T07:36:30Z</time>
      </trkpt>
      <trkpt lat="48.56423" lon="-2.78983">
        <ele>86.8</ele>
        <time>2022-09-09T07:36:33Z</time>
      </trkpt>
      <trkpt lat="48.56425" lon="-2.78998">
        <ele>88.1</ele>
        <time>2022-09-09T07:36:36Z</time>
      </trkpt>
      <trkpt lat="48.56425" lon="-2.79015">
        <ele>88.4</ele>
        <time>2022-09-09T07:36:40Z</time>
      </trkpt>
      <trkpt lat="48.56424" lon="-2.7903">
        <ele>88.7</ele>
        <time>2022-09-09T07:36:44Z</time>
      </trkpt>
      <trkpt lat="48.56424" lon="-2.79046">
        <ele>89.1</ele>
        <time>2022-09-09T07:36:48Z</time>
      </trkpt>
      <trkpt lat="48.56425" lon="-2.79061">
        <ele>89.7</ele>
        <time>2022-09-09T07:36:52Z</time>
      </trkpt>
      <trkpt lat="48.56434" lon="-2.79062">
        <ele>91.2</ele>
        <time>2022-09-09T07:36:56Z</time>
      </trkpt>
      <trkpt lat="48.5644" lon="-2.79051">
        <ele>92.3</ele>
        <time>2022-09-09T07:37:01Z</time>
      </trkpt>
      <trkpt lat="48.56447" lon="-2.7904">
        <ele>93.3</ele>
        <time>2022-09-09T07:37:06Z</time>
      </trkpt>
      <trkpt lat="48.56448" lon="-2.79026">
        <ele>93.4</ele>
        <time>2022-09-09T07:37:10Z</time>
      </trkpt>
      <trkpt lat="48.56448" lon="-2.7901">
        <ele>93.3</ele>
        <time>2022-09-09T07:37:14Z</time>
      </trkpt>
      <trkpt lat="48.56447" lon="-2.78992">
        <ele>92.9</ele>
        <time>2022-09-09T07:37:18Z</time>
      </trkpt>
      <trkpt lat="48.56447" lon="-2.78976">
        <ele>92.3</ele>
        <time>2022-09-09T07:37:21Z</time>
      </trkpt>
      <trkpt lat="48.56447" lon="-2.78959">
        <ele>92.1</ele>
        <time>2022-09-09T07:37:24Z</time>
      </trkpt>
      <trkpt lat="48.56447" lon="-2.78945">
        <ele>92.1</ele>
        <time>2022-09-09T07:37:26Z</time>
      </trkpt>
      <trkpt lat="48.56447" lon="-2.78931">
        <ele>91.2</ele>
        <time>2022-09-09T07:37:28Z</time>
      </trkpt>
      <trkpt lat="48.56448" lon="-2.78915">
        <ele>90.2</ele>
        <time>2022-09-09T07:37:30Z</time>
      </trkpt>
      <trkpt lat="48.56449" lon="-2.78897">
        <ele>89</ele>
        <time>2022-09-09T07:37:32Z</time>
      </trkpt>
      <trkpt lat="48.5645" lon="-2.78878">
        <ele>87.9</ele>
        <time>2022-09-09T07:37:34Z</time>
      </trkpt>
      <trkpt lat="48.56452" lon="-2.78857">
        <ele>86.8</ele>
        <time>2022-09-09T07:37:36Z</time>
      </trkpt>
      <trkpt lat="48.56453" lon="-2.78836">
        <ele>85.7</ele>
        <time>2022-09-09T07:37:38Z</time>
      </trkpt>
      <trkpt lat="48.56454" lon="-2.78814">
        <ele>84.1</ele>
        <time>2022-09-09T07:37:40Z</time>
      </trkpt>
      <trkpt lat="48.56456" lon="-2.7879">
        <ele>83.3</ele>
        <time>2022-09-09T07:37:42Z</time>
      </trkpt>
      <trkpt lat="48.56457" lon="-2.78764">
        <ele>83</ele>
        <time>2022-09-09T07:37:44Z</time>
      </trkpt>
      <trkpt lat="48.56458" lon="-2.78738">
        <ele>82.8</ele>
        <time>2022-09-09T07:37:46Z</time>
      </trkpt>
      <trkpt lat="48.56462" lon="-2.78715">
        <ele>82.7</ele>
        <time>2022-09-09T07:37:48Z</time>
      </trkpt>
      <trkpt lat="48.56471" lon="-2.78694">
        <ele>82.8</ele>
        <time>2022-09-09T07:37:50Z</time>
      </trkpt>
      <trkpt lat="48.56483" lon="-2.78677">
        <ele>81.8</ele>
        <time>2022-09-09T07:37:52Z</time>
      </trkpt>
      <trkpt lat="48.56494" lon="-2.7866">
        <ele>81.2</ele>
        <time>2022-09-09T07:37:54Z</time>
      </trkpt>
      <trkpt lat="48.56504" lon="-2.78648">
        <ele>81.2</ele>
        <time>2022-09-09T07:37:56Z</time>
      </trkpt>
      <trkpt lat="48.56513" lon="-2.78634">
        <ele>80</ele>
        <time>2022-09-09T07:37:58Z</time>
      </trkpt>
      <trkpt lat="48.56521" lon="-2.78621">
        <ele>78.9</ele>
        <time>2022-09-09T07:38:00Z</time>
      </trkpt>
      <trkpt lat="48.56528" lon="-2.78608">
        <ele>78.5</ele>
        <time>2022-09-09T07:38:02Z</time>
      </trkpt>
      <trkpt lat="48.56535" lon="-2.78596">
        <ele>76.7</ele>
        <time>2022-09-09T07:38:04Z</time>
      </trkpt>
      <trkpt lat="48.56541" lon="-2.78583">
        <ele>74.8</ele>
        <time>2022-09-09T07:38:06Z</time>
      </trkpt>
      <trkpt lat="48.56551" lon="-2.78572">
        <ele>73.5</ele>
        <time>2022-09-09T07:38:08Z</time>
      </trkpt>
      <trkpt lat="48.56566" lon="-2.78571">
        <ele>74.4</ele>
        <time>2022-09-09T07:38:10Z</time>
      </trkpt>
      <trkpt lat="48.56574" lon="-2.7858">
        <ele>76.2</ele>
        <time>2022-09-09T07:38:13Z</time>
      </trkpt>
      <trkpt lat="48.56579" lon="-2.78593">
        <ele>78</ele>
        <time>2022-09-09T07:38:19Z</time>
      </trkpt>
      <trkpt lat="48.56586" lon="-2.78603">
        <ele>79.3</ele>
        <time>2022-09-09T07:38:25Z</time>
      </trkpt>
      <trkpt lat="48.56593" lon="-2.78612">
        <ele>80.5</ele>
        <time>2022-09-09T07:38:31Z</time>
      </trkpt>
      <trkpt lat="48.566" lon="-2.78624">
        <ele>81.7</ele>
        <time>2022-09-09T07:38:37Z</time>
      </trkpt>
      <trkpt lat="48.56608" lon="-2.78634">
        <ele>82.6</ele>
        <time>2022-09-09T07:38:43Z</time>
      </trkpt>
      <trkpt lat="48.56615" lon="-2.78644">
        <ele>83.6</ele>
        <time>2022-09-09T07:38:48Z</time>
      </trkpt>
      <trkpt lat="48.5662" lon="-2.78657">
        <ele>84.8</ele>
        <time>2022-09-09T07:38:53Z</time>
      </trkpt>
      <trkpt lat="48.56626" lon="-2.7867">
        <ele>85.7</ele>
        <time>2022-09-09T07:38:58Z</time>
      </trkpt>
      <trkpt lat="48.56634" lon="-2.78681">
        <ele>86.2</ele>
        <time>2022-09-09T07:39:03Z</time>
      </trkpt>
      <trkpt lat="48.5664" lon="-2.78693">
        <ele>86.8</ele>
        <time>2022-09-09T07:39:08Z</time>
      </trkpt>
      <trkpt lat="48.56647" lon="-2.78707">
        <ele>87</ele>
        <time>2022-09-09T07:39:13Z</time>
      </trkpt>
      <trkpt lat="48.56654" lon="-2.78717">
        <ele>87.2</ele>
        <time>2022-09-09T07:39:17Z</time>
      </trkpt>
      <trkpt lat="48.56662" lon="-2.78728">
        <ele>87.4</ele>
        <time>2022-09-09T07:39:21Z</time>
      </trkpt>
      <trkpt lat="48.5667" lon="-2.78741">
        <ele>87.5</ele>
        <time>2022-09-09T07:39:25Z</time>
      </trkpt>
      <trkpt lat="48.56678" lon="-2.78755">
        <ele>87.8</ele>
        <time>2022-09-09T07:39:29Z</time>
      </trkpt>
      <trkpt lat="48.56684" lon="-2.78766">
        <ele>87.9</ele>
        <time>2022-09-09T07:39:32Z</time>
      </trkpt>
      <trkpt lat="48.56691" lon="-2.78775">
        <ele>88</ele>
        <time>2022-09-09T07:39:35Z</time>
      </trkpt>
      <trkpt lat="48.56698" lon="-2.78784">
        <ele>88.1</ele>
        <time>2022-09-09T07:39:38Z</time>
      </trkpt>
      <trkpt lat="48.56705" lon="-2.78795">
        <ele>88</ele>
        <time>2022-09-09T07:39:41Z</time>
      </trkpt>
      <trkpt lat="48.56712" lon="-2.78807">
        <ele>87.8</ele>
        <time>2022-09-09T07:39:44Z</time>
      </trkpt>
      <trkpt lat="48.5672" lon="-2.7882">
        <ele>87.7</ele>
        <time>2022-09-09T07:39:47Z</time>
      </trkpt>
      <trkpt lat="48.56729" lon="-2.78834">
        <ele>87.5</ele>
        <time>2022-09-09T07:39:50Z</time>
      </trkpt>
      <trkpt lat="48.56738" lon="-2.78849">
        <ele>87.1</ele>
        <time>2022-09-09T07:39:53Z</time>
      </trkpt>
      <trkpt lat="48.56747" lon="-2.78863">
        <ele>86.3</ele>
        <time>2022-09-09T07:39:56Z</time>
      </trkpt>
      <trkpt lat="48.56755" lon="-2.78874">
        <ele>85.9</ele>
        <time>2022-09-09T07:39:58Z</time>
      </trkpt>
      <trkpt lat="48.56762" lon="-2.78884">
        <ele>85.6</ele>
        <time>2022-09-09T07:40:00Z</time>
      </trkpt>
      <trkpt lat="48.56769" lon="-2.78896">
        <ele>85.4</ele>
        <time>2022-09-09T07:40:02Z</time>
      </trkpt>
      <trkpt lat="48.56775" lon="-2.78907">
        <ele>85.6</ele>
        <time>2022-09-09T07:40:04Z</time>
      </trkpt>
      <trkpt lat="48.56782" lon="-2.78917">
        <ele>85.9</ele>
        <time>2022-09-09T07:40:06Z</time>
      </trkpt>
      <trkpt lat="48.56788" lon="-2.78927">
        <ele>86.2</ele>
        <time>2022-09-09T07:40:08Z</time>
      </trkpt>
      <trkpt lat="48.56796" lon="-2.7894">
        <ele>86.8</ele>
        <time>2022-09-09T07:40:11Z</time>
      </trkpt>
      <trkpt lat="48.56803" lon="-2.78951">
        <ele>87.3</ele>
        <time>2022-09-09T07:40:14Z</time>
      </trkpt>
      <trkpt lat="48.56809" lon="-2.78962">
        <ele>87.8</ele>
        <time>2022-09-09T07:40:17Z</time>
      </trkpt>
      <trkpt lat="48.56815" lon="-2.78974">
        <ele>88.8</ele>
        <time>2022-09-09T07:40:21Z</time>
      </trkpt>
      <trkpt lat="48.5682" lon="-2.78986">
        <ele>89.8</ele>
        <time>2022-09-09T07:40:25Z</time>
      </trkpt>
      <trkpt lat="48.56825" lon="-2.79001">
        <ele>90.7</ele>
        <time>2022-09-09T07:40:30Z</time>
      </trkpt>
      <trkpt lat="48.56828" lon="-2.79013">
        <ele>90.9</ele>
        <time>2022-09-09T07:40:34Z</time>
      </trkpt>
      <trkpt lat="48.56832" lon="-2.79026">
        <ele>91</ele>
        <time>2022-09-09T07:40:38Z</time>
      </trkpt>
      <trkpt lat="48.56837" lon="-2.79038">
        <ele>91.3</ele>
        <time>2022-09-09T07:40:42Z</time>
      </trkpt>
      <trkpt lat="48.56841" lon="-2.79053">
        <ele>91.6</ele>
        <time>2022-09-09T07:40:46Z</time>
      </trkpt>
      <trkpt lat="48.56845" lon="-2.7907">
        <ele>91.6</ele>
        <time>2022-09-09T07:40:50Z</time>
      </trkpt>
      <trkpt lat="48.56846" lon="-2.79085">
        <ele>91.5</ele>
        <time>2022-09-09T07:40:53Z</time>
      </trkpt>
      <trkpt lat="48.56848" lon="-2.79099">
        <ele>91.5</ele>
        <time>2022-09-09T07:40:56Z</time>
      </trkpt>
      <trkpt lat="48.5685" lon="-2.79113">
        <ele>91.4</ele>
        <time>2022-09-09T07:40:59Z</time>
      </trkpt>
      <trkpt lat="48.56851" lon="-2.79128">
        <ele>91.4</ele>
        <time>2022-09-09T07:41:02Z</time>
      </trkpt>
      <trkpt lat="48.56853" lon="-2.79143">
        <ele>91.3</ele>
        <time>2022-09-09T07:41:05Z</time>
      </trkpt>
      <trkpt lat="48.56855" lon="-2.79161">
        <ele>91.2</ele>
        <time>2022-09-09T07:41:08Z</time>
      </trkpt>
      <trkpt lat="48.56859" lon="-2.79175">
        <ele>91.1</ele>
        <time>2022-09-09T07:41:10Z</time>
      </trkpt>
      <trkpt lat="48.56863" lon="-2.79193">
        <ele>90.9</ele>
        <time>2022-09-09T07:41:13Z</time>
      </trkpt>
      <trkpt lat="48.56868" lon="-2.7921">
        <ele>91.3</ele>
        <time>2022-09-09T07:41:16Z</time>
      </trkpt>
      <trkpt lat="48.56872" lon="-2.79229">
        <ele>91.8</ele>
        <time>2022-09-09T07:41:19Z</time>
      </trkpt>
      <trkpt lat="48.56877" lon="-2.79246">
        <ele>91.8</ele>
        <time>2022-09-09T07:41:22Z</time>
      </trkpt>
      <trkpt lat="48.56884" lon="-2.79261">
        <ele>91.4</ele>
        <time>2022-09-09T07:41:25Z</time>
      </trkpt>
      <trkpt lat="48.56891" lon="-2.79273">
        <ele>91</ele>
        <time>2022-09-09T07:41:28Z</time>
      </trkpt>
      <trkpt lat="48.56897" lon="-2.79285">
        <ele>91.6</ele>
        <time>2022-09-09T07:41:46Z</time>
      </trkpt>
      <trkpt lat="48.56892" lon="-2.79297">
        <ele>91.8</ele>
        <time>2022-09-09T07:41:52Z</time>
      </trkpt>
      <trkpt lat="48.56892" lon="-2.79314">
        <ele>92.4</ele>
        <time>2022-09-09T07:41:56Z</time>
      </trkpt>
      <trkpt lat="48.56898" lon="-2.79327">
        <ele>92.8</ele>
        <time>2022-09-09T07:41:59Z</time>
      </trkpt>
      <trkpt lat="48.56902" lon="-2.7934">
        <ele>93.4</ele>
        <time>2022-09-09T07:42:02Z</time>
      </trkpt>
      <trkpt lat="48.56906" lon="-2.79355">
        <ele>94.1</ele>
        <time>2022-09-09T07:42:06Z</time>
      </trkpt>
      <trkpt lat="48.56911" lon="-2.7937">
        <ele>94.4</ele>
        <time>2022-09-09T07:42:10Z</time>
      </trkpt>
      <trkpt lat="48.56915" lon="-2.79383">
        <ele>94.8</ele>
        <time>2022-09-09T07:42:14Z</time>
      </trkpt>
      <trkpt lat="48.5692" lon="-2.79395">
        <ele>95.2</ele>
        <time>2022-09-09T07:42:19Z</time>
      </trkpt>
      <trkpt lat="48.56926" lon="-2.79408">
        <ele>95.5</ele>
        <time>2022-09-09T07:42:41Z</time>
      </trkpt>
      <trkpt lat="48.5693" lon="-2.79422">
        <ele>95.3</ele>
        <time>2022-09-09T07:42:44Z</time>
      </trkpt>
      <trkpt lat="48.56936" lon="-2.79438">
        <ele>94.5</ele>
        <time>2022-09-09T07:42:47Z</time>
      </trkpt>
      <trkpt lat="48.56943" lon="-2.79455">
        <ele>94.1</ele>
        <time>2022-09-09T07:42:50Z</time>
      </trkpt>
      <trkpt lat="48.56948" lon="-2.79467">
        <ele>94</ele>
        <time>2022-09-09T07:42:52Z</time>
      </trkpt>
      <trkpt lat="48.56953" lon="-2.79485">
        <ele>93.7</ele>
        <time>2022-09-09T07:42:55Z</time>
      </trkpt>
      <trkpt lat="48.56956" lon="-2.79499">
        <ele>93.4</ele>
        <time>2022-09-09T07:42:57Z</time>
      </trkpt>
      <trkpt lat="48.5696" lon="-2.79511">
        <ele>93.9</ele>
        <time>2022-09-09T07:42:59Z</time>
      </trkpt>
      <trkpt lat="48.56962" lon="-2.79531">
        <ele>94.4</ele>
        <time>2022-09-09T07:43:02Z</time>
      </trkpt>
      <trkpt lat="48.56963" lon="-2.79549">
        <ele>94.6</ele>
        <time>2022-09-09T07:43:05Z</time>
      </trkpt>
      <trkpt lat="48.56965" lon="-2.79567">
        <ele>94.8</ele>
        <time>2022-09-09T07:43:08Z</time>
      </trkpt>
      <trkpt lat="48.56967" lon="-2.79582">
        <ele>95.2</ele>
        <time>2022-09-09T07:43:11Z</time>
      </trkpt>
      <trkpt lat="48.56969" lon="-2.79596">
        <ele>95.5</ele>
        <time>2022-09-09T07:43:14Z</time>
      </trkpt>
      <trkpt lat="48.56972" lon="-2.79609">
        <ele>95.9</ele>
        <time>2022-09-09T07:43:17Z</time>
      </trkpt>
      <trkpt lat="48.56975" lon="-2.79623">
        <ele>96.4</ele>
        <time>2022-09-09T07:43:20Z</time>
      </trkpt>
      <trkpt lat="48.56978" lon="-2.79638">
        <ele>96.7</ele>
        <time>2022-09-09T07:43:23Z</time>
      </trkpt>
      <trkpt lat="48.56983" lon="-2.79651">
        <ele>96.8</ele>
        <time>2022-09-09T07:43:26Z</time>
      </trkpt>
      <trkpt lat="48.56988" lon="-2.79665">
        <ele>97</ele>
        <time>2022-09-09T07:43:29Z</time>
      </trkpt>
      <trkpt lat="48.56994" lon="-2.79679">
        <ele>97.3</ele>
        <time>2022-09-09T07:43:32Z</time>
      </trkpt>
      <trkpt lat="48.57" lon="-2.79692">
        <ele>97.9</ele>
        <time>2022-09-09T07:43:35Z</time>
      </trkpt>
      <trkpt lat="48.57005" lon="-2.79706">
        <ele>97.8</ele>
        <time>2022-09-09T07:43:38Z</time>
      </trkpt>
      <trkpt lat="48.57011" lon="-2.79721">
        <ele>97.6</ele>
        <time>2022-09-09T07:43:41Z</time>
      </trkpt>
      <trkpt lat="48.57017" lon="-2.79735">
        <ele>97.9</ele>
        <time>2022-09-09T07:43:44Z</time>
      </trkpt>
      <trkpt lat="48.57023" lon="-2.7975">
        <ele>98.1</ele>
        <time>2022-09-09T07:43:47Z</time>
      </trkpt>
      <trkpt lat="48.57029" lon="-2.79764">
        <ele>98.4</ele>
        <time>2022-09-09T07:43:50Z</time>
      </trkpt>
      <trkpt lat="48.57035" lon="-2.79778">
        <ele>98.7</ele>
        <time>2022-09-09T07:43:53Z</time>
      </trkpt>
      <trkpt lat="48.57041" lon="-2.79792">
        <ele>98.8</ele>
        <time>2022-09-09T07:43:56Z</time>
      </trkpt>
      <trkpt lat="48.57046" lon="-2.79805">
        <ele>99</ele>
        <time>2022-09-09T07:43:59Z</time>
      </trkpt>
      <trkpt lat="48.57052" lon="-2.79819">
        <ele>99</ele>
        <time>2022-09-09T07:44:02Z</time>
      </trkpt>
      <trkpt lat="48.57057" lon="-2.79834">
        <ele>98.9</ele>
        <time>2022-09-09T07:44:05Z</time>
      </trkpt>
      <trkpt lat="48.57062" lon="-2.79847">
        <ele>98.8</ele>
        <time>2022-09-09T07:44:08Z</time>
      </trkpt>
      <trkpt lat="48.57067" lon="-2.79862">
        <ele>98.6</ele>
        <time>2022-09-09T07:44:11Z</time>
      </trkpt>
      <trkpt lat="48.57073" lon="-2.79879">
        <ele>98.4</ele>
        <time>2022-09-09T07:44:14Z</time>
      </trkpt>
      <trkpt lat="48.57078" lon="-2.79891">
        <ele>98.2</ele>
        <time>2022-09-09T07:44:16Z</time>
      </trkpt>
      <trkpt lat="48.57083" lon="-2.79903">
        <ele>98</ele>
        <time>2022-09-09T07:44:18Z</time>
      </trkpt>
      <trkpt lat="48.57087" lon="-2.79916">
        <ele>97.9</ele>
        <time>2022-09-09T07:44:20Z</time>
      </trkpt>
      <trkpt lat="48.57093" lon="-2.79928">
        <ele>97.2</ele>
        <time>2022-09-09T07:44:22Z</time>
      </trkpt>
      <trkpt lat="48.57098" lon="-2.79941">
        <ele>96.6</ele>
        <time>2022-09-09T07:44:24Z</time>
      </trkpt>
      <trkpt lat="48.57104" lon="-2.79955">
        <ele>95.9</ele>
        <time>2022-09-09T07:44:26Z</time>
      </trkpt>
      <trkpt lat="48.57109" lon="-2.79971">
        <ele>95.1</ele>
        <time>2022-09-09T07:44:28Z</time>
      </trkpt>
      <trkpt lat="48.57114" lon="-2.7999">
        <ele>94.3</ele>
        <time>2022-09-09T07:44:30Z</time>
      </trkpt>
      <trkpt lat="48.57118" lon="-2.80011">
        <ele>93</ele>
        <time>2022-09-09T07:44:32Z</time>
      </trkpt>
      <trkpt lat="48.57121" lon="-2.80034">
        <ele>91.3</ele>
        <time>2022-09-09T07:44:34Z</time>
      </trkpt>
      <trkpt lat="48.57125" lon="-2.80058">
        <ele>89.8</ele>
        <time>2022-09-09T07:44:36Z</time>
      </trkpt>
      <trkpt lat="48.57127" lon="-2.80071">
        <ele>88.9</ele>
        <time>2022-09-09T07:44:37Z</time>
      </trkpt>
      <trkpt lat="48.5713" lon="-2.80085">
        <ele>87.9</ele>
        <time>2022-09-09T07:44:38Z</time>
      </trkpt>
      <trkpt lat="48.57131" lon="-2.80099">
        <ele>87</ele>
        <time>2022-09-09T07:44:39Z</time>
      </trkpt>
      <trkpt lat="48.57133" lon="-2.80113">
        <ele>86.2</ele>
        <time>2022-09-09T07:44:40Z</time>
      </trkpt>
      <trkpt lat="48.57135" lon="-2.80126">
        <ele>86.1</ele>
        <time>2022-09-09T07:44:41Z</time>
      </trkpt>
      <trkpt lat="48.57138" lon="-2.8014">
        <ele>86</ele>
        <time>2022-09-09T07:44:42Z</time>
      </trkpt>
      <trkpt lat="48.57143" lon="-2.80164">
        <ele>85.1</ele>
        <time>2022-09-09T07:44:44Z</time>
      </trkpt>
      <trkpt lat="48.5715" lon="-2.80183">
        <ele>84.8</ele>
        <time>2022-09-09T07:44:46Z</time>
      </trkpt>
      <trkpt lat="48.57161" lon="-2.80199">
        <ele>84.2</ele>
        <time>2022-09-09T07:44:48Z</time>
      </trkpt>
      <trkpt lat="48.57173" lon="-2.80213">
        <ele>83.6</ele>
        <time>2022-09-09T07:44:50Z</time>
      </trkpt>
      <trkpt lat="48.57184" lon="-2.80225">
        <ele>82.7</ele>
        <time>2022-09-09T07:44:52Z</time>
      </trkpt>
      <trkpt lat="48.57194" lon="-2.80236">
        <ele>81.5</ele>
        <time>2022-09-09T07:44:54Z</time>
      </trkpt>
      <trkpt lat="48.57204" lon="-2.80247">
        <ele>81.1</ele>
        <time>2022-09-09T07:44:57Z</time>
      </trkpt>
      <trkpt lat="48.57211" lon="-2.80238">
        <ele>81.2</ele>
        <time>2022-09-09T07:45:49Z</time>
      </trkpt>
      <trkpt lat="48.57217" lon="-2.80224">
        <ele>81.2</ele>
        <time>2022-09-09T07:45:53Z</time>
      </trkpt>
      <trkpt lat="48.57221" lon="-2.8021">
        <ele>81.5</ele>
        <time>2022-09-09T07:45:56Z</time>
      </trkpt>
      <trkpt lat="48.57224" lon="-2.80196">
        <ele>82</ele>
        <time>2022-09-09T07:45:59Z</time>
      </trkpt>
      <trkpt lat="48.57228" lon="-2.80181">
        <ele>82.5</ele>
        <time>2022-09-09T07:46:02Z</time>
      </trkpt>
      <trkpt lat="48.57231" lon="-2.80166">
        <ele>83</ele>
        <time>2022-09-09T07:46:05Z</time>
      </trkpt>
      <trkpt lat="48.57232" lon="-2.80149">
        <ele>83.8</ele>
        <time>2022-09-09T07:46:08Z</time>
      </trkpt>
      <trkpt lat="48.57235" lon="-2.80134">
        <ele>84</ele>
        <time>2022-09-09T07:46:11Z</time>
      </trkpt>
      <trkpt lat="48.57238" lon="-2.80118">
        <ele>83.6</ele>
        <time>2022-09-09T07:46:14Z</time>
      </trkpt>
      <trkpt lat="48.5724" lon="-2.80101">
        <ele>83.7</ele>
        <time>2022-09-09T07:46:17Z</time>
      </trkpt>
      <trkpt lat="48.57243" lon="-2.80085">
        <ele>84.2</ele>
        <time>2022-09-09T07:46:20Z</time>
      </trkpt>
      <trkpt lat="48.57246" lon="-2.8007">
        <ele>84.7</ele>
        <time>2022-09-09T07:46:23Z</time>
      </trkpt>
      <trkpt lat="48.57249" lon="-2.80056">
        <ele>85</ele>
        <time>2022-09-09T07:46:26Z</time>
      </trkpt>
      <trkpt lat="48.57252" lon="-2.80042">
        <ele>85.9</ele>
        <time>2022-09-09T07:46:29Z</time>
      </trkpt>
      <trkpt lat="48.57255" lon="-2.80029">
        <ele>86.6</ele>
        <time>2022-09-09T07:46:32Z</time>
      </trkpt>
      <trkpt lat="48.57259" lon="-2.80013">
        <ele>87.6</ele>
        <time>2022-09-09T07:46:36Z</time>
      </trkpt>
      <trkpt lat="48.57262" lon="-2.79995">
        <ele>88.6</ele>
        <time>2022-09-09T07:46:40Z</time>
      </trkpt>
      <trkpt lat="48.57265" lon="-2.79982">
        <ele>88.5</ele>
        <time>2022-09-09T07:46:43Z</time>
      </trkpt>
      <trkpt lat="48.57268" lon="-2.79965">
        <ele>88.8</ele>
        <time>2022-09-09T07:46:47Z</time>
      </trkpt>
      <trkpt lat="48.5727" lon="-2.79948">
        <ele>89.7</ele>
        <time>2022-09-09T07:46:51Z</time>
      </trkpt>
      <trkpt lat="48.57272" lon="-2.79934">
        <ele>89.9</ele>
        <time>2022-09-09T07:46:54Z</time>
      </trkpt>
      <trkpt lat="48.57274" lon="-2.7992">
        <ele>90.2</ele>
        <time>2022-09-09T07:46:57Z</time>
      </trkpt>
      <trkpt lat="48.57277" lon="-2.79903">
        <ele>90.6</ele>
        <time>2022-09-09T07:47:01Z</time>
      </trkpt>
      <trkpt lat="48.57279" lon="-2.79886">
        <ele>91.1</ele>
        <time>2022-09-09T07:47:05Z</time>
      </trkpt>
      <trkpt lat="48.57281" lon="-2.79869">
        <ele>91.8</ele>
        <time>2022-09-09T07:47:09Z</time>
      </trkpt>
      <trkpt lat="48.57283" lon="-2.79855">
        <ele>92</ele>
        <time>2022-09-09T07:47:12Z</time>
      </trkpt>
      <trkpt lat="48.57285" lon="-2.79838">
        <ele>92.2</ele>
        <time>2022-09-09T07:47:16Z</time>
      </trkpt>
      <trkpt lat="48.57287" lon="-2.7982">
        <ele>92.8</ele>
        <time>2022-09-09T07:47:20Z</time>
      </trkpt>
      <trkpt lat="48.57288" lon="-2.79802">
        <ele>93.4</ele>
        <time>2022-09-09T07:47:24Z</time>
      </trkpt>
      <trkpt lat="48.57289" lon="-2.79788">
        <ele>93.4</ele>
        <time>2022-09-09T07:47:27Z</time>
      </trkpt>
      <trkpt lat="48.5729" lon="-2.79772">
        <ele>93.4</ele>
        <time>2022-09-09T07:47:30Z</time>
      </trkpt>
      <trkpt lat="48.57292" lon="-2.79753">
        <ele>93.5</ele>
        <time>2022-09-09T07:47:33Z</time>
      </trkpt>
      <trkpt lat="48.57293" lon="-2.79733">
        <ele>93.3</ele>
        <time>2022-09-09T07:47:36Z</time>
      </trkpt>
      <trkpt lat="48.57295" lon="-2.79714">
        <ele>93.1</ele>
        <time>2022-09-09T07:47:39Z</time>
      </trkpt>
      <trkpt lat="48.57302" lon="-2.797">
        <ele>93</ele>
        <time>2022-09-09T07:47:42Z</time>
      </trkpt>
      <trkpt lat="48.57314" lon="-2.79696">
        <ele>93.4</ele>
        <time>2022-09-09T07:47:45Z</time>
      </trkpt>
      <trkpt lat="48.57325" lon="-2.79699">
        <ele>93.9</ele>
        <time>2022-09-09T07:47:48Z</time>
      </trkpt>
      <trkpt lat="48.57335" lon="-2.79702">
        <ele>94.2</ele>
        <time>2022-09-09T07:47:51Z</time>
      </trkpt>
      <trkpt lat="48.57346" lon="-2.79703">
        <ele>94.2</ele>
        <time>2022-09-09T07:47:54Z</time>
      </trkpt>
      <trkpt lat="48.57359" lon="-2.79704">
        <ele>94</ele>
        <time>2022-09-09T07:47:57Z</time>
      </trkpt>
      <trkpt lat="48.57372" lon="-2.79705">
        <ele>93.5</ele>
        <time>2022-09-09T07:48:00Z</time>
      </trkpt>
      <trkpt lat="48.57386" lon="-2.79707">
        <ele>92.7</ele>
        <time>2022-09-09T07:48:03Z</time>
      </trkpt>
      <trkpt lat="48.57396" lon="-2.79712">
        <ele>92.3</ele>
        <time>2022-09-09T07:48:05Z</time>
      </trkpt>
      <trkpt lat="48.57407" lon="-2.79718">
        <ele>92</ele>
        <time>2022-09-09T07:48:07Z</time>
      </trkpt>
      <trkpt lat="48.57417" lon="-2.79726">
        <ele>91.9</ele>
        <time>2022-09-09T07:48:09Z</time>
      </trkpt>
      <trkpt lat="48.57427" lon="-2.79733">
        <ele>91.7</ele>
        <time>2022-09-09T07:48:11Z</time>
      </trkpt>
      <trkpt lat="48.57436" lon="-2.79739">
        <ele>91.8</ele>
        <time>2022-09-09T07:48:13Z</time>
      </trkpt>
      <trkpt lat="48.57446" lon="-2.79732">
        <ele>92</ele>
        <time>2022-09-09T07:48:16Z</time>
      </trkpt>
      <trkpt lat="48.57451" lon="-2.79714">
        <ele>92</ele>
        <time>2022-09-09T07:48:19Z</time>
      </trkpt>
      <trkpt lat="48.57456" lon="-2.79695">
        <ele>92</ele>
        <time>2022-09-09T07:48:22Z</time>
      </trkpt>
      <trkpt lat="48.5746" lon="-2.79681">
        <ele>91.5</ele>
        <time>2022-09-09T07:48:24Z</time>
      </trkpt>
      <trkpt lat="48.57464" lon="-2.79666">
        <ele>91</ele>
        <time>2022-09-09T07:48:26Z</time>
      </trkpt>
      <trkpt lat="48.57469" lon="-2.7965">
        <ele>91</ele>
        <time>2022-09-09T07:48:28Z</time>
      </trkpt>
      <trkpt lat="48.57473" lon="-2.79634">
        <ele>90.8</ele>
        <time>2022-09-09T07:48:30Z</time>
      </trkpt>
      <trkpt lat="48.57478" lon="-2.79619">
        <ele>90.4</ele>
        <time>2022-09-09T07:48:32Z</time>
      </trkpt>
      <trkpt lat="48.57483" lon="-2.79603">
        <ele>90.4</ele>
        <time>2022-09-09T07:48:34Z</time>
      </trkpt>
      <trkpt lat="48.57487" lon="-2.79587">
        <ele>90.5</ele>
        <time>2022-09-09T07:48:36Z</time>
      </trkpt>
      <trkpt lat="48.57491" lon="-2.79569">
        <ele>90.3</ele>
        <time>2022-09-09T07:48:38Z</time>
      </trkpt>
      <trkpt lat="48.57496" lon="-2.79553">
        <ele>90</ele>
        <time>2022-09-09T07:48:40Z</time>
      </trkpt>
      <trkpt lat="48.57501" lon="-2.79534">
        <ele>90</ele>
        <time>2022-09-09T07:48:42Z</time>
      </trkpt>
      <trkpt lat="48.57506" lon="-2.79516">
        <ele>90</ele>
        <time>2022-09-09T07:48:44Z</time>
      </trkpt>
      <trkpt lat="48.57511" lon="-2.79498">
        <ele>90</ele>
        <time>2022-09-09T07:48:46Z</time>
      </trkpt>
      <trkpt lat="48.57515" lon="-2.79482">
        <ele>90</ele>
        <time>2022-09-09T07:48:48Z</time>
      </trkpt>
      <trkpt lat="48.5752" lon="-2.79465">
        <ele>90</ele>
        <time>2022-09-09T07:48:50Z</time>
      </trkpt>
      <trkpt lat="48.57524" lon="-2.79448">
        <ele>90</ele>
        <time>2022-09-09T07:48:52Z</time>
      </trkpt>
      <trkpt lat="48.57529" lon="-2.7943">
        <ele>90</ele>
        <time>2022-09-09T07:48:54Z</time>
      </trkpt>
      <trkpt lat="48.57534" lon="-2.79413">
        <ele>90.1</ele>
        <time>2022-09-09T07:48:56Z</time>
      </trkpt>
      <trkpt lat="48.57539" lon="-2.79395">
        <ele>90.5</ele>
        <time>2022-09-09T07:48:58Z</time>
      </trkpt>
      <trkpt lat="48.57543" lon="-2.79379">
        <ele>90.6</ele>
        <time>2022-09-09T07:49:00Z</time>
      </trkpt>
      <trkpt lat="48.57548" lon="-2.79363">
        <ele>91</ele>
        <time>2022-09-09T07:49:02Z</time>
      </trkpt>
      <trkpt lat="48.57552" lon="-2.79347">
        <ele>91</ele>
        <time>2022-09-09T07:49:04Z</time>
      </trkpt>
      <trkpt lat="48.57557" lon="-2.79331">
        <ele>91.1</ele>
        <time>2022-09-09T07:49:06Z</time>
      </trkpt>
      <trkpt lat="48.57562" lon="-2.79315">
        <ele>91.7</ele>
        <time>2022-09-09T07:49:08Z</time>
      </trkpt>
      <trkpt lat="48.57566" lon="-2.79301">
        <ele>92</ele>
        <time>2022-09-09T07:49:10Z</time>
      </trkpt>
      <trkpt lat="48.57569" lon="-2.79286">
        <ele>92</ele>
        <time>2022-09-09T07:49:12Z</time>
      </trkpt>
      <trkpt lat="48.57573" lon="-2.79272">
        <ele>92.1</ele>
        <time>2022-09-09T07:49:14Z</time>
      </trkpt>
      <trkpt lat="48.57577" lon="-2.7926">
        <ele>92.1</ele>
        <time>2022-09-09T07:49:16Z</time>
      </trkpt>
      <trkpt lat="48.5758" lon="-2.79246">
        <ele>92.2</ele>
        <time>2022-09-09T07:49:18Z</time>
      </trkpt>
      <trkpt lat="48.57585" lon="-2.79234">
        <ele>92.6</ele>
        <time>2022-09-09T07:49:20Z</time>
      </trkpt>
      <trkpt lat="48.57588" lon="-2.79221">
        <ele>92.8</ele>
        <time>2022-09-09T07:49:22Z</time>
      </trkpt>
      <trkpt lat="48.57591" lon="-2.79206">
        <ele>92.9</ele>
        <time>2022-09-09T07:49:24Z</time>
      </trkpt>
      <trkpt lat="48.57595" lon="-2.79192">
        <ele>93.1</ele>
        <time>2022-09-09T07:49:26Z</time>
      </trkpt>
      <trkpt lat="48.57597" lon="-2.79179">
        <ele>93.6</ele>
        <time>2022-09-09T07:49:28Z</time>
      </trkpt>
      <trkpt lat="48.57603" lon="-2.7916">
        <ele>94</ele>
        <time>2022-09-09T07:49:31Z</time>
      </trkpt>
      <trkpt lat="48.57606" lon="-2.79147">
        <ele>94</ele>
        <time>2022-09-09T07:49:33Z</time>
      </trkpt>
      <trkpt lat="48.5761" lon="-2.79134">
        <ele>94</ele>
        <time>2022-09-09T07:49:35Z</time>
      </trkpt>
      <trkpt lat="48.57614" lon="-2.7912">
        <ele>94</ele>
        <time>2022-09-09T07:49:37Z</time>
      </trkpt>
      <trkpt lat="48.57618" lon="-2.79107">
        <ele>94</ele>
        <time>2022-09-09T07:49:39Z</time>
      </trkpt>
      <trkpt lat="48.57621" lon="-2.79092">
        <ele>94</ele>
        <time>2022-09-09T07:49:41Z</time>
      </trkpt>
      <trkpt lat="48.57625" lon="-2.79079">
        <ele>93.9</ele>
        <time>2022-09-09T07:49:43Z</time>
      </trkpt>
      <trkpt lat="48.5763" lon="-2.79065">
        <ele>93.6</ele>
        <time>2022-09-09T07:49:45Z</time>
      </trkpt>
      <trkpt lat="48.57634" lon="-2.79049">
        <ele>93.2</ele>
        <time>2022-09-09T07:49:47Z</time>
      </trkpt>
      <trkpt lat="48.57638" lon="-2.79033">
        <ele>93</ele>
        <time>2022-09-09T07:49:49Z</time>
      </trkpt>
      <trkpt lat="48.57643" lon="-2.79016">
        <ele>93</ele>
        <time>2022-09-09T07:49:51Z</time>
      </trkpt>
      <trkpt lat="48.57648" lon="-2.79001">
        <ele>93</ele>
        <time>2022-09-09T07:49:53Z</time>
      </trkpt>
      <trkpt lat="48.57653" lon="-2.78984">
        <ele>93.3</ele>
        <time>2022-09-09T07:49:55Z</time>
      </trkpt>
      <trkpt lat="48.57658" lon="-2.78968">
        <ele>93.7</ele>
        <time>2022-09-09T07:49:57Z</time>
      </trkpt>
      <trkpt lat="48.57662" lon="-2.78952">
        <ele>93.9</ele>
        <time>2022-09-09T07:49:59Z</time>
      </trkpt>
      <trkpt lat="48.57665" lon="-2.78938">
        <ele>94.2</ele>
        <time>2022-09-09T07:50:01Z</time>
      </trkpt>
      <trkpt lat="48.57669" lon="-2.78923">
        <ele>94.7</ele>
        <time>2022-09-09T07:50:03Z</time>
      </trkpt>
      <trkpt lat="48.57673" lon="-2.78909">
        <ele>94.6</ele>
        <time>2022-09-09T07:50:05Z</time>
      </trkpt>
      <trkpt lat="48.57677" lon="-2.78894">
        <ele>94.1</ele>
        <time>2022-09-09T07:50:07Z</time>
      </trkpt>
      <trkpt lat="48.57681" lon="-2.78877">
        <ele>94</ele>
        <time>2022-09-09T07:50:09Z</time>
      </trkpt>
      <trkpt lat="48.57685" lon="-2.78863">
        <ele>94</ele>
        <time>2022-09-09T07:50:11Z</time>
      </trkpt>
      <trkpt lat="48.5769" lon="-2.78847">
        <ele>94</ele>
        <time>2022-09-09T07:50:13Z</time>
      </trkpt>
      <trkpt lat="48.57696" lon="-2.78833">
        <ele>93.9</ele>
        <time>2022-09-09T07:50:15Z</time>
      </trkpt>
      <trkpt lat="48.57705" lon="-2.78823">
        <ele>93.4</ele>
        <time>2022-09-09T07:50:17Z</time>
      </trkpt>
      <trkpt lat="48.57716" lon="-2.78813">
        <ele>93.1</ele>
        <time>2022-09-09T07:50:19Z</time>
      </trkpt>
      <trkpt lat="48.57728" lon="-2.78804">
        <ele>92.9</ele>
        <time>2022-09-09T07:50:21Z</time>
      </trkpt>
      <trkpt lat="48.57739" lon="-2.78795">
        <ele>92.6</ele>
        <time>2022-09-09T07:50:23Z</time>
      </trkpt>
      <trkpt lat="48.5775" lon="-2.78785">
        <ele>92.3</ele>
        <time>2022-09-09T07:50:25Z</time>
      </trkpt>
      <trkpt lat="48.57762" lon="-2.78775">
        <ele>91.9</ele>
        <time>2022-09-09T07:50:27Z</time>
      </trkpt>
      <trkpt lat="48.57773" lon="-2.78766">
        <ele>91.6</ele>
        <time>2022-09-09T07:50:29Z</time>
      </trkpt>
      <trkpt lat="48.57785" lon="-2.78756">
        <ele>91.2</ele>
        <time>2022-09-09T07:50:31Z</time>
      </trkpt>
      <trkpt lat="48.57794" lon="-2.78749">
        <ele>91</ele>
        <time>2022-09-09T07:50:33Z</time>
      </trkpt>
      <trkpt lat="48.57803" lon="-2.78743">
        <ele>90.8</ele>
        <time>2022-09-09T07:51:03Z</time>
      </trkpt>
      <trkpt lat="48.57809" lon="-2.78756">
        <ele>90.9</ele>
        <time>2022-09-09T07:51:08Z</time>
      </trkpt>
      <trkpt lat="48.57814" lon="-2.78768">
        <ele>90.7</ele>
        <time>2022-09-09T07:51:12Z</time>
      </trkpt>
      <trkpt lat="48.57819" lon="-2.7878">
        <ele>90.5</ele>
        <time>2022-09-09T07:51:15Z</time>
      </trkpt>
      <trkpt lat="48.57827" lon="-2.78795">
        <ele>90.2</ele>
        <time>2022-09-09T07:51:18Z</time>
      </trkpt>
      <trkpt lat="48.57833" lon="-2.78806">
        <ele>90</ele>
        <time>2022-09-09T07:51:20Z</time>
      </trkpt>
      <trkpt lat="48.57837" lon="-2.78818">
        <ele>89.9</ele>
        <time>2022-09-09T07:51:22Z</time>
      </trkpt>
      <trkpt lat="48.57843" lon="-2.78831">
        <ele>89.7</ele>
        <time>2022-09-09T07:51:24Z</time>
      </trkpt>
      <trkpt lat="48.57848" lon="-2.78844">
        <ele>89.5</ele>
        <time>2022-09-09T07:51:26Z</time>
      </trkpt>
      <trkpt lat="48.57853" lon="-2.78857">
        <ele>89.3</ele>
        <time>2022-09-09T07:51:28Z</time>
      </trkpt>
      <trkpt lat="48.57856" lon="-2.78871">
        <ele>89.2</ele>
        <time>2022-09-09T07:51:30Z</time>
      </trkpt>
      <trkpt lat="48.57861" lon="-2.78884">
        <ele>89</ele>
        <time>2022-09-09T07:51:32Z</time>
      </trkpt>
      <trkpt lat="48.57865" lon="-2.78898">
        <ele>89.2</ele>
        <time>2022-09-09T07:51:34Z</time>
      </trkpt>
      <trkpt lat="48.57868" lon="-2.78911">
        <ele>89.3</ele>
        <time>2022-09-09T07:51:36Z</time>
      </trkpt>
      <trkpt lat="48.57872" lon="-2.78926">
        <ele>89.3</ele>
        <time>2022-09-09T07:51:38Z</time>
      </trkpt>
      <trkpt lat="48.57875" lon="-2.78939">
        <ele>89.4</ele>
        <time>2022-09-09T07:51:40Z</time>
      </trkpt>
      <trkpt lat="48.57878" lon="-2.78953">
        <ele>89.4</ele>
        <time>2022-09-09T07:51:42Z</time>
      </trkpt>
      <trkpt lat="48.57881" lon="-2.78966">
        <ele>89.3</ele>
        <time>2022-09-09T07:51:44Z</time>
      </trkpt>
      <trkpt lat="48.57883" lon="-2.7898">
        <ele>89.3</ele>
        <time>2022-09-09T07:51:46Z</time>
      </trkpt>
      <trkpt lat="48.57887" lon="-2.78999">
        <ele>89.2</ele>
        <time>2022-09-09T07:51:49Z</time>
      </trkpt>
      <trkpt lat="48.57891" lon="-2.79018">
        <ele>89.6</ele>
        <time>2022-09-09T07:51:52Z</time>
      </trkpt>
      <trkpt lat="48.57895" lon="-2.79038">
        <ele>89.8</ele>
        <time>2022-09-09T07:51:55Z</time>
      </trkpt>
      <trkpt lat="48.57899" lon="-2.79057">
        <ele>89.6</ele>
        <time>2022-09-09T07:51:58Z</time>
      </trkpt>
      <trkpt lat="48.57902" lon="-2.79075">
        <ele>89.2</ele>
        <time>2022-09-09T07:52:01Z</time>
      </trkpt>
      <trkpt lat="48.57906" lon="-2.79092">
        <ele>89.1</ele>
        <time>2022-09-09T07:52:04Z</time>
      </trkpt>
      <trkpt lat="48.5791" lon="-2.79109">
        <ele>89.2</ele>
        <time>2022-09-09T07:52:07Z</time>
      </trkpt>
      <trkpt lat="48.57914" lon="-2.79126">
        <ele>89</ele>
        <time>2022-09-09T07:52:10Z</time>
      </trkpt>
      <trkpt lat="48.5792" lon="-2.79142">
        <ele>89</ele>
        <time>2022-09-09T07:52:13Z</time>
      </trkpt>
      <trkpt lat="48.57926" lon="-2.79156">
        <ele>89.2</ele>
        <time>2022-09-09T07:52:16Z</time>
      </trkpt>
      <trkpt lat="48.57932" lon="-2.7917">
        <ele>89.6</ele>
        <time>2022-09-09T07:52:20Z</time>
      </trkpt>
      <trkpt lat="48.5794" lon="-2.79175">
        <ele>89.9</ele>
        <time>2022-09-09T07:52:54Z</time>
      </trkpt>
      <trkpt lat="48.57943" lon="-2.79188">
        <ele>90</ele>
        <time>2022-09-09T07:53:08Z</time>
      </trkpt>
      <trkpt lat="48.5795" lon="-2.79179">
        <ele>89.8</ele>
        <time>2022-09-09T07:54:07Z</time>
      </trkpt>
      <trkpt lat="48.57955" lon="-2.79167">
        <ele>89.6</ele>
        <time>2022-09-09T07:54:10Z</time>
      </trkpt>
      <trkpt lat="48.57963" lon="-2.79154">
        <ele>89.5</ele>
        <time>2022-09-09T07:54:13Z</time>
      </trkpt>
      <trkpt lat="48.57971" lon="-2.7914">
        <ele>89.9</ele>
        <time>2022-09-09T07:54:16Z</time>
      </trkpt>
      <trkpt lat="48.57979" lon="-2.79125">
        <ele>89.4</ele>
        <time>2022-09-09T07:54:19Z</time>
      </trkpt>
      <trkpt lat="48.57987" lon="-2.79111">
        <ele>89</ele>
        <time>2022-09-09T07:54:22Z</time>
      </trkpt>
      <trkpt lat="48.57995" lon="-2.79098">
        <ele>89</ele>
        <time>2022-09-09T07:54:25Z</time>
      </trkpt>
      <trkpt lat="48.58001" lon="-2.79083">
        <ele>88.9</ele>
        <time>2022-09-09T07:54:28Z</time>
      </trkpt>
      <trkpt lat="48.58007" lon="-2.79064">
        <ele>88.8</ele>
        <time>2022-09-09T07:54:31Z</time>
      </trkpt>
      <trkpt lat="48.58009" lon="-2.7905">
        <ele>88.5</ele>
        <time>2022-09-09T07:54:33Z</time>
      </trkpt>
      <trkpt lat="48.5801" lon="-2.79035">
        <ele>87.9</ele>
        <time>2022-09-09T07:54:35Z</time>
      </trkpt>
      <trkpt lat="48.5801" lon="-2.79019">
        <ele>87.6</ele>
        <time>2022-09-09T07:54:37Z</time>
      </trkpt>
      <trkpt lat="48.58008" lon="-2.79002">
        <ele>87.7</ele>
        <time>2022-09-09T07:54:39Z</time>
      </trkpt>
      <trkpt lat="48.58006" lon="-2.78986">
        <ele>87.4</ele>
        <time>2022-09-09T07:54:41Z</time>
      </trkpt>
      <trkpt lat="48.58003" lon="-2.78972">
        <ele>87</ele>
        <time>2022-09-09T07:54:43Z</time>
      </trkpt>
      <trkpt lat="48.58" lon="-2.78957">
        <ele>87</ele>
        <time>2022-09-09T07:54:45Z</time>
      </trkpt>
      <trkpt lat="48.57997" lon="-2.78942">
        <ele>87</ele>
        <time>2022-09-09T07:54:47Z</time>
      </trkpt>
      <trkpt lat="48.57995" lon="-2.78928">
        <ele>87</ele>
        <time>2022-09-09T07:54:49Z</time>
      </trkpt>
      <trkpt lat="48.57994" lon="-2.78913">
        <ele>87</ele>
        <time>2022-09-09T07:54:51Z</time>
      </trkpt>
      <trkpt lat="48.57993" lon="-2.78899">
        <ele>87</ele>
        <time>2022-09-09T07:54:53Z</time>
      </trkpt>
      <trkpt lat="48.57992" lon="-2.78883">
        <ele>86.8</ele>
        <time>2022-09-09T07:54:55Z</time>
      </trkpt>
      <trkpt lat="48.57991" lon="-2.78861">
        <ele>86</ele>
        <time>2022-09-09T07:54:58Z</time>
      </trkpt>
      <trkpt lat="48.5799" lon="-2.78844">
        <ele>85.6</ele>
        <time>2022-09-09T07:55:00Z</time>
      </trkpt>
      <trkpt lat="48.57991" lon="-2.78829">
        <ele>85.2</ele>
        <time>2022-09-09T07:55:02Z</time>
      </trkpt>
      <trkpt lat="48.57992" lon="-2.78812">
        <ele>84.8</ele>
        <time>2022-09-09T07:55:15Z</time>
      </trkpt>
      <trkpt lat="48.57992" lon="-2.78797">
        <ele>84.5</ele>
        <time>2022-09-09T07:55:18Z</time>
      </trkpt>
      <trkpt lat="48.57993" lon="-2.78778">
        <ele>84.5</ele>
        <time>2022-09-09T07:55:21Z</time>
      </trkpt>
      <trkpt lat="48.57995" lon="-2.78759">
        <ele>84.3</ele>
        <time>2022-09-09T07:55:24Z</time>
      </trkpt>
      <trkpt lat="48.57996" lon="-2.78739">
        <ele>84.3</ele>
        <time>2022-09-09T07:55:27Z</time>
      </trkpt>
      <trkpt lat="48.57997" lon="-2.78721">
        <ele>84.2</ele>
        <time>2022-09-09T07:55:30Z</time>
      </trkpt>
      <trkpt lat="48.57998" lon="-2.78708">
        <ele>84.2</ele>
        <time>2022-09-09T07:55:32Z</time>
      </trkpt>
      <trkpt lat="48.57999" lon="-2.78694">
        <ele>84.1</ele>
        <time>2022-09-09T07:55:34Z</time>
      </trkpt>
      <trkpt lat="48.58001" lon="-2.7868">
        <ele>84.5</ele>
        <time>2022-09-09T07:55:36Z</time>
      </trkpt>
      <trkpt lat="48.58004" lon="-2.78667">
        <ele>84.7</ele>
        <time>2022-09-09T07:55:38Z</time>
      </trkpt>
      <trkpt lat="48.58007" lon="-2.78654">
        <ele>84.2</ele>
        <time>2022-09-09T07:55:40Z</time>
      </trkpt>
      <trkpt lat="48.58011" lon="-2.7864">
        <ele>83.6</ele>
        <time>2022-09-09T07:55:42Z</time>
      </trkpt>
      <trkpt lat="48.58016" lon="-2.78625">
        <ele>82.9</ele>
        <time>2022-09-09T07:55:44Z</time>
      </trkpt>
      <trkpt lat="48.58022" lon="-2.7861">
        <ele>81.6</ele>
        <time>2022-09-09T07:55:46Z</time>
      </trkpt>
      <trkpt lat="48.58029" lon="-2.78597">
        <ele>81</ele>
        <time>2022-09-09T07:55:48Z</time>
      </trkpt>
      <trkpt lat="48.58036" lon="-2.78583">
        <ele>80.7</ele>
        <time>2022-09-09T07:55:50Z</time>
      </trkpt>
      <trkpt lat="48.58042" lon="-2.78569">
        <ele>80.5</ele>
        <time>2022-09-09T07:55:52Z</time>
      </trkpt>
      <trkpt lat="48.58051" lon="-2.78555">
        <ele>80.2</ele>
        <time>2022-09-09T07:55:54Z</time>
      </trkpt>
      <trkpt lat="48.58057" lon="-2.7854">
        <ele>79.9</ele>
        <time>2022-09-09T07:55:56Z</time>
      </trkpt>
      <trkpt lat="48.58064" lon="-2.78526">
        <ele>79.4</ele>
        <time>2022-09-09T07:55:58Z</time>
      </trkpt>
      <trkpt lat="48.5807" lon="-2.78511">
        <ele>78.9</ele>
        <time>2022-09-09T07:56:00Z</time>
      </trkpt>
      <trkpt lat="48.58077" lon="-2.78495">
        <ele>78.5</ele>
        <time>2022-09-09T07:56:02Z</time>
      </trkpt>
      <trkpt lat="48.58084" lon="-2.78478">
        <ele>77.9</ele>
        <time>2022-09-09T07:56:04Z</time>
      </trkpt>
      <trkpt lat="48.58092" lon="-2.78461">
        <ele>77.5</ele>
        <time>2022-09-09T07:56:06Z</time>
      </trkpt>
      <trkpt lat="48.58098" lon="-2.78442">
        <ele>77.4</ele>
        <time>2022-09-09T07:56:08Z</time>
      </trkpt>
      <trkpt lat="48.58103" lon="-2.78421">
        <ele>76.5</ele>
        <time>2022-09-09T07:56:10Z</time>
      </trkpt>
      <trkpt lat="48.58106" lon="-2.78401">
        <ele>76.1</ele>
        <time>2022-09-09T07:56:12Z</time>
      </trkpt>
      <trkpt lat="48.58109" lon="-2.78382">
        <ele>76</ele>
        <time>2022-09-09T07:56:14Z</time>
      </trkpt>
      <trkpt lat="48.58112" lon="-2.78367">
        <ele>76</ele>
        <time>2022-09-09T07:56:16Z</time>
      </trkpt>
      <trkpt lat="48.5812" lon="-2.78358">
        <ele>75.8</ele>
        <time>2022-09-09T07:56:19Z</time>
      </trkpt>
      <trkpt lat="48.5813" lon="-2.78363">
        <ele>75.3</ele>
        <time>2022-09-09T07:56:22Z</time>
      </trkpt>
      <trkpt lat="48.58141" lon="-2.78367">
        <ele>74.8</ele>
        <time>2022-09-09T07:56:25Z</time>
      </trkpt>
      <trkpt lat="48.58152" lon="-2.78371">
        <ele>74.9</ele>
        <time>2022-09-09T07:56:28Z</time>
      </trkpt>
      <trkpt lat="48.58165" lon="-2.78377">
        <ele>74.8</ele>
        <time>2022-09-09T07:56:31Z</time>
      </trkpt>
      <trkpt lat="48.58176" lon="-2.78385">
        <ele>74.8</ele>
        <time>2022-09-09T07:56:34Z</time>
      </trkpt>
      <trkpt lat="48.58188" lon="-2.78391">
        <ele>75.3</ele>
        <time>2022-09-09T07:56:37Z</time>
      </trkpt>
      <trkpt lat="48.582" lon="-2.78394">
        <ele>75.5</ele>
        <time>2022-09-09T07:56:40Z</time>
      </trkpt>
      <trkpt lat="48.58211" lon="-2.78397">
        <ele>75.5</ele>
        <time>2022-09-09T07:56:43Z</time>
      </trkpt>
      <trkpt lat="48.58222" lon="-2.78398">
        <ele>75.7</ele>
        <time>2022-09-09T07:56:46Z</time>
      </trkpt>
      <trkpt lat="48.58232" lon="-2.78394">
        <ele>76.6</ele>
        <time>2022-09-09T07:56:49Z</time>
      </trkpt>
      <trkpt lat="48.58241" lon="-2.78385">
        <ele>77.4</ele>
        <time>2022-09-09T07:56:52Z</time>
      </trkpt>
      <trkpt lat="48.58248" lon="-2.78374">
        <ele>77.9</ele>
        <time>2022-09-09T07:56:55Z</time>
      </trkpt>
      <trkpt lat="48.58254" lon="-2.78361">
        <ele>78.1</ele>
        <time>2022-09-09T07:56:58Z</time>
      </trkpt>
      <trkpt lat="48.5826" lon="-2.78349">
        <ele>78.4</ele>
        <time>2022-09-09T07:57:01Z</time>
      </trkpt>
      <trkpt lat="48.58267" lon="-2.78336">
        <ele>78.6</ele>
        <time>2022-09-09T07:57:04Z</time>
      </trkpt>
      <trkpt lat="48.58273" lon="-2.78323">
        <ele>78.9</ele>
        <time>2022-09-09T07:57:07Z</time>
      </trkpt>
      <trkpt lat="48.58279" lon="-2.7831">
        <ele>79.1</ele>
        <time>2022-09-09T07:57:10Z</time>
      </trkpt>
      <trkpt lat="48.58285" lon="-2.78299">
        <ele>79.6</ele>
        <time>2022-09-09T07:57:13Z</time>
      </trkpt>
      <trkpt lat="48.58291" lon="-2.78286">
        <ele>79.9</ele>
        <time>2022-09-09T07:57:16Z</time>
      </trkpt>
      <trkpt lat="48.58297" lon="-2.78272">
        <ele>79.8</ele>
        <time>2022-09-09T07:57:19Z</time>
      </trkpt>
      <trkpt lat="48.58303" lon="-2.78258">
        <ele>79.8</ele>
        <time>2022-09-09T07:57:22Z</time>
      </trkpt>
      <trkpt lat="48.58309" lon="-2.78245">
        <ele>79.9</ele>
        <time>2022-09-09T07:57:25Z</time>
      </trkpt>
      <trkpt lat="48.58313" lon="-2.78229">
        <ele>79.9</ele>
        <time>2022-09-09T07:57:28Z</time>
      </trkpt>
      <trkpt lat="48.58317" lon="-2.78214">
        <ele>80</ele>
        <time>2022-09-09T07:57:31Z</time>
      </trkpt>
      <trkpt lat="48.58322" lon="-2.78198">
        <ele>80</ele>
        <time>2022-09-09T07:57:34Z</time>
      </trkpt>
      <trkpt lat="48.58327" lon="-2.78184">
        <ele>79.6</ele>
        <time>2022-09-09T07:57:37Z</time>
      </trkpt>
      <trkpt lat="48.58331" lon="-2.7817">
        <ele>79.1</ele>
        <time>2022-09-09T07:57:40Z</time>
      </trkpt>
      <trkpt lat="48.58336" lon="-2.78156">
        <ele>79</ele>
        <time>2022-09-09T07:57:43Z</time>
      </trkpt>
      <trkpt lat="48.58343" lon="-2.78143">
        <ele>79</ele>
        <time>2022-09-09T07:57:46Z</time>
      </trkpt>
      <trkpt lat="48.5835" lon="-2.78133">
        <ele>79</ele>
        <time>2022-09-09T07:57:49Z</time>
      </trkpt>
      <trkpt lat="48.58357" lon="-2.78123">
        <ele>78.6</ele>
        <time>2022-09-09T07:57:52Z</time>
      </trkpt>
      <trkpt lat="48.58366" lon="-2.78123">
        <ele>78</ele>
        <time>2022-09-09T07:58:14Z</time>
      </trkpt>
      <trkpt lat="48.58374" lon="-2.78129">
        <ele>77.4</ele>
        <time>2022-09-09T07:58:26Z</time>
      </trkpt>
      <trkpt lat="48.58381" lon="-2.78137">
        <ele>76.8</ele>
        <time>2022-09-09T07:58:34Z</time>
      </trkpt>
      <trkpt lat="48.58389" lon="-2.78144">
        <ele>76.2</ele>
        <time>2022-09-09T07:58:43Z</time>
      </trkpt>
      <trkpt lat="48.58397" lon="-2.78154">
        <ele>74.1</ele>
        <time>2022-09-09T07:58:52Z</time>
      </trkpt>
      <trkpt lat="48.58398" lon="-2.78168">
        <ele>75.3</ele>
        <time>2022-09-09T07:59:02Z</time>
      </trkpt>
      <trkpt lat="48.584" lon="-2.78154">
        <ele>73.1</ele>
        <time>2022-09-09T08:00:38Z</time>
      </trkpt>
      <trkpt lat="48.58402" lon="-2.78168">
        <ele>74.3</ele>
        <time>2022-09-09T08:02:16Z</time>
      </trkpt>
      <trkpt lat="48.58399" lon="-2.78155">
        <ele>73.6</ele>
        <time>2022-09-09T08:03:19Z</time>
      </trkpt>
      <trkpt lat="48.58393" lon="-2.78144">
        <ele>74.8</ele>
        <time>2022-09-09T08:03:29Z</time>
      </trkpt>
      <trkpt lat="48.58385" lon="-2.78138">
        <ele>76.5</ele>
        <time>2022-09-09T08:03:39Z</time>
      </trkpt>
      <trkpt lat="48.58376" lon="-2.78131">
        <ele>77.2</ele>
        <time>2022-09-09T08:03:50Z</time>
      </trkpt>
      <trkpt lat="48.58369" lon="-2.78123">
        <ele>77.7</ele>
        <time>2022-09-09T08:04:02Z</time>
      </trkpt>
      <trkpt lat="48.58362" lon="-2.78134">
        <ele>78.7</ele>
        <time>2022-09-09T08:04:16Z</time>
      </trkpt>
      <trkpt lat="48.58353" lon="-2.78138">
        <ele>79</ele>
        <time>2022-09-09T08:04:20Z</time>
      </trkpt>
      <trkpt lat="48.58342" lon="-2.78144">
        <ele>79</ele>
        <time>2022-09-09T08:04:24Z</time>
      </trkpt>
      <trkpt lat="48.58338" lon="-2.78157">
        <ele>79</ele>
        <time>2022-09-09T08:04:27Z</time>
      </trkpt>
      <trkpt lat="48.58333" lon="-2.78169">
        <ele>79.1</ele>
        <time>2022-09-09T08:04:30Z</time>
      </trkpt>
      <trkpt lat="48.58328" lon="-2.78185">
        <ele>79.7</ele>
        <time>2022-09-09T08:04:34Z</time>
      </trkpt>
      <trkpt lat="48.58324" lon="-2.78201">
        <ele>80</ele>
        <time>2022-09-09T08:04:38Z</time>
      </trkpt>
      <trkpt lat="48.5832" lon="-2.78214">
        <ele>80</ele>
        <time>2022-09-09T08:04:41Z</time>
      </trkpt>
      <trkpt lat="48.58316" lon="-2.78227">
        <ele>79.9</ele>
        <time>2022-09-09T08:04:44Z</time>
      </trkpt>
      <trkpt lat="48.58312" lon="-2.78242">
        <ele>79.8</ele>
        <time>2022-09-09T08:04:47Z</time>
      </trkpt>
      <trkpt lat="48.58306" lon="-2.78257">
        <ele>79.7</ele>
        <time>2022-09-09T08:04:50Z</time>
      </trkpt>
      <trkpt lat="48.583" lon="-2.78272">
        <ele>79.6</ele>
        <time>2022-09-09T08:04:53Z</time>
      </trkpt>
      <trkpt lat="48.58293" lon="-2.78288">
        <ele>79.8</ele>
        <time>2022-09-09T08:04:56Z</time>
      </trkpt>
      <trkpt lat="48.58286" lon="-2.78303">
        <ele>79.4</ele>
        <time>2022-09-09T08:04:59Z</time>
      </trkpt>
      <trkpt lat="48.58279" lon="-2.78317">
        <ele>79</ele>
        <time>2022-09-09T08:05:02Z</time>
      </trkpt>
      <trkpt lat="48.58271" lon="-2.78331">
        <ele>78.8</ele>
        <time>2022-09-09T08:05:05Z</time>
      </trkpt>
      <trkpt lat="48.58263" lon="-2.78346">
        <ele>78.5</ele>
        <time>2022-09-09T08:05:08Z</time>
      </trkpt>
      <trkpt lat="48.58255" lon="-2.78363">
        <ele>78.2</ele>
        <time>2022-09-09T08:05:11Z</time>
      </trkpt>
      <trkpt lat="48.5825" lon="-2.78375">
        <ele>78</ele>
        <time>2022-09-09T08:05:13Z</time>
      </trkpt>
      <trkpt lat="48.58245" lon="-2.78385">
        <ele>77.6</ele>
        <time>2022-09-09T08:05:15Z</time>
      </trkpt>
      <trkpt lat="48.58239" lon="-2.78396">
        <ele>76.9</ele>
        <time>2022-09-09T08:05:17Z</time>
      </trkpt>
      <trkpt lat="48.58231" lon="-2.78404">
        <ele>76.1</ele>
        <time>2022-09-09T08:05:19Z</time>
      </trkpt>
      <trkpt lat="48.58221" lon="-2.78408">
        <ele>75.2</ele>
        <time>2022-09-09T08:05:21Z</time>
      </trkpt>
      <trkpt lat="48.5821" lon="-2.78406">
        <ele>74.8</ele>
        <time>2022-09-09T08:05:23Z</time>
      </trkpt>
      <trkpt lat="48.582" lon="-2.78401">
        <ele>74.9</ele>
        <time>2022-09-09T08:05:25Z</time>
      </trkpt>
      <trkpt lat="48.58189" lon="-2.78394">
        <ele>75.1</ele>
        <time>2022-09-09T08:05:27Z</time>
      </trkpt>
      <trkpt lat="48.5818" lon="-2.78389">
        <ele>75</ele>
        <time>2022-09-09T08:05:29Z</time>
      </trkpt>
      <trkpt lat="48.58171" lon="-2.78384">
        <ele>74.6</ele>
        <time>2022-09-09T08:05:31Z</time>
      </trkpt>
      <trkpt lat="48.58162" lon="-2.78379">
        <ele>74.6</ele>
        <time>2022-09-09T08:05:33Z</time>
      </trkpt>
      <trkpt lat="48.58152" lon="-2.78375">
        <ele>74.7</ele>
        <time>2022-09-09T08:05:35Z</time>
      </trkpt>
      <trkpt lat="48.58143" lon="-2.78372">
        <ele>74.7</ele>
        <time>2022-09-09T08:05:37Z</time>
      </trkpt>
      <trkpt lat="48.58131" lon="-2.78367">
        <ele>75.1</ele>
        <time>2022-09-09T08:05:40Z</time>
      </trkpt>
      <trkpt lat="48.58121" lon="-2.78365">
        <ele>75.6</ele>
        <time>2022-09-09T08:05:44Z</time>
      </trkpt>
      <trkpt lat="48.58115" lon="-2.78379">
        <ele>75.8</ele>
        <time>2022-09-09T08:05:48Z</time>
      </trkpt>
      <trkpt lat="48.58111" lon="-2.78392">
        <ele>76</ele>
        <time>2022-09-09T08:05:51Z</time>
      </trkpt>
      <trkpt lat="48.58109" lon="-2.78406">
        <ele>76</ele>
        <time>2022-09-09T08:05:54Z</time>
      </trkpt>
      <trkpt lat="48.58106" lon="-2.78421">
        <ele>76.3</ele>
        <time>2022-09-09T08:05:57Z</time>
      </trkpt>
      <trkpt lat="48.58104" lon="-2.78434">
        <ele>76.9</ele>
        <time>2022-09-09T08:06:00Z</time>
      </trkpt>
      <trkpt lat="48.58098" lon="-2.78449">
        <ele>77.4</ele>
        <time>2022-09-09T08:06:04Z</time>
      </trkpt>
      <trkpt lat="48.58093" lon="-2.78463">
        <ele>77.4</ele>
        <time>2022-09-09T08:06:08Z</time>
      </trkpt>
      <trkpt lat="48.58089" lon="-2.78476">
        <ele>77.6</ele>
        <time>2022-09-09T08:06:40Z</time>
      </trkpt>
      <trkpt lat="48.58082" lon="-2.78488">
        <ele>78.1</ele>
        <time>2022-09-09T08:06:44Z</time>
      </trkpt>
      <trkpt lat="48.58077" lon="-2.78499">
        <ele>78.5</ele>
        <time>2022-09-09T08:06:47Z</time>
      </trkpt>
      <trkpt lat="48.58071" lon="-2.78511">
        <ele>78.9</ele>
        <time>2022-09-09T08:06:50Z</time>
      </trkpt>
      <trkpt lat="48.58067" lon="-2.78523">
        <ele>79.2</ele>
        <time>2022-09-09T08:06:53Z</time>
      </trkpt>
      <trkpt lat="48.58061" lon="-2.78534">
        <ele>79.7</ele>
        <time>2022-09-09T08:06:56Z</time>
      </trkpt>
      <trkpt lat="48.58055" lon="-2.78545">
        <ele>80</ele>
        <time>2022-09-09T08:06:59Z</time>
      </trkpt>
      <trkpt lat="48.58051" lon="-2.78557">
        <ele>80.2</ele>
        <time>2022-09-09T08:07:02Z</time>
      </trkpt>
      <trkpt lat="48.58045" lon="-2.78569">
        <ele>80.4</ele>
        <time>2022-09-09T08:07:05Z</time>
      </trkpt>
      <trkpt lat="48.58039" lon="-2.78581">
        <ele>80.6</ele>
        <time>2022-09-09T08:07:08Z</time>
      </trkpt>
      <trkpt lat="48.58034" lon="-2.78593">
        <ele>80.8</ele>
        <time>2022-09-09T08:07:11Z</time>
      </trkpt>
      <trkpt lat="48.58029" lon="-2.78605">
        <ele>81</ele>
        <time>2022-09-09T08:07:14Z</time>
      </trkpt>
      <trkpt lat="48.58025" lon="-2.78617">
        <ele>81.7</ele>
        <time>2022-09-09T08:07:17Z</time>
      </trkpt>
      <trkpt lat="48.58019" lon="-2.78633">
        <ele>83</ele>
        <time>2022-09-09T08:07:21Z</time>
      </trkpt>
      <trkpt lat="48.58014" lon="-2.78646">
        <ele>83.6</ele>
        <time>2022-09-09T08:07:25Z</time>
      </trkpt>
      <trkpt lat="48.5801" lon="-2.78662">
        <ele>84.2</ele>
        <time>2022-09-09T08:07:29Z</time>
      </trkpt>
      <trkpt lat="48.58007" lon="-2.78679">
        <ele>84.2</ele>
        <time>2022-09-09T08:07:33Z</time>
      </trkpt>
      <trkpt lat="48.58005" lon="-2.78693">
        <ele>83.8</ele>
        <time>2022-09-09T08:07:36Z</time>
      </trkpt>
      <trkpt lat="48.58004" lon="-2.78708">
        <ele>83.9</ele>
        <time>2022-09-09T08:07:39Z</time>
      </trkpt>
      <trkpt lat="48.58002" lon="-2.78724">
        <ele>84</ele>
        <time>2022-09-09T08:07:42Z</time>
      </trkpt>
      <trkpt lat="48.58" lon="-2.7874">
        <ele>84</ele>
        <time>2022-09-09T08:07:45Z</time>
      </trkpt>
      <trkpt lat="48.57999" lon="-2.78755">
        <ele>84.1</ele>
        <time>2022-09-09T08:07:48Z</time>
      </trkpt>
      <trkpt lat="48.57998" lon="-2.78772">
        <ele>84.2</ele>
        <time>2022-09-09T08:07:51Z</time>
      </trkpt>
      <trkpt lat="48.57998" lon="-2.78787">
        <ele>84.2</ele>
        <time>2022-09-09T08:07:54Z</time>
      </trkpt>
      <trkpt lat="48.58008" lon="-2.78795">
        <ele>83.7</ele>
        <time>2022-09-09T08:07:58Z</time>
      </trkpt>
      <trkpt lat="48.58019" lon="-2.78796">
        <ele>83.3</ele>
        <time>2022-09-09T08:08:01Z</time>
      </trkpt>
      <trkpt lat="48.58032" lon="-2.78796">
        <ele>82.6</ele>
        <time>2022-09-09T08:08:04Z</time>
      </trkpt>
      <trkpt lat="48.58043" lon="-2.78796">
        <ele>81.3</ele>
        <time>2022-09-09T08:08:07Z</time>
      </trkpt>
      <trkpt lat="48.58053" lon="-2.78797">
        <ele>80.2</ele>
        <time>2022-09-09T08:08:11Z</time>
      </trkpt>
      <trkpt lat="48.58062" lon="-2.78805">
        <ele>78.9</ele>
        <time>2022-09-09T08:08:14Z</time>
      </trkpt>
      <trkpt lat="48.58069" lon="-2.78813">
        <ele>79.5</ele>
        <time>2022-09-09T08:08:17Z</time>
      </trkpt>
      <trkpt lat="48.58077" lon="-2.78821">
        <ele>80</ele>
        <time>2022-09-09T08:08:24Z</time>
      </trkpt>
      <trkpt lat="48.58087" lon="-2.78812">
        <ele>78.5</ele>
        <time>2022-09-09T08:09:40Z</time>
      </trkpt>
      <trkpt lat="48.58098" lon="-2.78811">
        <ele>77.9</ele>
        <time>2022-09-09T08:09:43Z</time>
      </trkpt>
      <trkpt lat="48.58109" lon="-2.78809">
        <ele>77.2</ele>
        <time>2022-09-09T08:09:46Z</time>
      </trkpt>
      <trkpt lat="48.58118" lon="-2.78805">
        <ele>76.3</ele>
        <time>2022-09-09T08:09:49Z</time>
      </trkpt>
      <trkpt lat="48.58127" lon="-2.78798">
        <ele>74.4</ele>
        <time>2022-09-09T08:09:52Z</time>
      </trkpt>
      <trkpt lat="48.58137" lon="-2.78791">
        <ele>72.5</ele>
        <time>2022-09-09T08:09:55Z</time>
      </trkpt>
      <trkpt lat="48.58148" lon="-2.78784">
        <ele>71</ele>
        <time>2022-09-09T08:09:58Z</time>
      </trkpt>
      <trkpt lat="48.58156" lon="-2.78777">
        <ele>69.9</ele>
        <time>2022-09-09T08:10:01Z</time>
      </trkpt>
      <trkpt lat="48.58163" lon="-2.78768">
        <ele>67.7</ele>
        <time>2022-09-09T08:10:05Z</time>
      </trkpt>
      <trkpt lat="48.58172" lon="-2.78759">
        <ele>65.2</ele>
        <time>2022-09-09T08:10:09Z</time>
      </trkpt>
      <trkpt lat="48.5818" lon="-2.78751">
        <ele>63.7</ele>
        <time>2022-09-09T08:10:12Z</time>
      </trkpt>
      <trkpt lat="48.58188" lon="-2.78746">
        <ele>62.7</ele>
        <time>2022-09-09T08:10:15Z</time>
      </trkpt>
      <trkpt lat="48.58198" lon="-2.78738">
        <ele>60.1</ele>
        <time>2022-09-09T08:10:19Z</time>
      </trkpt>
      <trkpt lat="48.58209" lon="-2.78735">
        <ele>58.5</ele>
        <time>2022-09-09T08:10:23Z</time>
      </trkpt>
      <trkpt lat="48.58219" lon="-2.78732">
        <ele>57.1</ele>
        <time>2022-09-09T08:10:26Z</time>
      </trkpt>
      <trkpt lat="48.58227" lon="-2.7873">
        <ele>56</ele>
        <time>2022-09-09T08:10:30Z</time>
      </trkpt>
      <trkpt lat="48.58236" lon="-2.78725">
        <ele>53.9</ele>
        <time>2022-09-09T08:10:34Z</time>
      </trkpt>
      <trkpt lat="48.58245" lon="-2.78722">
        <ele>53</ele>
        <time>2022-09-09T08:10:38Z</time>
      </trkpt>
      <trkpt lat="48.58255" lon="-2.78715">
        <ele>51.2</ele>
        <time>2022-09-09T08:10:44Z</time>
      </trkpt>
      <trkpt lat="48.58264" lon="-2.78708">
        <ele>49</ele>
        <time>2022-09-09T08:10:48Z</time>
      </trkpt>
      <trkpt lat="48.58273" lon="-2.787">
        <ele>46.4</ele>
        <time>2022-09-09T08:10:52Z</time>
      </trkpt>
      <trkpt lat="48.58283" lon="-2.78693">
        <ele>44.5</ele>
        <time>2022-09-09T08:10:56Z</time>
      </trkpt>
      <trkpt lat="48.5829" lon="-2.78685">
        <ele>43.9</ele>
        <time>2022-09-09T08:11:00Z</time>
      </trkpt>
      <trkpt lat="48.58296" lon="-2.78675">
        <ele>41.7</ele>
        <time>2022-09-09T08:11:05Z</time>
      </trkpt>
      <trkpt lat="48.58299" lon="-2.78657">
        <ele>39.2</ele>
        <time>2022-09-09T08:11:10Z</time>
      </trkpt>
      <trkpt lat="48.58308" lon="-2.78644">
        <ele>36.2</ele>
        <time>2022-09-09T08:11:13Z</time>
      </trkpt>
      <trkpt lat="48.58318" lon="-2.78638">
        <ele>34.5</ele>
        <time>2022-09-09T08:11:16Z</time>
      </trkpt>
      <trkpt lat="48.58328" lon="-2.78635">
        <ele>33.8</ele>
        <time>2022-09-09T08:11:20Z</time>
      </trkpt>
      <trkpt lat="48.58337" lon="-2.78637">
        <ele>31.9</ele>
        <time>2022-09-09T08:11:23Z</time>
      </trkpt>
      <trkpt lat="48.58346" lon="-2.78642">
        <ele>30.8</ele>
        <time>2022-09-09T08:11:27Z</time>
      </trkpt>
      <trkpt lat="48.58357" lon="-2.78647">
        <ele>29.5</ele>
        <time>2022-09-09T08:11:31Z</time>
      </trkpt>
      <trkpt lat="48.58367" lon="-2.78657">
        <ele>27.5</ele>
        <time>2022-09-09T08:11:35Z</time>
      </trkpt>
      <trkpt lat="48.58376" lon="-2.78666">
        <ele>23.2</ele>
        <time>2022-09-09T08:11:39Z</time>
      </trkpt>
      <trkpt lat="48.58369" lon="-2.78676">
        <ele>24.4</ele>
        <time>2022-09-09T08:12:56Z</time>
      </trkpt>
      <trkpt lat="48.58368" lon="-2.78691">
        <ele>22.5</ele>
        <time>2022-09-09T08:13:06Z</time>
      </trkpt>
      <trkpt lat="48.58368" lon="-2.78705">
        <ele>23</ele>
        <time>2022-09-09T08:13:18Z</time>
      </trkpt>
      <trkpt lat="48.58368" lon="-2.78691">
        <ele>23.1</ele>
        <time>2022-09-09T08:13:57Z</time>
      </trkpt>
      <trkpt lat="48.5837" lon="-2.78678">
        <ele>23.6</ele>
        <time>2022-09-09T08:14:26Z</time>
      </trkpt>
      <trkpt lat="48.58368" lon="-2.78664">
        <ele>26.8</ele>
        <time>2022-09-09T08:15:08Z</time>
      </trkpt>
      <trkpt lat="48.58361" lon="-2.78654">
        <ele>29</ele>
        <time>2022-09-09T08:15:20Z</time>
      </trkpt>
      <trkpt lat="48.58353" lon="-2.78649">
        <ele>30.5</ele>
        <time>2022-09-09T08:16:51Z</time>
      </trkpt>
      <trkpt lat="48.58344" lon="-2.78642">
        <ele>31</ele>
        <time>2022-09-09T08:16:59Z</time>
      </trkpt>
      <trkpt lat="48.58335" lon="-2.78636">
        <ele>32.7</ele>
        <time>2022-09-09T08:17:08Z</time>
      </trkpt>
      <trkpt lat="48.58326" lon="-2.78635">
        <ele>34</ele>
        <time>2022-09-09T08:17:27Z</time>
      </trkpt>
      <trkpt lat="48.58318" lon="-2.78643">
        <ele>34.8</ele>
        <time>2022-09-09T08:17:34Z</time>
      </trkpt>
      <trkpt lat="48.5831" lon="-2.7865">
        <ele>36.9</ele>
        <time>2022-09-09T08:17:42Z</time>
      </trkpt>
      <trkpt lat="48.58302" lon="-2.7866">
        <ele>38.8</ele>
        <time>2022-09-09T08:17:51Z</time>
      </trkpt>
      <trkpt lat="48.58295" lon="-2.78669">
        <ele>40.4</ele>
        <time>2022-09-09T08:17:59Z</time>
      </trkpt>
      <trkpt lat="48.58287" lon="-2.78677">
        <ele>42.3</ele>
        <time>2022-09-09T08:18:07Z</time>
      </trkpt>
      <trkpt lat="48.58277" lon="-2.78682">
        <ele>42.7</ele>
        <time>2022-09-09T08:18:15Z</time>
      </trkpt>
      <trkpt lat="48.58268" lon="-2.78688">
        <ele>44.1</ele>
        <time>2022-09-09T08:18:23Z</time>
      </trkpt>
      <trkpt lat="48.58259" lon="-2.7869">
        <ele>44.9</ele>
        <time>2022-09-09T08:18:31Z</time>
      </trkpt>
      <trkpt lat="48.5825" lon="-2.78695">
        <ele>45.2</ele>
        <time>2022-09-09T08:18:40Z</time>
      </trkpt>
      <trkpt lat="48.5824" lon="-2.78698">
        <ele>47.3</ele>
        <time>2022-09-09T08:18:48Z</time>
      </trkpt>
      <trkpt lat="48.58231" lon="-2.78702">
        <ele>49.2</ele>
        <time>2022-09-09T08:18:56Z</time>
      </trkpt>
      <trkpt lat="48.58222" lon="-2.78705">
        <ele>50.7</ele>
        <time>2022-09-09T08:19:04Z</time>
      </trkpt>
      <trkpt lat="48.58213" lon="-2.78709">
        <ele>52.4</ele>
        <time>2022-09-09T08:19:12Z</time>
      </trkpt>
      <trkpt lat="48.58204" lon="-2.78714">
        <ele>53.9</ele>
        <time>2022-09-09T08:19:21Z</time>
      </trkpt>
      <trkpt lat="48.58195" lon="-2.78717">
        <ele>55</ele>
        <time>2022-09-09T08:19:30Z</time>
      </trkpt>
      <trkpt lat="48.58187" lon="-2.78722">
        <ele>56.7</ele>
        <time>2022-09-09T08:19:39Z</time>
      </trkpt>
      <trkpt lat="48.58178" lon="-2.78729">
        <ele>59.7</ele>
        <time>2022-09-09T08:19:49Z</time>
      </trkpt>
      <trkpt lat="48.5817" lon="-2.78735">
        <ele>61.6</ele>
        <time>2022-09-09T08:19:59Z</time>
      </trkpt>
      <trkpt lat="48.58162" lon="-2.78744">
        <ele>63.6</ele>
        <time>2022-09-09T08:20:09Z</time>
      </trkpt>
      <trkpt lat="48.58153" lon="-2.78752">
        <ele>65.7</ele>
        <time>2022-09-09T08:20:19Z</time>
      </trkpt>
      <trkpt lat="48.58145" lon="-2.78758">
        <ele>67.8</ele>
        <time>2022-09-09T08:20:29Z</time>
      </trkpt>
      <trkpt lat="48.58137" lon="-2.78765">
        <ele>69.4</ele>
        <time>2022-09-09T08:20:39Z</time>
      </trkpt>
      <trkpt lat="48.58129" lon="-2.78774">
        <ele>70.7</ele>
        <time>2022-09-09T08:20:48Z</time>
      </trkpt>
      <trkpt lat="48.58121" lon="-2.78779">
        <ele>71.4</ele>
        <time>2022-09-09T08:20:57Z</time>
      </trkpt>
      <trkpt lat="48.58112" lon="-2.78784">
        <ele>73</ele>
        <time>2022-09-09T08:21:07Z</time>
      </trkpt>
      <trkpt lat="48.58103" lon="-2.78788">
        <ele>74.8</ele>
        <time>2022-09-09T08:21:16Z</time>
      </trkpt>
      <trkpt lat="48.58095" lon="-2.78792">
        <ele>76.3</ele>
        <time>2022-09-09T08:21:25Z</time>
      </trkpt>
      <trkpt lat="48.58085" lon="-2.78793">
        <ele>77.3</ele>
        <time>2022-09-09T08:21:33Z</time>
      </trkpt>
      <trkpt lat="48.58076" lon="-2.78797">
        <ele>78.3</ele>
        <time>2022-09-09T08:21:42Z</time>
      </trkpt>
      <trkpt lat="48.58067" lon="-2.78797">
        <ele>79.1</ele>
        <time>2022-09-09T08:21:51Z</time>
      </trkpt>
      <trkpt lat="48.58057" lon="-2.78798">
        <ele>79.7</ele>
        <time>2022-09-09T08:22:00Z</time>
      </trkpt>
      <trkpt lat="48.58046" lon="-2.788">
        <ele>80.7</ele>
        <time>2022-09-09T08:22:09Z</time>
      </trkpt>
      <trkpt lat="48.58037" lon="-2.78799">
        <ele>81.9</ele>
        <time>2022-09-09T08:22:16Z</time>
      </trkpt>
      <trkpt lat="48.58027" lon="-2.78797">
        <ele>83</ele>
        <time>2022-09-09T08:22:23Z</time>
      </trkpt>
      <trkpt lat="48.58018" lon="-2.78796">
        <ele>83.4</ele>
        <time>2022-09-09T08:22:30Z</time>
      </trkpt>
      <trkpt lat="48.58009" lon="-2.78795">
        <ele>83.7</ele>
        <time>2022-09-09T08:22:36Z</time>
      </trkpt>
      <trkpt lat="48.57999" lon="-2.78798">
        <ele>84.1</ele>
        <time>2022-09-09T08:22:42Z</time>
      </trkpt>
      <trkpt lat="48.57994" lon="-2.7881">
        <ele>84.6</ele>
        <time>2022-09-09T08:22:48Z</time>
      </trkpt>
      <trkpt lat="48.57994" lon="-2.78824">
        <ele>84.9</ele>
        <time>2022-09-09T08:22:52Z</time>
      </trkpt>
      <trkpt lat="48.57995" lon="-2.78839">
        <ele>85.3</ele>
        <time>2022-09-09T08:22:56Z</time>
      </trkpt>
      <trkpt lat="48.57995" lon="-2.78854">
        <ele>85.8</ele>
        <time>2022-09-09T08:23:00Z</time>
      </trkpt>
      <trkpt lat="48.57996" lon="-2.78869">
        <ele>86.3</ele>
        <time>2022-09-09T08:23:04Z</time>
      </trkpt>
      <trkpt lat="48.57996" lon="-2.78884">
        <ele>86.8</ele>
        <time>2022-09-09T08:23:08Z</time>
      </trkpt>
      <trkpt lat="48.57997" lon="-2.78899">
        <ele>87</ele>
        <time>2022-09-09T08:23:12Z</time>
      </trkpt>
      <trkpt lat="48.57997" lon="-2.78914">
        <ele>87</ele>
        <time>2022-09-09T08:23:16Z</time>
      </trkpt>
      <trkpt lat="48.57999" lon="-2.7893">
        <ele>87</ele>
        <time>2022-09-09T08:23:20Z</time>
      </trkpt>
      <trkpt lat="48.58002" lon="-2.78946">
        <ele>87</ele>
        <time>2022-09-09T08:23:24Z</time>
      </trkpt>
      <trkpt lat="48.58004" lon="-2.78962">
        <ele>87</ele>
        <time>2022-09-09T08:23:28Z</time>
      </trkpt>
      <trkpt lat="48.58007" lon="-2.78975">
        <ele>87.1</ele>
        <time>2022-09-09T08:23:31Z</time>
      </trkpt>
      <trkpt lat="48.5801" lon="-2.78989">
        <ele>87.4</ele>
        <time>2022-09-09T08:23:34Z</time>
      </trkpt>
      <trkpt lat="48.58013" lon="-2.79003">
        <ele>87.5</ele>
        <time>2022-09-09T08:23:37Z</time>
      </trkpt>
      <trkpt lat="48.58014" lon="-2.7902">
        <ele>87.5</ele>
        <time>2022-09-09T08:23:41Z</time>
      </trkpt>
      <trkpt lat="48.58014" lon="-2.79037">
        <ele>87.8</ele>
        <time>2022-09-09T08:23:45Z</time>
      </trkpt>
      <trkpt lat="48.58013" lon="-2.79053">
        <ele>88.5</ele>
        <time>2022-09-09T08:23:49Z</time>
      </trkpt>
      <trkpt lat="48.5801" lon="-2.79069">
        <ele>88.7</ele>
        <time>2022-09-09T08:23:53Z</time>
      </trkpt>
      <trkpt lat="48.58005" lon="-2.79084">
        <ele>88.8</ele>
        <time>2022-09-09T08:23:57Z</time>
      </trkpt>
      <trkpt lat="48.58001" lon="-2.79097">
        <ele>89</ele>
        <time>2022-09-09T08:24:00Z</time>
      </trkpt>
      <trkpt lat="48.57996" lon="-2.79109">
        <ele>89</ele>
        <time>2022-09-09T08:24:03Z</time>
      </trkpt>
      <trkpt lat="48.5799" lon="-2.79121">
        <ele>89.1</ele>
        <time>2022-09-09T08:24:06Z</time>
      </trkpt>
      <trkpt lat="48.57983" lon="-2.79131">
        <ele>89.4</ele>
        <time>2022-09-09T08:24:09Z</time>
      </trkpt>
      <trkpt lat="48.57977" lon="-2.79142">
        <ele>89.7</ele>
        <time>2022-09-09T08:24:12Z</time>
      </trkpt>
      <trkpt lat="48.57971" lon="-2.79153">
        <ele>89.5</ele>
        <time>2022-09-09T08:24:15Z</time>
      </trkpt>
      <trkpt lat="48.57963" lon="-2.79163">
        <ele>89.4</ele>
        <time>2022-09-09T08:24:18Z</time>
      </trkpt>
      <trkpt lat="48.57957" lon="-2.79174">
        <ele>89.6</ele>
        <time>2022-09-09T08:24:21Z</time>
      </trkpt>
      <trkpt lat="48.57948" lon="-2.79185">
        <ele>89.9</ele>
        <time>2022-09-09T08:24:25Z</time>
      </trkpt>
      <trkpt lat="48.57942" lon="-2.79195">
        <ele>90</ele>
        <time>2022-09-09T08:24:30Z</time>
      </trkpt>
      <trkpt lat="48.57946" lon="-2.7921">
        <ele>90</ele>
        <time>2022-09-09T08:24:51Z</time>
      </trkpt>
      <trkpt lat="48.5795" lon="-2.79226">
        <ele>90</ele>
        <time>2022-09-09T08:24:55Z</time>
      </trkpt>
      <trkpt lat="48.57956" lon="-2.79237">
        <ele>90</ele>
        <time>2022-09-09T08:24:58Z</time>
      </trkpt>
      <trkpt lat="48.57966" lon="-2.79246">
        <ele>90</ele>
        <time>2022-09-09T08:25:01Z</time>
      </trkpt>
      <trkpt lat="48.57976" lon="-2.79256">
        <ele>89.6</ele>
        <time>2022-09-09T08:25:04Z</time>
      </trkpt>
      <trkpt lat="48.57984" lon="-2.79266">
        <ele>89</ele>
        <time>2022-09-09T08:25:06Z</time>
      </trkpt>
      <trkpt lat="48.57991" lon="-2.79277">
        <ele>88.4</ele>
        <time>2022-09-09T08:25:08Z</time>
      </trkpt>
      <trkpt lat="48.57999" lon="-2.79288">
        <ele>87.7</ele>
        <time>2022-09-09T08:25:10Z</time>
      </trkpt>
      <trkpt lat="48.58007" lon="-2.79302">
        <ele>87.1</ele>
        <time>2022-09-09T08:25:12Z</time>
      </trkpt>
      <trkpt lat="48.58017" lon="-2.79316">
        <ele>86.5</ele>
        <time>2022-09-09T08:25:14Z</time>
      </trkpt>
      <trkpt lat="48.58027" lon="-2.79332">
        <ele>85.2</ele>
        <time>2022-09-09T08:25:16Z</time>
      </trkpt>
      <trkpt lat="48.58036" lon="-2.7935">
        <ele>83.9</ele>
        <time>2022-09-09T08:25:18Z</time>
      </trkpt>
      <trkpt lat="48.58046" lon="-2.79365">
        <ele>84.2</ele>
        <time>2022-09-09T08:25:20Z</time>
      </trkpt>
      <trkpt lat="48.58058" lon="-2.79373">
        <ele>84.4</ele>
        <time>2022-09-09T08:25:22Z</time>
      </trkpt>
      <trkpt lat="48.5807" lon="-2.79377">
        <ele>84.6</ele>
        <time>2022-09-09T08:25:24Z</time>
      </trkpt>
      <trkpt lat="48.58081" lon="-2.79382">
        <ele>84.8</ele>
        <time>2022-09-09T08:25:26Z</time>
      </trkpt>
      <trkpt lat="48.58088" lon="-2.79391">
        <ele>84.9</ele>
        <time>2022-09-09T08:25:28Z</time>
      </trkpt>
      <trkpt lat="48.58096" lon="-2.79403">
        <ele>84.8</ele>
        <time>2022-09-09T08:25:31Z</time>
      </trkpt>
      <trkpt lat="48.58105" lon="-2.79415">
        <ele>85</ele>
        <time>2022-09-09T08:25:34Z</time>
      </trkpt>
      <trkpt lat="48.58112" lon="-2.79427">
        <ele>85</ele>
        <time>2022-09-09T08:25:37Z</time>
      </trkpt>
      <trkpt lat="48.58122" lon="-2.7944">
        <ele>84.7</ele>
        <time>2022-09-09T08:25:40Z</time>
      </trkpt>
      <trkpt lat="48.58131" lon="-2.79448">
        <ele>84.3</ele>
        <time>2022-09-09T08:25:42Z</time>
      </trkpt>
      <trkpt lat="48.58141" lon="-2.7946">
        <ele>83.9</ele>
        <time>2022-09-09T08:25:44Z</time>
      </trkpt>
      <trkpt lat="48.58149" lon="-2.79471">
        <ele>83.2</ele>
        <time>2022-09-09T08:25:46Z</time>
      </trkpt>
      <trkpt lat="48.58157" lon="-2.79484">
        <ele>83</ele>
        <time>2022-09-09T08:25:48Z</time>
      </trkpt>
      <trkpt lat="48.58164" lon="-2.79498">
        <ele>83</ele>
        <time>2022-09-09T08:25:50Z</time>
      </trkpt>
      <trkpt lat="48.58172" lon="-2.7951">
        <ele>82.9</ele>
        <time>2022-09-09T08:25:52Z</time>
      </trkpt>
      <trkpt lat="48.58179" lon="-2.7952">
        <ele>82.9</ele>
        <time>2022-09-09T08:25:54Z</time>
      </trkpt>
      <trkpt lat="48.58186" lon="-2.79531">
        <ele>83</ele>
        <time>2022-09-09T08:25:56Z</time>
      </trkpt>
      <trkpt lat="48.58194" lon="-2.79546">
        <ele>83</ele>
        <time>2022-09-09T08:25:59Z</time>
      </trkpt>
      <trkpt lat="48.58201" lon="-2.79556">
        <ele>82.8</ele>
        <time>2022-09-09T08:26:01Z</time>
      </trkpt>
      <trkpt lat="48.58209" lon="-2.79567">
        <ele>82.5</ele>
        <time>2022-09-09T08:26:03Z</time>
      </trkpt>
      <trkpt lat="48.58216" lon="-2.79578">
        <ele>82.2</ele>
        <time>2022-09-09T08:26:05Z</time>
      </trkpt>
      <trkpt lat="48.58223" lon="-2.79588">
        <ele>82.2</ele>
        <time>2022-09-09T08:26:07Z</time>
      </trkpt>
      <trkpt lat="48.58228" lon="-2.796">
        <ele>82.5</ele>
        <time>2022-09-09T08:26:09Z</time>
      </trkpt>
      <trkpt lat="48.58232" lon="-2.79613">
        <ele>82.6</ele>
        <time>2022-09-09T08:26:11Z</time>
      </trkpt>
      <trkpt lat="48.58236" lon="-2.79627">
        <ele>82.5</ele>
        <time>2022-09-09T08:26:13Z</time>
      </trkpt>
      <trkpt lat="48.58238" lon="-2.79641">
        <ele>82.4</ele>
        <time>2022-09-09T08:26:15Z</time>
      </trkpt>
      <trkpt lat="48.58241" lon="-2.79654">
        <ele>82.3</ele>
        <time>2022-09-09T08:26:17Z</time>
      </trkpt>
      <trkpt lat="48.58245" lon="-2.79667">
        <ele>82.2</ele>
        <time>2022-09-09T08:26:19Z</time>
      </trkpt>
      <trkpt lat="48.58251" lon="-2.79679">
        <ele>82.4</ele>
        <time>2022-09-09T08:26:21Z</time>
      </trkpt>
      <trkpt lat="48.58256" lon="-2.79691">
        <ele>82.7</ele>
        <time>2022-09-09T08:26:23Z</time>
      </trkpt>
      <trkpt lat="48.58261" lon="-2.79703">
        <ele>82.6</ele>
        <time>2022-09-09T08:26:25Z</time>
      </trkpt>
      <trkpt lat="48.58268" lon="-2.79719">
        <ele>82.3</ele>
        <time>2022-09-09T08:26:28Z</time>
      </trkpt>
      <trkpt lat="48.58274" lon="-2.7973">
        <ele>82.4</ele>
        <time>2022-09-09T08:26:30Z</time>
      </trkpt>
      <trkpt lat="48.58279" lon="-2.79741">
        <ele>82.6</ele>
        <time>2022-09-09T08:26:32Z</time>
      </trkpt>
      <trkpt lat="48.58287" lon="-2.79759">
        <ele>82.1</ele>
        <time>2022-09-09T08:26:35Z</time>
      </trkpt>
      <trkpt lat="48.58293" lon="-2.79773">
        <ele>81.5</ele>
        <time>2022-09-09T08:26:37Z</time>
      </trkpt>
      <trkpt lat="48.58298" lon="-2.79789">
        <ele>81.3</ele>
        <time>2022-09-09T08:26:39Z</time>
      </trkpt>
      <trkpt lat="48.58304" lon="-2.79804">
        <ele>81.1</ele>
        <time>2022-09-09T08:26:41Z</time>
      </trkpt>
      <trkpt lat="48.5831" lon="-2.79819">
        <ele>80.4</ele>
        <time>2022-09-09T08:26:43Z</time>
      </trkpt>
      <trkpt lat="48.58316" lon="-2.79835">
        <ele>80</ele>
        <time>2022-09-09T08:26:45Z</time>
      </trkpt>
      <trkpt lat="48.5832" lon="-2.79851">
        <ele>80</ele>
        <time>2022-09-09T08:26:47Z</time>
      </trkpt>
      <trkpt lat="48.58322" lon="-2.79866">
        <ele>80</ele>
        <time>2022-09-09T08:26:49Z</time>
      </trkpt>
      <trkpt lat="48.58324" lon="-2.7988">
        <ele>80</ele>
        <time>2022-09-09T08:26:51Z</time>
      </trkpt>
      <trkpt lat="48.58326" lon="-2.79898">
        <ele>80.2</ele>
        <time>2022-09-09T08:26:54Z</time>
      </trkpt>
      <trkpt lat="48.58326" lon="-2.79913">
        <ele>80.6</ele>
        <time>2022-09-09T08:26:58Z</time>
      </trkpt>
      <trkpt lat="48.58318" lon="-2.79922">
        <ele>80.7</ele>
        <time>2022-09-09T08:27:03Z</time>
      </trkpt>
      <trkpt lat="48.58308" lon="-2.79924">
        <ele>80.4</ele>
        <time>2022-09-09T08:27:06Z</time>
      </trkpt>
      <trkpt lat="48.58296" lon="-2.79927">
        <ele>80.2</ele>
        <time>2022-09-09T08:27:09Z</time>
      </trkpt>
      <trkpt lat="48.58288" lon="-2.79934">
        <ele>80.2</ele>
        <time>2022-09-09T08:27:13Z</time>
      </trkpt>
      <trkpt lat="48.58279" lon="-2.7993">
        <ele>80</ele>
        <time>2022-09-09T08:27:55Z</time>
      </trkpt>
      <trkpt lat="48.58267" lon="-2.79934">
        <ele>79.8</ele>
        <time>2022-09-09T08:27:59Z</time>
      </trkpt>
      <trkpt lat="48.58257" lon="-2.79933">
        <ele>79.6</ele>
        <time>2022-09-09T08:28:02Z</time>
      </trkpt>
      <trkpt lat="48.58246" lon="-2.79931">
        <ele>79.6</ele>
        <time>2022-09-09T08:28:05Z</time>
      </trkpt>
      <trkpt lat="48.58234" lon="-2.79931">
        <ele>80.1</ele>
        <time>2022-09-09T08:28:08Z</time>
      </trkpt>
      <trkpt lat="48.58222" lon="-2.79934">
        <ele>80.4</ele>
        <time>2022-09-09T08:28:11Z</time>
      </trkpt>
      <trkpt lat="48.58211" lon="-2.79933">
        <ele>80.6</ele>
        <time>2022-09-09T08:28:14Z</time>
      </trkpt>
      <trkpt lat="48.58199" lon="-2.79932">
        <ele>80.9</ele>
        <time>2022-09-09T08:28:17Z</time>
      </trkpt>
      <trkpt lat="48.58189" lon="-2.7993">
        <ele>81</ele>
        <time>2022-09-09T08:28:20Z</time>
      </trkpt>
      <trkpt lat="48.5818" lon="-2.79927">
        <ele>81</ele>
        <time>2022-09-09T08:28:24Z</time>
      </trkpt>
      <trkpt lat="48.58171" lon="-2.79921">
        <ele>81</ele>
        <time>2022-09-09T08:28:45Z</time>
      </trkpt>
      <trkpt lat="48.58162" lon="-2.7992">
        <ele>81</ele>
        <time>2022-09-09T08:28:57Z</time>
      </trkpt>
      <trkpt lat="48.58152" lon="-2.79914">
        <ele>81.1</ele>
        <time>2022-09-09T08:29:02Z</time>
      </trkpt>
      <trkpt lat="48.58143" lon="-2.79909">
        <ele>81.3</ele>
        <time>2022-09-09T08:29:05Z</time>
      </trkpt>
      <trkpt lat="48.58133" lon="-2.79903">
        <ele>81.6</ele>
        <time>2022-09-09T08:29:08Z</time>
      </trkpt>
      <trkpt lat="48.58122" lon="-2.79898">
        <ele>81.9</ele>
        <time>2022-09-09T08:29:11Z</time>
      </trkpt>
      <trkpt lat="48.58109" lon="-2.79892">
        <ele>81.9</ele>
        <time>2022-09-09T08:29:14Z</time>
      </trkpt>
      <trkpt lat="48.58097" lon="-2.79888">
        <ele>81.5</ele>
        <time>2022-09-09T08:29:17Z</time>
      </trkpt>
      <trkpt lat="48.58086" lon="-2.79883">
        <ele>81.3</ele>
        <time>2022-09-09T08:29:20Z</time>
      </trkpt>
      <trkpt lat="48.58075" lon="-2.79876">
        <ele>81.6</ele>
        <time>2022-09-09T08:29:23Z</time>
      </trkpt>
      <trkpt lat="48.58065" lon="-2.79867">
        <ele>81.9</ele>
        <time>2022-09-09T08:29:26Z</time>
      </trkpt>
      <trkpt lat="48.58055" lon="-2.79857">
        <ele>82.2</ele>
        <time>2022-09-09T08:29:29Z</time>
      </trkpt>
      <trkpt lat="48.58045" lon="-2.79846">
        <ele>83.1</ele>
        <time>2022-09-09T08:29:32Z</time>
      </trkpt>
      <trkpt lat="48.58038" lon="-2.79835">
        <ele>83.6</ele>
        <time>2022-09-09T08:29:35Z</time>
      </trkpt>
      <trkpt lat="48.58031" lon="-2.79824">
        <ele>83.9</ele>
        <time>2022-09-09T08:29:38Z</time>
      </trkpt>
      <trkpt lat="48.58023" lon="-2.79811">
        <ele>84.3</ele>
        <time>2022-09-09T08:29:42Z</time>
      </trkpt>
      <trkpt lat="48.58017" lon="-2.798">
        <ele>84.9</ele>
        <time>2022-09-09T08:29:46Z</time>
      </trkpt>
      <trkpt lat="48.5801" lon="-2.79789">
        <ele>85.5</ele>
        <time>2022-09-09T08:29:50Z</time>
      </trkpt>
      <trkpt lat="48.58" lon="-2.79786">
        <ele>86</ele>
        <time>2022-09-09T08:29:54Z</time>
      </trkpt>
      <trkpt lat="48.57992" lon="-2.79795">
        <ele>85.9</ele>
        <time>2022-09-09T08:29:57Z</time>
      </trkpt>
      <trkpt lat="48.57985" lon="-2.79806">
        <ele>86</ele>
        <time>2022-09-09T08:30:00Z</time>
      </trkpt>
      <trkpt lat="48.57978" lon="-2.79819">
        <ele>85.9</ele>
        <time>2022-09-09T08:30:03Z</time>
      </trkpt>
      <trkpt lat="48.57971" lon="-2.79833">
        <ele>86</ele>
        <time>2022-09-09T08:30:06Z</time>
      </trkpt>
      <trkpt lat="48.57965" lon="-2.79846">
        <ele>86.3</ele>
        <time>2022-09-09T08:30:09Z</time>
      </trkpt>
      <trkpt lat="48.57959" lon="-2.79857">
        <ele>86.5</ele>
        <time>2022-09-09T08:30:12Z</time>
      </trkpt>
      <trkpt lat="48.5795" lon="-2.79867">
        <ele>86.8</ele>
        <time>2022-09-09T08:30:15Z</time>
      </trkpt>
      <trkpt lat="48.57941" lon="-2.79875">
        <ele>87</ele>
        <time>2022-09-09T08:30:18Z</time>
      </trkpt>
      <trkpt lat="48.57932" lon="-2.79881">
        <ele>87</ele>
        <time>2022-09-09T08:30:21Z</time>
      </trkpt>
      <trkpt lat="48.57921" lon="-2.79881">
        <ele>87</ele>
        <time>2022-09-09T08:30:24Z</time>
      </trkpt>
      <trkpt lat="48.5791" lon="-2.79877">
        <ele>87</ele>
        <time>2022-09-09T08:30:27Z</time>
      </trkpt>
      <trkpt lat="48.57899" lon="-2.79873">
        <ele>87</ele>
        <time>2022-09-09T08:30:30Z</time>
      </trkpt>
      <trkpt lat="48.57886" lon="-2.79867">
        <ele>87</ele>
        <time>2022-09-09T08:30:33Z</time>
      </trkpt>
      <trkpt lat="48.57874" lon="-2.79864">
        <ele>87.1</ele>
        <time>2022-09-09T08:30:36Z</time>
      </trkpt>
      <trkpt lat="48.57862" lon="-2.79863">
        <ele>87.1</ele>
        <time>2022-09-09T08:30:39Z</time>
      </trkpt>
      <trkpt lat="48.57851" lon="-2.7987">
        <ele>87.6</ele>
        <time>2022-09-09T08:30:42Z</time>
      </trkpt>
      <trkpt lat="48.57841" lon="-2.79878">
        <ele>87.9</ele>
        <time>2022-09-09T08:30:45Z</time>
      </trkpt>
      <trkpt lat="48.57832" lon="-2.79885">
        <ele>87.9</ele>
        <time>2022-09-09T08:30:48Z</time>
      </trkpt>
      <trkpt lat="48.5782" lon="-2.79891">
        <ele>87.6</ele>
        <time>2022-09-09T08:30:51Z</time>
      </trkpt>
      <trkpt lat="48.57811" lon="-2.79893">
        <ele>87.3</ele>
        <time>2022-09-09T08:30:53Z</time>
      </trkpt>
      <trkpt lat="48.57801" lon="-2.79894">
        <ele>87.2</ele>
        <time>2022-09-09T08:30:55Z</time>
      </trkpt>
      <trkpt lat="48.57792" lon="-2.79893">
        <ele>87.1</ele>
        <time>2022-09-09T08:30:57Z</time>
      </trkpt>
      <trkpt lat="48.57778" lon="-2.79894">
        <ele>87</ele>
        <time>2022-09-09T08:31:00Z</time>
      </trkpt>
      <trkpt lat="48.57769" lon="-2.79895">
        <ele>87</ele>
        <time>2022-09-09T08:31:02Z</time>
      </trkpt>
      <trkpt lat="48.5776" lon="-2.79895">
        <ele>87</ele>
        <time>2022-09-09T08:31:04Z</time>
      </trkpt>
      <trkpt lat="48.57748" lon="-2.79895">
        <ele>87.1</ele>
        <time>2022-09-09T08:31:07Z</time>
      </trkpt>
      <trkpt lat="48.57734" lon="-2.79896">
        <ele>87.6</ele>
        <time>2022-09-09T08:31:10Z</time>
      </trkpt>
      <trkpt lat="48.57722" lon="-2.79894">
        <ele>88</ele>
        <time>2022-09-09T08:31:13Z</time>
      </trkpt>
      <trkpt lat="48.57712" lon="-2.79896">
        <ele>88.3</ele>
        <time>2022-09-09T08:31:16Z</time>
      </trkpt>
      <trkpt lat="48.57702" lon="-2.79902">
        <ele>88.4</ele>
        <time>2022-09-09T08:31:20Z</time>
      </trkpt>
      <trkpt lat="48.57697" lon="-2.79914">
        <ele>88.1</ele>
        <time>2022-09-09T08:31:23Z</time>
      </trkpt>
      <trkpt lat="48.57692" lon="-2.79929">
        <ele>88.1</ele>
        <time>2022-09-09T08:31:26Z</time>
      </trkpt>
      <trkpt lat="48.57685" lon="-2.79945">
        <ele>88.3</ele>
        <time>2022-09-09T08:31:29Z</time>
      </trkpt>
      <trkpt lat="48.57681" lon="-2.79958">
        <ele>88</ele>
        <time>2022-09-09T08:31:31Z</time>
      </trkpt>
      <trkpt lat="48.57676" lon="-2.7997">
        <ele>87.8</ele>
        <time>2022-09-09T08:31:33Z</time>
      </trkpt>
      <trkpt lat="48.57669" lon="-2.79988">
        <ele>87.4</ele>
        <time>2022-09-09T08:31:36Z</time>
      </trkpt>
      <trkpt lat="48.57664" lon="-2.80002">
        <ele>87</ele>
        <time>2022-09-09T08:31:38Z</time>
      </trkpt>
      <trkpt lat="48.57657" lon="-2.80019">
        <ele>86.8</ele>
        <time>2022-09-09T08:31:41Z</time>
      </trkpt>
      <trkpt lat="48.57653" lon="-2.80033">
        <ele>86.4</ele>
        <time>2022-09-09T08:31:43Z</time>
      </trkpt>
      <trkpt lat="48.57647" lon="-2.80045">
        <ele>86.1</ele>
        <time>2022-09-09T08:31:45Z</time>
      </trkpt>
      <trkpt lat="48.57641" lon="-2.80056">
        <ele>86</ele>
        <time>2022-09-09T08:31:47Z</time>
      </trkpt>
      <trkpt lat="48.57634" lon="-2.80067">
        <ele>85.5</ele>
        <time>2022-09-09T08:31:49Z</time>
      </trkpt>
      <trkpt lat="48.57627" lon="-2.80077">
        <ele>85.1</ele>
        <time>2022-09-09T08:31:51Z</time>
      </trkpt>
      <trkpt lat="48.57621" lon="-2.8009">
        <ele>85</ele>
        <time>2022-09-09T08:31:53Z</time>
      </trkpt>
      <trkpt lat="48.57614" lon="-2.80099">
        <ele>85</ele>
        <time>2022-09-09T08:31:55Z</time>
      </trkpt>
      <trkpt lat="48.57607" lon="-2.80109">
        <ele>85</ele>
        <time>2022-09-09T08:31:57Z</time>
      </trkpt>
      <trkpt lat="48.576" lon="-2.80119">
        <ele>85</ele>
        <time>2022-09-09T08:31:59Z</time>
      </trkpt>
      <trkpt lat="48.57594" lon="-2.80131">
        <ele>85</ele>
        <time>2022-09-09T08:32:01Z</time>
      </trkpt>
      <trkpt lat="48.57586" lon="-2.80141">
        <ele>85</ele>
        <time>2022-09-09T08:32:03Z</time>
      </trkpt>
      <trkpt lat="48.5758" lon="-2.80152">
        <ele>84.9</ele>
        <time>2022-09-09T08:32:05Z</time>
      </trkpt>
      <trkpt lat="48.57574" lon="-2.80163">
        <ele>84.7</ele>
        <time>2022-09-09T08:32:07Z</time>
      </trkpt>
      <trkpt lat="48.57567" lon="-2.80175">
        <ele>84.5</ele>
        <time>2022-09-09T08:32:09Z</time>
      </trkpt>
      <trkpt lat="48.5756" lon="-2.80186">
        <ele>84.3</ele>
        <time>2022-09-09T08:32:11Z</time>
      </trkpt>
      <trkpt lat="48.57555" lon="-2.80197">
        <ele>84.1</ele>
        <time>2022-09-09T08:32:13Z</time>
      </trkpt>
      <trkpt lat="48.57549" lon="-2.80209">
        <ele>84.4</ele>
        <time>2022-09-09T08:32:15Z</time>
      </trkpt>
      <trkpt lat="48.57543" lon="-2.80221">
        <ele>84.5</ele>
        <time>2022-09-09T08:32:17Z</time>
      </trkpt>
      <trkpt lat="48.57538" lon="-2.80232">
        <ele>84</ele>
        <time>2022-09-09T08:32:19Z</time>
      </trkpt>
      <trkpt lat="48.57532" lon="-2.80243">
        <ele>83.8</ele>
        <time>2022-09-09T08:32:21Z</time>
      </trkpt>
      <trkpt lat="48.57527" lon="-2.80255">
        <ele>84</ele>
        <time>2022-09-09T08:32:23Z</time>
      </trkpt>
      <trkpt lat="48.57519" lon="-2.80272">
        <ele>84.3</ele>
        <time>2022-09-09T08:32:26Z</time>
      </trkpt>
      <trkpt lat="48.57513" lon="-2.80283">
        <ele>84.3</ele>
        <time>2022-09-09T08:32:28Z</time>
      </trkpt>
      <trkpt lat="48.57506" lon="-2.803">
        <ele>84</ele>
        <time>2022-09-09T08:32:31Z</time>
      </trkpt>
      <trkpt lat="48.57497" lon="-2.80315">
        <ele>84.1</ele>
        <time>2022-09-09T08:32:34Z</time>
      </trkpt>
      <trkpt lat="48.57492" lon="-2.80326">
        <ele>84.1</ele>
        <time>2022-09-09T08:32:36Z</time>
      </trkpt>
      <trkpt lat="48.57486" lon="-2.80338">
        <ele>83.7</ele>
        <time>2022-09-09T08:32:38Z</time>
      </trkpt>
      <trkpt lat="48.57481" lon="-2.80351">
        <ele>82.9</ele>
        <time>2022-09-09T08:32:40Z</time>
      </trkpt>
      <trkpt lat="48.57475" lon="-2.80365">
        <ele>81.9</ele>
        <time>2022-09-09T08:32:42Z</time>
      </trkpt>
      <trkpt lat="48.5747" lon="-2.80382">
        <ele>81.5</ele>
        <time>2022-09-09T08:32:44Z</time>
      </trkpt>
      <trkpt lat="48.57463" lon="-2.80398">
        <ele>80.7</ele>
        <time>2022-09-09T08:32:46Z</time>
      </trkpt>
      <trkpt lat="48.57456" lon="-2.80416">
        <ele>78.7</ele>
        <time>2022-09-09T08:32:48Z</time>
      </trkpt>
      <trkpt lat="48.57449" lon="-2.80433">
        <ele>77.9</ele>
        <time>2022-09-09T08:32:50Z</time>
      </trkpt>
      <trkpt lat="48.57444" lon="-2.80447">
        <ele>77.9</ele>
        <time>2022-09-09T08:32:52Z</time>
      </trkpt>
      <trkpt lat="48.5744" lon="-2.80462">
        <ele>77.4</ele>
        <time>2022-09-09T08:32:55Z</time>
      </trkpt>
      <trkpt lat="48.57436" lon="-2.80477">
        <ele>77</ele>
        <time>2022-09-09T08:33:55Z</time>
      </trkpt>
      <trkpt lat="48.57428" lon="-2.8049">
        <ele>77</ele>
        <time>2022-09-09T08:33:59Z</time>
      </trkpt>
      <trkpt lat="48.57422" lon="-2.80504">
        <ele>77</ele>
        <time>2022-09-09T08:34:02Z</time>
      </trkpt>
      <trkpt lat="48.57415" lon="-2.80518">
        <ele>77.1</ele>
        <time>2022-09-09T08:34:05Z</time>
      </trkpt>
      <trkpt lat="48.57408" lon="-2.80533">
        <ele>77.6</ele>
        <time>2022-09-09T08:34:08Z</time>
      </trkpt>
      <trkpt lat="48.57402" lon="-2.80547">
        <ele>78.2</ele>
        <time>2022-09-09T08:34:11Z</time>
      </trkpt>
      <trkpt lat="48.57397" lon="-2.80561">
        <ele>78.3</ele>
        <time>2022-09-09T08:34:14Z</time>
      </trkpt>
      <trkpt lat="48.57393" lon="-2.80576">
        <ele>78.2</ele>
        <time>2022-09-09T08:34:17Z</time>
      </trkpt>
      <trkpt lat="48.5739" lon="-2.80589">
        <ele>78.5</ele>
        <time>2022-09-09T08:34:20Z</time>
      </trkpt>
      <trkpt lat="48.57387" lon="-2.80603">
        <ele>79.4</ele>
        <time>2022-09-09T08:34:23Z</time>
      </trkpt>
      <trkpt lat="48.57384" lon="-2.80616">
        <ele>80.2</ele>
        <time>2022-09-09T08:34:26Z</time>
      </trkpt>
      <trkpt lat="48.57382" lon="-2.80629">
        <ele>80.7</ele>
        <time>2022-09-09T08:34:29Z</time>
      </trkpt>
      <trkpt lat="48.57379" lon="-2.80643">
        <ele>81.1</ele>
        <time>2022-09-09T08:34:32Z</time>
      </trkpt>
      <trkpt lat="48.57383" lon="-2.80658">
        <ele>81.7</ele>
        <time>2022-09-09T08:34:36Z</time>
      </trkpt>
      <trkpt lat="48.57392" lon="-2.8066">
        <ele>81.8</ele>
        <time>2022-09-09T08:34:39Z</time>
      </trkpt>
      <trkpt lat="48.57401" lon="-2.80663">
        <ele>82</ele>
        <time>2022-09-09T08:34:42Z</time>
      </trkpt>
      <trkpt lat="48.57411" lon="-2.80666">
        <ele>82</ele>
        <time>2022-09-09T08:34:45Z</time>
      </trkpt>
      <trkpt lat="48.5742" lon="-2.80668">
        <ele>82.1</ele>
        <time>2022-09-09T08:34:48Z</time>
      </trkpt>
      <trkpt lat="48.57429" lon="-2.80669">
        <ele>82.4</ele>
        <time>2022-09-09T08:34:51Z</time>
      </trkpt>
      <trkpt lat="48.5744" lon="-2.80673">
        <ele>82.9</ele>
        <time>2022-09-09T08:34:55Z</time>
      </trkpt>
      <trkpt lat="48.57452" lon="-2.80675">
        <ele>83.2</ele>
        <time>2022-09-09T08:34:59Z</time>
      </trkpt>
      <trkpt lat="48.57461" lon="-2.80675">
        <ele>83.4</ele>
        <time>2022-09-09T08:35:02Z</time>
      </trkpt>
      <trkpt lat="48.5747" lon="-2.80675">
        <ele>83.7</ele>
        <time>2022-09-09T08:35:05Z</time>
      </trkpt>
      <trkpt lat="48.5748" lon="-2.80672">
        <ele>83.9</ele>
        <time>2022-09-09T08:35:08Z</time>
      </trkpt>
      <trkpt lat="48.57491" lon="-2.80671">
        <ele>84</ele>
        <time>2022-09-09T08:35:11Z</time>
      </trkpt>
      <trkpt lat="48.57502" lon="-2.80668">
        <ele>84</ele>
        <time>2022-09-09T08:35:14Z</time>
      </trkpt>
      <trkpt lat="48.57514" lon="-2.80665">
        <ele>84</ele>
        <time>2022-09-09T08:35:17Z</time>
      </trkpt>
      <trkpt lat="48.57526" lon="-2.80663">
        <ele>84</ele>
        <time>2022-09-09T08:35:20Z</time>
      </trkpt>
      <trkpt lat="48.57538" lon="-2.80661">
        <ele>84.2</ele>
        <time>2022-09-09T08:35:23Z</time>
      </trkpt>
      <trkpt lat="48.57551" lon="-2.80658">
        <ele>84.3</ele>
        <time>2022-09-09T08:35:26Z</time>
      </trkpt>
      <trkpt lat="48.57563" lon="-2.80656">
        <ele>84.1</ele>
        <time>2022-09-09T08:35:29Z</time>
      </trkpt>
      <trkpt lat="48.57576" lon="-2.80653">
        <ele>83.6</ele>
        <time>2022-09-09T08:35:32Z</time>
      </trkpt>
      <trkpt lat="48.57589" lon="-2.80648">
        <ele>83.5</ele>
        <time>2022-09-09T08:35:35Z</time>
      </trkpt>
      <trkpt lat="48.57601" lon="-2.80643">
        <ele>83.8</ele>
        <time>2022-09-09T08:35:38Z</time>
      </trkpt>
      <trkpt lat="48.57613" lon="-2.80636">
        <ele>83.9</ele>
        <time>2022-09-09T08:35:41Z</time>
      </trkpt>
      <trkpt lat="48.57623" lon="-2.80629">
        <ele>84.1</ele>
        <time>2022-09-09T08:35:44Z</time>
      </trkpt>
      <trkpt lat="48.57635" lon="-2.80624">
        <ele>84.3</ele>
        <time>2022-09-09T08:35:47Z</time>
      </trkpt>
      <trkpt lat="48.57646" lon="-2.8062">
        <ele>84.5</ele>
        <time>2022-09-09T08:35:50Z</time>
      </trkpt>
      <trkpt lat="48.57657" lon="-2.80616">
        <ele>84.7</ele>
        <time>2022-09-09T08:35:53Z</time>
      </trkpt>
      <trkpt lat="48.57669" lon="-2.80614">
        <ele>85.1</ele>
        <time>2022-09-09T08:35:56Z</time>
      </trkpt>
      <trkpt lat="48.5768" lon="-2.80614">
        <ele>85.5</ele>
        <time>2022-09-09T08:35:59Z</time>
      </trkpt>
      <trkpt lat="48.57691" lon="-2.80616">
        <ele>85.9</ele>
        <time>2022-09-09T08:36:02Z</time>
      </trkpt>
      <trkpt lat="48.577" lon="-2.80617">
        <ele>86.2</ele>
        <time>2022-09-09T08:36:05Z</time>
      </trkpt>
      <trkpt lat="48.57711" lon="-2.80619">
        <ele>86.6</ele>
        <time>2022-09-09T08:36:09Z</time>
      </trkpt>
      <trkpt lat="48.57721" lon="-2.80622">
        <ele>87</ele>
        <time>2022-09-09T08:36:13Z</time>
      </trkpt>
      <trkpt lat="48.57732" lon="-2.80625">
        <ele>87.4</ele>
        <time>2022-09-09T08:36:17Z</time>
      </trkpt>
      <trkpt lat="48.57741" lon="-2.80629">
        <ele>87.7</ele>
        <time>2022-09-09T08:36:20Z</time>
      </trkpt>
      <trkpt lat="48.5775" lon="-2.80633">
        <ele>88</ele>
        <time>2022-09-09T08:36:23Z</time>
      </trkpt>
      <trkpt lat="48.5776" lon="-2.80637">
        <ele>87.6</ele>
        <time>2022-09-09T08:36:26Z</time>
      </trkpt>
      <trkpt lat="48.57771" lon="-2.80642">
        <ele>87.2</ele>
        <time>2022-09-09T08:36:29Z</time>
      </trkpt>
      <trkpt lat="48.57783" lon="-2.80649">
        <ele>86.7</ele>
        <time>2022-09-09T08:36:32Z</time>
      </trkpt>
      <trkpt lat="48.57793" lon="-2.80654">
        <ele>86.2</ele>
        <time>2022-09-09T08:36:34Z</time>
      </trkpt>
      <trkpt lat="48.57802" lon="-2.80661">
        <ele>86</ele>
        <time>2022-09-09T08:36:36Z</time>
      </trkpt>
      <trkpt lat="48.57811" lon="-2.80668">
        <ele>85.9</ele>
        <time>2022-09-09T08:36:38Z</time>
      </trkpt>
      <trkpt lat="48.57819" lon="-2.80676">
        <ele>85.9</ele>
        <time>2022-09-09T08:36:40Z</time>
      </trkpt>
      <trkpt lat="48.57825" lon="-2.80686">
        <ele>86</ele>
        <time>2022-09-09T08:36:42Z</time>
      </trkpt>
      <trkpt lat="48.57832" lon="-2.80695">
        <ele>86</ele>
        <time>2022-09-09T08:36:44Z</time>
      </trkpt>
      <trkpt lat="48.57842" lon="-2.8071">
        <ele>85.5</ele>
        <time>2022-09-09T08:36:47Z</time>
      </trkpt>
      <trkpt lat="48.5785" lon="-2.80727">
        <ele>85.4</ele>
        <time>2022-09-09T08:36:50Z</time>
      </trkpt>
      <trkpt lat="48.57856" lon="-2.80738">
        <ele>85.2</ele>
        <time>2022-09-09T08:36:52Z</time>
      </trkpt>
      <trkpt lat="48.57864" lon="-2.80753">
        <ele>84.9</ele>
        <time>2022-09-09T08:36:55Z</time>
      </trkpt>
      <trkpt lat="48.5787" lon="-2.80764">
        <ele>84.5</ele>
        <time>2022-09-09T08:36:58Z</time>
      </trkpt>
      <trkpt lat="48.57876" lon="-2.80775">
        <ele>84</ele>
        <time>2022-09-09T08:37:02Z</time>
      </trkpt>
      <trkpt lat="48.57885" lon="-2.80785">
        <ele>83.3</ele>
        <time>2022-09-09T08:37:05Z</time>
      </trkpt>
      <trkpt lat="48.57893" lon="-2.80797">
        <ele>83</ele>
        <time>2022-09-09T08:37:08Z</time>
      </trkpt>
      <trkpt lat="48.57902" lon="-2.80809">
        <ele>83.1</ele>
        <time>2022-09-09T08:37:11Z</time>
      </trkpt>
      <trkpt lat="48.57911" lon="-2.80821">
        <ele>83.5</ele>
        <time>2022-09-09T08:37:14Z</time>
      </trkpt>
      <trkpt lat="48.5792" lon="-2.80833">
        <ele>84</ele>
        <time>2022-09-09T08:37:17Z</time>
      </trkpt>
      <trkpt lat="48.57929" lon="-2.80844">
        <ele>84</ele>
        <time>2022-09-09T08:37:20Z</time>
      </trkpt>
      <trkpt lat="48.57939" lon="-2.80855">
        <ele>84</ele>
        <time>2022-09-09T08:37:23Z</time>
      </trkpt>
      <trkpt lat="48.57947" lon="-2.80866">
        <ele>84</ele>
        <time>2022-09-09T08:37:26Z</time>
      </trkpt>
      <trkpt lat="48.57955" lon="-2.80878">
        <ele>84</ele>
        <time>2022-09-09T08:37:29Z</time>
      </trkpt>
      <trkpt lat="48.57965" lon="-2.8089">
        <ele>84</ele>
        <time>2022-09-09T08:37:32Z</time>
      </trkpt>
      <trkpt lat="48.57974" lon="-2.80901">
        <ele>84</ele>
        <time>2022-09-09T08:37:35Z</time>
      </trkpt>
      <trkpt lat="48.57984" lon="-2.80912">
        <ele>84</ele>
        <time>2022-09-09T08:37:38Z</time>
      </trkpt>
      <trkpt lat="48.57994" lon="-2.80921">
        <ele>84</ele>
        <time>2022-09-09T08:37:41Z</time>
      </trkpt>
      <trkpt lat="48.58004" lon="-2.80925">
        <ele>84</ele>
        <time>2022-09-09T08:37:44Z</time>
      </trkpt>
      <trkpt lat="48.58015" lon="-2.80926">
        <ele>84</ele>
        <time>2022-09-09T08:37:47Z</time>
      </trkpt>
      <trkpt lat="48.58027" lon="-2.80924">
        <ele>84</ele>
        <time>2022-09-09T08:37:50Z</time>
      </trkpt>
      <trkpt lat="48.58039" lon="-2.80921">
        <ele>83.9</ele>
        <time>2022-09-09T08:37:53Z</time>
      </trkpt>
      <trkpt lat="48.58049" lon="-2.80918">
        <ele>84</ele>
        <time>2022-09-09T08:37:56Z</time>
      </trkpt>
      <trkpt lat="48.58059" lon="-2.80925">
        <ele>83.6</ele>
        <time>2022-09-09T08:38:00Z</time>
      </trkpt>
      <trkpt lat="48.58062" lon="-2.80942">
        <ele>83.1</ele>
        <time>2022-09-09T08:38:03Z</time>
      </trkpt>
      <trkpt lat="48.5806" lon="-2.80961">
        <ele>83</ele>
        <time>2022-09-09T08:38:06Z</time>
      </trkpt>
      <trkpt lat="48.58056" lon="-2.8098">
        <ele>83</ele>
        <time>2022-09-09T08:38:09Z</time>
      </trkpt>
      <trkpt lat="48.58053" lon="-2.80998">
        <ele>83.1</ele>
        <time>2022-09-09T08:38:12Z</time>
      </trkpt>
      <trkpt lat="48.5805" lon="-2.81015">
        <ele>83.2</ele>
        <time>2022-09-09T08:38:15Z</time>
      </trkpt>
      <trkpt lat="48.58047" lon="-2.81032">
        <ele>83.3</ele>
        <time>2022-09-09T08:38:18Z</time>
      </trkpt>
      <trkpt lat="48.58045" lon="-2.81049">
        <ele>83.4</ele>
        <time>2022-09-09T08:38:21Z</time>
      </trkpt>
      <trkpt lat="48.58042" lon="-2.81067">
        <ele>83.3</ele>
        <time>2022-09-09T08:38:24Z</time>
      </trkpt>
      <trkpt lat="48.58038" lon="-2.81084">
        <ele>83</ele>
        <time>2022-09-09T08:38:27Z</time>
      </trkpt>
      <trkpt lat="48.58033" lon="-2.811">
        <ele>83.5</ele>
        <time>2022-09-09T08:38:30Z</time>
      </trkpt>
      <trkpt lat="48.58027" lon="-2.81114">
        <ele>84</ele>
        <time>2022-09-09T08:38:33Z</time>
      </trkpt>
      <trkpt lat="48.58018" lon="-2.81122">
        <ele>84.2</ele>
        <time>2022-09-09T08:38:36Z</time>
      </trkpt>
      <trkpt lat="48.58008" lon="-2.81127">
        <ele>84.3</ele>
        <time>2022-09-09T08:38:39Z</time>
      </trkpt>
      <trkpt lat="48.57997" lon="-2.81133">
        <ele>84.2</ele>
        <time>2022-09-09T08:38:42Z</time>
      </trkpt>
      <trkpt lat="48.57987" lon="-2.81138">
        <ele>84</ele>
        <time>2022-09-09T08:38:45Z</time>
      </trkpt>
      <trkpt lat="48.57978" lon="-2.81148">
        <ele>84</ele>
        <time>2022-09-09T08:38:48Z</time>
      </trkpt>
      <trkpt lat="48.57974" lon="-2.81165">
        <ele>84</ele>
        <time>2022-09-09T08:38:51Z</time>
      </trkpt>
      <trkpt lat="48.5797" lon="-2.81182">
        <ele>84.1</ele>
        <time>2022-09-09T08:38:54Z</time>
      </trkpt>
      <trkpt lat="48.57967" lon="-2.81198">
        <ele>84.4</ele>
        <time>2022-09-09T08:38:57Z</time>
      </trkpt>
      <trkpt lat="48.57965" lon="-2.81213">
        <ele>85</ele>
        <time>2022-09-09T08:39:00Z</time>
      </trkpt>
      <trkpt lat="48.57963" lon="-2.81228">
        <ele>85.3</ele>
        <time>2022-09-09T08:39:03Z</time>
      </trkpt>
      <trkpt lat="48.5796" lon="-2.81241">
        <ele>85.4</ele>
        <time>2022-09-09T08:39:06Z</time>
      </trkpt>
      <trkpt lat="48.57957" lon="-2.81255">
        <ele>85.7</ele>
        <time>2022-09-09T08:39:09Z</time>
      </trkpt>
      <trkpt lat="48.57955" lon="-2.81271">
        <ele>86.1</ele>
        <time>2022-09-09T08:39:12Z</time>
      </trkpt>
      <trkpt lat="48.57954" lon="-2.81285">
        <ele>86.4</ele>
        <time>2022-09-09T08:39:15Z</time>
      </trkpt>
      <trkpt lat="48.57964" lon="-2.81291">
        <ele>86</ele>
        <time>2022-09-09T08:39:18Z</time>
      </trkpt>
      <trkpt lat="48.57973" lon="-2.81291">
        <ele>85.5</ele>
        <time>2022-09-09T08:39:20Z</time>
      </trkpt>
      <trkpt lat="48.57984" lon="-2.81292">
        <ele>85.3</ele>
        <time>2022-09-09T08:39:22Z</time>
      </trkpt>
      <trkpt lat="48.57994" lon="-2.81291">
        <ele>85.1</ele>
        <time>2022-09-09T08:39:24Z</time>
      </trkpt>
      <trkpt lat="48.58003" lon="-2.81292">
        <ele>85</ele>
        <time>2022-09-09T08:39:26Z</time>
      </trkpt>
      <trkpt lat="48.58014" lon="-2.81293">
        <ele>85</ele>
        <time>2022-09-09T08:39:28Z</time>
      </trkpt>
      <trkpt lat="48.58024" lon="-2.81289">
        <ele>85</ele>
        <time>2022-09-09T08:39:30Z</time>
      </trkpt>
      <trkpt lat="48.58035" lon="-2.81288">
        <ele>84.7</ele>
        <time>2022-09-09T08:39:32Z</time>
      </trkpt>
      <trkpt lat="48.58046" lon="-2.81289">
        <ele>84.1</ele>
        <time>2022-09-09T08:39:34Z</time>
      </trkpt>
      <trkpt lat="48.58056" lon="-2.81289">
        <ele>83.6</ele>
        <time>2022-09-09T08:39:36Z</time>
      </trkpt>
      <trkpt lat="48.58066" lon="-2.81289">
        <ele>83.4</ele>
        <time>2022-09-09T08:39:38Z</time>
      </trkpt>
      <trkpt lat="48.58075" lon="-2.8129">
        <ele>83.2</ele>
        <time>2022-09-09T08:39:40Z</time>
      </trkpt>
      <trkpt lat="48.58086" lon="-2.81292">
        <ele>83</ele>
        <time>2022-09-09T08:39:42Z</time>
      </trkpt>
      <trkpt lat="48.58099" lon="-2.81292">
        <ele>83</ele>
        <time>2022-09-09T08:39:45Z</time>
      </trkpt>
      <trkpt lat="48.58113" lon="-2.81294">
        <ele>83</ele>
        <time>2022-09-09T08:39:48Z</time>
      </trkpt>
      <trkpt lat="48.58123" lon="-2.81294">
        <ele>83</ele>
        <time>2022-09-09T08:39:50Z</time>
      </trkpt>
      <trkpt lat="48.58134" lon="-2.81291">
        <ele>83</ele>
        <time>2022-09-09T08:39:52Z</time>
      </trkpt>
      <trkpt lat="48.58143" lon="-2.8129">
        <ele>82.9</ele>
        <time>2022-09-09T08:39:54Z</time>
      </trkpt>
      <trkpt lat="48.58154" lon="-2.81288">
        <ele>82.7</ele>
        <time>2022-09-09T08:39:56Z</time>
      </trkpt>
      <trkpt lat="48.58163" lon="-2.81287">
        <ele>82.4</ele>
        <time>2022-09-09T08:39:58Z</time>
      </trkpt>
      <trkpt lat="48.58173" lon="-2.81285">
        <ele>82</ele>
        <time>2022-09-09T08:40:00Z</time>
      </trkpt>
      <trkpt lat="48.58184" lon="-2.81283">
        <ele>81.4</ele>
        <time>2022-09-09T08:40:02Z</time>
      </trkpt>
      <trkpt lat="48.58196" lon="-2.81282">
        <ele>81</ele>
        <time>2022-09-09T08:40:04Z</time>
      </trkpt>
      <trkpt lat="48.58209" lon="-2.81281">
        <ele>81</ele>
        <time>2022-09-09T08:40:06Z</time>
      </trkpt>
      <trkpt lat="48.58221" lon="-2.81279">
        <ele>81</ele>
        <time>2022-09-09T08:40:08Z</time>
      </trkpt>
      <trkpt lat="48.58234" lon="-2.8128">
        <ele>80.2</ele>
        <time>2022-09-09T08:40:10Z</time>
      </trkpt>
      <trkpt lat="48.58247" lon="-2.81278">
        <ele>79.2</ele>
        <time>2022-09-09T08:40:12Z</time>
      </trkpt>
      <trkpt lat="48.58259" lon="-2.81278">
        <ele>79</ele>
        <time>2022-09-09T08:40:14Z</time>
      </trkpt>
      <trkpt lat="48.58271" lon="-2.81279">
        <ele>79.1</ele>
        <time>2022-09-09T08:40:16Z</time>
      </trkpt>
      <trkpt lat="48.58281" lon="-2.81281">
        <ele>79.1</ele>
        <time>2022-09-09T08:40:18Z</time>
      </trkpt>
      <trkpt lat="48.58292" lon="-2.81284">
        <ele>79.1</ele>
        <time>2022-09-09T08:40:20Z</time>
      </trkpt>
      <trkpt lat="48.58304" lon="-2.81286">
        <ele>79</ele>
        <time>2022-09-09T08:40:22Z</time>
      </trkpt>
      <trkpt lat="48.58314" lon="-2.81285">
        <ele>79</ele>
        <time>2022-09-09T08:40:24Z</time>
      </trkpt>
      <trkpt lat="48.58324" lon="-2.81281">
        <ele>79</ele>
        <time>2022-09-09T08:40:26Z</time>
      </trkpt>
      <trkpt lat="48.58334" lon="-2.81277">
        <ele>79</ele>
        <time>2022-09-09T08:40:28Z</time>
      </trkpt>
      <trkpt lat="48.58342" lon="-2.81268">
        <ele>78.9</ele>
        <time>2022-09-09T08:40:30Z</time>
      </trkpt>
      <trkpt lat="48.5835" lon="-2.8126">
        <ele>78.6</ele>
        <time>2022-09-09T08:40:32Z</time>
      </trkpt>
      <trkpt lat="48.58362" lon="-2.81248">
        <ele>78.1</ele>
        <time>2022-09-09T08:40:35Z</time>
      </trkpt>
      <trkpt lat="48.5837" lon="-2.81241">
        <ele>78.1</ele>
        <time>2022-09-09T08:40:37Z</time>
      </trkpt>
      <trkpt lat="48.58381" lon="-2.81231">
        <ele>77.7</ele>
        <time>2022-09-09T08:40:40Z</time>
      </trkpt>
      <trkpt lat="48.58392" lon="-2.81224">
        <ele>77.2</ele>
        <time>2022-09-09T08:40:43Z</time>
      </trkpt>
      <trkpt lat="48.58402" lon="-2.81223">
        <ele>77.5</ele>
        <time>2022-09-09T08:40:45Z</time>
      </trkpt>
      <trkpt lat="48.58414" lon="-2.81224">
        <ele>78.1</ele>
        <time>2022-09-09T08:40:48Z</time>
      </trkpt>
      <trkpt lat="48.58425" lon="-2.81226">
        <ele>78.9</ele>
        <time>2022-09-09T08:40:51Z</time>
      </trkpt>
      <trkpt lat="48.58436" lon="-2.81226">
        <ele>79.6</ele>
        <time>2022-09-09T08:40:55Z</time>
      </trkpt>
      <trkpt lat="48.58447" lon="-2.81224">
        <ele>80.1</ele>
        <time>2022-09-09T08:40:59Z</time>
      </trkpt>
      <trkpt lat="48.58458" lon="-2.81225">
        <ele>80</ele>
        <time>2022-09-09T08:41:03Z</time>
      </trkpt>
      <trkpt lat="48.58467" lon="-2.81227">
        <ele>80</ele>
        <time>2022-09-09T08:41:06Z</time>
      </trkpt>
      <trkpt lat="48.58477" lon="-2.81231">
        <ele>79.9</ele>
        <time>2022-09-09T08:41:09Z</time>
      </trkpt>
      <trkpt lat="48.58487" lon="-2.81236">
        <ele>80</ele>
        <time>2022-09-09T08:41:13Z</time>
      </trkpt>
      <trkpt lat="48.58496" lon="-2.81243">
        <ele>80.4</ele>
        <time>2022-09-09T08:41:17Z</time>
      </trkpt>
      <trkpt lat="48.58505" lon="-2.81247">
        <ele>80.6</ele>
        <time>2022-09-09T08:41:20Z</time>
      </trkpt>
      <trkpt lat="48.58516" lon="-2.81248">
        <ele>80.4</ele>
        <time>2022-09-09T08:41:24Z</time>
      </trkpt>
      <trkpt lat="48.58525" lon="-2.81243">
        <ele>80.1</ele>
        <time>2022-09-09T08:41:58Z</time>
      </trkpt>
      <trkpt lat="48.58535" lon="-2.81237">
        <ele>79.9</ele>
        <time>2022-09-09T08:42:02Z</time>
      </trkpt>
      <trkpt lat="48.58545" lon="-2.81233">
        <ele>79.6</ele>
        <time>2022-09-09T08:42:05Z</time>
      </trkpt>
      <trkpt lat="48.58556" lon="-2.81226">
        <ele>79.2</ele>
        <time>2022-09-09T08:42:08Z</time>
      </trkpt>
      <trkpt lat="48.58566" lon="-2.81222">
        <ele>79.4</ele>
        <time>2022-09-09T08:42:11Z</time>
      </trkpt>
      <trkpt lat="48.58576" lon="-2.81216">
        <ele>79.7</ele>
        <time>2022-09-09T08:42:14Z</time>
      </trkpt>
      <trkpt lat="48.58584" lon="-2.8121">
        <ele>80</ele>
        <time>2022-09-09T08:42:16Z</time>
      </trkpt>
      <trkpt lat="48.58592" lon="-2.81203">
        <ele>80</ele>
        <time>2022-09-09T08:42:18Z</time>
      </trkpt>
      <trkpt lat="48.58604" lon="-2.81195">
        <ele>80</ele>
        <time>2022-09-09T08:42:21Z</time>
      </trkpt>
      <trkpt lat="48.58612" lon="-2.8119">
        <ele>80</ele>
        <time>2022-09-09T08:42:23Z</time>
      </trkpt>
      <trkpt lat="48.58622" lon="-2.81186">
        <ele>79.9</ele>
        <time>2022-09-09T08:42:25Z</time>
      </trkpt>
      <trkpt lat="48.58633" lon="-2.81181">
        <ele>79.6</ele>
        <time>2022-09-09T08:42:27Z</time>
      </trkpt>
      <trkpt lat="48.58644" lon="-2.81177">
        <ele>79.3</ele>
        <time>2022-09-09T08:42:29Z</time>
      </trkpt>
      <trkpt lat="48.58655" lon="-2.81174">
        <ele>79.1</ele>
        <time>2022-09-09T08:42:31Z</time>
      </trkpt>
      <trkpt lat="48.58666" lon="-2.81172">
        <ele>79</ele>
        <time>2022-09-09T08:42:33Z</time>
      </trkpt>
      <trkpt lat="48.58676" lon="-2.81168">
        <ele>78.7</ele>
        <time>2022-09-09T08:42:35Z</time>
      </trkpt>
      <trkpt lat="48.58685" lon="-2.81162">
        <ele>77.9</ele>
        <time>2022-09-09T08:42:37Z</time>
      </trkpt>
      <trkpt lat="48.58696" lon="-2.81158">
        <ele>77.4</ele>
        <time>2022-09-09T08:42:39Z</time>
      </trkpt>
      <trkpt lat="48.58708" lon="-2.81155">
        <ele>77.4</ele>
        <time>2022-09-09T08:42:41Z</time>
      </trkpt>
      <trkpt lat="48.58718" lon="-2.81152">
        <ele>77.4</ele>
        <time>2022-09-09T08:42:43Z</time>
      </trkpt>
      <trkpt lat="48.58728" lon="-2.81148">
        <ele>77.4</ele>
        <time>2022-09-09T08:42:45Z</time>
      </trkpt>
      <trkpt lat="48.58737" lon="-2.81144">
        <ele>77.6</ele>
        <time>2022-09-09T08:42:47Z</time>
      </trkpt>
      <trkpt lat="48.5875" lon="-2.81139">
        <ele>78</ele>
        <time>2022-09-09T08:42:50Z</time>
      </trkpt>
      <trkpt lat="48.58764" lon="-2.81135">
        <ele>77.3</ele>
        <time>2022-09-09T08:42:53Z</time>
      </trkpt>
      <trkpt lat="48.58773" lon="-2.81132">
        <ele>76.9</ele>
        <time>2022-09-09T08:42:55Z</time>
      </trkpt>
      <trkpt lat="48.58782" lon="-2.81128">
        <ele>76.5</ele>
        <time>2022-09-09T08:42:57Z</time>
      </trkpt>
      <trkpt lat="48.58792" lon="-2.81125">
        <ele>76.2</ele>
        <time>2022-09-09T08:42:59Z</time>
      </trkpt>
      <trkpt lat="48.58802" lon="-2.81122">
        <ele>75.9</ele>
        <time>2022-09-09T08:43:01Z</time>
      </trkpt>
      <trkpt lat="48.58813" lon="-2.81122">
        <ele>75.7</ele>
        <time>2022-09-09T08:43:03Z</time>
      </trkpt>
      <trkpt lat="48.58824" lon="-2.8112">
        <ele>75.4</ele>
        <time>2022-09-09T08:43:06Z</time>
      </trkpt>
      <trkpt lat="48.58834" lon="-2.81117">
        <ele>75.2</ele>
        <time>2022-09-09T08:43:09Z</time>
      </trkpt>
      <trkpt lat="48.58844" lon="-2.81117">
        <ele>74.8</ele>
        <time>2022-09-09T08:43:14Z</time>
      </trkpt>
      <trkpt lat="48.58854" lon="-2.81117">
        <ele>74.5</ele>
        <time>2022-09-09T08:43:19Z</time>
      </trkpt>
      <trkpt lat="48.58863" lon="-2.81115">
        <ele>74.1</ele>
        <time>2022-09-09T08:43:24Z</time>
      </trkpt>
      <trkpt lat="48.58874" lon="-2.81115">
        <ele>74.1</ele>
        <time>2022-09-09T08:43:28Z</time>
      </trkpt>
      <trkpt lat="48.58888" lon="-2.81112">
        <ele>74</ele>
        <time>2022-09-09T08:43:31Z</time>
      </trkpt>
      <trkpt lat="48.58898" lon="-2.81111">
        <ele>73.7</ele>
        <time>2022-09-09T08:43:33Z</time>
      </trkpt>
      <trkpt lat="48.58908" lon="-2.8111">
        <ele>73.3</ele>
        <time>2022-09-09T08:43:35Z</time>
      </trkpt>
      <trkpt lat="48.58918" lon="-2.81109">
        <ele>72.9</ele>
        <time>2022-09-09T08:43:37Z</time>
      </trkpt>
      <trkpt lat="48.58929" lon="-2.81108">
        <ele>72.4</ele>
        <time>2022-09-09T08:43:39Z</time>
      </trkpt>
      <trkpt lat="48.58938" lon="-2.81107">
        <ele>72.1</ele>
        <time>2022-09-09T08:43:41Z</time>
      </trkpt>
      <trkpt lat="48.58947" lon="-2.81108">
        <ele>71.8</ele>
        <time>2022-09-09T08:43:44Z</time>
      </trkpt>
      <trkpt lat="48.58953" lon="-2.81118">
        <ele>71.9</ele>
        <time>2022-09-09T08:44:01Z</time>
      </trkpt>
      <trkpt lat="48.58959" lon="-2.81131">
        <ele>72.2</ele>
        <time>2022-09-09T08:44:04Z</time>
      </trkpt>
      <trkpt lat="48.58965" lon="-2.81143">
        <ele>72.4</ele>
        <time>2022-09-09T08:44:07Z</time>
      </trkpt>
      <trkpt lat="48.58971" lon="-2.81155">
        <ele>72.6</ele>
        <time>2022-09-09T08:44:10Z</time>
      </trkpt>
      <trkpt lat="48.58977" lon="-2.81166">
        <ele>72.6</ele>
        <time>2022-09-09T08:44:13Z</time>
      </trkpt>
      <trkpt lat="48.58984" lon="-2.8118">
        <ele>72.6</ele>
        <time>2022-09-09T08:44:16Z</time>
      </trkpt>
      <trkpt lat="48.58991" lon="-2.81196">
        <ele>72.7</ele>
        <time>2022-09-09T08:44:19Z</time>
      </trkpt>
      <trkpt lat="48.58998" lon="-2.81211">
        <ele>72.2</ele>
        <time>2022-09-09T08:44:22Z</time>
      </trkpt>
      <trkpt lat="48.59005" lon="-2.81225">
        <ele>71.7</ele>
        <time>2022-09-09T08:44:25Z</time>
      </trkpt>
      <trkpt lat="48.59012" lon="-2.8124">
        <ele>71.8</ele>
        <time>2022-09-09T08:44:28Z</time>
      </trkpt>
      <trkpt lat="48.5902" lon="-2.81255">
        <ele>71.6</ele>
        <time>2022-09-09T08:44:31Z</time>
      </trkpt>
      <trkpt lat="48.59024" lon="-2.81272">
        <ele>71.4</ele>
        <time>2022-09-09T08:44:34Z</time>
      </trkpt>
      <trkpt lat="48.59028" lon="-2.81291">
        <ele>71</ele>
        <time>2022-09-09T08:44:37Z</time>
      </trkpt>
      <trkpt lat="48.59029" lon="-2.81311">
        <ele>70.9</ele>
        <time>2022-09-09T08:44:40Z</time>
      </trkpt>
      <trkpt lat="48.59028" lon="-2.8133">
        <ele>70.9</ele>
        <time>2022-09-09T08:44:43Z</time>
      </trkpt>
      <trkpt lat="48.59027" lon="-2.81348">
        <ele>71.1</ele>
        <time>2022-09-09T08:44:46Z</time>
      </trkpt>
      <trkpt lat="48.59026" lon="-2.81364">
        <ele>71.2</ele>
        <time>2022-09-09T08:44:49Z</time>
      </trkpt>
      <trkpt lat="48.59025" lon="-2.81381">
        <ele>71.3</ele>
        <time>2022-09-09T08:44:52Z</time>
      </trkpt>
      <trkpt lat="48.59025" lon="-2.81398">
        <ele>70.7</ele>
        <time>2022-09-09T08:44:55Z</time>
      </trkpt>
      <trkpt lat="48.59023" lon="-2.81417">
        <ele>69.9</ele>
        <time>2022-09-09T08:44:58Z</time>
      </trkpt>
      <trkpt lat="48.59021" lon="-2.81437">
        <ele>70.3</ele>
        <time>2022-09-09T08:45:01Z</time>
      </trkpt>
      <trkpt lat="48.59018" lon="-2.8145">
        <ele>70.6</ele>
        <time>2022-09-09T08:45:03Z</time>
      </trkpt>
      <trkpt lat="48.59014" lon="-2.81469">
        <ele>71</ele>
        <time>2022-09-09T08:45:06Z</time>
      </trkpt>
      <trkpt lat="48.59009" lon="-2.81485">
        <ele>70.1</ele>
        <time>2022-09-09T08:45:09Z</time>
      </trkpt>
      <trkpt lat="48.59003" lon="-2.81499">
        <ele>68.8</ele>
        <time>2022-09-09T08:45:13Z</time>
      </trkpt>
      <trkpt lat="48.58997" lon="-2.81511">
        <ele>69.3</ele>
        <time>2022-09-09T08:45:18Z</time>
      </trkpt>
      <trkpt lat="48.58989" lon="-2.81518">
        <ele>70.2</ele>
        <time>2022-09-09T08:45:22Z</time>
      </trkpt>
      <trkpt lat="48.58979" lon="-2.81515">
        <ele>71</ele>
        <time>2022-09-09T08:45:27Z</time>
      </trkpt>
      <trkpt lat="48.5897" lon="-2.81512">
        <ele>71.5</ele>
        <time>2022-09-09T08:45:32Z</time>
      </trkpt>
      <trkpt lat="48.58961" lon="-2.8151">
        <ele>72.1</ele>
        <time>2022-09-09T08:45:37Z</time>
      </trkpt>
      <trkpt lat="48.58952" lon="-2.81509">
        <ele>73</ele>
        <time>2022-09-09T08:45:42Z</time>
      </trkpt>
      <trkpt lat="48.58944" lon="-2.81519">
        <ele>73.4</ele>
        <time>2022-09-09T08:45:48Z</time>
      </trkpt>
      <trkpt lat="48.58938" lon="-2.81531">
        <ele>73.7</ele>
        <time>2022-09-09T08:45:53Z</time>
      </trkpt>
      <trkpt lat="48.58934" lon="-2.81544">
        <ele>74.5</ele>
        <time>2022-09-09T08:45:58Z</time>
      </trkpt>
      <trkpt lat="48.58927" lon="-2.81558">
        <ele>75.2</ele>
        <time>2022-09-09T08:46:03Z</time>
      </trkpt>
      <trkpt lat="48.58921" lon="-2.81573">
        <ele>75.2</ele>
        <time>2022-09-09T08:46:07Z</time>
      </trkpt>
      <trkpt lat="48.58915" lon="-2.81587">
        <ele>75.2</ele>
        <time>2022-09-09T08:46:11Z</time>
      </trkpt>
      <trkpt lat="48.58912" lon="-2.81601">
        <ele>75.3</ele>
        <time>2022-09-09T08:46:14Z</time>
      </trkpt>
      <trkpt lat="48.5891" lon="-2.81617">
        <ele>75.4</ele>
        <time>2022-09-09T08:46:17Z</time>
      </trkpt>
      <trkpt lat="48.5891" lon="-2.81633">
        <ele>75.5</ele>
        <time>2022-09-09T08:46:20Z</time>
      </trkpt>
      <trkpt lat="48.5891" lon="-2.81648">
        <ele>75.4</ele>
        <time>2022-09-09T08:46:23Z</time>
      </trkpt>
      <trkpt lat="48.58911" lon="-2.81662">
        <ele>75.3</ele>
        <time>2022-09-09T08:46:26Z</time>
      </trkpt>
      <trkpt lat="48.58911" lon="-2.81676">
        <ele>75.5</ele>
        <time>2022-09-09T08:46:29Z</time>
      </trkpt>
      <trkpt lat="48.58911" lon="-2.8169">
        <ele>75.9</ele>
        <time>2022-09-09T08:46:32Z</time>
      </trkpt>
      <trkpt lat="48.58912" lon="-2.81705">
        <ele>76</ele>
        <time>2022-09-09T08:46:35Z</time>
      </trkpt>
      <trkpt lat="48.58913" lon="-2.8172">
        <ele>76</ele>
        <time>2022-09-09T08:46:38Z</time>
      </trkpt>
      <trkpt lat="48.58913" lon="-2.81734">
        <ele>76.4</ele>
        <time>2022-09-09T08:46:41Z</time>
      </trkpt>
      <trkpt lat="48.58917" lon="-2.8175">
        <ele>77</ele>
        <time>2022-09-09T08:46:45Z</time>
      </trkpt>
      <trkpt lat="48.58922" lon="-2.81764">
        <ele>77</ele>
        <time>2022-09-09T08:46:49Z</time>
      </trkpt>
      <trkpt lat="48.58924" lon="-2.81781">
        <ele>77.3</ele>
        <time>2022-09-09T08:46:53Z</time>
      </trkpt>
      <trkpt lat="48.58919" lon="-2.81797">
        <ele>77.1</ele>
        <time>2022-09-09T08:46:57Z</time>
      </trkpt>
      <trkpt lat="48.58917" lon="-2.81811">
        <ele>76.8</ele>
        <time>2022-09-09T08:47:01Z</time>
      </trkpt>
      <trkpt lat="48.58922" lon="-2.81825">
        <ele>76.4</ele>
        <time>2022-09-09T08:47:04Z</time>
      </trkpt>
      <trkpt lat="48.58932" lon="-2.81839">
        <ele>76</ele>
        <time>2022-09-09T08:47:07Z</time>
      </trkpt>
      <trkpt lat="48.5894" lon="-2.81848">
        <ele>75.6</ele>
        <time>2022-09-09T08:47:09Z</time>
      </trkpt>
      <trkpt lat="48.58948" lon="-2.81859">
        <ele>74.7</ele>
        <time>2022-09-09T08:47:11Z</time>
      </trkpt>
      <trkpt lat="48.58956" lon="-2.81868">
        <ele>73.8</ele>
        <time>2022-09-09T08:47:13Z</time>
      </trkpt>
      <trkpt lat="48.58966" lon="-2.81877">
        <ele>72.6</ele>
        <time>2022-09-09T08:47:15Z</time>
      </trkpt>
      <trkpt lat="48.58978" lon="-2.81882">
        <ele>71.6</ele>
        <time>2022-09-09T08:47:17Z</time>
      </trkpt>
      <trkpt lat="48.5899" lon="-2.81884">
        <ele>70.9</ele>
        <time>2022-09-09T08:47:19Z</time>
      </trkpt>
      <trkpt lat="48.59004" lon="-2.81885">
        <ele>70.1</ele>
        <time>2022-09-09T08:47:21Z</time>
      </trkpt>
      <trkpt lat="48.59018" lon="-2.81884">
        <ele>69.9</ele>
        <time>2022-09-09T08:47:23Z</time>
      </trkpt>
      <trkpt lat="48.59031" lon="-2.81882">
        <ele>69.6</ele>
        <time>2022-09-09T08:47:25Z</time>
      </trkpt>
      <trkpt lat="48.59043" lon="-2.8188">
        <ele>69.1</ele>
        <time>2022-09-09T08:47:27Z</time>
      </trkpt>
      <trkpt lat="48.59053" lon="-2.81877">
        <ele>68.6</ele>
        <time>2022-09-09T08:47:29Z</time>
      </trkpt>
      <trkpt lat="48.59065" lon="-2.81875">
        <ele>68.3</ele>
        <time>2022-09-09T08:47:32Z</time>
      </trkpt>
      <trkpt lat="48.59073" lon="-2.81883">
        <ele>68.6</ele>
        <time>2022-09-09T08:47:35Z</time>
      </trkpt>
      <trkpt lat="48.59073" lon="-2.81898">
        <ele>69.4</ele>
        <time>2022-09-09T08:47:40Z</time>
      </trkpt>
      <trkpt lat="48.59073" lon="-2.81913">
        <ele>70.2</ele>
        <time>2022-09-09T08:47:46Z</time>
      </trkpt>
      <trkpt lat="48.59073" lon="-2.81928">
        <ele>71.6</ele>
        <time>2022-09-09T08:47:52Z</time>
      </trkpt>
      <trkpt lat="48.59078" lon="-2.81942">
        <ele>73.3</ele>
        <time>2022-09-09T08:47:58Z</time>
      </trkpt>
      <trkpt lat="48.59083" lon="-2.81953">
        <ele>73.7</ele>
        <time>2022-09-09T08:48:02Z</time>
      </trkpt>
      <trkpt lat="48.59091" lon="-2.81962">
        <ele>73.5</ele>
        <time>2022-09-09T08:48:06Z</time>
      </trkpt>
      <trkpt lat="48.59099" lon="-2.8197">
        <ele>74.4</ele>
        <time>2022-09-09T08:48:10Z</time>
      </trkpt>
      <trkpt lat="48.59107" lon="-2.8198">
        <ele>75.1</ele>
        <time>2022-09-09T08:48:15Z</time>
      </trkpt>
      <trkpt lat="48.59116" lon="-2.81989">
        <ele>75.1</ele>
        <time>2022-09-09T08:48:19Z</time>
      </trkpt>
      <trkpt lat="48.59123" lon="-2.81998">
        <ele>75.3</ele>
        <time>2022-09-09T08:48:22Z</time>
      </trkpt>
      <trkpt lat="48.5913" lon="-2.82009">
        <ele>75.5</ele>
        <time>2022-09-09T08:48:25Z</time>
      </trkpt>
      <trkpt lat="48.59138" lon="-2.82019">
        <ele>75.5</ele>
        <time>2022-09-09T08:48:28Z</time>
      </trkpt>
      <trkpt lat="48.59144" lon="-2.8203">
        <ele>75.1</ele>
        <time>2022-09-09T08:48:31Z</time>
      </trkpt>
      <trkpt lat="48.5915" lon="-2.82042">
        <ele>74.6</ele>
        <time>2022-09-09T08:48:34Z</time>
      </trkpt>
      <trkpt lat="48.59157" lon="-2.82055">
        <ele>74.3</ele>
        <time>2022-09-09T08:48:37Z</time>
      </trkpt>
      <trkpt lat="48.59166" lon="-2.82067">
        <ele>74.2</ele>
        <time>2022-09-09T08:48:40Z</time>
      </trkpt>
      <trkpt lat="48.59175" lon="-2.82078">
        <ele>73.9</ele>
        <time>2022-09-09T08:48:43Z</time>
      </trkpt>
      <trkpt lat="48.59182" lon="-2.82088">
        <ele>73.8</ele>
        <time>2022-09-09T08:48:46Z</time>
      </trkpt>
      <trkpt lat="48.59192" lon="-2.82099">
        <ele>73.7</ele>
        <time>2022-09-09T08:48:49Z</time>
      </trkpt>
      <trkpt lat="48.59202" lon="-2.82108">
        <ele>73.4</ele>
        <time>2022-09-09T08:48:52Z</time>
      </trkpt>
      <trkpt lat="48.59212" lon="-2.82118">
        <ele>73.3</ele>
        <time>2022-09-09T08:48:55Z</time>
      </trkpt>
      <trkpt lat="48.59223" lon="-2.82129">
        <ele>73.3</ele>
        <time>2022-09-09T08:48:58Z</time>
      </trkpt>
      <trkpt lat="48.5923" lon="-2.82143">
        <ele>73.5</ele>
        <time>2022-09-09T08:49:01Z</time>
      </trkpt>
      <trkpt lat="48.59237" lon="-2.82159">
        <ele>73.7</ele>
        <time>2022-09-09T08:49:04Z</time>
      </trkpt>
      <trkpt lat="48.59243" lon="-2.82172">
        <ele>73.8</ele>
        <time>2022-09-09T08:49:07Z</time>
      </trkpt>
      <trkpt lat="48.5925" lon="-2.82184">
        <ele>73.1</ele>
        <time>2022-09-09T08:49:10Z</time>
      </trkpt>
      <trkpt lat="48.59257" lon="-2.82194">
        <ele>72</ele>
        <time>2022-09-09T08:49:13Z</time>
      </trkpt>
      <trkpt lat="48.59266" lon="-2.8219">
        <ele>72.1</ele>
        <time>2022-09-09T08:49:35Z</time>
      </trkpt>
      <trkpt lat="48.59259" lon="-2.82205">
        <ele>71.2</ele>
        <time>2022-09-09T08:50:14Z</time>
      </trkpt>
      <trkpt lat="48.59255" lon="-2.82218">
        <ele>70.3</ele>
        <time>2022-09-09T08:50:16Z</time>
      </trkpt>
      <trkpt lat="48.59248" lon="-2.82232">
        <ele>69.1</ele>
        <time>2022-09-09T08:50:19Z</time>
      </trkpt>
      <trkpt lat="48.5925" lon="-2.82251">
        <ele>67.9</ele>
        <time>2022-09-09T08:50:22Z</time>
      </trkpt>
      <trkpt lat="48.59258" lon="-2.82262">
        <ele>66.5</ele>
        <time>2022-09-09T08:50:24Z</time>
      </trkpt>
      <trkpt lat="48.59266" lon="-2.82273">
        <ele>65.7</ele>
        <time>2022-09-09T08:50:26Z</time>
      </trkpt>
      <trkpt lat="48.59275" lon="-2.82283">
        <ele>65</ele>
        <time>2022-09-09T08:50:28Z</time>
      </trkpt>
      <trkpt lat="48.59287" lon="-2.82293">
        <ele>64.2</ele>
        <time>2022-09-09T08:50:30Z</time>
      </trkpt>
      <trkpt lat="48.59296" lon="-2.823">
        <ele>63.8</ele>
        <time>2022-09-09T08:50:32Z</time>
      </trkpt>
      <trkpt lat="48.59306" lon="-2.82312">
        <ele>62.9</ele>
        <time>2022-09-09T08:50:34Z</time>
      </trkpt>
      <trkpt lat="48.59312" lon="-2.82322">
        <ele>61.1</ele>
        <time>2022-09-09T08:50:36Z</time>
      </trkpt>
      <trkpt lat="48.59322" lon="-2.82332">
        <ele>59.8</ele>
        <time>2022-09-09T08:50:39Z</time>
      </trkpt>
      <trkpt lat="48.59332" lon="-2.82342">
        <ele>58.4</ele>
        <time>2022-09-09T08:50:42Z</time>
      </trkpt>
      <trkpt lat="48.59343" lon="-2.82343">
        <ele>57.8</ele>
        <time>2022-09-09T08:50:46Z</time>
      </trkpt>
      <trkpt lat="48.59342" lon="-2.8236">
        <ele>55.2</ele>
        <time>2022-09-09T08:50:54Z</time>
      </trkpt>
      <trkpt lat="48.59334" lon="-2.82372">
        <ele>53.5</ele>
        <time>2022-09-09T08:50:57Z</time>
      </trkpt>
      <trkpt lat="48.5933" lon="-2.82385">
        <ele>51.6</ele>
        <time>2022-09-09T08:51:01Z</time>
      </trkpt>
      <trkpt lat="48.59333" lon="-2.82399">
        <ele>50</ele>
        <time>2022-09-09T08:51:05Z</time>
      </trkpt>
      <trkpt lat="48.59339" lon="-2.82408">
        <ele>48.9</ele>
        <time>2022-09-09T08:51:08Z</time>
      </trkpt>
      <trkpt lat="48.59348" lon="-2.82417">
        <ele>47.9</ele>
        <time>2022-09-09T08:51:11Z</time>
      </trkpt>
      <trkpt lat="48.59355" lon="-2.82426">
        <ele>46.7</ele>
        <time>2022-09-09T08:51:15Z</time>
      </trkpt>
      <trkpt lat="48.59361" lon="-2.82437">
        <ele>45.2</ele>
        <time>2022-09-09T08:52:14Z</time>
      </trkpt>
      <trkpt lat="48.59369" lon="-2.82448">
        <ele>43.7</ele>
        <time>2022-09-09T08:52:22Z</time>
      </trkpt>
      <trkpt lat="48.59377" lon="-2.82461">
        <ele>42.1</ele>
        <time>2022-09-09T08:52:25Z</time>
      </trkpt>
      <trkpt lat="48.59385" lon="-2.82471">
        <ele>41</ele>
        <time>2022-09-09T08:52:27Z</time>
      </trkpt>
      <trkpt lat="48.59391" lon="-2.82481">
        <ele>39.9</ele>
        <time>2022-09-09T08:52:29Z</time>
      </trkpt>
      <trkpt lat="48.59402" lon="-2.82489">
        <ele>39</ele>
        <time>2022-09-09T08:52:32Z</time>
      </trkpt>
      <trkpt lat="48.59411" lon="-2.82502">
        <ele>37.5</ele>
        <time>2022-09-09T08:52:35Z</time>
      </trkpt>
      <trkpt lat="48.59421" lon="-2.82515">
        <ele>35.1</ele>
        <time>2022-09-09T08:52:38Z</time>
      </trkpt>
      <trkpt lat="48.59433" lon="-2.82522">
        <ele>33.1</ele>
        <time>2022-09-09T08:52:40Z</time>
      </trkpt>
      <trkpt lat="48.59446" lon="-2.82525">
        <ele>31.5</ele>
        <time>2022-09-09T08:52:42Z</time>
      </trkpt>
      <trkpt lat="48.59459" lon="-2.82527">
        <ele>30.6</ele>
        <time>2022-09-09T08:52:44Z</time>
      </trkpt>
      <trkpt lat="48.59469" lon="-2.82535">
        <ele>28.5</ele>
        <time>2022-09-09T08:52:47Z</time>
      </trkpt>
      <trkpt lat="48.59464" lon="-2.82548">
        <ele>25.9</ele>
        <time>2022-09-09T08:53:08Z</time>
      </trkpt>
      <trkpt lat="48.59453" lon="-2.82558">
        <ele>24.2</ele>
        <time>2022-09-09T08:53:11Z</time>
      </trkpt>
      <trkpt lat="48.59442" lon="-2.82562">
        <ele>23.5</ele>
        <time>2022-09-09T08:53:13Z</time>
      </trkpt>
      <trkpt lat="48.59431" lon="-2.82568">
        <ele>22.7</ele>
        <time>2022-09-09T08:53:15Z</time>
      </trkpt>
      <trkpt lat="48.59421" lon="-2.82569">
        <ele>22.9</ele>
        <time>2022-09-09T08:53:17Z</time>
      </trkpt>
      <trkpt lat="48.59411" lon="-2.82571">
        <ele>22.8</ele>
        <time>2022-09-09T08:53:20Z</time>
      </trkpt>
      <trkpt lat="48.59406" lon="-2.82584">
        <ele>20.7</ele>
        <time>2022-09-09T08:53:25Z</time>
      </trkpt>
      <trkpt lat="48.59416" lon="-2.8259">
        <ele>19.8</ele>
        <time>2022-09-09T08:53:29Z</time>
      </trkpt>
      <trkpt lat="48.59428" lon="-2.82587">
        <ele>19.1</ele>
        <time>2022-09-09T08:53:32Z</time>
      </trkpt>
      <trkpt lat="48.59438" lon="-2.82582">
        <ele>18.7</ele>
        <time>2022-09-09T08:53:34Z</time>
      </trkpt>
      <trkpt lat="48.59449" lon="-2.8258">
        <ele>18.8</ele>
        <time>2022-09-09T08:53:36Z</time>
      </trkpt>
      <trkpt lat="48.5946" lon="-2.82577">
        <ele>19</ele>
        <time>2022-09-09T08:53:38Z</time>
      </trkpt>
      <trkpt lat="48.59471" lon="-2.82574">
        <ele>19.3</ele>
        <time>2022-09-09T08:53:40Z</time>
      </trkpt>
      <trkpt lat="48.59482" lon="-2.8257">
        <ele>18.9</ele>
        <time>2022-09-09T08:53:42Z</time>
      </trkpt>
      <trkpt lat="48.59493" lon="-2.82565">
        <ele>17.9</ele>
        <time>2022-09-09T08:53:44Z</time>
      </trkpt>
      <trkpt lat="48.59506" lon="-2.82559">
        <ele>16.5</ele>
        <time>2022-09-09T08:53:46Z</time>
      </trkpt>
      <trkpt lat="48.59516" lon="-2.82555">
        <ele>16.1</ele>
        <time>2022-09-09T08:53:48Z</time>
      </trkpt>
      <trkpt lat="48.59525" lon="-2.82549">
        <ele>16.6</ele>
        <time>2022-09-09T08:53:50Z</time>
      </trkpt>
      <trkpt lat="48.59534" lon="-2.82543">
        <ele>16.7</ele>
        <time>2022-09-09T08:53:52Z</time>
      </trkpt>
      <trkpt lat="48.59545" lon="-2.82537">
        <ele>15.6</ele>
        <time>2022-09-09T08:53:54Z</time>
      </trkpt>
      <trkpt lat="48.59554" lon="-2.82527">
        <ele>13.4</ele>
        <time>2022-09-09T08:53:56Z</time>
      </trkpt>
      <trkpt lat="48.59564" lon="-2.82516">
        <ele>13</ele>
        <time>2022-09-09T08:53:58Z</time>
      </trkpt>
      <trkpt lat="48.59574" lon="-2.82503">
        <ele>12.6</ele>
        <time>2022-09-09T08:54:00Z</time>
      </trkpt>
      <trkpt lat="48.59583" lon="-2.8249">
        <ele>12</ele>
        <time>2022-09-09T08:54:02Z</time>
      </trkpt>
      <trkpt lat="48.59593" lon="-2.82476">
        <ele>11.6</ele>
        <time>2022-09-09T08:54:04Z</time>
      </trkpt>
      <trkpt lat="48.59604" lon="-2.82463">
        <ele>11.5</ele>
        <time>2022-09-09T08:54:06Z</time>
      </trkpt>
      <trkpt lat="48.59615" lon="-2.82451">
        <ele>10.8</ele>
        <time>2022-09-09T08:54:08Z</time>
      </trkpt>
      <trkpt lat="48.59625" lon="-2.82438">
        <ele>10.2</ele>
        <time>2022-09-09T08:54:10Z</time>
      </trkpt>
      <trkpt lat="48.59636" lon="-2.82423">
        <ele>10</ele>
        <time>2022-09-09T08:54:12Z</time>
      </trkpt>
      <trkpt lat="48.59647" lon="-2.82411">
        <ele>9.5</ele>
        <time>2022-09-09T08:54:14Z</time>
      </trkpt>
      <trkpt lat="48.59659" lon="-2.82401">
        <ele>9</ele>
        <time>2022-09-09T08:54:16Z</time>
      </trkpt>
      <trkpt lat="48.59673" lon="-2.82394">
        <ele>8.6</ele>
        <time>2022-09-09T08:54:18Z</time>
      </trkpt>
      <trkpt lat="48.59686" lon="-2.82392">
        <ele>8.3</ele>
        <time>2022-09-09T08:54:20Z</time>
      </trkpt>
      <trkpt lat="48.59699" lon="-2.82393">
        <ele>8</ele>
        <time>2022-09-09T08:54:22Z</time>
      </trkpt>
      <trkpt lat="48.59712" lon="-2.82395">
        <ele>8</ele>
        <time>2022-09-09T08:54:24Z</time>
      </trkpt>
      <trkpt lat="48.59723" lon="-2.824">
        <ele>8</ele>
        <time>2022-09-09T08:54:26Z</time>
      </trkpt>
      <trkpt lat="48.59732" lon="-2.82403">
        <ele>8</ele>
        <time>2022-09-09T08:54:28Z</time>
      </trkpt>
      <trkpt lat="48.59744" lon="-2.82409">
        <ele>8</ele>
        <time>2022-09-09T08:54:31Z</time>
      </trkpt>
      <trkpt lat="48.59753" lon="-2.82414">
        <ele>8</ele>
        <time>2022-09-09T08:54:33Z</time>
      </trkpt>
      <trkpt lat="48.59763" lon="-2.82421">
        <ele>7.9</ele>
        <time>2022-09-09T08:54:35Z</time>
      </trkpt>
      <trkpt lat="48.59772" lon="-2.82425">
        <ele>7.9</ele>
        <time>2022-09-09T08:54:37Z</time>
      </trkpt>
      <trkpt lat="48.59781" lon="-2.82429">
        <ele>7.9</ele>
        <time>2022-09-09T08:54:39Z</time>
      </trkpt>
      <trkpt lat="48.59793" lon="-2.82435">
        <ele>7.8</ele>
        <time>2022-09-09T08:54:42Z</time>
      </trkpt>
      <trkpt lat="48.59802" lon="-2.82438">
        <ele>7.8</ele>
        <time>2022-09-09T08:54:44Z</time>
      </trkpt>
      <trkpt lat="48.59811" lon="-2.82443">
        <ele>7.9</ele>
        <time>2022-09-09T08:54:46Z</time>
      </trkpt>
      <trkpt lat="48.59823" lon="-2.82449">
        <ele>7.8</ele>
        <time>2022-09-09T08:54:49Z</time>
      </trkpt>
      <trkpt lat="48.59835" lon="-2.82455">
        <ele>7.6</ele>
        <time>2022-09-09T08:54:52Z</time>
      </trkpt>
      <trkpt lat="48.59846" lon="-2.8246">
        <ele>7.7</ele>
        <time>2022-09-09T08:54:55Z</time>
      </trkpt>
      <trkpt lat="48.59858" lon="-2.82466">
        <ele>7.9</ele>
        <time>2022-09-09T08:54:58Z</time>
      </trkpt>
      <trkpt lat="48.5987" lon="-2.82472">
        <ele>7.7</ele>
        <time>2022-09-09T08:55:01Z</time>
      </trkpt>
      <trkpt lat="48.59881" lon="-2.82477">
        <ele>7.2</ele>
        <time>2022-09-09T08:55:04Z</time>
      </trkpt>
      <trkpt lat="48.59891" lon="-2.82482">
        <ele>7.1</ele>
        <time>2022-09-09T08:55:07Z</time>
      </trkpt>
      <trkpt lat="48.59903" lon="-2.82487">
        <ele>7.2</ele>
        <time>2022-09-09T08:55:11Z</time>
      </trkpt>
      <trkpt lat="48.59913" lon="-2.82491">
        <ele>7.3</ele>
        <time>2022-09-09T08:55:14Z</time>
      </trkpt>
      <trkpt lat="48.59925" lon="-2.82497">
        <ele>7.1</ele>
        <time>2022-09-09T08:55:17Z</time>
      </trkpt>
      <trkpt lat="48.59937" lon="-2.82503">
        <ele>6.9</ele>
        <time>2022-09-09T08:55:20Z</time>
      </trkpt>
      <trkpt lat="48.59948" lon="-2.82509">
        <ele>6.7</ele>
        <time>2022-09-09T08:55:23Z</time>
      </trkpt>
      <trkpt lat="48.5996" lon="-2.82515">
        <ele>6.8</ele>
        <time>2022-09-09T08:55:26Z</time>
      </trkpt>
      <trkpt lat="48.59971" lon="-2.82522">
        <ele>7</ele>
        <time>2022-09-09T08:55:29Z</time>
      </trkpt>
      <trkpt lat="48.59983" lon="-2.82526">
        <ele>7</ele>
        <time>2022-09-09T08:55:32Z</time>
      </trkpt>
      <trkpt lat="48.59995" lon="-2.82531">
        <ele>7</ele>
        <time>2022-09-09T08:55:35Z</time>
      </trkpt>
      <trkpt lat="48.60007" lon="-2.82536">
        <ele>7</ele>
        <time>2022-09-09T08:55:38Z</time>
      </trkpt>
      <trkpt lat="48.60017" lon="-2.82542">
        <ele>7</ele>
        <time>2022-09-09T08:55:41Z</time>
      </trkpt>
      <trkpt lat="48.60027" lon="-2.82542">
        <ele>7</ele>
        <time>2022-09-09T08:55:46Z</time>
      </trkpt>
      <trkpt lat="48.60036" lon="-2.82537">
        <ele>7</ele>
        <time>2022-09-09T08:55:54Z</time>
      </trkpt>
      <trkpt lat="48.60046" lon="-2.82536">
        <ele>7</ele>
        <time>2022-09-09T08:56:02Z</time>
      </trkpt>
      <trkpt lat="48.60056" lon="-2.82535">
        <ele>7</ele>
        <time>2022-09-09T08:56:10Z</time>
      </trkpt>
      <trkpt lat="48.60065" lon="-2.82535">
        <ele>7</ele>
        <time>2022-09-09T08:56:19Z</time>
      </trkpt>
      <trkpt lat="48.60075" lon="-2.82536">
        <ele>7</ele>
        <time>2022-09-09T08:56:28Z</time>
      </trkpt>
      <trkpt lat="48.60084" lon="-2.82536">
        <ele>6.7</ele>
        <time>2022-09-09T08:56:38Z</time>
      </trkpt>
      <trkpt lat="48.60093" lon="-2.82536">
        <ele>6.7</ele>
        <time>2022-09-09T08:56:47Z</time>
      </trkpt>
      <trkpt lat="48.60103" lon="-2.82534">
        <ele>6.8</ele>
        <time>2022-09-09T08:57:00Z</time>
      </trkpt>
      <trkpt lat="48.6011" lon="-2.82524">
        <ele>6.7</ele>
        <time>2022-09-09T08:57:11Z</time>
      </trkpt>
      <trkpt lat="48.60112" lon="-2.82509">
        <ele>5.7</ele>
        <time>2022-09-09T08:57:19Z</time>
      </trkpt>
      <trkpt lat="48.60116" lon="-2.82495">
        <ele>5.1</ele>
        <time>2022-09-09T08:57:29Z</time>
      </trkpt>
      <trkpt lat="48.6012" lon="-2.82479">
        <ele>4.6</ele>
        <time>2022-09-09T08:57:33Z</time>
      </trkpt>
      <trkpt lat="48.60124" lon="-2.82466">
        <ele>5.3</ele>
        <time>2022-09-09T08:57:36Z</time>
      </trkpt>
      <trkpt lat="48.60129" lon="-2.82452">
        <ele>6.6</ele>
        <time>2022-09-09T08:57:40Z</time>
      </trkpt>
      <trkpt lat="48.6013" lon="-2.82437">
        <ele>7</ele>
        <time>2022-09-09T08:57:44Z</time>
      </trkpt>
      <trkpt lat="48.60137" lon="-2.82426">
        <ele>7</ele>
        <time>2022-09-09T08:58:40Z</time>
      </trkpt>
      <trkpt lat="48.60139" lon="-2.82411">
        <ele>7.3</ele>
        <time>2022-09-09T08:58:44Z</time>
      </trkpt>
      <trkpt lat="48.6014" lon="-2.82396">
        <ele>7.8</ele>
        <time>2022-09-09T08:58:47Z</time>
      </trkpt>
      <trkpt lat="48.6014" lon="-2.82381">
        <ele>7.8</ele>
        <time>2022-09-09T08:58:50Z</time>
      </trkpt>
      <trkpt lat="48.60141" lon="-2.82364">
        <ele>7.7</ele>
        <time>2022-09-09T08:58:53Z</time>
      </trkpt>
      <trkpt lat="48.60142" lon="-2.82347">
        <ele>7.9</ele>
        <time>2022-09-09T08:58:56Z</time>
      </trkpt>
      <trkpt lat="48.60143" lon="-2.82329">
        <ele>8.3</ele>
        <time>2022-09-09T08:58:59Z</time>
      </trkpt>
      <trkpt lat="48.60145" lon="-2.82309">
        <ele>8.3</ele>
        <time>2022-09-09T08:59:02Z</time>
      </trkpt>
      <trkpt lat="48.60146" lon="-2.8229">
        <ele>7.5</ele>
        <time>2022-09-09T08:59:05Z</time>
      </trkpt>
      <trkpt lat="48.60149" lon="-2.8227">
        <ele>6.3</ele>
        <time>2022-09-09T08:59:08Z</time>
      </trkpt>
      <trkpt lat="48.6015" lon="-2.82256">
        <ele>5.8</ele>
        <time>2022-09-09T08:59:10Z</time>
      </trkpt>
      <trkpt lat="48.60152" lon="-2.82236">
        <ele>5.6</ele>
        <time>2022-09-09T08:59:13Z</time>
      </trkpt>
      <trkpt lat="48.60153" lon="-2.82215">
        <ele>5.6</ele>
        <time>2022-09-09T08:59:16Z</time>
      </trkpt>
      <trkpt lat="48.60152" lon="-2.82201">
        <ele>5.6</ele>
        <time>2022-09-09T08:59:18Z</time>
      </trkpt>
      <trkpt lat="48.60151" lon="-2.82187">
        <ele>5.6</ele>
        <time>2022-09-09T08:59:20Z</time>
      </trkpt>
      <trkpt lat="48.60151" lon="-2.82173">
        <ele>5.7</ele>
        <time>2022-09-09T08:59:22Z</time>
      </trkpt>
      <trkpt lat="48.6015" lon="-2.82159">
        <ele>6.7</ele>
        <time>2022-09-09T08:59:24Z</time>
      </trkpt>
      <trkpt lat="48.6015" lon="-2.82139">
        <ele>9.9</ele>
        <time>2022-09-09T08:59:27Z</time>
      </trkpt>
      <trkpt lat="48.60148" lon="-2.8212">
        <ele>9.8</ele>
        <time>2022-09-09T08:59:30Z</time>
      </trkpt>
      <trkpt lat="48.60148" lon="-2.82101">
        <ele>9.2</ele>
        <time>2022-09-09T08:59:33Z</time>
      </trkpt>
      <trkpt lat="48.60148" lon="-2.82083">
        <ele>8.4</ele>
        <time>2022-09-09T08:59:36Z</time>
      </trkpt>
      <trkpt lat="48.60147" lon="-2.82063">
        <ele>6.9</ele>
        <time>2022-09-09T08:59:39Z</time>
      </trkpt>
      <trkpt lat="48.60147" lon="-2.82044">
        <ele>6.2</ele>
        <time>2022-09-09T08:59:42Z</time>
      </trkpt>
      <trkpt lat="48.60147" lon="-2.82027">
        <ele>6.1</ele>
        <time>2022-09-09T08:59:45Z</time>
      </trkpt>
      <trkpt lat="48.60149" lon="-2.82011">
        <ele>5.1</ele>
        <time>2022-09-09T08:59:48Z</time>
      </trkpt>
      <trkpt lat="48.60154" lon="-2.81996">
        <ele>5.2</ele>
        <time>2022-09-09T08:59:51Z</time>
      </trkpt>
      <trkpt lat="48.60162" lon="-2.81984">
        <ele>5.8</ele>
        <time>2022-09-09T08:59:54Z</time>
      </trkpt>
      <trkpt lat="48.6017" lon="-2.81976">
        <ele>6</ele>
        <time>2022-09-09T08:59:57Z</time>
      </trkpt>
      <trkpt lat="48.60179" lon="-2.81968">
        <ele>5.8</ele>
        <time>2022-09-09T09:00:00Z</time>
      </trkpt>
      <trkpt lat="48.6019" lon="-2.81962">
        <ele>6</ele>
        <time>2022-09-09T09:00:03Z</time>
      </trkpt>
      <trkpt lat="48.60201" lon="-2.81956">
        <ele>6.7</ele>
        <time>2022-09-09T09:00:06Z</time>
      </trkpt>
      <trkpt lat="48.6021" lon="-2.81947">
        <ele>6.8</ele>
        <time>2022-09-09T09:00:09Z</time>
      </trkpt>
      <trkpt lat="48.60221" lon="-2.81938">
        <ele>6.3</ele>
        <time>2022-09-09T09:00:12Z</time>
      </trkpt>
      <trkpt lat="48.60231" lon="-2.81928">
        <ele>5.4</ele>
        <time>2022-09-09T09:00:15Z</time>
      </trkpt>
      <trkpt lat="48.60242" lon="-2.81919">
        <ele>5.8</ele>
        <time>2022-09-09T09:00:18Z</time>
      </trkpt>
      <trkpt lat="48.60252" lon="-2.81912">
        <ele>6.2</ele>
        <time>2022-09-09T09:00:21Z</time>
      </trkpt>
      <trkpt lat="48.60261" lon="-2.81905">
        <ele>5.8</ele>
        <time>2022-09-09T09:00:24Z</time>
      </trkpt>
      <trkpt lat="48.60271" lon="-2.81899">
        <ele>6</ele>
        <time>2022-09-09T09:00:27Z</time>
      </trkpt>
      <trkpt lat="48.6028" lon="-2.81902">
        <ele>7.3</ele>
        <time>2022-09-09T09:00:30Z</time>
      </trkpt>
      <trkpt lat="48.60284" lon="-2.81916">
        <ele>8.2</ele>
        <time>2022-09-09T09:00:34Z</time>
      </trkpt>
      <trkpt lat="48.60287" lon="-2.81928">
        <ele>10.6</ele>
        <time>2022-09-09T09:00:50Z</time>
      </trkpt>
      <trkpt lat="48.60296" lon="-2.81931">
        <ele>12.7</ele>
        <time>2022-09-09T09:01:00Z</time>
      </trkpt>
      <trkpt lat="48.60306" lon="-2.81937">
        <ele>16.4</ele>
        <time>2022-09-09T09:01:09Z</time>
      </trkpt>
      <trkpt lat="48.60315" lon="-2.81935">
        <ele>14.5</ele>
        <time>2022-09-09T09:01:23Z</time>
      </trkpt>
      <trkpt lat="48.6032" lon="-2.81921">
        <ele>9.2</ele>
        <time>2022-09-09T09:01:28Z</time>
      </trkpt>
      <trkpt lat="48.60329" lon="-2.81923">
        <ele>8.8</ele>
        <time>2022-09-09T09:01:47Z</time>
      </trkpt>
      <trkpt lat="48.60338" lon="-2.81925">
        <ele>8.9</ele>
        <time>2022-09-09T09:01:56Z</time>
      </trkpt>
      <trkpt lat="48.60348" lon="-2.81928">
        <ele>9.1</ele>
        <time>2022-09-09T09:02:00Z</time>
      </trkpt>
      <trkpt lat="48.60358" lon="-2.8193">
        <ele>9.2</ele>
        <time>2022-09-09T09:02:03Z</time>
      </trkpt>
      <trkpt lat="48.60368" lon="-2.81935">
        <ele>9.1</ele>
        <time>2022-09-09T09:02:06Z</time>
      </trkpt>
      <trkpt lat="48.60376" lon="-2.8194">
        <ele>8.5</ele>
        <time>2022-09-09T09:02:09Z</time>
      </trkpt>
      <trkpt lat="48.60383" lon="-2.81949">
        <ele>8.9</ele>
        <time>2022-09-09T09:02:12Z</time>
      </trkpt>
      <trkpt lat="48.6039" lon="-2.81961">
        <ele>10.1</ele>
        <time>2022-09-09T09:02:15Z</time>
      </trkpt>
      <trkpt lat="48.60394" lon="-2.81974">
        <ele>12.3</ele>
        <time>2022-09-09T09:02:43Z</time>
      </trkpt>
      <trkpt lat="48.60397" lon="-2.81987">
        <ele>14.4</ele>
        <time>2022-09-09T09:02:54Z</time>
      </trkpt>
      <trkpt lat="48.60388" lon="-2.81989">
        <ele>17.7</ele>
        <time>2022-09-09T09:03:42Z</time>
      </trkpt>
      <trkpt lat="48.60381" lon="-2.81979">
        <ele>18.3</ele>
        <time>2022-09-09T09:04:48Z</time>
      </trkpt>
      <trkpt lat="48.6038" lon="-2.81994">
        <ele>21.5</ele>
        <time>2022-09-09T09:05:46Z</time>
      </trkpt>
      <trkpt lat="48.60382" lon="-2.82007">
        <ele>24.4</ele>
        <time>2022-09-09T09:05:56Z</time>
      </trkpt>
      <trkpt lat="48.60384" lon="-2.82022">
        <ele>28.9</ele>
        <time>2022-09-09T09:06:07Z</time>
      </trkpt>
      <trkpt lat="48.6039" lon="-2.82034">
        <ele>31.4</ele>
        <time>2022-09-09T09:06:17Z</time>
      </trkpt>
      <trkpt lat="48.60399" lon="-2.82043">
        <ele>31.6</ele>
        <time>2022-09-09T09:06:28Z</time>
      </trkpt>
      <trkpt lat="48.60402" lon="-2.82056">
        <ele>33</ele>
        <time>2022-09-09T09:06:33Z</time>
      </trkpt>
      <trkpt lat="48.60398" lon="-2.82068">
        <ele>33.9</ele>
        <time>2022-09-09T09:06:37Z</time>
      </trkpt>
      <trkpt lat="48.60395" lon="-2.82083">
        <ele>35</ele>
        <time>2022-09-09T09:06:42Z</time>
      </trkpt>
      <trkpt lat="48.60392" lon="-2.82099">
        <ele>35.7</ele>
        <time>2022-09-09T09:06:47Z</time>
      </trkpt>
      <trkpt lat="48.60391" lon="-2.82114">
        <ele>36.3</ele>
        <time>2022-09-09T09:06:52Z</time>
      </trkpt>
      <trkpt lat="48.60389" lon="-2.8213">
        <ele>37.3</ele>
        <time>2022-09-09T09:06:57Z</time>
      </trkpt>
      <trkpt lat="48.60386" lon="-2.82146">
        <ele>38.1</ele>
        <time>2022-09-09T09:07:02Z</time>
      </trkpt>
      <trkpt lat="48.60383" lon="-2.82161">
        <ele>38.8</ele>
        <time>2022-09-09T09:07:06Z</time>
      </trkpt>
      <trkpt lat="48.60381" lon="-2.82178">
        <ele>39</ele>
        <time>2022-09-09T09:07:10Z</time>
      </trkpt>
      <trkpt lat="48.60379" lon="-2.82192">
        <ele>38.9</ele>
        <time>2022-09-09T09:07:13Z</time>
      </trkpt>
      <trkpt lat="48.60377" lon="-2.82205">
        <ele>39.1</ele>
        <time>2022-09-09T09:07:16Z</time>
      </trkpt>
      <trkpt lat="48.60375" lon="-2.8222">
        <ele>39.4</ele>
        <time>2022-09-09T09:07:19Z</time>
      </trkpt>
      <trkpt lat="48.60373" lon="-2.82236">
        <ele>39.1</ele>
        <time>2022-09-09T09:07:22Z</time>
      </trkpt>
      <trkpt lat="48.60375" lon="-2.8225">
        <ele>39</ele>
        <time>2022-09-09T09:07:25Z</time>
      </trkpt>
      <trkpt lat="48.60383" lon="-2.82259">
        <ele>39.6</ele>
        <time>2022-09-09T09:07:28Z</time>
      </trkpt>
      <trkpt lat="48.60395" lon="-2.82262">
        <ele>40.1</ele>
        <time>2022-09-09T09:07:32Z</time>
      </trkpt>
      <trkpt lat="48.60404" lon="-2.82265">
        <ele>40.3</ele>
        <time>2022-09-09T09:07:35Z</time>
      </trkpt>
      <trkpt lat="48.60413" lon="-2.82268">
        <ele>40.3</ele>
        <time>2022-09-09T09:07:38Z</time>
      </trkpt>
      <trkpt lat="48.60422" lon="-2.82271">
        <ele>40.4</ele>
        <time>2022-09-09T09:07:41Z</time>
      </trkpt>
      <trkpt lat="48.60433" lon="-2.82273">
        <ele>40.6</ele>
        <time>2022-09-09T09:07:44Z</time>
      </trkpt>
      <trkpt lat="48.60442" lon="-2.82278">
        <ele>40.9</ele>
        <time>2022-09-09T09:07:47Z</time>
      </trkpt>
      <trkpt lat="48.60451" lon="-2.82281">
        <ele>40.9</ele>
        <time>2022-09-09T09:07:50Z</time>
      </trkpt>
      <trkpt lat="48.60461" lon="-2.82283">
        <ele>40.9</ele>
        <time>2022-09-09T09:07:53Z</time>
      </trkpt>
      <trkpt lat="48.6047" lon="-2.82286">
        <ele>41</ele>
        <time>2022-09-09T09:07:56Z</time>
      </trkpt>
      <trkpt lat="48.60481" lon="-2.82289">
        <ele>41.1</ele>
        <time>2022-09-09T09:07:59Z</time>
      </trkpt>
      <trkpt lat="48.60492" lon="-2.82293">
        <ele>41.4</ele>
        <time>2022-09-09T09:08:02Z</time>
      </trkpt>
      <trkpt lat="48.60502" lon="-2.82296">
        <ele>41.7</ele>
        <time>2022-09-09T09:08:05Z</time>
      </trkpt>
      <trkpt lat="48.60512" lon="-2.82299">
        <ele>41.9</ele>
        <time>2022-09-09T09:08:08Z</time>
      </trkpt>
      <trkpt lat="48.60523" lon="-2.82299">
        <ele>42</ele>
        <time>2022-09-09T09:08:11Z</time>
      </trkpt>
      <trkpt lat="48.60532" lon="-2.82305">
        <ele>42.1</ele>
        <time>2022-09-09T09:08:14Z</time>
      </trkpt>
      <trkpt lat="48.60543" lon="-2.82309">
        <ele>42.6</ele>
        <time>2022-09-09T09:08:18Z</time>
      </trkpt>
      <trkpt lat="48.60553" lon="-2.82315">
        <ele>42.9</ele>
        <time>2022-09-09T09:08:21Z</time>
      </trkpt>
      <trkpt lat="48.60562" lon="-2.82321">
        <ele>43.2</ele>
        <time>2022-09-09T09:08:24Z</time>
      </trkpt>
      <trkpt lat="48.60572" lon="-2.82325">
        <ele>43.6</ele>
        <time>2022-09-09T09:08:28Z</time>
      </trkpt>
      <trkpt lat="48.60581" lon="-2.8233">
        <ele>43.9</ele>
        <time>2022-09-09T09:08:32Z</time>
      </trkpt>
      <trkpt lat="48.60593" lon="-2.82335">
        <ele>44</ele>
        <time>2022-09-09T09:08:36Z</time>
      </trkpt>
      <trkpt lat="48.60602" lon="-2.8234">
        <ele>43.9</ele>
        <time>2022-09-09T09:08:39Z</time>
      </trkpt>
      <trkpt lat="48.60612" lon="-2.82344">
        <ele>44</ele>
        <time>2022-09-09T09:08:42Z</time>
      </trkpt>
      <trkpt lat="48.60622" lon="-2.82349">
        <ele>44</ele>
        <time>2022-09-09T09:08:45Z</time>
      </trkpt>
      <trkpt lat="48.60633" lon="-2.82355">
        <ele>44</ele>
        <time>2022-09-09T09:08:48Z</time>
      </trkpt>
      <trkpt lat="48.60644" lon="-2.82361">
        <ele>44</ele>
        <time>2022-09-09T09:08:51Z</time>
      </trkpt>
      <trkpt lat="48.60655" lon="-2.82367">
        <ele>43.8</ele>
        <time>2022-09-09T09:08:54Z</time>
      </trkpt>
      <trkpt lat="48.60669" lon="-2.82373">
        <ele>43.6</ele>
        <time>2022-09-09T09:08:57Z</time>
      </trkpt>
      <trkpt lat="48.60678" lon="-2.82377">
        <ele>43.4</ele>
        <time>2022-09-09T09:08:59Z</time>
      </trkpt>
      <trkpt lat="48.60688" lon="-2.82379">
        <ele>43.4</ele>
        <time>2022-09-09T09:09:01Z</time>
      </trkpt>
      <trkpt lat="48.60696" lon="-2.82385">
        <ele>43.2</ele>
        <time>2022-09-09T09:09:03Z</time>
      </trkpt>
      <trkpt lat="48.60706" lon="-2.8239">
        <ele>43.4</ele>
        <time>2022-09-09T09:09:06Z</time>
      </trkpt>
      <trkpt lat="48.60719" lon="-2.82389">
        <ele>43.9</ele>
        <time>2022-09-09T09:09:09Z</time>
      </trkpt>
      <trkpt lat="48.60729" lon="-2.82385">
        <ele>44.4</ele>
        <time>2022-09-09T09:09:12Z</time>
      </trkpt>
      <trkpt lat="48.6074" lon="-2.82383">
        <ele>44.9</ele>
        <time>2022-09-09T09:09:15Z</time>
      </trkpt>
      <trkpt lat="48.60751" lon="-2.8238">
        <ele>45.4</ele>
        <time>2022-09-09T09:09:18Z</time>
      </trkpt>
      <trkpt lat="48.60761" lon="-2.82378">
        <ele>45.9</ele>
        <time>2022-09-09T09:09:21Z</time>
      </trkpt>
      <trkpt lat="48.60771" lon="-2.82375">
        <ele>46.7</ele>
        <time>2022-09-09T09:09:24Z</time>
      </trkpt>
      <trkpt lat="48.6078" lon="-2.82368">
        <ele>47.4</ele>
        <time>2022-09-09T09:09:27Z</time>
      </trkpt>
      <trkpt lat="48.60787" lon="-2.82355">
        <ele>47.8</ele>
        <time>2022-09-09T09:09:31Z</time>
      </trkpt>
      <trkpt lat="48.60791" lon="-2.82339">
        <ele>48.3</ele>
        <time>2022-09-09T09:09:35Z</time>
      </trkpt>
      <trkpt lat="48.60796" lon="-2.82323">
        <ele>48.7</ele>
        <time>2022-09-09T09:09:39Z</time>
      </trkpt>
      <trkpt lat="48.60799" lon="-2.8231">
        <ele>48.8</ele>
        <time>2022-09-09T09:09:42Z</time>
      </trkpt>
      <trkpt lat="48.60802" lon="-2.82294">
        <ele>49</ele>
        <time>2022-09-09T09:09:46Z</time>
      </trkpt>
      <trkpt lat="48.60806" lon="-2.82281">
        <ele>49</ele>
        <time>2022-09-09T09:09:49Z</time>
      </trkpt>
      <trkpt lat="48.60808" lon="-2.82267">
        <ele>49.8</ele>
        <time>2022-09-09T09:09:54Z</time>
      </trkpt>
      <trkpt lat="48.60818" lon="-2.8226">
        <ele>50.5</ele>
        <time>2022-09-09T09:10:15Z</time>
      </trkpt>
      <trkpt lat="48.60828" lon="-2.8226">
        <ele>50.6</ele>
        <time>2022-09-09T09:10:18Z</time>
      </trkpt>
      <trkpt lat="48.60838" lon="-2.82259">
        <ele>50.7</ele>
        <time>2022-09-09T09:10:21Z</time>
      </trkpt>
      <trkpt lat="48.60849" lon="-2.82259">
        <ele>50.7</ele>
        <time>2022-09-09T09:10:24Z</time>
      </trkpt>
      <trkpt lat="48.60859" lon="-2.82256">
        <ele>50.8</ele>
        <time>2022-09-09T09:10:27Z</time>
      </trkpt>
      <trkpt lat="48.60869" lon="-2.82255">
        <ele>50.9</ele>
        <time>2022-09-09T09:10:30Z</time>
      </trkpt>
      <trkpt lat="48.60879" lon="-2.82255">
        <ele>50.9</ele>
        <time>2022-09-09T09:10:33Z</time>
      </trkpt>
      <trkpt lat="48.60888" lon="-2.82262">
        <ele>51</ele>
        <time>2022-09-09T09:10:36Z</time>
      </trkpt>
      <trkpt lat="48.60895" lon="-2.82274">
        <ele>51.5</ele>
        <time>2022-09-09T09:10:39Z</time>
      </trkpt>
      <trkpt lat="48.60902" lon="-2.82285">
        <ele>51.8</ele>
        <time>2022-09-09T09:10:42Z</time>
      </trkpt>
      <trkpt lat="48.60912" lon="-2.82291">
        <ele>52.6</ele>
        <time>2022-09-09T09:10:46Z</time>
      </trkpt>
      <trkpt lat="48.60922" lon="-2.82291">
        <ele>53.5</ele>
        <time>2022-09-09T09:10:50Z</time>
      </trkpt>
      <trkpt lat="48.60932" lon="-2.82287">
        <ele>54.4</ele>
        <time>2022-09-09T09:10:54Z</time>
      </trkpt>
      <trkpt lat="48.6094" lon="-2.82277">
        <ele>54.7</ele>
        <time>2022-09-09T09:10:58Z</time>
      </trkpt>
      <trkpt lat="48.60949" lon="-2.82266">
        <ele>55.4</ele>
        <time>2022-09-09T09:11:02Z</time>
      </trkpt>
      <trkpt lat="48.60959" lon="-2.82263">
        <ele>56.3</ele>
        <time>2022-09-09T09:11:06Z</time>
      </trkpt>
      <trkpt lat="48.60968" lon="-2.82264">
        <ele>57.2</ele>
        <time>2022-09-09T09:11:10Z</time>
      </trkpt>
      <trkpt lat="48.60979" lon="-2.82266">
        <ele>57.8</ele>
        <time>2022-09-09T09:11:14Z</time>
      </trkpt>
      <trkpt lat="48.60989" lon="-2.82267">
        <ele>58.2</ele>
        <time>2022-09-09T09:11:18Z</time>
      </trkpt>
      <trkpt lat="48.61" lon="-2.82268">
        <ele>58.6</ele>
        <time>2022-09-09T09:11:23Z</time>
      </trkpt>
      <trkpt lat="48.61011" lon="-2.82271">
        <ele>59.1</ele>
        <time>2022-09-09T09:11:28Z</time>
      </trkpt>
      <trkpt lat="48.61021" lon="-2.82272">
        <ele>59.4</ele>
        <time>2022-09-09T09:11:33Z</time>
      </trkpt>
      <trkpt lat="48.6103" lon="-2.82278">
        <ele>59.3</ele>
        <time>2022-09-09T09:11:38Z</time>
      </trkpt>
      <trkpt lat="48.61039" lon="-2.82282">
        <ele>61</ele>
        <time>2022-09-09T09:11:43Z</time>
      </trkpt>
      <trkpt lat="48.61049" lon="-2.82281">
        <ele>62.4</ele>
        <time>2022-09-09T09:11:52Z</time>
      </trkpt>
      <trkpt lat="48.6106" lon="-2.82281">
        <ele>63.7</ele>
        <time>2022-09-09T09:11:58Z</time>
      </trkpt>
      <trkpt lat="48.6107" lon="-2.8228">
        <ele>64.3</ele>
        <time>2022-09-09T09:12:03Z</time>
      </trkpt>
      <trkpt lat="48.61079" lon="-2.82279">
        <ele>64.8</ele>
        <time>2022-09-09T09:12:09Z</time>
      </trkpt>
      <trkpt lat="48.61089" lon="-2.82279">
        <ele>65.5</ele>
        <time>2022-09-09T09:12:15Z</time>
      </trkpt>
      <trkpt lat="48.61099" lon="-2.8228">
        <ele>66.3</ele>
        <time>2022-09-09T09:12:21Z</time>
      </trkpt>
      <trkpt lat="48.61109" lon="-2.82282">
        <ele>67.1</ele>
        <time>2022-09-09T09:12:26Z</time>
      </trkpt>
      <trkpt lat="48.61119" lon="-2.82288">
        <ele>67.5</ele>
        <time>2022-09-09T09:12:31Z</time>
      </trkpt>
      <trkpt lat="48.61128" lon="-2.82294">
        <ele>67.8</ele>
        <time>2022-09-09T09:12:36Z</time>
      </trkpt>
      <trkpt lat="48.61133" lon="-2.82306">
        <ele>68</ele>
        <time>2022-09-09T09:12:43Z</time>
      </trkpt>
      <trkpt lat="48.61142" lon="-2.8231">
        <ele>68</ele>
        <time>2022-09-09T09:12:48Z</time>
      </trkpt>
      <trkpt lat="48.6115" lon="-2.82317">
        <ele>68.2</ele>
        <time>2022-09-09T09:12:52Z</time>
      </trkpt>
      <trkpt lat="48.61158" lon="-2.82324">
        <ele>68.5</ele>
        <time>2022-09-09T09:12:56Z</time>
      </trkpt>
      <trkpt lat="48.61164" lon="-2.82333">
        <ele>68.9</ele>
        <time>2022-09-09T09:13:00Z</time>
      </trkpt>
      <trkpt lat="48.61173" lon="-2.82326">
        <ele>68.8</ele>
        <time>2022-09-09T09:13:05Z</time>
      </trkpt>
      <trkpt lat="48.61182" lon="-2.82318">
        <ele>68.7</ele>
        <time>2022-09-09T09:13:09Z</time>
      </trkpt>
      <trkpt lat="48.61192" lon="-2.8232">
        <ele>69</ele>
        <time>2022-09-09T09:13:14Z</time>
      </trkpt>
      <trkpt lat="48.61202" lon="-2.8232">
        <ele>69.4</ele>
        <time>2022-09-09T09:13:18Z</time>
      </trkpt>
      <trkpt lat="48.61212" lon="-2.82318">
        <ele>69.9</ele>
        <time>2022-09-09T09:13:22Z</time>
      </trkpt>
      <trkpt lat="48.61221" lon="-2.82316">
        <ele>70.3</ele>
        <time>2022-09-09T09:13:26Z</time>
      </trkpt>
      <trkpt lat="48.61231" lon="-2.82314">
        <ele>70.9</ele>
        <time>2022-09-09T09:13:30Z</time>
      </trkpt>
      <trkpt lat="48.61241" lon="-2.82314">
        <ele>71.4</ele>
        <time>2022-09-09T09:13:35Z</time>
      </trkpt>
      <trkpt lat="48.61251" lon="-2.82314">
        <ele>72</ele>
        <time>2022-09-09T09:13:40Z</time>
      </trkpt>
      <trkpt lat="48.61261" lon="-2.82314">
        <ele>72.4</ele>
        <time>2022-09-09T09:13:45Z</time>
      </trkpt>
      <trkpt lat="48.6127" lon="-2.82312">
        <ele>72.7</ele>
        <time>2022-09-09T09:13:49Z</time>
      </trkpt>
      <trkpt lat="48.6128" lon="-2.82311">
        <ele>73.4</ele>
        <time>2022-09-09T09:13:53Z</time>
      </trkpt>
      <trkpt lat="48.6129" lon="-2.82313">
        <ele>74.7</ele>
        <time>2022-09-09T09:14:13Z</time>
      </trkpt>
      <trkpt lat="48.61298" lon="-2.82316">
        <ele>76</ele>
        <time>2022-09-09T09:14:27Z</time>
      </trkpt>
      <trkpt lat="48.61308" lon="-2.82316">
        <ele>77.3</ele>
        <time>2022-09-09T09:14:44Z</time>
      </trkpt>
      <trkpt lat="48.61315" lon="-2.82309">
        <ele>78.4</ele>
        <time>2022-09-09T09:15:02Z</time>
      </trkpt>
      <trkpt lat="48.61326" lon="-2.8231">
        <ele>79.8</ele>
        <time>2022-09-09T09:15:09Z</time>
      </trkpt>
      <trkpt lat="48.61336" lon="-2.82315">
        <ele>80.7</ele>
        <time>2022-09-09T09:15:15Z</time>
      </trkpt>
      <trkpt lat="48.61344" lon="-2.82321">
        <ele>80.9</ele>
        <time>2022-09-09T09:15:20Z</time>
      </trkpt>
      <trkpt lat="48.61354" lon="-2.82327">
        <ele>81.4</ele>
        <time>2022-09-09T09:15:25Z</time>
      </trkpt>
      <trkpt lat="48.61363" lon="-2.82334">
        <ele>81.9</ele>
        <time>2022-09-09T09:15:30Z</time>
      </trkpt>
      <trkpt lat="48.61372" lon="-2.82341">
        <ele>81.6</ele>
        <time>2022-09-09T09:15:34Z</time>
      </trkpt>
      <trkpt lat="48.61381" lon="-2.82349">
        <ele>81.5</ele>
        <time>2022-09-09T09:15:38Z</time>
      </trkpt>
      <trkpt lat="48.61391" lon="-2.82358">
        <ele>81.8</ele>
        <time>2022-09-09T09:15:42Z</time>
      </trkpt>
      <trkpt lat="48.614" lon="-2.82362">
        <ele>81.6</ele>
        <time>2022-09-09T09:15:45Z</time>
      </trkpt>
      <trkpt lat="48.61411" lon="-2.8237">
        <ele>80.8</ele>
        <time>2022-09-09T09:15:49Z</time>
      </trkpt>
      <trkpt lat="48.61424" lon="-2.82374">
        <ele>80.1</ele>
        <time>2022-09-09T09:15:52Z</time>
      </trkpt>
      <trkpt lat="48.61433" lon="-2.82375">
        <ele>79.6</ele>
        <time>2022-09-09T09:15:54Z</time>
      </trkpt>
      <trkpt lat="48.61443" lon="-2.82376">
        <ele>79.1</ele>
        <time>2022-09-09T09:15:56Z</time>
      </trkpt>
      <trkpt lat="48.61454" lon="-2.82376">
        <ele>78.6</ele>
        <time>2022-09-09T09:15:58Z</time>
      </trkpt>
      <trkpt lat="48.61466" lon="-2.82379">
        <ele>78.2</ele>
        <time>2022-09-09T09:16:00Z</time>
      </trkpt>
      <trkpt lat="48.61476" lon="-2.82386">
        <ele>78</ele>
        <time>2022-09-09T09:16:02Z</time>
      </trkpt>
      <trkpt lat="48.61485" lon="-2.82393">
        <ele>77.9</ele>
        <time>2022-09-09T09:16:04Z</time>
      </trkpt>
      <trkpt lat="48.61494" lon="-2.82401">
        <ele>77.7</ele>
        <time>2022-09-09T09:16:06Z</time>
      </trkpt>
      <trkpt lat="48.61504" lon="-2.82403">
        <ele>77.4</ele>
        <time>2022-09-09T09:16:09Z</time>
      </trkpt>
      <trkpt lat="48.61512" lon="-2.82397">
        <ele>77.3</ele>
        <time>2022-09-09T09:16:12Z</time>
      </trkpt>
      <trkpt lat="48.61519" lon="-2.82383">
        <ele>77.4</ele>
        <time>2022-09-09T09:16:15Z</time>
      </trkpt>
      <trkpt lat="48.61527" lon="-2.82372">
        <ele>77</ele>
        <time>2022-09-09T09:16:18Z</time>
      </trkpt>
      <trkpt lat="48.61536" lon="-2.82378">
        <ele>76.6</ele>
        <time>2022-09-09T09:16:22Z</time>
      </trkpt>
      <trkpt lat="48.61545" lon="-2.82385">
        <ele>76.3</ele>
        <time>2022-09-09T09:16:25Z</time>
      </trkpt>
      <trkpt lat="48.61555" lon="-2.82392">
        <ele>76</ele>
        <time>2022-09-09T09:16:28Z</time>
      </trkpt>
      <trkpt lat="48.61566" lon="-2.82399">
        <ele>75.8</ele>
        <time>2022-09-09T09:16:31Z</time>
      </trkpt>
      <trkpt lat="48.61575" lon="-2.82405">
        <ele>75.7</ele>
        <time>2022-09-09T09:16:34Z</time>
      </trkpt>
      <trkpt lat="48.61585" lon="-2.8241">
        <ele>75.8</ele>
        <time>2022-09-09T09:16:37Z</time>
      </trkpt>
      <trkpt lat="48.61594" lon="-2.82414">
        <ele>76.2</ele>
        <time>2022-09-09T09:16:40Z</time>
      </trkpt>
      <trkpt lat="48.61603" lon="-2.82415">
        <ele>76.6</ele>
        <time>2022-09-09T09:16:43Z</time>
      </trkpt>
      <trkpt lat="48.61611" lon="-2.82409">
        <ele>76.4</ele>
        <time>2022-09-09T09:16:50Z</time>
      </trkpt>
      <trkpt lat="48.61621" lon="-2.82398">
        <ele>75.2</ele>
        <time>2022-09-09T09:16:55Z</time>
      </trkpt>
      <trkpt lat="48.61628" lon="-2.82388">
        <ele>74.3</ele>
        <time>2022-09-09T09:16:58Z</time>
      </trkpt>
      <trkpt lat="48.61638" lon="-2.82388">
        <ele>74</ele>
        <time>2022-09-09T09:17:11Z</time>
      </trkpt>
      <trkpt lat="48.61646" lon="-2.82401">
        <ele>74</ele>
        <time>2022-09-09T09:17:15Z</time>
      </trkpt>
      <trkpt lat="48.61654" lon="-2.8241">
        <ele>73.8</ele>
        <time>2022-09-09T09:17:18Z</time>
      </trkpt>
      <trkpt lat="48.61663" lon="-2.82418">
        <ele>73.3</ele>
        <time>2022-09-09T09:17:21Z</time>
      </trkpt>
      <trkpt lat="48.61671" lon="-2.82424">
        <ele>73.2</ele>
        <time>2022-09-09T09:17:24Z</time>
      </trkpt>
      <trkpt lat="48.6168" lon="-2.82431">
        <ele>73.3</ele>
        <time>2022-09-09T09:17:27Z</time>
      </trkpt>
      <trkpt lat="48.61691" lon="-2.82439">
        <ele>73.1</ele>
        <time>2022-09-09T09:17:30Z</time>
      </trkpt>
      <trkpt lat="48.61701" lon="-2.82447">
        <ele>72.8</ele>
        <time>2022-09-09T09:17:33Z</time>
      </trkpt>
      <trkpt lat="48.61711" lon="-2.82454">
        <ele>72.6</ele>
        <time>2022-09-09T09:17:36Z</time>
      </trkpt>
      <trkpt lat="48.61721" lon="-2.8246">
        <ele>72.6</ele>
        <time>2022-09-09T09:17:39Z</time>
      </trkpt>
      <trkpt lat="48.61729" lon="-2.82467">
        <ele>72.8</ele>
        <time>2022-09-09T09:17:43Z</time>
      </trkpt>
      <trkpt lat="48.61739" lon="-2.8246">
        <ele>72.6</ele>
        <time>2022-09-09T09:17:50Z</time>
      </trkpt>
      <trkpt lat="48.61746" lon="-2.82446">
        <ele>72.1</ele>
        <time>2022-09-09T09:17:54Z</time>
      </trkpt>
      <trkpt lat="48.61755" lon="-2.82434">
        <ele>71.4</ele>
        <time>2022-09-09T09:17:57Z</time>
      </trkpt>
      <trkpt lat="48.61766" lon="-2.8242">
        <ele>70.6</ele>
        <time>2022-09-09T09:18:00Z</time>
      </trkpt>
      <trkpt lat="48.61772" lon="-2.8241">
        <ele>70.2</ele>
        <time>2022-09-09T09:18:02Z</time>
      </trkpt>
      <trkpt lat="48.61781" lon="-2.824">
        <ele>69.9</ele>
        <time>2022-09-09T09:18:04Z</time>
      </trkpt>
      <trkpt lat="48.61788" lon="-2.8239">
        <ele>69.6</ele>
        <time>2022-09-09T09:18:06Z</time>
      </trkpt>
      <trkpt lat="48.61796" lon="-2.82378">
        <ele>69.2</ele>
        <time>2022-09-09T09:18:08Z</time>
      </trkpt>
      <trkpt lat="48.61804" lon="-2.82368">
        <ele>69</ele>
        <time>2022-09-09T09:18:10Z</time>
      </trkpt>
      <trkpt lat="48.61812" lon="-2.82358">
        <ele>68.7</ele>
        <time>2022-09-09T09:18:12Z</time>
      </trkpt>
      <trkpt lat="48.61821" lon="-2.8235">
        <ele>68.3</ele>
        <time>2022-09-09T09:18:14Z</time>
      </trkpt>
      <trkpt lat="48.61833" lon="-2.82338">
        <ele>68</ele>
        <time>2022-09-09T09:18:17Z</time>
      </trkpt>
      <trkpt lat="48.6184" lon="-2.82329">
        <ele>67.6</ele>
        <time>2022-09-09T09:18:19Z</time>
      </trkpt>
      <trkpt lat="48.61848" lon="-2.82318">
        <ele>67.2</ele>
        <time>2022-09-09T09:18:21Z</time>
      </trkpt>
      <trkpt lat="48.61857" lon="-2.82312">
        <ele>67</ele>
        <time>2022-09-09T09:18:23Z</time>
      </trkpt>
      <trkpt lat="48.61867" lon="-2.82311">
        <ele>67</ele>
        <time>2022-09-09T09:18:25Z</time>
      </trkpt>
      <trkpt lat="48.61876" lon="-2.82324">
        <ele>67</ele>
        <time>2022-09-09T09:18:28Z</time>
      </trkpt>
      <trkpt lat="48.61882" lon="-2.82338">
        <ele>67.2</ele>
        <time>2022-09-09T09:18:31Z</time>
      </trkpt>
      <trkpt lat="48.61893" lon="-2.82338">
        <ele>67.2</ele>
        <time>2022-09-09T09:18:35Z</time>
      </trkpt>
      <trkpt lat="48.61887" lon="-2.8235">
        <ele>67.6</ele>
        <time>2022-09-09T09:19:36Z</time>
      </trkpt>
      <trkpt lat="48.6189" lon="-2.82367">
        <ele>68</ele>
        <time>2022-09-09T09:19:40Z</time>
      </trkpt>
      <trkpt lat="48.61895" lon="-2.82382">
        <ele>67.9</ele>
        <time>2022-09-09T09:19:43Z</time>
      </trkpt>
      <trkpt lat="48.61899" lon="-2.82396">
        <ele>68</ele>
        <time>2022-09-09T09:19:46Z</time>
      </trkpt>
      <trkpt lat="48.61904" lon="-2.82409">
        <ele>68</ele>
        <time>2022-09-09T09:19:49Z</time>
      </trkpt>
      <trkpt lat="48.61908" lon="-2.82423">
        <ele>68.2</ele>
        <time>2022-09-09T09:19:52Z</time>
      </trkpt>
      <trkpt lat="48.61914" lon="-2.82436">
        <ele>68.7</ele>
        <time>2022-09-09T09:19:55Z</time>
      </trkpt>
      <trkpt lat="48.61919" lon="-2.8245">
        <ele>68.9</ele>
        <time>2022-09-09T09:19:58Z</time>
      </trkpt>
      <trkpt lat="48.61925" lon="-2.82465">
        <ele>68.7</ele>
        <time>2022-09-09T09:20:01Z</time>
      </trkpt>
      <trkpt lat="48.6193" lon="-2.8248">
        <ele>68.5</ele>
        <time>2022-09-09T09:20:04Z</time>
      </trkpt>
      <trkpt lat="48.61935" lon="-2.82497">
        <ele>68.3</ele>
        <time>2022-09-09T09:20:07Z</time>
      </trkpt>
      <trkpt lat="48.61942" lon="-2.82505">
        <ele>67.9</ele>
        <time>2022-09-09T09:20:09Z</time>
      </trkpt>
      <trkpt lat="48.61955" lon="-2.82501">
        <ele>67.6</ele>
        <time>2022-09-09T09:20:12Z</time>
      </trkpt>
      <trkpt lat="48.61963" lon="-2.82496">
        <ele>67.4</ele>
        <time>2022-09-09T09:20:14Z</time>
      </trkpt>
      <trkpt lat="48.61972" lon="-2.8249">
        <ele>67.4</ele>
        <time>2022-09-09T09:20:16Z</time>
      </trkpt>
      <trkpt lat="48.61982" lon="-2.82482">
        <ele>66.5</ele>
        <time>2022-09-09T09:20:19Z</time>
      </trkpt>
      <trkpt lat="48.6199" lon="-2.82487">
        <ele>65.2</ele>
        <time>2022-09-09T09:20:25Z</time>
      </trkpt>
      <trkpt lat="48.61996" lon="-2.82502">
        <ele>63.8</ele>
        <time>2022-09-09T09:20:28Z</time>
      </trkpt>
      <trkpt lat="48.62006" lon="-2.82509">
        <ele>64</ele>
        <time>2022-09-09T09:20:32Z</time>
      </trkpt>
      <trkpt lat="48.62016" lon="-2.82504">
        <ele>63.2</ele>
        <time>2022-09-09T09:20:35Z</time>
      </trkpt>
      <trkpt lat="48.62024" lon="-2.825">
        <ele>62.1</ele>
        <time>2022-09-09T09:20:37Z</time>
      </trkpt>
      <trkpt lat="48.62034" lon="-2.82495">
        <ele>61.6</ele>
        <time>2022-09-09T09:20:49Z</time>
      </trkpt>
      <trkpt lat="48.62044" lon="-2.82491">
        <ele>60.8</ele>
        <time>2022-09-09T09:20:53Z</time>
      </trkpt>
      <trkpt lat="48.62054" lon="-2.82492">
        <ele>61</ele>
        <time>2022-09-09T09:20:59Z</time>
      </trkpt>
      <trkpt lat="48.62059" lon="-2.82504">
        <ele>63.1</ele>
        <time>2022-09-09T09:21:19Z</time>
      </trkpt>
      <trkpt lat="48.62066" lon="-2.82495">
        <ele>62</ele>
        <time>2022-09-09T09:21:31Z</time>
      </trkpt>
      <trkpt lat="48.62075" lon="-2.82483">
        <ele>60.4</ele>
        <time>2022-09-09T09:21:34Z</time>
      </trkpt>
      <trkpt lat="48.62085" lon="-2.82473">
        <ele>60.3</ele>
        <time>2022-09-09T09:21:36Z</time>
      </trkpt>
      <trkpt lat="48.62093" lon="-2.82463">
        <ele>59.3</ele>
        <time>2022-09-09T09:21:38Z</time>
      </trkpt>
      <trkpt lat="48.621" lon="-2.82453">
        <ele>59</ele>
        <time>2022-09-09T09:21:40Z</time>
      </trkpt>
      <trkpt lat="48.62109" lon="-2.82444">
        <ele>59.5</ele>
        <time>2022-09-09T09:21:43Z</time>
      </trkpt>
      <trkpt lat="48.62119" lon="-2.82433">
        <ele>57.2</ele>
        <time>2022-09-09T09:21:46Z</time>
      </trkpt>
      <trkpt lat="48.62126" lon="-2.82426">
        <ele>56.1</ele>
        <time>2022-09-09T09:21:48Z</time>
      </trkpt>
      <trkpt lat="48.62137" lon="-2.82425">
        <ele>56.5</ele>
        <time>2022-09-09T09:21:50Z</time>
      </trkpt>
      <trkpt lat="48.62146" lon="-2.82423">
        <ele>56.2</ele>
        <time>2022-09-09T09:21:52Z</time>
      </trkpt>
      <trkpt lat="48.6216" lon="-2.82417">
        <ele>55.3</ele>
        <time>2022-09-09T09:21:55Z</time>
      </trkpt>
      <trkpt lat="48.6217" lon="-2.82413">
        <ele>54</ele>
        <time>2022-09-09T09:21:57Z</time>
      </trkpt>
      <trkpt lat="48.6218" lon="-2.82404">
        <ele>52.2</ele>
        <time>2022-09-09T09:22:00Z</time>
      </trkpt>
      <trkpt lat="48.62191" lon="-2.82398">
        <ele>51.8</ele>
        <time>2022-09-09T09:22:03Z</time>
      </trkpt>
      <trkpt lat="48.62201" lon="-2.82394">
        <ele>51.7</ele>
        <time>2022-09-09T09:22:11Z</time>
      </trkpt>
      <trkpt lat="48.62209" lon="-2.82388">
        <ele>51.4</ele>
        <time>2022-09-09T09:22:15Z</time>
      </trkpt>
      <trkpt lat="48.62219" lon="-2.82383">
        <ele>50.7</ele>
        <time>2022-09-09T09:22:18Z</time>
      </trkpt>
      <trkpt lat="48.62228" lon="-2.82387">
        <ele>52.1</ele>
        <time>2022-09-09T09:22:22Z</time>
      </trkpt>
      <trkpt lat="48.62238" lon="-2.82388">
        <ele>53.1</ele>
        <time>2022-09-09T09:22:28Z</time>
      </trkpt>
      <trkpt lat="48.62248" lon="-2.82383">
        <ele>53.8</ele>
        <time>2022-09-09T09:22:36Z</time>
      </trkpt>
      <trkpt lat="48.62257" lon="-2.82381">
        <ele>53.6</ele>
        <time>2022-09-09T09:22:42Z</time>
      </trkpt>
      <trkpt lat="48.62266" lon="-2.82385">
        <ele>53</ele>
        <time>2022-09-09T09:22:48Z</time>
      </trkpt>
      <trkpt lat="48.62268" lon="-2.82401">
        <ele>53</ele>
        <time>2022-09-09T09:22:53Z</time>
      </trkpt>
      <trkpt lat="48.6227" lon="-2.82417">
        <ele>53.3</ele>
        <time>2022-09-09T09:22:58Z</time>
      </trkpt>
      <trkpt lat="48.62271" lon="-2.82432">
        <ele>53.8</ele>
        <time>2022-09-09T09:23:02Z</time>
      </trkpt>
      <trkpt lat="48.62274" lon="-2.82447">
        <ele>54.2</ele>
        <time>2022-09-09T09:23:07Z</time>
      </trkpt>
      <trkpt lat="48.62284" lon="-2.82445">
        <ele>53.6</ele>
        <time>2022-09-09T09:23:12Z</time>
      </trkpt>
      <trkpt lat="48.62292" lon="-2.82436">
        <ele>52.7</ele>
        <time>2022-09-09T09:23:14Z</time>
      </trkpt>
      <trkpt lat="48.62306" lon="-2.82427">
        <ele>51.4</ele>
        <time>2022-09-09T09:23:16Z</time>
      </trkpt>
      <trkpt lat="48.62319" lon="-2.82428">
        <ele>50.6</ele>
        <time>2022-09-09T09:23:18Z</time>
      </trkpt>
      <trkpt lat="48.62334" lon="-2.82436">
        <ele>50.4</ele>
        <time>2022-09-09T09:23:20Z</time>
      </trkpt>
      <trkpt lat="48.62343" lon="-2.82444">
        <ele>50.3</ele>
        <time>2022-09-09T09:23:22Z</time>
      </trkpt>
      <trkpt lat="48.62349" lon="-2.82454">
        <ele>49.5</ele>
        <time>2022-09-09T09:23:24Z</time>
      </trkpt>
      <trkpt lat="48.62357" lon="-2.82464">
        <ele>47.6</ele>
        <time>2022-09-09T09:23:28Z</time>
      </trkpt>
      <trkpt lat="48.62357" lon="-2.8248">
        <ele>47.1</ele>
        <time>2022-09-09T09:23:34Z</time>
      </trkpt>
      <trkpt lat="48.62354" lon="-2.82494">
        <ele>48.1</ele>
        <time>2022-09-09T09:23:38Z</time>
      </trkpt>
      <trkpt lat="48.62354" lon="-2.8251">
        <ele>49.7</ele>
        <time>2022-09-09T09:23:43Z</time>
      </trkpt>
      <trkpt lat="48.6235" lon="-2.82524">
        <ele>51.8</ele>
        <time>2022-09-09T09:23:48Z</time>
      </trkpt>
      <trkpt lat="48.62344" lon="-2.82538">
        <ele>53.8</ele>
        <time>2022-09-09T09:23:54Z</time>
      </trkpt>
      <trkpt lat="48.62342" lon="-2.82552">
        <ele>54.9</ele>
        <time>2022-09-09T09:24:00Z</time>
      </trkpt>
      <trkpt lat="48.6234" lon="-2.82567">
        <ele>55.1</ele>
        <time>2022-09-09T09:24:06Z</time>
      </trkpt>
      <trkpt lat="48.62342" lon="-2.82582">
        <ele>55.3</ele>
        <time>2022-09-09T09:24:12Z</time>
      </trkpt>
      <trkpt lat="48.62344" lon="-2.82597">
        <ele>56.5</ele>
        <time>2022-09-09T09:24:18Z</time>
      </trkpt>
      <trkpt lat="48.6235" lon="-2.82608">
        <ele>57.2</ele>
        <time>2022-09-09T09:24:24Z</time>
      </trkpt>
      <trkpt lat="48.62356" lon="-2.82618">
        <ele>57.9</ele>
        <time>2022-09-09T09:24:30Z</time>
      </trkpt>
      <trkpt lat="48.62365" lon="-2.82627">
        <ele>58.9</ele>
        <time>2022-09-09T09:24:36Z</time>
      </trkpt>
      <trkpt lat="48.62371" lon="-2.82637">
        <ele>60.2</ele>
        <time>2022-09-09T09:24:41Z</time>
      </trkpt>
      <trkpt lat="48.62378" lon="-2.82646">
        <ele>61.1</ele>
        <time>2022-09-09T09:24:46Z</time>
      </trkpt>
      <trkpt lat="48.62385" lon="-2.82657">
        <ele>62.2</ele>
        <time>2022-09-09T09:24:51Z</time>
      </trkpt>
      <trkpt lat="48.62394" lon="-2.82657">
        <ele>62.5</ele>
        <time>2022-09-09T09:24:58Z</time>
      </trkpt>
      <trkpt lat="48.62401" lon="-2.82649">
        <ele>62.3</ele>
        <time>2022-09-09T09:25:02Z</time>
      </trkpt>
      <trkpt lat="48.62406" lon="-2.82637">
        <ele>62.1</ele>
        <time>2022-09-09T09:25:05Z</time>
      </trkpt>
      <trkpt lat="48.62411" lon="-2.82623">
        <ele>61.6</ele>
        <time>2022-09-09T09:25:08Z</time>
      </trkpt>
      <trkpt lat="48.6242" lon="-2.8262">
        <ele>61.8</ele>
        <time>2022-09-09T09:25:14Z</time>
      </trkpt>
      <trkpt lat="48.6243" lon="-2.82619">
        <ele>62.3</ele>
        <time>2022-09-09T09:25:19Z</time>
      </trkpt>
      <trkpt lat="48.62441" lon="-2.82613">
        <ele>62.8</ele>
        <time>2022-09-09T09:25:23Z</time>
      </trkpt>
      <trkpt lat="48.62451" lon="-2.82605">
        <ele>62.6</ele>
        <time>2022-09-09T09:25:27Z</time>
      </trkpt>
      <trkpt lat="48.62462" lon="-2.826">
        <ele>62.2</ele>
        <time>2022-09-09T09:25:31Z</time>
      </trkpt>
      <trkpt lat="48.62471" lon="-2.82592">
        <ele>62</ele>
        <time>2022-09-09T09:25:34Z</time>
      </trkpt>
      <trkpt lat="48.62481" lon="-2.82585">
        <ele>61.4</ele>
        <time>2022-09-09T09:25:37Z</time>
      </trkpt>
      <trkpt lat="48.62489" lon="-2.82575">
        <ele>60.1</ele>
        <time>2022-09-09T09:25:39Z</time>
      </trkpt>
      <trkpt lat="48.62498" lon="-2.82569">
        <ele>59.1</ele>
        <time>2022-09-09T09:25:41Z</time>
      </trkpt>
      <trkpt lat="48.62507" lon="-2.82565">
        <ele>58.1</ele>
        <time>2022-09-09T09:25:43Z</time>
      </trkpt>
      <trkpt lat="48.62517" lon="-2.82567">
        <ele>57.3</ele>
        <time>2022-09-09T09:25:46Z</time>
      </trkpt>
      <trkpt lat="48.62522" lon="-2.82579">
        <ele>57.4</ele>
        <time>2022-09-09T09:25:50Z</time>
      </trkpt>
      <trkpt lat="48.62524" lon="-2.82593">
        <ele>57.8</ele>
        <time>2022-09-09T09:25:54Z</time>
      </trkpt>
      <trkpt lat="48.62526" lon="-2.82609">
        <ele>58.1</ele>
        <time>2022-09-09T09:25:58Z</time>
      </trkpt>
      <trkpt lat="48.62528" lon="-2.82623">
        <ele>58.4</ele>
        <time>2022-09-09T09:26:02Z</time>
      </trkpt>
      <trkpt lat="48.6253" lon="-2.82637">
        <ele>58.8</ele>
        <time>2022-09-09T09:26:06Z</time>
      </trkpt>
      <trkpt lat="48.62533" lon="-2.82652">
        <ele>59.2</ele>
        <time>2022-09-09T09:26:10Z</time>
      </trkpt>
      <trkpt lat="48.62535" lon="-2.82666">
        <ele>59.7</ele>
        <time>2022-09-09T09:26:14Z</time>
      </trkpt>
      <trkpt lat="48.62537" lon="-2.82679">
        <ele>60.1</ele>
        <time>2022-09-09T09:26:18Z</time>
      </trkpt>
      <trkpt lat="48.6254" lon="-2.82693">
        <ele>60.5</ele>
        <time>2022-09-09T09:26:22Z</time>
      </trkpt>
      <trkpt lat="48.62541" lon="-2.82707">
        <ele>61.4</ele>
        <time>2022-09-09T09:26:26Z</time>
      </trkpt>
      <trkpt lat="48.62543" lon="-2.8272">
        <ele>62.3</ele>
        <time>2022-09-09T09:26:30Z</time>
      </trkpt>
      <trkpt lat="48.62545" lon="-2.82734">
        <ele>62.6</ele>
        <time>2022-09-09T09:26:34Z</time>
      </trkpt>
      <trkpt lat="48.62546" lon="-2.82749">
        <ele>63</ele>
        <time>2022-09-09T09:26:39Z</time>
      </trkpt>
      <trkpt lat="48.62555" lon="-2.82757">
        <ele>63.3</ele>
        <time>2022-09-09T09:26:44Z</time>
      </trkpt>
      <trkpt lat="48.62567" lon="-2.82759">
        <ele>62.8</ele>
        <time>2022-09-09T09:26:47Z</time>
      </trkpt>
      <trkpt lat="48.62579" lon="-2.82762">
        <ele>62.2</ele>
        <time>2022-09-09T09:26:50Z</time>
      </trkpt>
      <trkpt lat="48.62591" lon="-2.82766">
        <ele>61.9</ele>
        <time>2022-09-09T09:26:53Z</time>
      </trkpt>
      <trkpt lat="48.62604" lon="-2.82773">
        <ele>61.9</ele>
        <time>2022-09-09T09:26:56Z</time>
      </trkpt>
      <trkpt lat="48.62612" lon="-2.82781">
        <ele>62.1</ele>
        <time>2022-09-09T09:26:58Z</time>
      </trkpt>
      <trkpt lat="48.62624" lon="-2.8279">
        <ele>61.5</ele>
        <time>2022-09-09T09:27:01Z</time>
      </trkpt>
      <trkpt lat="48.62633" lon="-2.82795">
        <ele>61.1</ele>
        <time>2022-09-09T09:27:03Z</time>
      </trkpt>
      <trkpt lat="48.62641" lon="-2.828">
        <ele>60.7</ele>
        <time>2022-09-09T09:27:05Z</time>
      </trkpt>
      <trkpt lat="48.62652" lon="-2.82803">
        <ele>60.5</ele>
        <time>2022-09-09T09:27:07Z</time>
      </trkpt>
      <trkpt lat="48.62662" lon="-2.82806">
        <ele>60.2</ele>
        <time>2022-09-09T09:27:09Z</time>
      </trkpt>
      <trkpt lat="48.62673" lon="-2.82807">
        <ele>59.8</ele>
        <time>2022-09-09T09:27:11Z</time>
      </trkpt>
      <trkpt lat="48.62683" lon="-2.82806">
        <ele>59.4</ele>
        <time>2022-09-09T09:27:13Z</time>
      </trkpt>
      <trkpt lat="48.62694" lon="-2.82804">
        <ele>59</ele>
        <time>2022-09-09T09:27:15Z</time>
      </trkpt>
      <trkpt lat="48.62707" lon="-2.82802">
        <ele>58.4</ele>
        <time>2022-09-09T09:27:17Z</time>
      </trkpt>
      <trkpt lat="48.62716" lon="-2.82799">
        <ele>58</ele>
        <time>2022-09-09T09:27:19Z</time>
      </trkpt>
      <trkpt lat="48.62722" lon="-2.82783">
        <ele>57.2</ele>
        <time>2022-09-09T09:27:22Z</time>
      </trkpt>
      <trkpt lat="48.6272" lon="-2.82769">
        <ele>56.8</ele>
        <time>2022-09-09T09:27:24Z</time>
      </trkpt>
      <trkpt lat="48.62717" lon="-2.82753">
        <ele>56.3</ele>
        <time>2022-09-09T09:27:26Z</time>
      </trkpt>
      <trkpt lat="48.62715" lon="-2.82738">
        <ele>55.8</ele>
        <time>2022-09-09T09:27:28Z</time>
      </trkpt>
      <trkpt lat="48.62712" lon="-2.82721">
        <ele>55.3</ele>
        <time>2022-09-09T09:27:30Z</time>
      </trkpt>
      <trkpt lat="48.6271" lon="-2.82706">
        <ele>54.9</ele>
        <time>2022-09-09T09:27:32Z</time>
      </trkpt>
      <trkpt lat="48.62706" lon="-2.82689">
        <ele>54.6</ele>
        <time>2022-09-09T09:27:34Z</time>
      </trkpt>
      <trkpt lat="48.62704" lon="-2.8267">
        <ele>54.7</ele>
        <time>2022-09-09T09:27:36Z</time>
      </trkpt>
      <trkpt lat="48.62702" lon="-2.82653">
        <ele>54.2</ele>
        <time>2022-09-09T09:27:38Z</time>
      </trkpt>
      <trkpt lat="48.62701" lon="-2.82636">
        <ele>53.7</ele>
        <time>2022-09-09T09:27:41Z</time>
      </trkpt>
      <trkpt lat="48.6271" lon="-2.82626">
        <ele>53</ele>
        <time>2022-09-09T09:27:45Z</time>
      </trkpt>
      <trkpt lat="48.62722" lon="-2.82624">
        <ele>52.5</ele>
        <time>2022-09-09T09:27:48Z</time>
      </trkpt>
      <trkpt lat="48.62734" lon="-2.8262">
        <ele>51.9</ele>
        <time>2022-09-09T09:27:51Z</time>
      </trkpt>
      <trkpt lat="48.62746" lon="-2.82616">
        <ele>51.3</ele>
        <time>2022-09-09T09:27:54Z</time>
      </trkpt>
      <trkpt lat="48.62758" lon="-2.82615">
        <ele>51.1</ele>
        <time>2022-09-09T09:27:57Z</time>
      </trkpt>
      <trkpt lat="48.62769" lon="-2.82613">
        <ele>51.1</ele>
        <time>2022-09-09T09:28:01Z</time>
      </trkpt>
      <trkpt lat="48.62774" lon="-2.82601">
        <ele>50.6</ele>
        <time>2022-09-09T09:28:21Z</time>
      </trkpt>
      <trkpt lat="48.62769" lon="-2.82587">
        <ele>50.1</ele>
        <time>2022-09-09T09:28:24Z</time>
      </trkpt>
      <trkpt lat="48.62765" lon="-2.82573">
        <ele>50</ele>
        <time>2022-09-09T09:28:30Z</time>
      </trkpt>
      <trkpt lat="48.62769" lon="-2.82558">
        <ele>50</ele>
        <time>2022-09-09T09:28:58Z</time>
      </trkpt>
      <trkpt lat="48.62779" lon="-2.82547">
        <ele>49.4</ele>
        <time>2022-09-09T09:29:02Z</time>
      </trkpt>
      <trkpt lat="48.62792" lon="-2.82542">
        <ele>49</ele>
        <time>2022-09-09T09:29:05Z</time>
      </trkpt>
      <trkpt lat="48.62802" lon="-2.8254">
        <ele>48.9</ele>
        <time>2022-09-09T09:29:07Z</time>
      </trkpt>
      <trkpt lat="48.62811" lon="-2.82537">
        <ele>48.9</ele>
        <time>2022-09-09T09:29:09Z</time>
      </trkpt>
      <trkpt lat="48.62821" lon="-2.82532">
        <ele>49.1</ele>
        <time>2022-09-09T09:29:11Z</time>
      </trkpt>
      <trkpt lat="48.62829" lon="-2.82527">
        <ele>49.6</ele>
        <time>2022-09-09T09:29:13Z</time>
      </trkpt>
      <trkpt lat="48.62841" lon="-2.8252">
        <ele>49.1</ele>
        <time>2022-09-09T09:29:16Z</time>
      </trkpt>
      <trkpt lat="48.6285" lon="-2.82512">
        <ele>48.8</ele>
        <time>2022-09-09T09:29:19Z</time>
      </trkpt>
      <trkpt lat="48.62858" lon="-2.82505">
        <ele>49</ele>
        <time>2022-09-09T09:29:48Z</time>
      </trkpt>
      <trkpt lat="48.62861" lon="-2.82519">
        <ele>49.7</ele>
        <time>2022-09-09T09:29:53Z</time>
      </trkpt>
      <trkpt lat="48.62857" lon="-2.82531">
        <ele>49.9</ele>
        <time>2022-09-09T09:29:57Z</time>
      </trkpt>
      <trkpt lat="48.62867" lon="-2.82539">
        <ele>50.1</ele>
        <time>2022-09-09T09:30:01Z</time>
      </trkpt>
      <trkpt lat="48.62878" lon="-2.82542">
        <ele>50.7</ele>
        <time>2022-09-09T09:30:04Z</time>
      </trkpt>
      <trkpt lat="48.62888" lon="-2.82546">
        <ele>51.3</ele>
        <time>2022-09-09T09:30:08Z</time>
      </trkpt>
      <trkpt lat="48.629" lon="-2.82551">
        <ele>51.5</ele>
        <time>2022-09-09T09:30:12Z</time>
      </trkpt>
      <trkpt lat="48.62909" lon="-2.82554">
        <ele>51.7</ele>
        <time>2022-09-09T09:30:15Z</time>
      </trkpt>
      <trkpt lat="48.62918" lon="-2.82558">
        <ele>52</ele>
        <time>2022-09-09T09:30:18Z</time>
      </trkpt>
      <trkpt lat="48.62928" lon="-2.82564">
        <ele>52</ele>
        <time>2022-09-09T09:30:21Z</time>
      </trkpt>
      <trkpt lat="48.62936" lon="-2.82573">
        <ele>52</ele>
        <time>2022-09-09T09:30:24Z</time>
      </trkpt>
      <trkpt lat="48.62944" lon="-2.82584">
        <ele>52</ele>
        <time>2022-09-09T09:30:27Z</time>
      </trkpt>
      <trkpt lat="48.62951" lon="-2.82597">
        <ele>52.1</ele>
        <time>2022-09-09T09:30:30Z</time>
      </trkpt>
      <trkpt lat="48.62957" lon="-2.82613">
        <ele>52</ele>
        <time>2022-09-09T09:30:33Z</time>
      </trkpt>
      <trkpt lat="48.62961" lon="-2.8263">
        <ele>52</ele>
        <time>2022-09-09T09:30:36Z</time>
      </trkpt>
      <trkpt lat="48.62965" lon="-2.82649">
        <ele>51.9</ele>
        <time>2022-09-09T09:30:39Z</time>
      </trkpt>
      <trkpt lat="48.62967" lon="-2.82663">
        <ele>51.8</ele>
        <time>2022-09-09T09:30:41Z</time>
      </trkpt>
      <trkpt lat="48.6297" lon="-2.82676">
        <ele>51.9</ele>
        <time>2022-09-09T09:30:43Z</time>
      </trkpt>
      <trkpt lat="48.62974" lon="-2.82689">
        <ele>51.9</ele>
        <time>2022-09-09T09:30:45Z</time>
      </trkpt>
      <trkpt lat="48.62978" lon="-2.82704">
        <ele>51.8</ele>
        <time>2022-09-09T09:30:47Z</time>
      </trkpt>
      <trkpt lat="48.62981" lon="-2.82717">
        <ele>51.7</ele>
        <time>2022-09-09T09:30:49Z</time>
      </trkpt>
      <trkpt lat="48.62985" lon="-2.82736">
        <ele>51.5</ele>
        <time>2022-09-09T09:30:52Z</time>
      </trkpt>
      <trkpt lat="48.62989" lon="-2.82754">
        <ele>51.4</ele>
        <time>2022-09-09T09:30:55Z</time>
      </trkpt>
      <trkpt lat="48.62993" lon="-2.82772">
        <ele>51.3</ele>
        <time>2022-09-09T09:30:58Z</time>
      </trkpt>
      <trkpt lat="48.62998" lon="-2.8279">
        <ele>51.5</ele>
        <time>2022-09-09T09:31:01Z</time>
      </trkpt>
      <trkpt lat="48.63003" lon="-2.82808">
        <ele>51.9</ele>
        <time>2022-09-09T09:31:04Z</time>
      </trkpt>
      <trkpt lat="48.63006" lon="-2.82828">
        <ele>51.8</ele>
        <time>2022-09-09T09:31:07Z</time>
      </trkpt>
      <trkpt lat="48.63007" lon="-2.82847">
        <ele>51.9</ele>
        <time>2022-09-09T09:31:10Z</time>
      </trkpt>
      <trkpt lat="48.63009" lon="-2.82866">
        <ele>52.1</ele>
        <time>2022-09-09T09:31:13Z</time>
      </trkpt>
      <trkpt lat="48.63014" lon="-2.82883">
        <ele>52</ele>
        <time>2022-09-09T09:31:16Z</time>
      </trkpt>
      <trkpt lat="48.63027" lon="-2.82887">
        <ele>51.1</ele>
        <time>2022-09-09T09:31:19Z</time>
      </trkpt>
      <trkpt lat="48.63037" lon="-2.82886">
        <ele>51.1</ele>
        <time>2022-09-09T09:31:21Z</time>
      </trkpt>
      <trkpt lat="48.63046" lon="-2.82882">
        <ele>51.1</ele>
        <time>2022-09-09T09:31:23Z</time>
      </trkpt>
      <trkpt lat="48.63056" lon="-2.82879">
        <ele>51</ele>
        <time>2022-09-09T09:31:25Z</time>
      </trkpt>
      <trkpt lat="48.63066" lon="-2.82877">
        <ele>50.6</ele>
        <time>2022-09-09T09:31:27Z</time>
      </trkpt>
      <trkpt lat="48.63076" lon="-2.82873">
        <ele>50.3</ele>
        <time>2022-09-09T09:31:29Z</time>
      </trkpt>
      <trkpt lat="48.63087" lon="-2.82869">
        <ele>50</ele>
        <time>2022-09-09T09:31:31Z</time>
      </trkpt>
      <trkpt lat="48.63098" lon="-2.82866">
        <ele>50</ele>
        <time>2022-09-09T09:31:33Z</time>
      </trkpt>
      <trkpt lat="48.63109" lon="-2.82865">
        <ele>50</ele>
        <time>2022-09-09T09:31:35Z</time>
      </trkpt>
      <trkpt lat="48.63119" lon="-2.82862">
        <ele>50</ele>
        <time>2022-09-09T09:31:37Z</time>
      </trkpt>
      <trkpt lat="48.63131" lon="-2.82859">
        <ele>49.9</ele>
        <time>2022-09-09T09:31:39Z</time>
      </trkpt>
      <trkpt lat="48.63142" lon="-2.82857">
        <ele>49.7</ele>
        <time>2022-09-09T09:31:41Z</time>
      </trkpt>
      <trkpt lat="48.63154" lon="-2.82856">
        <ele>49.3</ele>
        <time>2022-09-09T09:31:43Z</time>
      </trkpt>
      <trkpt lat="48.63165" lon="-2.82855">
        <ele>48.8</ele>
        <time>2022-09-09T09:31:45Z</time>
      </trkpt>
      <trkpt lat="48.63176" lon="-2.82856">
        <ele>48.9</ele>
        <time>2022-09-09T09:31:47Z</time>
      </trkpt>
      <trkpt lat="48.63187" lon="-2.82854">
        <ele>48.9</ele>
        <time>2022-09-09T09:31:49Z</time>
      </trkpt>
      <trkpt lat="48.632" lon="-2.82852">
        <ele>49</ele>
        <time>2022-09-09T09:31:52Z</time>
      </trkpt>
      <trkpt lat="48.63209" lon="-2.82853">
        <ele>49</ele>
        <time>2022-09-09T09:32:05Z</time>
      </trkpt>
      <trkpt lat="48.63209" lon="-2.82867">
        <ele>48.9</ele>
        <time>2022-09-09T09:32:11Z</time>
      </trkpt>
      <trkpt lat="48.63209" lon="-2.82881">
        <ele>48.7</ele>
        <time>2022-09-09T09:32:14Z</time>
      </trkpt>
      <trkpt lat="48.63208" lon="-2.82897">
        <ele>48.6</ele>
        <time>2022-09-09T09:32:17Z</time>
      </trkpt>
      <trkpt lat="48.63201" lon="-2.82912">
        <ele>48.9</ele>
        <time>2022-09-09T09:32:20Z</time>
      </trkpt>
      <trkpt lat="48.63192" lon="-2.82926">
        <ele>49</ele>
        <time>2022-09-09T09:32:23Z</time>
      </trkpt>
      <trkpt lat="48.63183" lon="-2.8294">
        <ele>48.9</ele>
        <time>2022-09-09T09:32:26Z</time>
      </trkpt>
      <trkpt lat="48.63174" lon="-2.82954">
        <ele>48.7</ele>
        <time>2022-09-09T09:32:29Z</time>
      </trkpt>
      <trkpt lat="48.63165" lon="-2.82967">
        <ele>48.2</ele>
        <time>2022-09-09T09:32:32Z</time>
      </trkpt>
      <trkpt lat="48.63156" lon="-2.82981">
        <ele>48.3</ele>
        <time>2022-09-09T09:32:35Z</time>
      </trkpt>
      <trkpt lat="48.63147" lon="-2.82994">
        <ele>49</ele>
        <time>2022-09-09T09:32:38Z</time>
      </trkpt>
      <trkpt lat="48.63139" lon="-2.83009">
        <ele>49.4</ele>
        <time>2022-09-09T09:32:41Z</time>
      </trkpt>
      <trkpt lat="48.63132" lon="-2.83023">
        <ele>48.8</ele>
        <time>2022-09-09T09:32:44Z</time>
      </trkpt>
      <trkpt lat="48.63124" lon="-2.83038">
        <ele>48.7</ele>
        <time>2022-09-09T09:32:47Z</time>
      </trkpt>
      <trkpt lat="48.63118" lon="-2.83052">
        <ele>49.1</ele>
        <time>2022-09-09T09:32:50Z</time>
      </trkpt>
      <trkpt lat="48.63114" lon="-2.83067">
        <ele>49.7</ele>
        <time>2022-09-09T09:32:53Z</time>
      </trkpt>
      <trkpt lat="48.63109" lon="-2.8308">
        <ele>50.1</ele>
        <time>2022-09-09T09:32:56Z</time>
      </trkpt>
      <trkpt lat="48.63109" lon="-2.83096">
        <ele>50.1</ele>
        <time>2022-09-09T09:33:00Z</time>
      </trkpt>
      <trkpt lat="48.63116" lon="-2.83111">
        <ele>49.6</ele>
        <time>2022-09-09T09:33:03Z</time>
      </trkpt>
      <trkpt lat="48.63124" lon="-2.83127">
        <ele>49.3</ele>
        <time>2022-09-09T09:33:06Z</time>
      </trkpt>
      <trkpt lat="48.6313" lon="-2.83145">
        <ele>49.3</ele>
        <time>2022-09-09T09:33:09Z</time>
      </trkpt>
      <trkpt lat="48.63138" lon="-2.8316">
        <ele>49</ele>
        <time>2022-09-09T09:33:12Z</time>
      </trkpt>
      <trkpt lat="48.63145" lon="-2.83178">
        <ele>48.3</ele>
        <time>2022-09-09T09:33:15Z</time>
      </trkpt>
      <trkpt lat="48.6315" lon="-2.8319">
        <ele>48.1</ele>
        <time>2022-09-09T09:33:17Z</time>
      </trkpt>
      <trkpt lat="48.63155" lon="-2.83203">
        <ele>47.8</ele>
        <time>2022-09-09T09:33:19Z</time>
      </trkpt>
      <trkpt lat="48.63161" lon="-2.83217">
        <ele>47.4</ele>
        <time>2022-09-09T09:33:21Z</time>
      </trkpt>
      <trkpt lat="48.63167" lon="-2.8323">
        <ele>47.3</ele>
        <time>2022-09-09T09:33:23Z</time>
      </trkpt>
      <trkpt lat="48.63173" lon="-2.83242">
        <ele>47.5</ele>
        <time>2022-09-09T09:33:25Z</time>
      </trkpt>
      <trkpt lat="48.63181" lon="-2.83254">
        <ele>47.7</ele>
        <time>2022-09-09T09:33:27Z</time>
      </trkpt>
      <trkpt lat="48.6319" lon="-2.83264">
        <ele>47.7</ele>
        <time>2022-09-09T09:33:29Z</time>
      </trkpt>
      <trkpt lat="48.63199" lon="-2.83273">
        <ele>47.5</ele>
        <time>2022-09-09T09:33:31Z</time>
      </trkpt>
      <trkpt lat="48.6321" lon="-2.83279">
        <ele>46.9</ele>
        <time>2022-09-09T09:33:33Z</time>
      </trkpt>
      <trkpt lat="48.63222" lon="-2.83287">
        <ele>46.4</ele>
        <time>2022-09-09T09:33:35Z</time>
      </trkpt>
      <trkpt lat="48.63234" lon="-2.83294">
        <ele>45.4</ele>
        <time>2022-09-09T09:33:37Z</time>
      </trkpt>
      <trkpt lat="48.63246" lon="-2.83301">
        <ele>43.9</ele>
        <time>2022-09-09T09:33:39Z</time>
      </trkpt>
      <trkpt lat="48.63256" lon="-2.83305">
        <ele>42.1</ele>
        <time>2022-09-09T09:33:41Z</time>
      </trkpt>
      <trkpt lat="48.63268" lon="-2.83308">
        <ele>40.5</ele>
        <time>2022-09-09T09:33:43Z</time>
      </trkpt>
      <trkpt lat="48.6328" lon="-2.83307">
        <ele>38.8</ele>
        <time>2022-09-09T09:33:45Z</time>
      </trkpt>
      <trkpt lat="48.63293" lon="-2.83302">
        <ele>37.5</ele>
        <time>2022-09-09T09:33:47Z</time>
      </trkpt>
      <trkpt lat="48.63305" lon="-2.83294">
        <ele>35.3</ele>
        <time>2022-09-09T09:33:49Z</time>
      </trkpt>
      <trkpt lat="48.63316" lon="-2.83282">
        <ele>34.4</ele>
        <time>2022-09-09T09:33:51Z</time>
      </trkpt>
      <trkpt lat="48.63326" lon="-2.83266">
        <ele>33</ele>
        <time>2022-09-09T09:33:53Z</time>
      </trkpt>
      <trkpt lat="48.63333" lon="-2.83246">
        <ele>30.7</ele>
        <time>2022-09-09T09:33:55Z</time>
      </trkpt>
      <trkpt lat="48.63341" lon="-2.83224">
        <ele>30.6</ele>
        <time>2022-09-09T09:33:57Z</time>
      </trkpt>
      <trkpt lat="48.63347" lon="-2.83204">
        <ele>28.4</ele>
        <time>2022-09-09T09:33:59Z</time>
      </trkpt>
      <trkpt lat="48.63354" lon="-2.83183">
        <ele>26.1</ele>
        <time>2022-09-09T09:34:01Z</time>
      </trkpt>
      <trkpt lat="48.63363" lon="-2.83167">
        <ele>24</ele>
        <time>2022-09-09T09:34:03Z</time>
      </trkpt>
      <trkpt lat="48.63374" lon="-2.83155">
        <ele>23.8</ele>
        <time>2022-09-09T09:34:05Z</time>
      </trkpt>
      <trkpt lat="48.63388" lon="-2.83143">
        <ele>22.3</ele>
        <time>2022-09-09T09:34:07Z</time>
      </trkpt>
      <trkpt lat="48.63404" lon="-2.8313">
        <ele>22.1</ele>
        <time>2022-09-09T09:34:09Z</time>
      </trkpt>
      <trkpt lat="48.63419" lon="-2.83116">
        <ele>20.3</ele>
        <time>2022-09-09T09:34:11Z</time>
      </trkpt>
      <trkpt lat="48.63434" lon="-2.83102">
        <ele>19.8</ele>
        <time>2022-09-09T09:34:13Z</time>
      </trkpt>
      <trkpt lat="48.63443" lon="-2.83094">
        <ele>18.7</ele>
        <time>2022-09-09T09:34:14Z</time>
      </trkpt>
      <trkpt lat="48.63452" lon="-2.83086">
        <ele>18.2</ele>
        <time>2022-09-09T09:34:15Z</time>
      </trkpt>
      <trkpt lat="48.6346" lon="-2.83081">
        <ele>18.1</ele>
        <time>2022-09-09T09:34:16Z</time>
      </trkpt>
      <trkpt lat="48.63468" lon="-2.83074">
        <ele>17.7</ele>
        <time>2022-09-09T09:34:17Z</time>
      </trkpt>
      <trkpt lat="48.63476" lon="-2.83066">
        <ele>17.1</ele>
        <time>2022-09-09T09:34:18Z</time>
      </trkpt>
      <trkpt lat="48.63483" lon="-2.83056">
        <ele>17.2</ele>
        <time>2022-09-09T09:34:19Z</time>
      </trkpt>
      <trkpt lat="48.63498" lon="-2.83041">
        <ele>17.4</ele>
        <time>2022-09-09T09:34:21Z</time>
      </trkpt>
      <trkpt lat="48.63509" lon="-2.83023">
        <ele>16</ele>
        <time>2022-09-09T09:34:23Z</time>
      </trkpt>
      <trkpt lat="48.63516" lon="-2.83012">
        <ele>15.9</ele>
        <time>2022-09-09T09:34:24Z</time>
      </trkpt>
      <trkpt lat="48.63523" lon="-2.83002">
        <ele>14.1</ele>
        <time>2022-09-09T09:34:25Z</time>
      </trkpt>
      <trkpt lat="48.6353" lon="-2.8299">
        <ele>12.2</ele>
        <time>2022-09-09T09:34:26Z</time>
      </trkpt>
      <trkpt lat="48.63537" lon="-2.8298">
        <ele>11.9</ele>
        <time>2022-09-09T09:34:27Z</time>
      </trkpt>
      <trkpt lat="48.63543" lon="-2.8297">
        <ele>11.4</ele>
        <time>2022-09-09T09:34:28Z</time>
      </trkpt>
      <trkpt lat="48.63551" lon="-2.82961">
        <ele>10.9</ele>
        <time>2022-09-09T09:34:29Z</time>
      </trkpt>
      <trkpt lat="48.63558" lon="-2.82951">
        <ele>10.6</ele>
        <time>2022-09-09T09:34:30Z</time>
      </trkpt>
      <trkpt lat="48.63564" lon="-2.8294">
        <ele>10.5</ele>
        <time>2022-09-09T09:34:31Z</time>
      </trkpt>
      <trkpt lat="48.63578" lon="-2.82922">
        <ele>9.5</ele>
        <time>2022-09-09T09:34:33Z</time>
      </trkpt>
      <trkpt lat="48.63585" lon="-2.82905">
        <ele>9.8</ele>
        <time>2022-09-09T09:34:35Z</time>
      </trkpt>
      <trkpt lat="48.63593" lon="-2.82886">
        <ele>10.3</ele>
        <time>2022-09-09T09:34:37Z</time>
      </trkpt>
      <trkpt lat="48.63601" lon="-2.82866">
        <ele>9.7</ele>
        <time>2022-09-09T09:34:39Z</time>
      </trkpt>
      <trkpt lat="48.63608" lon="-2.82846">
        <ele>9.2</ele>
        <time>2022-09-09T09:34:41Z</time>
      </trkpt>
      <trkpt lat="48.63613" lon="-2.8283">
        <ele>8.9</ele>
        <time>2022-09-09T09:34:43Z</time>
      </trkpt>
      <trkpt lat="48.63617" lon="-2.82813">
        <ele>8.8</ele>
        <time>2022-09-09T09:34:46Z</time>
      </trkpt>
      <trkpt lat="48.6362" lon="-2.82796">
        <ele>8.7</ele>
        <time>2022-09-09T09:34:50Z</time>
      </trkpt>
      <trkpt lat="48.63628" lon="-2.82785">
        <ele>8.4</ele>
        <time>2022-09-09T09:35:03Z</time>
      </trkpt>
      <trkpt lat="48.63638" lon="-2.8278">
        <ele>8</ele>
        <time>2022-09-09T09:35:06Z</time>
      </trkpt>
      <trkpt lat="48.63648" lon="-2.82787">
        <ele>7.8</ele>
        <time>2022-09-09T09:35:09Z</time>
      </trkpt>
      <trkpt lat="48.63657" lon="-2.82794">
        <ele>7.7</ele>
        <time>2022-09-09T09:35:12Z</time>
      </trkpt>
      <trkpt lat="48.63666" lon="-2.82801">
        <ele>7.8</ele>
        <time>2022-09-09T09:35:15Z</time>
      </trkpt>
      <trkpt lat="48.63676" lon="-2.82806">
        <ele>8</ele>
        <time>2022-09-09T09:35:18Z</time>
      </trkpt>
      <trkpt lat="48.63685" lon="-2.82811">
        <ele>8.2</ele>
        <time>2022-09-09T09:35:21Z</time>
      </trkpt>
      <trkpt lat="48.63696" lon="-2.82817">
        <ele>9.1</ele>
        <time>2022-09-09T09:35:25Z</time>
      </trkpt>
      <trkpt lat="48.63705" lon="-2.82812">
        <ele>10.8</ele>
        <time>2022-09-09T09:35:29Z</time>
      </trkpt>
      <trkpt lat="48.63711" lon="-2.828">
        <ele>10.9</ele>
        <time>2022-09-09T09:35:33Z</time>
      </trkpt>
      <trkpt lat="48.63718" lon="-2.82788">
        <ele>11.7</ele>
        <time>2022-09-09T09:35:37Z</time>
      </trkpt>
      <trkpt lat="48.63725" lon="-2.82773">
        <ele>12.4</ele>
        <time>2022-09-09T09:35:41Z</time>
      </trkpt>
      <trkpt lat="48.63731" lon="-2.82759">
        <ele>13.1</ele>
        <time>2022-09-09T09:35:45Z</time>
      </trkpt>
      <trkpt lat="48.63736" lon="-2.82745">
        <ele>13.9</ele>
        <time>2022-09-09T09:35:49Z</time>
      </trkpt>
      <trkpt lat="48.63741" lon="-2.8273">
        <ele>15.6</ele>
        <time>2022-09-09T09:35:54Z</time>
      </trkpt>
      <trkpt lat="48.63745" lon="-2.82717">
        <ele>16.8</ele>
        <time>2022-09-09T09:35:58Z</time>
      </trkpt>
      <trkpt lat="48.63748" lon="-2.82704">
        <ele>17.4</ele>
        <time>2022-09-09T09:36:02Z</time>
      </trkpt>
      <trkpt lat="48.63748" lon="-2.82689">
        <ele>17.4</ele>
        <time>2022-09-09T09:36:06Z</time>
      </trkpt>
      <trkpt lat="48.63753" lon="-2.82675">
        <ele>18.9</ele>
        <time>2022-09-09T09:36:11Z</time>
      </trkpt>
      <trkpt lat="48.63759" lon="-2.82662">
        <ele>19.5</ele>
        <time>2022-09-09T09:36:17Z</time>
      </trkpt>
      <trkpt lat="48.63769" lon="-2.82656">
        <ele>18.8</ele>
        <time>2022-09-09T09:36:23Z</time>
      </trkpt>
      <trkpt lat="48.63779" lon="-2.82659">
        <ele>21.4</ele>
        <time>2022-09-09T09:36:28Z</time>
      </trkpt>
      <trkpt lat="48.63788" lon="-2.82659">
        <ele>23.7</ele>
        <time>2022-09-09T09:36:33Z</time>
      </trkpt>
      <trkpt lat="48.63798" lon="-2.82656">
        <ele>24.9</ele>
        <time>2022-09-09T09:36:39Z</time>
      </trkpt>
      <trkpt lat="48.63808" lon="-2.82653">
        <ele>26.3</ele>
        <time>2022-09-09T09:36:45Z</time>
      </trkpt>
      <trkpt lat="48.63817" lon="-2.82646">
        <ele>26.4</ele>
        <time>2022-09-09T09:36:51Z</time>
      </trkpt>
      <trkpt lat="48.63825" lon="-2.82639">
        <ele>27</ele>
        <time>2022-09-09T09:36:58Z</time>
      </trkpt>
      <trkpt lat="48.63834" lon="-2.82631">
        <ele>27.7</ele>
        <time>2022-09-09T09:37:05Z</time>
      </trkpt>
      <trkpt lat="48.63844" lon="-2.82628">
        <ele>28.5</ele>
        <time>2022-09-09T09:37:29Z</time>
      </trkpt>
      <trkpt lat="48.63853" lon="-2.82622">
        <ele>29.1</ele>
        <time>2022-09-09T09:37:34Z</time>
      </trkpt>
      <trkpt lat="48.63863" lon="-2.82621">
        <ele>30.7</ele>
        <time>2022-09-09T09:37:40Z</time>
      </trkpt>
      <trkpt lat="48.63875" lon="-2.8262">
        <ele>30.7</ele>
        <time>2022-09-09T09:37:45Z</time>
      </trkpt>
      <trkpt lat="48.63884" lon="-2.8262">
        <ele>30.8</ele>
        <time>2022-09-09T09:37:49Z</time>
      </trkpt>
      <trkpt lat="48.63894" lon="-2.8262">
        <ele>30.8</ele>
        <time>2022-09-09T09:37:53Z</time>
      </trkpt>
      <trkpt lat="48.63905" lon="-2.82619">
        <ele>30.5</ele>
        <time>2022-09-09T09:37:57Z</time>
      </trkpt>
      <trkpt lat="48.63916" lon="-2.8262">
        <ele>30.5</ele>
        <time>2022-09-09T09:38:01Z</time>
      </trkpt>
      <trkpt lat="48.63928" lon="-2.82619">
        <ele>31</ele>
        <time>2022-09-09T09:38:05Z</time>
      </trkpt>
      <trkpt lat="48.63937" lon="-2.82615">
        <ele>31</ele>
        <time>2022-09-09T09:38:08Z</time>
      </trkpt>
      <trkpt lat="48.63946" lon="-2.8261">
        <ele>31.3</ele>
        <time>2022-09-09T09:38:11Z</time>
      </trkpt>
      <trkpt lat="48.63954" lon="-2.82599">
        <ele>32.4</ele>
        <time>2022-09-09T09:38:15Z</time>
      </trkpt>
      <trkpt lat="48.6396" lon="-2.82589">
        <ele>33</ele>
        <time>2022-09-09T09:38:18Z</time>
      </trkpt>
      <trkpt lat="48.63967" lon="-2.82579">
        <ele>33.7</ele>
        <time>2022-09-09T09:38:21Z</time>
      </trkpt>
      <trkpt lat="48.63971" lon="-2.82563">
        <ele>34.1</ele>
        <time>2022-09-09T09:38:25Z</time>
      </trkpt>
      <trkpt lat="48.63975" lon="-2.82551">
        <ele>34.1</ele>
        <time>2022-09-09T09:38:28Z</time>
      </trkpt>
      <trkpt lat="48.63978" lon="-2.82535">
        <ele>33.9</ele>
        <time>2022-09-09T09:38:32Z</time>
      </trkpt>
      <trkpt lat="48.63981" lon="-2.82519">
        <ele>32.8</ele>
        <time>2022-09-09T09:38:36Z</time>
      </trkpt>
      <trkpt lat="48.63984" lon="-2.82504">
        <ele>31.2</ele>
        <time>2022-09-09T09:38:39Z</time>
      </trkpt>
      <trkpt lat="48.63993" lon="-2.82492">
        <ele>30.6</ele>
        <time>2022-09-09T09:38:42Z</time>
      </trkpt>
      <trkpt lat="48.64005" lon="-2.82484">
        <ele>30.3</ele>
        <time>2022-09-09T09:38:45Z</time>
      </trkpt>
      <trkpt lat="48.64018" lon="-2.82478">
        <ele>28.5</ele>
        <time>2022-09-09T09:38:48Z</time>
      </trkpt>
      <trkpt lat="48.64028" lon="-2.82475">
        <ele>27.6</ele>
        <time>2022-09-09T09:38:50Z</time>
      </trkpt>
      <trkpt lat="48.64038" lon="-2.82471">
        <ele>26.5</ele>
        <time>2022-09-09T09:38:52Z</time>
      </trkpt>
      <trkpt lat="48.64047" lon="-2.82465">
        <ele>25.4</ele>
        <time>2022-09-09T09:38:54Z</time>
      </trkpt>
      <trkpt lat="48.64059" lon="-2.82456">
        <ele>24.4</ele>
        <time>2022-09-09T09:38:57Z</time>
      </trkpt>
      <trkpt lat="48.64068" lon="-2.82447">
        <ele>24.1</ele>
        <time>2022-09-09T09:39:00Z</time>
      </trkpt>
      <trkpt lat="48.64078" lon="-2.82439">
        <ele>24.2</ele>
        <time>2022-09-09T09:39:03Z</time>
      </trkpt>
      <trkpt lat="48.64087" lon="-2.82428">
        <ele>23.9</ele>
        <time>2022-09-09T09:39:06Z</time>
      </trkpt>
      <trkpt lat="48.64097" lon="-2.82419">
        <ele>23.6</ele>
        <time>2022-09-09T09:39:09Z</time>
      </trkpt>
      <trkpt lat="48.64107" lon="-2.82413">
        <ele>23.6</ele>
        <time>2022-09-09T09:39:12Z</time>
      </trkpt>
      <trkpt lat="48.64118" lon="-2.82414">
        <ele>23.6</ele>
        <time>2022-09-09T09:39:15Z</time>
      </trkpt>
      <trkpt lat="48.64128" lon="-2.82418">
        <ele>23.4</ele>
        <time>2022-09-09T09:39:18Z</time>
      </trkpt>
      <trkpt lat="48.64138" lon="-2.82422">
        <ele>23</ele>
        <time>2022-09-09T09:39:21Z</time>
      </trkpt>
      <trkpt lat="48.64148" lon="-2.82425">
        <ele>23</ele>
        <time>2022-09-09T09:39:24Z</time>
      </trkpt>
      <trkpt lat="48.64157" lon="-2.82431">
        <ele>23</ele>
        <time>2022-09-09T09:39:27Z</time>
      </trkpt>
      <trkpt lat="48.64167" lon="-2.82433">
        <ele>23</ele>
        <time>2022-09-09T09:39:30Z</time>
      </trkpt>
      <trkpt lat="48.64177" lon="-2.82436">
        <ele>22.7</ele>
        <time>2022-09-09T09:39:34Z</time>
      </trkpt>
      <trkpt lat="48.64186" lon="-2.8244">
        <ele>22.4</ele>
        <time>2022-09-09T09:39:37Z</time>
      </trkpt>
      <trkpt lat="48.64199" lon="-2.82447">
        <ele>21.7</ele>
        <time>2022-09-09T09:39:40Z</time>
      </trkpt>
      <trkpt lat="48.64208" lon="-2.82453">
        <ele>20.9</ele>
        <time>2022-09-09T09:39:42Z</time>
      </trkpt>
      <trkpt lat="48.64218" lon="-2.8246">
        <ele>19.8</ele>
        <time>2022-09-09T09:39:44Z</time>
      </trkpt>
      <trkpt lat="48.64229" lon="-2.82469">
        <ele>18.6</ele>
        <time>2022-09-09T09:39:46Z</time>
      </trkpt>
      <trkpt lat="48.6424" lon="-2.82479">
        <ele>17.8</ele>
        <time>2022-09-09T09:39:48Z</time>
      </trkpt>
      <trkpt lat="48.64252" lon="-2.82493">
        <ele>16.4</ele>
        <time>2022-09-09T09:39:50Z</time>
      </trkpt>
      <trkpt lat="48.64257" lon="-2.8251">
        <ele>14.7</ele>
        <time>2022-09-09T09:39:52Z</time>
      </trkpt>
      <trkpt lat="48.64264" lon="-2.82529">
        <ele>12.7</ele>
        <time>2022-09-09T09:39:54Z</time>
      </trkpt>
      <trkpt lat="48.64269" lon="-2.82546">
        <ele>14</ele>
        <time>2022-09-09T09:39:56Z</time>
      </trkpt>
      <trkpt lat="48.64273" lon="-2.82563">
        <ele>15.3</ele>
        <time>2022-09-09T09:39:58Z</time>
      </trkpt>
      <trkpt lat="48.64272" lon="-2.82577">
        <ele>16.2</ele>
        <time>2022-09-09T09:40:00Z</time>
      </trkpt>
      <trkpt lat="48.64267" lon="-2.82592">
        <ele>16.6</ele>
        <time>2022-09-09T09:40:03Z</time>
      </trkpt>
      <trkpt lat="48.64261" lon="-2.82606">
        <ele>16.6</ele>
        <time>2022-09-09T09:40:06Z</time>
      </trkpt>
      <trkpt lat="48.64254" lon="-2.82618">
        <ele>16.8</ele>
        <time>2022-09-09T09:40:09Z</time>
      </trkpt>
      <trkpt lat="48.64246" lon="-2.82627">
        <ele>16.9</ele>
        <time>2022-09-09T09:40:12Z</time>
      </trkpt>
      <trkpt lat="48.64239" lon="-2.82637">
        <ele>17.2</ele>
        <time>2022-09-09T09:40:15Z</time>
      </trkpt>
      <trkpt lat="48.64231" lon="-2.82646">
        <ele>17.9</ele>
        <time>2022-09-09T09:40:18Z</time>
      </trkpt>
      <trkpt lat="48.64224" lon="-2.82657">
        <ele>18.4</ele>
        <time>2022-09-09T09:40:21Z</time>
      </trkpt>
      <trkpt lat="48.6422" lon="-2.8267">
        <ele>18.7</ele>
        <time>2022-09-09T09:40:24Z</time>
      </trkpt>
      <trkpt lat="48.6422" lon="-2.82685">
        <ele>18.6</ele>
        <time>2022-09-09T09:40:27Z</time>
      </trkpt>
      <trkpt lat="48.64224" lon="-2.82699">
        <ele>18.1</ele>
        <time>2022-09-09T09:40:30Z</time>
      </trkpt>
      <trkpt lat="48.64233" lon="-2.82709">
        <ele>18.4</ele>
        <time>2022-09-09T09:40:33Z</time>
      </trkpt>
      <trkpt lat="48.64244" lon="-2.82714">
        <ele>18.5</ele>
        <time>2022-09-09T09:40:36Z</time>
      </trkpt>
      <trkpt lat="48.64255" lon="-2.8272">
        <ele>18.3</ele>
        <time>2022-09-09T09:40:39Z</time>
      </trkpt>
      <trkpt lat="48.64268" lon="-2.82725">
        <ele>17.3</ele>
        <time>2022-09-09T09:40:42Z</time>
      </trkpt>
      <trkpt lat="48.64276" lon="-2.82729">
        <ele>16.7</ele>
        <time>2022-09-09T09:40:44Z</time>
      </trkpt>
      <trkpt lat="48.64288" lon="-2.82736">
        <ele>16.6</ele>
        <time>2022-09-09T09:40:47Z</time>
      </trkpt>
      <trkpt lat="48.64298" lon="-2.8273">
        <ele>15.8</ele>
        <time>2022-09-09T09:40:50Z</time>
      </trkpt>
      <trkpt lat="48.64305" lon="-2.82711">
        <ele>14.6</ele>
        <time>2022-09-09T09:40:53Z</time>
      </trkpt>
      <trkpt lat="48.64309" lon="-2.82697">
        <ele>14.5</ele>
        <time>2022-09-09T09:40:55Z</time>
      </trkpt>
      <trkpt lat="48.64313" lon="-2.82681">
        <ele>13.8</ele>
        <time>2022-09-09T09:40:57Z</time>
      </trkpt>
      <trkpt lat="48.64317" lon="-2.82662">
        <ele>13.2</ele>
        <time>2022-09-09T09:40:59Z</time>
      </trkpt>
      <trkpt lat="48.64324" lon="-2.82643">
        <ele>12.9</ele>
        <time>2022-09-09T09:41:01Z</time>
      </trkpt>
      <trkpt lat="48.64328" lon="-2.82628">
        <ele>11.8</ele>
        <time>2022-09-09T09:41:03Z</time>
      </trkpt>
      <trkpt lat="48.64332" lon="-2.82611">
        <ele>10.1</ele>
        <time>2022-09-09T09:41:06Z</time>
      </trkpt>
      <trkpt lat="48.64341" lon="-2.82599">
        <ele>9.5</ele>
        <time>2022-09-09T09:41:08Z</time>
      </trkpt>
      <trkpt lat="48.64351" lon="-2.82592">
        <ele>8.8</ele>
        <time>2022-09-09T09:41:10Z</time>
      </trkpt>
      <trkpt lat="48.64362" lon="-2.82589">
        <ele>8</ele>
        <time>2022-09-09T09:41:12Z</time>
      </trkpt>
      <trkpt lat="48.64373" lon="-2.8259">
        <ele>6.8</ele>
        <time>2022-09-09T09:41:14Z</time>
      </trkpt>
      <trkpt lat="48.64383" lon="-2.82595">
        <ele>6.4</ele>
        <time>2022-09-09T09:41:16Z</time>
      </trkpt>
      <trkpt lat="48.64392" lon="-2.82602">
        <ele>6.9</ele>
        <time>2022-09-09T09:41:18Z</time>
      </trkpt>
      <trkpt lat="48.644" lon="-2.82609">
        <ele>7.5</ele>
        <time>2022-09-09T09:41:20Z</time>
      </trkpt>
      <trkpt lat="48.64411" lon="-2.82616">
        <ele>8.1</ele>
        <time>2022-09-09T09:41:23Z</time>
      </trkpt>
      <trkpt lat="48.64422" lon="-2.82622">
        <ele>8.3</ele>
        <time>2022-09-09T09:41:26Z</time>
      </trkpt>
      <trkpt lat="48.64432" lon="-2.8263">
        <ele>8.5</ele>
        <time>2022-09-09T09:41:29Z</time>
      </trkpt>
      <trkpt lat="48.64443" lon="-2.82638">
        <ele>7.3</ele>
        <time>2022-09-09T09:41:32Z</time>
      </trkpt>
      <trkpt lat="48.64453" lon="-2.82644">
        <ele>6.4</ele>
        <time>2022-09-09T09:41:35Z</time>
      </trkpt>
      <trkpt lat="48.64463" lon="-2.82652">
        <ele>6.4</ele>
        <time>2022-09-09T09:41:38Z</time>
      </trkpt>
      <trkpt lat="48.64475" lon="-2.82658">
        <ele>6.6</ele>
        <time>2022-09-09T09:41:41Z</time>
      </trkpt>
      <trkpt lat="48.64486" lon="-2.82664">
        <ele>7.2</ele>
        <time>2022-09-09T09:41:44Z</time>
      </trkpt>
      <trkpt lat="48.64496" lon="-2.8267">
        <ele>7.2</ele>
        <time>2022-09-09T09:41:47Z</time>
      </trkpt>
      <trkpt lat="48.64508" lon="-2.82675">
        <ele>6.5</ele>
        <time>2022-09-09T09:41:50Z</time>
      </trkpt>
      <trkpt lat="48.64519" lon="-2.82681">
        <ele>6.2</ele>
        <time>2022-09-09T09:41:53Z</time>
      </trkpt>
      <trkpt lat="48.6453" lon="-2.82687">
        <ele>6.6</ele>
        <time>2022-09-09T09:41:56Z</time>
      </trkpt>
      <trkpt lat="48.64541" lon="-2.82693">
        <ele>7.2</ele>
        <time>2022-09-09T09:41:59Z</time>
      </trkpt>
      <trkpt lat="48.64553" lon="-2.82699">
        <ele>7.2</ele>
        <time>2022-09-09T09:42:02Z</time>
      </trkpt>
      <trkpt lat="48.64564" lon="-2.82705">
        <ele>6.6</ele>
        <time>2022-09-09T09:42:05Z</time>
      </trkpt>
      <trkpt lat="48.64575" lon="-2.8271">
        <ele>6.4</ele>
        <time>2022-09-09T09:42:08Z</time>
      </trkpt>
      <trkpt lat="48.64584" lon="-2.82715">
        <ele>6.6</ele>
        <time>2022-09-09T09:42:11Z</time>
      </trkpt>
      <trkpt lat="48.64595" lon="-2.8272">
        <ele>7.5</ele>
        <time>2022-09-09T09:42:15Z</time>
      </trkpt>
      <trkpt lat="48.64605" lon="-2.82728">
        <ele>8</ele>
        <time>2022-09-09T09:42:19Z</time>
      </trkpt>
      <trkpt lat="48.6461" lon="-2.82742">
        <ele>8</ele>
        <time>2022-09-09T09:42:23Z</time>
      </trkpt>
      <trkpt lat="48.64615" lon="-2.82754">
        <ele>8.1</ele>
        <time>2022-09-09T09:42:28Z</time>
      </trkpt>
      <trkpt lat="48.64624" lon="-2.82758">
        <ele>8</ele>
        <time>2022-09-09T09:42:32Z</time>
      </trkpt>
      <trkpt lat="48.64635" lon="-2.82757">
        <ele>7.8</ele>
        <time>2022-09-09T09:42:35Z</time>
      </trkpt>
      <trkpt lat="48.64645" lon="-2.82757">
        <ele>7.6</ele>
        <time>2022-09-09T09:42:38Z</time>
      </trkpt>
      <trkpt lat="48.64655" lon="-2.82758">
        <ele>7.5</ele>
        <time>2022-09-09T09:42:41Z</time>
      </trkpt>
      <trkpt lat="48.64664" lon="-2.82758">
        <ele>7.3</ele>
        <time>2022-09-09T09:42:44Z</time>
      </trkpt>
      <trkpt lat="48.64676" lon="-2.82756">
        <ele>7.2</ele>
        <time>2022-09-09T09:42:48Z</time>
      </trkpt>
      <trkpt lat="48.64687" lon="-2.8275">
        <ele>7</ele>
        <time>2022-09-09T09:42:52Z</time>
      </trkpt>
      <trkpt lat="48.64696" lon="-2.82741">
        <ele>6.4</ele>
        <time>2022-09-09T09:42:56Z</time>
      </trkpt>
      <trkpt lat="48.64705" lon="-2.82732">
        <ele>6.3</ele>
        <time>2022-09-09T09:43:00Z</time>
      </trkpt>
      <trkpt lat="48.64712" lon="-2.82725">
        <ele>6.4</ele>
        <time>2022-09-09T09:43:17Z</time>
      </trkpt>
      <trkpt lat="48.64721" lon="-2.82718">
        <ele>6.7</ele>
        <time>2022-09-09T09:43:21Z</time>
      </trkpt>
      <trkpt lat="48.6473" lon="-2.82712">
        <ele>6.5</ele>
        <time>2022-09-09T09:43:24Z</time>
      </trkpt>
      <trkpt lat="48.64739" lon="-2.82707">
        <ele>6.6</ele>
        <time>2022-09-09T09:43:27Z</time>
      </trkpt>
      <trkpt lat="48.64748" lon="-2.82702">
        <ele>6.9</ele>
        <time>2022-09-09T09:43:30Z</time>
      </trkpt>
      <trkpt lat="48.64758" lon="-2.82697">
        <ele>7</ele>
        <time>2022-09-09T09:43:33Z</time>
      </trkpt>
      <trkpt lat="48.64768" lon="-2.82694">
        <ele>7</ele>
        <time>2022-09-09T09:43:36Z</time>
      </trkpt>
      <trkpt lat="48.64779" lon="-2.8269">
        <ele>7.1</ele>
        <time>2022-09-09T09:43:39Z</time>
      </trkpt>
      <trkpt lat="48.64789" lon="-2.82687">
        <ele>7.7</ele>
        <time>2022-09-09T09:43:42Z</time>
      </trkpt>
      <trkpt lat="48.64797" lon="-2.8268">
        <ele>8.1</ele>
        <time>2022-09-09T09:43:45Z</time>
      </trkpt>
      <trkpt lat="48.64805" lon="-2.82672">
        <ele>8.1</ele>
        <time>2022-09-09T09:43:48Z</time>
      </trkpt>
      <trkpt lat="48.64809" lon="-2.82656">
        <ele>8.3</ele>
        <time>2022-09-09T09:43:52Z</time>
      </trkpt>
      <trkpt lat="48.64812" lon="-2.82642">
        <ele>8.2</ele>
        <time>2022-09-09T09:43:56Z</time>
      </trkpt>
      <trkpt lat="48.64817" lon="-2.82628">
        <ele>8.5</ele>
        <time>2022-09-09T09:44:24Z</time>
      </trkpt>
      <trkpt lat="48.64818" lon="-2.82614">
        <ele>8.4</ele>
        <time>2022-09-09T09:44:27Z</time>
      </trkpt>
      <trkpt lat="48.64818" lon="-2.82597">
        <ele>8.9</ele>
        <time>2022-09-09T09:44:30Z</time>
      </trkpt>
      <trkpt lat="48.64815" lon="-2.8258">
        <ele>9</ele>
        <time>2022-09-09T09:44:33Z</time>
      </trkpt>
      <trkpt lat="48.6481" lon="-2.82563">
        <ele>8.3</ele>
        <time>2022-09-09T09:44:36Z</time>
      </trkpt>
      <trkpt lat="48.64807" lon="-2.82546">
        <ele>7.4</ele>
        <time>2022-09-09T09:44:39Z</time>
      </trkpt>
      <trkpt lat="48.64804" lon="-2.8253">
        <ele>6.8</ele>
        <time>2022-09-09T09:44:42Z</time>
      </trkpt>
      <trkpt lat="48.64801" lon="-2.82517">
        <ele>6.8</ele>
        <time>2022-09-09T09:44:45Z</time>
      </trkpt>
      <trkpt lat="48.64798" lon="-2.82502">
        <ele>6.6</ele>
        <time>2022-09-09T09:44:48Z</time>
      </trkpt>
      <trkpt lat="48.64794" lon="-2.82486">
        <ele>6.8</ele>
        <time>2022-09-09T09:44:52Z</time>
      </trkpt>
      <trkpt lat="48.6479" lon="-2.82472">
        <ele>7.4</ele>
        <time>2022-09-09T09:44:56Z</time>
      </trkpt>
      <trkpt lat="48.64783" lon="-2.82463">
        <ele>7.1</ele>
        <time>2022-09-09T09:44:59Z</time>
      </trkpt>
      <trkpt lat="48.64774" lon="-2.82455">
        <ele>7</ele>
        <time>2022-09-09T09:45:02Z</time>
      </trkpt>
      <trkpt lat="48.64764" lon="-2.82446">
        <ele>7</ele>
        <time>2022-09-09T09:45:05Z</time>
      </trkpt>
      <trkpt lat="48.64756" lon="-2.82437">
        <ele>7</ele>
        <time>2022-09-09T09:45:08Z</time>
      </trkpt>
      <trkpt lat="48.64748" lon="-2.82427">
        <ele>6.9</ele>
        <time>2022-09-09T09:45:11Z</time>
      </trkpt>
      <trkpt lat="48.6474" lon="-2.82418">
        <ele>6.3</ele>
        <time>2022-09-09T09:45:14Z</time>
      </trkpt>
      <trkpt lat="48.64733" lon="-2.8241">
        <ele>6</ele>
        <time>2022-09-09T09:45:17Z</time>
      </trkpt>
      <trkpt lat="48.64724" lon="-2.82401">
        <ele>6.2</ele>
        <time>2022-09-09T09:45:21Z</time>
      </trkpt>
      <trkpt lat="48.64716" lon="-2.82391">
        <ele>6.2</ele>
        <time>2022-09-09T09:45:25Z</time>
      </trkpt>
      <trkpt lat="48.6471" lon="-2.82381">
        <ele>6.1</ele>
        <time>2022-09-09T09:46:18Z</time>
      </trkpt>
      <trkpt lat="48.64701" lon="-2.82371">
        <ele>6.2</ele>
        <time>2022-09-09T09:46:23Z</time>
      </trkpt>
      <trkpt lat="48.64696" lon="-2.82359">
        <ele>7</ele>
        <time>2022-09-09T09:46:27Z</time>
      </trkpt>
      <trkpt lat="48.64692" lon="-2.82345">
        <ele>7</ele>
        <time>2022-09-09T09:46:32Z</time>
      </trkpt>
      <trkpt lat="48.64701" lon="-2.82335">
        <ele>7</ele>
        <time>2022-09-09T09:46:37Z</time>
      </trkpt>
      <trkpt lat="48.64711" lon="-2.82332">
        <ele>7</ele>
        <time>2022-09-09T09:46:41Z</time>
      </trkpt>
      <trkpt lat="48.6472" lon="-2.82331">
        <ele>7</ele>
        <time>2022-09-09T09:46:46Z</time>
      </trkpt>
      <trkpt lat="48.6473" lon="-2.82326">
        <ele>6.5</ele>
        <time>2022-09-09T09:47:00Z</time>
      </trkpt>
      <trkpt lat="48.64739" lon="-2.82318">
        <ele>5.9</ele>
        <time>2022-09-09T09:47:06Z</time>
      </trkpt>
      <trkpt lat="48.64749" lon="-2.82312">
        <ele>5.5</ele>
        <time>2022-09-09T09:47:11Z</time>
      </trkpt>
      <trkpt lat="48.64759" lon="-2.82309">
        <ele>5.8</ele>
        <time>2022-09-09T09:47:15Z</time>
      </trkpt>
      <trkpt lat="48.64768" lon="-2.82301">
        <ele>5.4</ele>
        <time>2022-09-09T09:47:51Z</time>
      </trkpt>
      <trkpt lat="48.64777" lon="-2.82301">
        <ele>5.9</ele>
        <time>2022-09-09T09:47:56Z</time>
      </trkpt>
      <trkpt lat="48.6478" lon="-2.82317">
        <ele>7</ele>
        <time>2022-09-09T09:48:01Z</time>
      </trkpt>
      <trkpt lat="48.64783" lon="-2.82334">
        <ele>7</ele>
        <time>2022-09-09T09:48:05Z</time>
      </trkpt>
      <trkpt lat="48.64786" lon="-2.82347">
        <ele>7</ele>
        <time>2022-09-09T09:48:08Z</time>
      </trkpt>
      <trkpt lat="48.64788" lon="-2.82362">
        <ele>7</ele>
        <time>2022-09-09T09:48:11Z</time>
      </trkpt>
      <trkpt lat="48.6479" lon="-2.82377">
        <ele>7</ele>
        <time>2022-09-09T09:48:14Z</time>
      </trkpt>
      <trkpt lat="48.64791" lon="-2.82391">
        <ele>7</ele>
        <time>2022-09-09T09:48:17Z</time>
      </trkpt>
      <trkpt lat="48.64791" lon="-2.82406">
        <ele>7</ele>
        <time>2022-09-09T09:48:20Z</time>
      </trkpt>
      <trkpt lat="48.64792" lon="-2.82421">
        <ele>7</ele>
        <time>2022-09-09T09:48:23Z</time>
      </trkpt>
      <trkpt lat="48.64795" lon="-2.82438">
        <ele>7</ele>
        <time>2022-09-09T09:48:27Z</time>
      </trkpt>
      <trkpt lat="48.64798" lon="-2.82454">
        <ele>7.2</ele>
        <time>2022-09-09T09:48:31Z</time>
      </trkpt>
      <trkpt lat="48.64802" lon="-2.82469">
        <ele>7.8</ele>
        <time>2022-09-09T09:48:36Z</time>
      </trkpt>
      <trkpt lat="48.64802" lon="-2.82486">
        <ele>7.6</ele>
        <time>2022-09-09T09:48:40Z</time>
      </trkpt>
      <trkpt lat="48.64803" lon="-2.82504">
        <ele>7.5</ele>
        <time>2022-09-09T09:48:44Z</time>
      </trkpt>
      <trkpt lat="48.64805" lon="-2.82519">
        <ele>7.2</ele>
        <time>2022-09-09T09:48:47Z</time>
      </trkpt>
      <trkpt lat="48.64807" lon="-2.82534">
        <ele>7.4</ele>
        <time>2022-09-09T09:48:50Z</time>
      </trkpt>
      <trkpt lat="48.6481" lon="-2.8255">
        <ele>8.2</ele>
        <time>2022-09-09T09:48:53Z</time>
      </trkpt>
      <trkpt lat="48.64813" lon="-2.82565">
        <ele>8.9</ele>
        <time>2022-09-09T09:48:56Z</time>
      </trkpt>
      <trkpt lat="48.64816" lon="-2.8258">
        <ele>9.3</ele>
        <time>2022-09-09T09:48:59Z</time>
      </trkpt>
      <trkpt lat="48.64818" lon="-2.82595">
        <ele>9.2</ele>
        <time>2022-09-09T09:49:02Z</time>
      </trkpt>
      <trkpt lat="48.6482" lon="-2.82609">
        <ele>8.6</ele>
        <time>2022-09-09T09:49:05Z</time>
      </trkpt>
      <trkpt lat="48.64819" lon="-2.82623">
        <ele>8.7</ele>
        <time>2022-09-09T09:49:08Z</time>
      </trkpt>
      <trkpt lat="48.64818" lon="-2.82637">
        <ele>8.8</ele>
        <time>2022-09-09T09:49:11Z</time>
      </trkpt>
      <trkpt lat="48.64815" lon="-2.8265">
        <ele>9</ele>
        <time>2022-09-09T09:49:14Z</time>
      </trkpt>
      <trkpt lat="48.64811" lon="-2.82664">
        <ele>9</ele>
        <time>2022-09-09T09:49:17Z</time>
      </trkpt>
      <trkpt lat="48.64807" lon="-2.8268">
        <ele>8.7</ele>
        <time>2022-09-09T09:49:21Z</time>
      </trkpt>
      <trkpt lat="48.64804" lon="-2.82694">
        <ele>8.9</ele>
        <time>2022-09-09T09:49:25Z</time>
      </trkpt>
      <trkpt lat="48.648" lon="-2.82711">
        <ele>8.3</ele>
        <time>2022-09-09T09:49:29Z</time>
      </trkpt>
      <trkpt lat="48.64795" lon="-2.82722">
        <ele>8</ele>
        <time>2022-09-09T09:49:32Z</time>
      </trkpt>
      <trkpt lat="48.6479" lon="-2.82734">
        <ele>8.2</ele>
        <time>2022-09-09T09:49:35Z</time>
      </trkpt>
      <trkpt lat="48.64781" lon="-2.82743">
        <ele>8.1</ele>
        <time>2022-09-09T09:49:39Z</time>
      </trkpt>
      <trkpt lat="48.64771" lon="-2.82749">
        <ele>8</ele>
        <time>2022-09-09T09:49:44Z</time>
      </trkpt>
      <trkpt lat="48.64762" lon="-2.82753">
        <ele>8</ele>
        <time>2022-09-09T09:49:48Z</time>
      </trkpt>
      <trkpt lat="48.64752" lon="-2.82756">
        <ele>8</ele>
        <time>2022-09-09T09:49:51Z</time>
      </trkpt>
      <trkpt lat="48.64743" lon="-2.82759">
        <ele>8</ele>
        <time>2022-09-09T09:49:54Z</time>
      </trkpt>
      <trkpt lat="48.64731" lon="-2.82764">
        <ele>8</ele>
        <time>2022-09-09T09:49:58Z</time>
      </trkpt>
      <trkpt lat="48.64721" lon="-2.82766">
        <ele>8</ele>
        <time>2022-09-09T09:50:02Z</time>
      </trkpt>
      <trkpt lat="48.64712" lon="-2.82767">
        <ele>7.9</ele>
        <time>2022-09-09T09:50:47Z</time>
      </trkpt>
      <trkpt lat="48.64702" lon="-2.82769">
        <ele>7.8</ele>
        <time>2022-09-09T09:50:51Z</time>
      </trkpt>
      <trkpt lat="48.64692" lon="-2.82768">
        <ele>7.7</ele>
        <time>2022-09-09T09:50:56Z</time>
      </trkpt>
      <trkpt lat="48.64682" lon="-2.82771">
        <ele>7.8</ele>
        <time>2022-09-09T09:51:02Z</time>
      </trkpt>
      <trkpt lat="48.6467" lon="-2.82772">
        <ele>7.8</ele>
        <time>2022-09-09T09:51:07Z</time>
      </trkpt>
      <trkpt lat="48.6466" lon="-2.82772">
        <ele>7.6</ele>
        <time>2022-09-09T09:51:12Z</time>
      </trkpt>
      <trkpt lat="48.64669" lon="-2.82775">
        <ele>7.9</ele>
        <time>2022-09-09T09:51:48Z</time>
      </trkpt>
      <trkpt lat="48.64678" lon="-2.82777">
        <ele>8</ele>
        <time>2022-09-09T09:51:58Z</time>
      </trkpt>
      <trkpt lat="48.64687" lon="-2.82771">
        <ele>7.8</ele>
        <time>2022-09-09T09:52:06Z</time>
      </trkpt>
      <trkpt lat="48.64697" lon="-2.82769">
        <ele>7.7</ele>
        <time>2022-09-09T09:52:14Z</time>
      </trkpt>
      <trkpt lat="48.64706" lon="-2.82767">
        <ele>7.8</ele>
        <time>2022-09-09T09:52:21Z</time>
      </trkpt>
      <trkpt lat="48.64716" lon="-2.82765">
        <ele>7.9</ele>
        <time>2022-09-09T09:52:30Z</time>
      </trkpt>
      <trkpt lat="48.64724" lon="-2.82762">
        <ele>8</ele>
        <time>2022-09-09T09:53:06Z</time>
      </trkpt>
      <trkpt lat="48.64718" lon="-2.82772">
        <ele>8</ele>
        <time>2022-09-09T10:57:41Z</time>
      </trkpt>
      <trkpt lat="48.64727" lon="-2.82765">
        <ele>8</ele>
        <time>2022-09-09T11:00:51Z</time>
      </trkpt>
      <trkpt lat="48.64729" lon="-2.82752">
        <ele>8</ele>
        <time>2022-09-09T11:02:13Z</time>
      </trkpt>
      <trkpt lat="48.64724" lon="-2.8274">
        <ele>7.6</ele>
        <time>2022-09-09T11:02:23Z</time>
      </trkpt>
      <trkpt lat="48.64713" lon="-2.82746">
        <ele>7.5</ele>
        <time>2022-09-09T11:02:29Z</time>
      </trkpt>
      <trkpt lat="48.64703" lon="-2.82754">
        <ele>7.4</ele>
        <time>2022-09-09T11:02:33Z</time>
      </trkpt>
      <trkpt lat="48.64692" lon="-2.82755">
        <ele>7.2</ele>
        <time>2022-09-09T11:02:37Z</time>
      </trkpt>
      <trkpt lat="48.64681" lon="-2.82757">
        <ele>7.3</ele>
        <time>2022-09-09T11:02:41Z</time>
      </trkpt>
      <trkpt lat="48.64672" lon="-2.82762">
        <ele>7.4</ele>
        <time>2022-09-09T11:02:44Z</time>
      </trkpt>
      <trkpt lat="48.64662" lon="-2.82762">
        <ele>7.4</ele>
        <time>2022-09-09T11:02:47Z</time>
      </trkpt>
      <trkpt lat="48.64653" lon="-2.82762">
        <ele>7.5</ele>
        <time>2022-09-09T11:02:50Z</time>
      </trkpt>
      <trkpt lat="48.64643" lon="-2.82762">
        <ele>7.5</ele>
        <time>2022-09-09T11:02:53Z</time>
      </trkpt>
      <trkpt lat="48.64633" lon="-2.82763">
        <ele>7.7</ele>
        <time>2022-09-09T11:02:56Z</time>
      </trkpt>
      <trkpt lat="48.64622" lon="-2.82763">
        <ele>8.1</ele>
        <time>2022-09-09T11:03:00Z</time>
      </trkpt>
      <trkpt lat="48.64612" lon="-2.82758">
        <ele>8.3</ele>
        <time>2022-09-09T11:03:04Z</time>
      </trkpt>
      <trkpt lat="48.64604" lon="-2.82746">
        <ele>8.2</ele>
        <time>2022-09-09T11:03:08Z</time>
      </trkpt>
      <trkpt lat="48.64598" lon="-2.8273">
        <ele>8.1</ele>
        <time>2022-09-09T11:03:12Z</time>
      </trkpt>
      <trkpt lat="48.6459" lon="-2.82722">
        <ele>8</ele>
        <time>2022-09-09T11:03:15Z</time>
      </trkpt>
      <trkpt lat="48.64581" lon="-2.82716">
        <ele>7</ele>
        <time>2022-09-09T11:03:18Z</time>
      </trkpt>
      <trkpt lat="48.64572" lon="-2.82714">
        <ele>7</ele>
        <time>2022-09-09T11:03:21Z</time>
      </trkpt>
      <trkpt lat="48.64563" lon="-2.82711">
        <ele>7.2</ele>
        <time>2022-09-09T11:03:24Z</time>
      </trkpt>
      <trkpt lat="48.64554" lon="-2.82707">
        <ele>7.5</ele>
        <time>2022-09-09T11:03:27Z</time>
      </trkpt>
      <trkpt lat="48.64544" lon="-2.82702">
        <ele>7.6</ele>
        <time>2022-09-09T11:03:30Z</time>
      </trkpt>
      <trkpt lat="48.64534" lon="-2.82697">
        <ele>7.8</ele>
        <time>2022-09-09T11:03:33Z</time>
      </trkpt>
      <trkpt lat="48.64523" lon="-2.82693">
        <ele>7.8</ele>
        <time>2022-09-09T11:03:36Z</time>
      </trkpt>
      <trkpt lat="48.64513" lon="-2.82687">
        <ele>7.2</ele>
        <time>2022-09-09T11:03:39Z</time>
      </trkpt>
      <trkpt lat="48.64503" lon="-2.82682">
        <ele>7.3</ele>
        <time>2022-09-09T11:03:42Z</time>
      </trkpt>
      <trkpt lat="48.64492" lon="-2.82677">
        <ele>7.6</ele>
        <time>2022-09-09T11:03:45Z</time>
      </trkpt>
      <trkpt lat="48.64482" lon="-2.82671">
        <ele>7.7</ele>
        <time>2022-09-09T11:03:48Z</time>
      </trkpt>
      <trkpt lat="48.64472" lon="-2.82665">
        <ele>7.8</ele>
        <time>2022-09-09T11:03:51Z</time>
      </trkpt>
      <trkpt lat="48.64462" lon="-2.82659">
        <ele>7.2</ele>
        <time>2022-09-09T11:03:54Z</time>
      </trkpt>
      <trkpt lat="48.64452" lon="-2.82652">
        <ele>7.1</ele>
        <time>2022-09-09T11:03:57Z</time>
      </trkpt>
      <trkpt lat="48.64442" lon="-2.82644">
        <ele>7.9</ele>
        <time>2022-09-09T11:04:00Z</time>
      </trkpt>
      <trkpt lat="48.64431" lon="-2.82637">
        <ele>9.8</ele>
        <time>2022-09-09T11:04:03Z</time>
      </trkpt>
      <trkpt lat="48.64421" lon="-2.8263">
        <ele>10.1</ele>
        <time>2022-09-09T11:04:06Z</time>
      </trkpt>
      <trkpt lat="48.6441" lon="-2.82624">
        <ele>10.6</ele>
        <time>2022-09-09T11:04:09Z</time>
      </trkpt>
      <trkpt lat="48.64401" lon="-2.82616">
        <ele>9.6</ele>
        <time>2022-09-09T11:04:12Z</time>
      </trkpt>
      <trkpt lat="48.64392" lon="-2.82609">
        <ele>8.2</ele>
        <time>2022-09-09T11:04:15Z</time>
      </trkpt>
      <trkpt lat="48.64382" lon="-2.82603">
        <ele>8.2</ele>
        <time>2022-09-09T11:04:18Z</time>
      </trkpt>
      <trkpt lat="48.64371" lon="-2.82599">
        <ele>8.9</ele>
        <time>2022-09-09T11:04:21Z</time>
      </trkpt>
      <trkpt lat="48.64361" lon="-2.82598">
        <ele>10.1</ele>
        <time>2022-09-09T11:04:24Z</time>
      </trkpt>
      <trkpt lat="48.64351" lon="-2.826">
        <ele>10.1</ele>
        <time>2022-09-09T11:04:27Z</time>
      </trkpt>
      <trkpt lat="48.64342" lon="-2.82604">
        <ele>10.1</ele>
        <time>2022-09-09T11:04:30Z</time>
      </trkpt>
      <trkpt lat="48.64334" lon="-2.82613">
        <ele>10.3</ele>
        <time>2022-09-09T11:04:34Z</time>
      </trkpt>
      <trkpt lat="48.64327" lon="-2.82624">
        <ele>11.5</ele>
        <time>2022-09-09T11:04:41Z</time>
      </trkpt>
      <trkpt lat="48.64323" lon="-2.82638">
        <ele>12.5</ele>
        <time>2022-09-09T11:04:47Z</time>
      </trkpt>
      <trkpt lat="48.6432" lon="-2.82651">
        <ele>13</ele>
        <time>2022-09-09T11:04:52Z</time>
      </trkpt>
      <trkpt lat="48.64318" lon="-2.82666">
        <ele>13.3</ele>
        <time>2022-09-09T11:04:57Z</time>
      </trkpt>
      <trkpt lat="48.64314" lon="-2.82679">
        <ele>13.8</ele>
        <time>2022-09-09T11:05:02Z</time>
      </trkpt>
      <trkpt lat="48.6431" lon="-2.82691">
        <ele>14.2</ele>
        <time>2022-09-09T11:05:07Z</time>
      </trkpt>
      <trkpt lat="48.64307" lon="-2.82705">
        <ele>14.6</ele>
        <time>2022-09-09T11:05:13Z</time>
      </trkpt>
      <trkpt lat="48.64302" lon="-2.82718">
        <ele>15</ele>
        <time>2022-09-09T11:05:19Z</time>
      </trkpt>
      <trkpt lat="48.64297" lon="-2.82732">
        <ele>16</ele>
        <time>2022-09-09T11:05:25Z</time>
      </trkpt>
      <trkpt lat="48.64287" lon="-2.82734">
        <ele>16.5</ele>
        <time>2022-09-09T11:05:31Z</time>
      </trkpt>
      <trkpt lat="48.64278" lon="-2.8273">
        <ele>16.6</ele>
        <time>2022-09-09T11:05:37Z</time>
      </trkpt>
      <trkpt lat="48.64269" lon="-2.82728">
        <ele>17.3</ele>
        <time>2022-09-09T11:05:42Z</time>
      </trkpt>
      <trkpt lat="48.64259" lon="-2.82722">
        <ele>17.9</ele>
        <time>2022-09-09T11:05:47Z</time>
      </trkpt>
      <trkpt lat="48.64249" lon="-2.82719">
        <ele>18.7</ele>
        <time>2022-09-09T11:05:52Z</time>
      </trkpt>
      <trkpt lat="48.64241" lon="-2.82713">
        <ele>18.5</ele>
        <time>2022-09-09T11:05:56Z</time>
      </trkpt>
      <trkpt lat="48.64231" lon="-2.82708">
        <ele>18.3</ele>
        <time>2022-09-09T11:06:00Z</time>
      </trkpt>
      <trkpt lat="48.64223" lon="-2.82694">
        <ele>18</ele>
        <time>2022-09-09T11:06:04Z</time>
      </trkpt>
      <trkpt lat="48.64219" lon="-2.82682">
        <ele>18.7</ele>
        <time>2022-09-09T11:06:07Z</time>
      </trkpt>
      <trkpt lat="48.6422" lon="-2.82666">
        <ele>18.7</ele>
        <time>2022-09-09T11:06:11Z</time>
      </trkpt>
      <trkpt lat="48.64226" lon="-2.82655">
        <ele>18.3</ele>
        <time>2022-09-09T11:06:14Z</time>
      </trkpt>
      <trkpt lat="48.64233" lon="-2.82644">
        <ele>17.7</ele>
        <time>2022-09-09T11:06:17Z</time>
      </trkpt>
      <trkpt lat="48.64242" lon="-2.82634">
        <ele>16.9</ele>
        <time>2022-09-09T11:06:20Z</time>
      </trkpt>
      <trkpt lat="48.64252" lon="-2.82622">
        <ele>16.6</ele>
        <time>2022-09-09T11:06:23Z</time>
      </trkpt>
      <trkpt lat="48.6426" lon="-2.82609">
        <ele>16.6</ele>
        <time>2022-09-09T11:06:26Z</time>
      </trkpt>
      <trkpt lat="48.64267" lon="-2.82591">
        <ele>16.7</ele>
        <time>2022-09-09T11:06:29Z</time>
      </trkpt>
      <trkpt lat="48.64271" lon="-2.82576">
        <ele>16.4</ele>
        <time>2022-09-09T11:06:31Z</time>
      </trkpt>
      <trkpt lat="48.6427" lon="-2.82562">
        <ele>15.8</ele>
        <time>2022-09-09T11:06:33Z</time>
      </trkpt>
      <trkpt lat="48.64265" lon="-2.82546">
        <ele>14.9</ele>
        <time>2022-09-09T11:06:35Z</time>
      </trkpt>
      <trkpt lat="48.64261" lon="-2.82533">
        <ele>14.1</ele>
        <time>2022-09-09T11:06:37Z</time>
      </trkpt>
      <trkpt lat="48.64256" lon="-2.8252">
        <ele>15</ele>
        <time>2022-09-09T11:06:39Z</time>
      </trkpt>
      <trkpt lat="48.64251" lon="-2.82506">
        <ele>16.8</ele>
        <time>2022-09-09T11:06:42Z</time>
      </trkpt>
      <trkpt lat="48.64245" lon="-2.82494">
        <ele>17.5</ele>
        <time>2022-09-09T11:06:45Z</time>
      </trkpt>
      <trkpt lat="48.64237" lon="-2.82485">
        <ele>18.1</ele>
        <time>2022-09-09T11:06:49Z</time>
      </trkpt>
      <trkpt lat="48.64229" lon="-2.82478">
        <ele>18.7</ele>
        <time>2022-09-09T11:06:53Z</time>
      </trkpt>
      <trkpt lat="48.6422" lon="-2.8247">
        <ele>19.3</ele>
        <time>2022-09-09T11:06:58Z</time>
      </trkpt>
      <trkpt lat="48.64212" lon="-2.82462">
        <ele>20.4</ele>
        <time>2022-09-09T11:07:03Z</time>
      </trkpt>
      <trkpt lat="48.64202" lon="-2.82457">
        <ele>21.4</ele>
        <time>2022-09-09T11:07:09Z</time>
      </trkpt>
      <trkpt lat="48.64192" lon="-2.82449">
        <ele>22.1</ele>
        <time>2022-09-09T11:07:15Z</time>
      </trkpt>
      <trkpt lat="48.64183" lon="-2.82443">
        <ele>22.5</ele>
        <time>2022-09-09T11:07:20Z</time>
      </trkpt>
      <trkpt lat="48.64172" lon="-2.82438">
        <ele>22.8</ele>
        <time>2022-09-09T11:07:25Z</time>
      </trkpt>
      <trkpt lat="48.64162" lon="-2.82435">
        <ele>23</ele>
        <time>2022-09-09T11:07:29Z</time>
      </trkpt>
      <trkpt lat="48.64153" lon="-2.82431">
        <ele>23</ele>
        <time>2022-09-09T11:07:32Z</time>
      </trkpt>
      <trkpt lat="48.64143" lon="-2.8243">
        <ele>23</ele>
        <time>2022-09-09T11:07:35Z</time>
      </trkpt>
      <trkpt lat="48.64134" lon="-2.82427">
        <ele>23.2</ele>
        <time>2022-09-09T11:07:38Z</time>
      </trkpt>
      <trkpt lat="48.64124" lon="-2.82425">
        <ele>23.7</ele>
        <time>2022-09-09T11:07:41Z</time>
      </trkpt>
      <trkpt lat="48.64114" lon="-2.82422">
        <ele>24.1</ele>
        <time>2022-09-09T11:07:44Z</time>
      </trkpt>
      <trkpt lat="48.64104" lon="-2.82422">
        <ele>24</ele>
        <time>2022-09-09T11:07:47Z</time>
      </trkpt>
      <trkpt lat="48.64095" lon="-2.82426">
        <ele>23.9</ele>
        <time>2022-09-09T11:07:50Z</time>
      </trkpt>
      <trkpt lat="48.64086" lon="-2.82432">
        <ele>24.2</ele>
        <time>2022-09-09T11:07:53Z</time>
      </trkpt>
      <trkpt lat="48.64077" lon="-2.8244">
        <ele>24.2</ele>
        <time>2022-09-09T11:07:56Z</time>
      </trkpt>
      <trkpt lat="48.64069" lon="-2.82448">
        <ele>24.1</ele>
        <time>2022-09-09T11:07:59Z</time>
      </trkpt>
      <trkpt lat="48.64061" lon="-2.82455">
        <ele>24.3</ele>
        <time>2022-09-09T11:08:02Z</time>
      </trkpt>
      <trkpt lat="48.64053" lon="-2.82464">
        <ele>25.1</ele>
        <time>2022-09-09T11:08:06Z</time>
      </trkpt>
      <trkpt lat="48.64044" lon="-2.8247">
        <ele>26.1</ele>
        <time>2022-09-09T11:08:10Z</time>
      </trkpt>
      <trkpt lat="48.64035" lon="-2.82478">
        <ele>27.6</ele>
        <time>2022-09-09T11:08:15Z</time>
      </trkpt>
      <trkpt lat="48.64025" lon="-2.82479">
        <ele>28.4</ele>
        <time>2022-09-09T11:08:20Z</time>
      </trkpt>
      <trkpt lat="48.64015" lon="-2.82482">
        <ele>29.3</ele>
        <time>2022-09-09T11:08:25Z</time>
      </trkpt>
      <trkpt lat="48.64005" lon="-2.82481">
        <ele>29.7</ele>
        <time>2022-09-09T11:08:30Z</time>
      </trkpt>
      <trkpt lat="48.63996" lon="-2.82487">
        <ele>30.1</ele>
        <time>2022-09-09T11:08:35Z</time>
      </trkpt>
      <trkpt lat="48.63988" lon="-2.82497">
        <ele>30.6</ele>
        <time>2022-09-09T11:08:41Z</time>
      </trkpt>
      <trkpt lat="48.63982" lon="-2.8251">
        <ele>31.6</ele>
        <time>2022-09-09T11:08:47Z</time>
      </trkpt>
      <trkpt lat="48.63978" lon="-2.82523">
        <ele>33</ele>
        <time>2022-09-09T11:08:52Z</time>
      </trkpt>
      <trkpt lat="48.63977" lon="-2.82538">
        <ele>33.9</ele>
        <time>2022-09-09T11:08:57Z</time>
      </trkpt>
      <trkpt lat="48.63974" lon="-2.82554">
        <ele>34.1</ele>
        <time>2022-09-09T11:09:02Z</time>
      </trkpt>
      <trkpt lat="48.6397" lon="-2.82567">
        <ele>34.1</ele>
        <time>2022-09-09T11:09:06Z</time>
      </trkpt>
      <trkpt lat="48.63966" lon="-2.82582">
        <ele>33.6</ele>
        <time>2022-09-09T11:09:10Z</time>
      </trkpt>
      <trkpt lat="48.63959" lon="-2.82596">
        <ele>33.3</ele>
        <time>2022-09-09T11:09:13Z</time>
      </trkpt>
      <trkpt lat="48.6395" lon="-2.82608">
        <ele>32.1</ele>
        <time>2022-09-09T11:09:16Z</time>
      </trkpt>
      <trkpt lat="48.63938" lon="-2.82617">
        <ele>31.3</ele>
        <time>2022-09-09T11:09:19Z</time>
      </trkpt>
      <trkpt lat="48.63929" lon="-2.8262">
        <ele>31.2</ele>
        <time>2022-09-09T11:09:21Z</time>
      </trkpt>
      <trkpt lat="48.63919" lon="-2.82622">
        <ele>31</ele>
        <time>2022-09-09T11:09:23Z</time>
      </trkpt>
      <trkpt lat="48.63909" lon="-2.82623">
        <ele>31.2</ele>
        <time>2022-09-09T11:09:25Z</time>
      </trkpt>
      <trkpt lat="48.639" lon="-2.82623">
        <ele>31.3</ele>
        <time>2022-09-09T11:09:27Z</time>
      </trkpt>
      <trkpt lat="48.6389" lon="-2.82621">
        <ele>31.1</ele>
        <time>2022-09-09T11:09:29Z</time>
      </trkpt>
      <trkpt lat="48.6388" lon="-2.82622">
        <ele>31.1</ele>
        <time>2022-09-09T11:09:31Z</time>
      </trkpt>
      <trkpt lat="48.63871" lon="-2.82622">
        <ele>31</ele>
        <time>2022-09-09T11:09:33Z</time>
      </trkpt>
      <trkpt lat="48.6386" lon="-2.82622">
        <ele>30.7</ele>
        <time>2022-09-09T11:09:35Z</time>
      </trkpt>
      <trkpt lat="48.63849" lon="-2.82626">
        <ele>29.2</ele>
        <time>2022-09-09T11:09:37Z</time>
      </trkpt>
      <trkpt lat="48.63838" lon="-2.82631">
        <ele>28.2</ele>
        <time>2022-09-09T11:09:39Z</time>
      </trkpt>
      <trkpt lat="48.63829" lon="-2.82636">
        <ele>27.3</ele>
        <time>2022-09-09T11:09:41Z</time>
      </trkpt>
      <trkpt lat="48.6382" lon="-2.82643">
        <ele>26.3</ele>
        <time>2022-09-09T11:09:43Z</time>
      </trkpt>
      <trkpt lat="48.63811" lon="-2.8265">
        <ele>25.8</ele>
        <time>2022-09-09T11:09:45Z</time>
      </trkpt>
      <trkpt lat="48.63797" lon="-2.82655">
        <ele>23.9</ele>
        <time>2022-09-09T11:09:48Z</time>
      </trkpt>
      <trkpt lat="48.63787" lon="-2.82657">
        <ele>22.6</ele>
        <time>2022-09-09T11:09:50Z</time>
      </trkpt>
      <trkpt lat="48.63778" lon="-2.82659">
        <ele>21</ele>
        <time>2022-09-09T11:09:52Z</time>
      </trkpt>
      <trkpt lat="48.63765" lon="-2.82658">
        <ele>19.1</ele>
        <time>2022-09-09T11:09:55Z</time>
      </trkpt>
      <trkpt lat="48.63753" lon="-2.82669">
        <ele>19.1</ele>
        <time>2022-09-09T11:09:58Z</time>
      </trkpt>
      <trkpt lat="48.63748" lon="-2.82687">
        <ele>17.4</ele>
        <time>2022-09-09T11:10:00Z</time>
      </trkpt>
      <trkpt lat="48.63744" lon="-2.8271">
        <ele>16.2</ele>
        <time>2022-09-09T11:10:02Z</time>
      </trkpt>
      <trkpt lat="48.63736" lon="-2.82732">
        <ele>13.8</ele>
        <time>2022-09-09T11:10:04Z</time>
      </trkpt>
      <trkpt lat="48.63729" lon="-2.82756">
        <ele>12</ele>
        <time>2022-09-09T11:10:06Z</time>
      </trkpt>
      <trkpt lat="48.63722" lon="-2.82775">
        <ele>11.7</ele>
        <time>2022-09-09T11:10:08Z</time>
      </trkpt>
      <trkpt lat="48.63715" lon="-2.8279">
        <ele>11.2</ele>
        <time>2022-09-09T11:10:10Z</time>
      </trkpt>
      <trkpt lat="48.63708" lon="-2.82803">
        <ele>10.4</ele>
        <time>2022-09-09T11:10:12Z</time>
      </trkpt>
      <trkpt lat="48.63701" lon="-2.82812">
        <ele>9.9</ele>
        <time>2022-09-09T11:10:14Z</time>
      </trkpt>
      <trkpt lat="48.63689" lon="-2.82817">
        <ele>8.6</ele>
        <time>2022-09-09T11:10:17Z</time>
      </trkpt>
      <trkpt lat="48.63676" lon="-2.82809">
        <ele>8</ele>
        <time>2022-09-09T11:10:20Z</time>
      </trkpt>
      <trkpt lat="48.63665" lon="-2.82805">
        <ele>8</ele>
        <time>2022-09-09T11:10:23Z</time>
      </trkpt>
      <trkpt lat="48.63656" lon="-2.828">
        <ele>7.9</ele>
        <time>2022-09-09T11:10:25Z</time>
      </trkpt>
      <trkpt lat="48.63645" lon="-2.82792">
        <ele>7.9</ele>
        <time>2022-09-09T11:10:28Z</time>
      </trkpt>
      <trkpt lat="48.63636" lon="-2.82786">
        <ele>8.1</ele>
        <time>2022-09-09T11:10:31Z</time>
      </trkpt>
      <trkpt lat="48.63627" lon="-2.82786">
        <ele>8.4</ele>
        <time>2022-09-09T11:10:36Z</time>
      </trkpt>
      <trkpt lat="48.63634" lon="-2.82796">
        <ele>8.2</ele>
        <time>2022-09-09T11:10:54Z</time>
      </trkpt>
      <trkpt lat="48.63633" lon="-2.82812">
        <ele>8.2</ele>
        <time>2022-09-09T11:10:59Z</time>
      </trkpt>
      <trkpt lat="48.63625" lon="-2.82821">
        <ele>8.5</ele>
        <time>2022-09-09T11:11:03Z</time>
      </trkpt>
      <trkpt lat="48.63617" lon="-2.82829">
        <ele>8.8</ele>
        <time>2022-09-09T11:11:07Z</time>
      </trkpt>
      <trkpt lat="48.63612" lon="-2.82842">
        <ele>9</ele>
        <time>2022-09-09T11:11:11Z</time>
      </trkpt>
      <trkpt lat="48.63608" lon="-2.82856">
        <ele>9.2</ele>
        <time>2022-09-09T11:11:16Z</time>
      </trkpt>
      <trkpt lat="48.63602" lon="-2.82868">
        <ele>9.7</ele>
        <time>2022-09-09T11:11:20Z</time>
      </trkpt>
      <trkpt lat="48.63596" lon="-2.82883">
        <ele>10.1</ele>
        <time>2022-09-09T11:11:24Z</time>
      </trkpt>
      <trkpt lat="48.63591" lon="-2.82898">
        <ele>10</ele>
        <time>2022-09-09T11:11:28Z</time>
      </trkpt>
      <trkpt lat="48.63585" lon="-2.82911">
        <ele>9.4</ele>
        <time>2022-09-09T11:11:32Z</time>
      </trkpt>
      <trkpt lat="48.63577" lon="-2.82922">
        <ele>9.6</ele>
        <time>2022-09-09T11:11:36Z</time>
      </trkpt>
      <trkpt lat="48.63571" lon="-2.82933">
        <ele>10.1</ele>
        <time>2022-09-09T11:11:40Z</time>
      </trkpt>
      <trkpt lat="48.63563" lon="-2.82944">
        <ele>10.4</ele>
        <time>2022-09-09T11:11:44Z</time>
      </trkpt>
      <trkpt lat="48.63556" lon="-2.82958">
        <ele>10.5</ele>
        <time>2022-09-09T11:11:48Z</time>
      </trkpt>
      <trkpt lat="48.6355" lon="-2.82972">
        <ele>10.6</ele>
        <time>2022-09-09T11:11:52Z</time>
      </trkpt>
      <trkpt lat="48.63543" lon="-2.82983">
        <ele>11.4</ele>
        <time>2022-09-09T11:11:56Z</time>
      </trkpt>
      <trkpt lat="48.63536" lon="-2.82992">
        <ele>11.8</ele>
        <time>2022-09-09T11:12:00Z</time>
      </trkpt>
      <trkpt lat="48.63529" lon="-2.83002">
        <ele>12.1</ele>
        <time>2022-09-09T11:12:04Z</time>
      </trkpt>
      <trkpt lat="48.63521" lon="-2.83013">
        <ele>14.5</ele>
        <time>2022-09-09T11:12:08Z</time>
      </trkpt>
      <trkpt lat="48.63514" lon="-2.83023">
        <ele>15.4</ele>
        <time>2022-09-09T11:12:12Z</time>
      </trkpt>
      <trkpt lat="48.63506" lon="-2.83034">
        <ele>16.2</ele>
        <time>2022-09-09T11:12:17Z</time>
      </trkpt>
      <trkpt lat="48.63499" lon="-2.83043">
        <ele>17.6</ele>
        <time>2022-09-09T11:12:22Z</time>
      </trkpt>
      <trkpt lat="48.6349" lon="-2.83053">
        <ele>17.8</ele>
        <time>2022-09-09T11:12:27Z</time>
      </trkpt>
      <trkpt lat="48.63481" lon="-2.83061">
        <ele>17.3</ele>
        <time>2022-09-09T11:12:31Z</time>
      </trkpt>
      <trkpt lat="48.63474" lon="-2.8307">
        <ele>17.1</ele>
        <time>2022-09-09T11:12:35Z</time>
      </trkpt>
      <trkpt lat="48.63465" lon="-2.8308">
        <ele>18</ele>
        <time>2022-09-09T11:12:40Z</time>
      </trkpt>
      <trkpt lat="48.63456" lon="-2.83088">
        <ele>18.5</ele>
        <time>2022-09-09T11:12:45Z</time>
      </trkpt>
      <trkpt lat="48.63447" lon="-2.83097">
        <ele>18.6</ele>
        <time>2022-09-09T11:12:50Z</time>
      </trkpt>
      <trkpt lat="48.63438" lon="-2.83104">
        <ele>19.3</ele>
        <time>2022-09-09T11:12:54Z</time>
      </trkpt>
      <trkpt lat="48.6343" lon="-2.83111">
        <ele>19.6</ele>
        <time>2022-09-09T11:12:58Z</time>
      </trkpt>
      <trkpt lat="48.63421" lon="-2.83111">
        <ele>19.9</ele>
        <time>2022-09-09T11:13:12Z</time>
      </trkpt>
      <trkpt lat="48.63415" lon="-2.83125">
        <ele>21.2</ele>
        <time>2022-09-09T11:14:40Z</time>
      </trkpt>
      <trkpt lat="48.63407" lon="-2.83136">
        <ele>22</ele>
        <time>2022-09-09T11:14:45Z</time>
      </trkpt>
      <trkpt lat="48.63398" lon="-2.83142">
        <ele>22.3</ele>
        <time>2022-09-09T11:14:49Z</time>
      </trkpt>
      <trkpt lat="48.63389" lon="-2.83148">
        <ele>22.7</ele>
        <time>2022-09-09T11:14:54Z</time>
      </trkpt>
      <trkpt lat="48.63379" lon="-2.83155">
        <ele>23.6</ele>
        <time>2022-09-09T11:14:59Z</time>
      </trkpt>
      <trkpt lat="48.63371" lon="-2.83163">
        <ele>24</ele>
        <time>2022-09-09T11:15:04Z</time>
      </trkpt>
      <trkpt lat="48.63364" lon="-2.83172">
        <ele>24.6</ele>
        <time>2022-09-09T11:15:09Z</time>
      </trkpt>
      <trkpt lat="48.63357" lon="-2.83182">
        <ele>25.8</ele>
        <time>2022-09-09T11:15:14Z</time>
      </trkpt>
      <trkpt lat="48.63351" lon="-2.83193">
        <ele>26.9</ele>
        <time>2022-09-09T11:15:19Z</time>
      </trkpt>
      <trkpt lat="48.63346" lon="-2.83206">
        <ele>28.8</ele>
        <time>2022-09-09T11:15:25Z</time>
      </trkpt>
      <trkpt lat="48.63342" lon="-2.83219">
        <ele>30.2</ele>
        <time>2022-09-09T11:15:31Z</time>
      </trkpt>
      <trkpt lat="48.63338" lon="-2.83231">
        <ele>30.6</ele>
        <time>2022-09-09T11:15:38Z</time>
      </trkpt>
      <trkpt lat="48.63334" lon="-2.83245">
        <ele>30.8</ele>
        <time>2022-09-09T11:15:46Z</time>
      </trkpt>
      <trkpt lat="48.63329" lon="-2.83258">
        <ele>32</ele>
        <time>2022-09-09T11:15:53Z</time>
      </trkpt>
      <trkpt lat="48.63325" lon="-2.8327">
        <ele>33.3</ele>
        <time>2022-09-09T11:16:00Z</time>
      </trkpt>
      <trkpt lat="48.63319" lon="-2.83281">
        <ele>34.3</ele>
        <time>2022-09-09T11:16:08Z</time>
      </trkpt>
      <trkpt lat="48.63313" lon="-2.83292">
        <ele>35.1</ele>
        <time>2022-09-09T11:16:17Z</time>
      </trkpt>
      <trkpt lat="48.63304" lon="-2.83298">
        <ele>35.7</ele>
        <time>2022-09-09T11:16:24Z</time>
      </trkpt>
      <trkpt lat="48.63295" lon="-2.83305">
        <ele>37.1</ele>
        <time>2022-09-09T11:16:32Z</time>
      </trkpt>
      <trkpt lat="48.63285" lon="-2.83307">
        <ele>38.2</ele>
        <time>2022-09-09T11:16:40Z</time>
      </trkpt>
      <trkpt lat="48.63277" lon="-2.83311">
        <ele>39.3</ele>
        <time>2022-09-09T11:16:47Z</time>
      </trkpt>
      <trkpt lat="48.63268" lon="-2.83315">
        <ele>40.6</ele>
        <time>2022-09-09T11:16:54Z</time>
      </trkpt>
      <trkpt lat="48.63259" lon="-2.83313">
        <ele>41.9</ele>
        <time>2022-09-09T11:17:03Z</time>
      </trkpt>
      <trkpt lat="48.63249" lon="-2.83308">
        <ele>43.1</ele>
        <time>2022-09-09T11:17:11Z</time>
      </trkpt>
      <trkpt lat="48.6324" lon="-2.83303">
        <ele>44.5</ele>
        <time>2022-09-09T11:17:18Z</time>
      </trkpt>
      <trkpt lat="48.63231" lon="-2.83299">
        <ele>45.7</ele>
        <time>2022-09-09T11:17:24Z</time>
      </trkpt>
      <trkpt lat="48.63222" lon="-2.83294">
        <ele>46.6</ele>
        <time>2022-09-09T11:17:30Z</time>
      </trkpt>
      <trkpt lat="48.63212" lon="-2.83289">
        <ele>47</ele>
        <time>2022-09-09T11:17:36Z</time>
      </trkpt>
      <trkpt lat="48.63203" lon="-2.83281">
        <ele>47.4</ele>
        <time>2022-09-09T11:17:41Z</time>
      </trkpt>
      <trkpt lat="48.63194" lon="-2.83274">
        <ele>47.9</ele>
        <time>2022-09-09T11:17:45Z</time>
      </trkpt>
      <trkpt lat="48.63185" lon="-2.83265">
        <ele>47.9</ele>
        <time>2022-09-09T11:17:49Z</time>
      </trkpt>
      <trkpt lat="48.63177" lon="-2.83256">
        <ele>47.8</ele>
        <time>2022-09-09T11:17:53Z</time>
      </trkpt>
      <trkpt lat="48.6317" lon="-2.83245">
        <ele>47.7</ele>
        <time>2022-09-09T11:17:57Z</time>
      </trkpt>
      <trkpt lat="48.63163" lon="-2.83235">
        <ele>47.7</ele>
        <time>2022-09-09T11:18:01Z</time>
      </trkpt>
      <trkpt lat="48.63156" lon="-2.83222">
        <ele>47.7</ele>
        <time>2022-09-09T11:18:05Z</time>
      </trkpt>
      <trkpt lat="48.63151" lon="-2.83209">
        <ele>48.1</ele>
        <time>2022-09-09T11:18:09Z</time>
      </trkpt>
      <trkpt lat="48.63145" lon="-2.83196">
        <ele>48.6</ele>
        <time>2022-09-09T11:18:13Z</time>
      </trkpt>
      <trkpt lat="48.63139" lon="-2.83184">
        <ele>49</ele>
        <time>2022-09-09T11:18:17Z</time>
      </trkpt>
      <trkpt lat="48.63135" lon="-2.83172">
        <ele>49.2</ele>
        <time>2022-09-09T11:18:21Z</time>
      </trkpt>
      <trkpt lat="48.63129" lon="-2.83159">
        <ele>49.3</ele>
        <time>2022-09-09T11:18:25Z</time>
      </trkpt>
      <trkpt lat="48.63125" lon="-2.83146">
        <ele>49.5</ele>
        <time>2022-09-09T11:18:29Z</time>
      </trkpt>
      <trkpt lat="48.6312" lon="-2.83133">
        <ele>49.6</ele>
        <time>2022-09-09T11:18:33Z</time>
      </trkpt>
      <trkpt lat="48.63117" lon="-2.83118">
        <ele>49.6</ele>
        <time>2022-09-09T11:18:37Z</time>
      </trkpt>
      <trkpt lat="48.63112" lon="-2.83104">
        <ele>49.9</ele>
        <time>2022-09-09T11:18:41Z</time>
      </trkpt>
      <trkpt lat="48.63103" lon="-2.83099">
        <ele>50.3</ele>
        <time>2022-09-09T11:18:45Z</time>
      </trkpt>
      <trkpt lat="48.63096" lon="-2.8311">
        <ele>50.5</ele>
        <time>2022-09-09T11:18:49Z</time>
      </trkpt>
      <trkpt lat="48.63092" lon="-2.83124">
        <ele>51</ele>
        <time>2022-09-09T11:18:53Z</time>
      </trkpt>
      <trkpt lat="48.63086" lon="-2.83136">
        <ele>51.7</ele>
        <time>2022-09-09T11:18:57Z</time>
      </trkpt>
      <trkpt lat="48.63079" lon="-2.83147">
        <ele>52.2</ele>
        <time>2022-09-09T11:19:01Z</time>
      </trkpt>
      <trkpt lat="48.63071" lon="-2.83157">
        <ele>52.5</ele>
        <time>2022-09-09T11:19:05Z</time>
      </trkpt>
      <trkpt lat="48.63061" lon="-2.83164">
        <ele>52.8</ele>
        <time>2022-09-09T11:19:09Z</time>
      </trkpt>
      <trkpt lat="48.63052" lon="-2.83172">
        <ele>53.3</ele>
        <time>2022-09-09T11:19:13Z</time>
      </trkpt>
      <trkpt lat="48.63045" lon="-2.83183">
        <ele>53.7</ele>
        <time>2022-09-09T11:19:17Z</time>
      </trkpt>
      <trkpt lat="48.63041" lon="-2.83197">
        <ele>54.1</ele>
        <time>2022-09-09T11:19:21Z</time>
      </trkpt>
      <trkpt lat="48.63039" lon="-2.83212">
        <ele>54.4</ele>
        <time>2022-09-09T11:19:25Z</time>
      </trkpt>
      <trkpt lat="48.63036" lon="-2.83226">
        <ele>54.7</ele>
        <time>2022-09-09T11:19:29Z</time>
      </trkpt>
      <trkpt lat="48.63034" lon="-2.83241">
        <ele>54.8</ele>
        <time>2022-09-09T11:19:33Z</time>
      </trkpt>
      <trkpt lat="48.6303" lon="-2.83255">
        <ele>55.1</ele>
        <time>2022-09-09T11:19:37Z</time>
      </trkpt>
      <trkpt lat="48.63027" lon="-2.8327">
        <ele>55.7</ele>
        <time>2022-09-09T11:19:41Z</time>
      </trkpt>
      <trkpt lat="48.63026" lon="-2.83286">
        <ele>56.1</ele>
        <time>2022-09-09T11:19:45Z</time>
      </trkpt>
      <trkpt lat="48.63023" lon="-2.83303">
        <ele>56.2</ele>
        <time>2022-09-09T11:19:49Z</time>
      </trkpt>
      <trkpt lat="48.6302" lon="-2.8332">
        <ele>56.7</ele>
        <time>2022-09-09T11:19:53Z</time>
      </trkpt>
      <trkpt lat="48.63017" lon="-2.83337">
        <ele>56.9</ele>
        <time>2022-09-09T11:19:57Z</time>
      </trkpt>
      <trkpt lat="48.63014" lon="-2.83354">
        <ele>56.6</ele>
        <time>2022-09-09T11:20:01Z</time>
      </trkpt>
      <trkpt lat="48.63011" lon="-2.83371">
        <ele>56.6</ele>
        <time>2022-09-09T11:20:05Z</time>
      </trkpt>
      <trkpt lat="48.63008" lon="-2.83386">
        <ele>56.7</ele>
        <time>2022-09-09T11:20:09Z</time>
      </trkpt>
      <trkpt lat="48.63006" lon="-2.83402">
        <ele>56.9</ele>
        <time>2022-09-09T11:20:13Z</time>
      </trkpt>
      <trkpt lat="48.63005" lon="-2.83419">
        <ele>56.9</ele>
        <time>2022-09-09T11:20:17Z</time>
      </trkpt>
      <trkpt lat="48.63004" lon="-2.83437">
        <ele>56.3</ele>
        <time>2022-09-09T11:20:21Z</time>
      </trkpt>
      <trkpt lat="48.63004" lon="-2.83452">
        <ele>56.2</ele>
        <time>2022-09-09T11:21:07Z</time>
      </trkpt>
      <trkpt lat="48.62994" lon="-2.83455">
        <ele>56.7</ele>
        <time>2022-09-09T11:21:11Z</time>
      </trkpt>
      <trkpt lat="48.62983" lon="-2.83457">
        <ele>57.4</ele>
        <time>2022-09-09T11:21:15Z</time>
      </trkpt>
      <trkpt lat="48.62973" lon="-2.83455">
        <ele>58</ele>
        <time>2022-09-09T11:21:19Z</time>
      </trkpt>
      <trkpt lat="48.62963" lon="-2.83457">
        <ele>58.6</ele>
        <time>2022-09-09T11:21:23Z</time>
      </trkpt>
      <trkpt lat="48.62953" lon="-2.83456">
        <ele>59.2</ele>
        <time>2022-09-09T11:21:27Z</time>
      </trkpt>
      <trkpt lat="48.62944" lon="-2.83456">
        <ele>59.8</ele>
        <time>2022-09-09T11:21:31Z</time>
      </trkpt>
      <trkpt lat="48.62935" lon="-2.83454">
        <ele>60.3</ele>
        <time>2022-09-09T11:21:35Z</time>
      </trkpt>
      <trkpt lat="48.62926" lon="-2.83456">
        <ele>60.9</ele>
        <time>2022-09-09T11:21:39Z</time>
      </trkpt>
      <trkpt lat="48.62916" lon="-2.83456">
        <ele>61.4</ele>
        <time>2022-09-09T11:21:43Z</time>
      </trkpt>
      <trkpt lat="48.62906" lon="-2.83456">
        <ele>61.8</ele>
        <time>2022-09-09T11:21:47Z</time>
      </trkpt>
      <trkpt lat="48.62896" lon="-2.83456">
        <ele>62.2</ele>
        <time>2022-09-09T11:21:51Z</time>
      </trkpt>
      <trkpt lat="48.62885" lon="-2.83456">
        <ele>62.6</ele>
        <time>2022-09-09T11:21:55Z</time>
      </trkpt>
      <trkpt lat="48.62876" lon="-2.83456">
        <ele>63.1</ele>
        <time>2022-09-09T11:21:59Z</time>
      </trkpt>
      <trkpt lat="48.62866" lon="-2.83454">
        <ele>63.5</ele>
        <time>2022-09-09T11:22:03Z</time>
      </trkpt>
      <trkpt lat="48.62856" lon="-2.83453">
        <ele>64</ele>
        <time>2022-09-09T11:22:07Z</time>
      </trkpt>
      <trkpt lat="48.62847" lon="-2.83456">
        <ele>64.7</ele>
        <time>2022-09-09T11:22:11Z</time>
      </trkpt>
      <trkpt lat="48.62838" lon="-2.83462">
        <ele>65.2</ele>
        <time>2022-09-09T11:22:16Z</time>
      </trkpt>
      <trkpt lat="48.62829" lon="-2.83467">
        <ele>65.3</ele>
        <time>2022-09-09T11:22:21Z</time>
      </trkpt>
      <trkpt lat="48.62819" lon="-2.83473">
        <ele>65.5</ele>
        <time>2022-09-09T11:22:26Z</time>
      </trkpt>
      <trkpt lat="48.62808" lon="-2.83478">
        <ele>66.3</ele>
        <time>2022-09-09T11:22:31Z</time>
      </trkpt>
      <trkpt lat="48.62799" lon="-2.83485">
        <ele>67.2</ele>
        <time>2022-09-09T11:22:36Z</time>
      </trkpt>
      <trkpt lat="48.62788" lon="-2.83489">
        <ele>67.7</ele>
        <time>2022-09-09T11:22:41Z</time>
      </trkpt>
      <trkpt lat="48.62778" lon="-2.83493">
        <ele>68</ele>
        <time>2022-09-09T11:22:46Z</time>
      </trkpt>
      <trkpt lat="48.62767" lon="-2.83495">
        <ele>68.4</ele>
        <time>2022-09-09T11:22:51Z</time>
      </trkpt>
      <trkpt lat="48.62758" lon="-2.83496">
        <ele>68.7</ele>
        <time>2022-09-09T11:22:55Z</time>
      </trkpt>
      <trkpt lat="48.62749" lon="-2.835">
        <ele>69</ele>
        <time>2022-09-09T11:22:59Z</time>
      </trkpt>
      <trkpt lat="48.62739" lon="-2.83501">
        <ele>69.8</ele>
        <time>2022-09-09T11:23:04Z</time>
      </trkpt>
      <trkpt lat="48.62729" lon="-2.83499">
        <ele>70.5</ele>
        <time>2022-09-09T11:23:08Z</time>
      </trkpt>
      <trkpt lat="48.62719" lon="-2.835">
        <ele>71</ele>
        <time>2022-09-09T11:23:13Z</time>
      </trkpt>
      <trkpt lat="48.6271" lon="-2.83501">
        <ele>71.1</ele>
        <time>2022-09-09T11:23:17Z</time>
      </trkpt>
      <trkpt lat="48.62699" lon="-2.83502">
        <ele>71.1</ele>
        <time>2022-09-09T11:23:21Z</time>
      </trkpt>
      <trkpt lat="48.62687" lon="-2.83501">
        <ele>71.3</ele>
        <time>2022-09-09T11:23:25Z</time>
      </trkpt>
      <trkpt lat="48.62676" lon="-2.83499">
        <ele>71.7</ele>
        <time>2022-09-09T11:23:29Z</time>
      </trkpt>
      <trkpt lat="48.62666" lon="-2.83495">
        <ele>72</ele>
        <time>2022-09-09T11:23:33Z</time>
      </trkpt>
      <trkpt lat="48.62657" lon="-2.83492">
        <ele>71.9</ele>
        <time>2022-09-09T11:23:36Z</time>
      </trkpt>
      <trkpt lat="48.62647" lon="-2.83486">
        <ele>71.6</ele>
        <time>2022-09-09T11:23:39Z</time>
      </trkpt>
      <trkpt lat="48.62636" lon="-2.83481">
        <ele>71.4</ele>
        <time>2022-09-09T11:23:42Z</time>
      </trkpt>
      <trkpt lat="48.62625" lon="-2.83475">
        <ele>71.6</ele>
        <time>2022-09-09T11:23:45Z</time>
      </trkpt>
      <trkpt lat="48.62614" lon="-2.83469">
        <ele>71.9</ele>
        <time>2022-09-09T11:23:48Z</time>
      </trkpt>
      <trkpt lat="48.62603" lon="-2.83463">
        <ele>71.9</ele>
        <time>2022-09-09T11:23:51Z</time>
      </trkpt>
      <trkpt lat="48.62591" lon="-2.83458">
        <ele>71.6</ele>
        <time>2022-09-09T11:23:54Z</time>
      </trkpt>
      <trkpt lat="48.6258" lon="-2.83451">
        <ele>71.1</ele>
        <time>2022-09-09T11:23:57Z</time>
      </trkpt>
      <trkpt lat="48.62567" lon="-2.83444">
        <ele>70.4</ele>
        <time>2022-09-09T11:24:00Z</time>
      </trkpt>
      <trkpt lat="48.62555" lon="-2.83438">
        <ele>70</ele>
        <time>2022-09-09T11:24:03Z</time>
      </trkpt>
      <trkpt lat="48.62544" lon="-2.83431">
        <ele>70</ele>
        <time>2022-09-09T11:24:06Z</time>
      </trkpt>
      <trkpt lat="48.62533" lon="-2.83423">
        <ele>70</ele>
        <time>2022-09-09T11:24:09Z</time>
      </trkpt>
      <trkpt lat="48.62521" lon="-2.83415">
        <ele>70</ele>
        <time>2022-09-09T11:24:12Z</time>
      </trkpt>
      <trkpt lat="48.6251" lon="-2.83407">
        <ele>70.1</ele>
        <time>2022-09-09T11:24:15Z</time>
      </trkpt>
      <trkpt lat="48.62498" lon="-2.83399">
        <ele>70</ele>
        <time>2022-09-09T11:24:18Z</time>
      </trkpt>
      <trkpt lat="48.62488" lon="-2.83392">
        <ele>70</ele>
        <time>2022-09-09T11:24:21Z</time>
      </trkpt>
      <trkpt lat="48.62478" lon="-2.83381">
        <ele>70.1</ele>
        <time>2022-09-09T11:24:24Z</time>
      </trkpt>
      <trkpt lat="48.62467" lon="-2.83371">
        <ele>70.2</ele>
        <time>2022-09-09T11:24:27Z</time>
      </trkpt>
      <trkpt lat="48.62456" lon="-2.83361">
        <ele>70.6</ele>
        <time>2022-09-09T11:24:30Z</time>
      </trkpt>
      <trkpt lat="48.62445" lon="-2.8335">
        <ele>70.6</ele>
        <time>2022-09-09T11:24:33Z</time>
      </trkpt>
      <trkpt lat="48.62435" lon="-2.83341">
        <ele>70.5</ele>
        <time>2022-09-09T11:24:36Z</time>
      </trkpt>
      <trkpt lat="48.62424" lon="-2.83333">
        <ele>70.7</ele>
        <time>2022-09-09T11:24:39Z</time>
      </trkpt>
      <trkpt lat="48.62412" lon="-2.83325">
        <ele>70.7</ele>
        <time>2022-09-09T11:24:42Z</time>
      </trkpt>
      <trkpt lat="48.62401" lon="-2.83316">
        <ele>70.4</ele>
        <time>2022-09-09T11:24:45Z</time>
      </trkpt>
      <trkpt lat="48.6239" lon="-2.83308">
        <ele>70.1</ele>
        <time>2022-09-09T11:24:48Z</time>
      </trkpt>
      <trkpt lat="48.62378" lon="-2.83303">
        <ele>70.5</ele>
        <time>2022-09-09T11:24:51Z</time>
      </trkpt>
      <trkpt lat="48.62366" lon="-2.83296">
        <ele>70.9</ele>
        <time>2022-09-09T11:24:54Z</time>
      </trkpt>
      <trkpt lat="48.62356" lon="-2.83289">
        <ele>71.2</ele>
        <time>2022-09-09T11:24:57Z</time>
      </trkpt>
      <trkpt lat="48.62345" lon="-2.83282">
        <ele>71.6</ele>
        <time>2022-09-09T11:25:00Z</time>
      </trkpt>
      <trkpt lat="48.62334" lon="-2.8328">
        <ele>72</ele>
        <time>2022-09-09T11:25:03Z</time>
      </trkpt>
      <trkpt lat="48.62324" lon="-2.83286">
        <ele>72.2</ele>
        <time>2022-09-09T11:25:06Z</time>
      </trkpt>
      <trkpt lat="48.62315" lon="-2.83293">
        <ele>72.3</ele>
        <time>2022-09-09T11:25:09Z</time>
      </trkpt>
      <trkpt lat="48.62307" lon="-2.83301">
        <ele>72.2</ele>
        <time>2022-09-09T11:25:12Z</time>
      </trkpt>
      <trkpt lat="48.62298" lon="-2.83309">
        <ele>72.2</ele>
        <time>2022-09-09T11:25:15Z</time>
      </trkpt>
      <trkpt lat="48.62289" lon="-2.83318">
        <ele>72.3</ele>
        <time>2022-09-09T11:25:18Z</time>
      </trkpt>
      <trkpt lat="48.6228" lon="-2.83325">
        <ele>72.3</ele>
        <time>2022-09-09T11:25:21Z</time>
      </trkpt>
      <trkpt lat="48.62271" lon="-2.83334">
        <ele>72</ele>
        <time>2022-09-09T11:25:24Z</time>
      </trkpt>
      <trkpt lat="48.62263" lon="-2.83344">
        <ele>72</ele>
        <time>2022-09-09T11:25:27Z</time>
      </trkpt>
      <trkpt lat="48.62254" lon="-2.83354">
        <ele>72</ele>
        <time>2022-09-09T11:25:30Z</time>
      </trkpt>
      <trkpt lat="48.62245" lon="-2.83364">
        <ele>72</ele>
        <time>2022-09-09T11:25:33Z</time>
      </trkpt>
      <trkpt lat="48.62235" lon="-2.83373">
        <ele>72</ele>
        <time>2022-09-09T11:25:36Z</time>
      </trkpt>
      <trkpt lat="48.62225" lon="-2.83375">
        <ele>72</ele>
        <time>2022-09-09T11:25:39Z</time>
      </trkpt>
      <trkpt lat="48.62214" lon="-2.83372">
        <ele>72</ele>
        <time>2022-09-09T11:25:42Z</time>
      </trkpt>
      <trkpt lat="48.62204" lon="-2.8336">
        <ele>72</ele>
        <time>2022-09-09T11:25:45Z</time>
      </trkpt>
      <trkpt lat="48.62195" lon="-2.83348">
        <ele>72</ele>
        <time>2022-09-09T11:25:48Z</time>
      </trkpt>
      <trkpt lat="48.62187" lon="-2.83337">
        <ele>72</ele>
        <time>2022-09-09T11:25:51Z</time>
      </trkpt>
      <trkpt lat="48.62177" lon="-2.83331">
        <ele>72</ele>
        <time>2022-09-09T11:25:54Z</time>
      </trkpt>
      <trkpt lat="48.62166" lon="-2.83326">
        <ele>72</ele>
        <time>2022-09-09T11:25:57Z</time>
      </trkpt>
      <trkpt lat="48.62156" lon="-2.8333">
        <ele>72</ele>
        <time>2022-09-09T11:26:00Z</time>
      </trkpt>
      <trkpt lat="48.62145" lon="-2.83335">
        <ele>72</ele>
        <time>2022-09-09T11:26:03Z</time>
      </trkpt>
      <trkpt lat="48.62134" lon="-2.83339">
        <ele>72.1</ele>
        <time>2022-09-09T11:26:06Z</time>
      </trkpt>
      <trkpt lat="48.62123" lon="-2.83342">
        <ele>72.4</ele>
        <time>2022-09-09T11:26:09Z</time>
      </trkpt>
      <trkpt lat="48.62111" lon="-2.83342">
        <ele>72.7</ele>
        <time>2022-09-09T11:26:12Z</time>
      </trkpt>
      <trkpt lat="48.621" lon="-2.83342">
        <ele>72.7</ele>
        <time>2022-09-09T11:26:15Z</time>
      </trkpt>
      <trkpt lat="48.62089" lon="-2.8334">
        <ele>72.8</ele>
        <time>2022-09-09T11:26:18Z</time>
      </trkpt>
      <trkpt lat="48.62079" lon="-2.83336">
        <ele>73.1</ele>
        <time>2022-09-09T11:26:21Z</time>
      </trkpt>
      <trkpt lat="48.6207" lon="-2.83334">
        <ele>73.5</ele>
        <time>2022-09-09T11:26:24Z</time>
      </trkpt>
      <trkpt lat="48.6206" lon="-2.83333">
        <ele>73.8</ele>
        <time>2022-09-09T11:26:27Z</time>
      </trkpt>
      <trkpt lat="48.6205" lon="-2.83332">
        <ele>74</ele>
        <time>2022-09-09T11:26:30Z</time>
      </trkpt>
      <trkpt lat="48.62039" lon="-2.8333">
        <ele>73.9</ele>
        <time>2022-09-09T11:26:33Z</time>
      </trkpt>
      <trkpt lat="48.62027" lon="-2.83329">
        <ele>73.8</ele>
        <time>2022-09-09T11:26:36Z</time>
      </trkpt>
      <trkpt lat="48.62014" lon="-2.83326">
        <ele>73.4</ele>
        <time>2022-09-09T11:26:39Z</time>
      </trkpt>
      <trkpt lat="48.62005" lon="-2.83323">
        <ele>73.1</ele>
        <time>2022-09-09T11:26:41Z</time>
      </trkpt>
      <trkpt lat="48.61993" lon="-2.83316">
        <ele>73</ele>
        <time>2022-09-09T11:26:44Z</time>
      </trkpt>
      <trkpt lat="48.61981" lon="-2.83314">
        <ele>73</ele>
        <time>2022-09-09T11:26:47Z</time>
      </trkpt>
      <trkpt lat="48.61968" lon="-2.83318">
        <ele>73.1</ele>
        <time>2022-09-09T11:26:50Z</time>
      </trkpt>
      <trkpt lat="48.61957" lon="-2.83315">
        <ele>73.5</ele>
        <time>2022-09-09T11:26:53Z</time>
      </trkpt>
      <trkpt lat="48.61948" lon="-2.83304">
        <ele>73.9</ele>
        <time>2022-09-09T11:26:56Z</time>
      </trkpt>
      <trkpt lat="48.61939" lon="-2.83293">
        <ele>74</ele>
        <time>2022-09-09T11:26:59Z</time>
      </trkpt>
      <trkpt lat="48.6193" lon="-2.8328">
        <ele>74</ele>
        <time>2022-09-09T11:27:02Z</time>
      </trkpt>
      <trkpt lat="48.61921" lon="-2.83271">
        <ele>74</ele>
        <time>2022-09-09T11:27:05Z</time>
      </trkpt>
      <trkpt lat="48.61913" lon="-2.8326">
        <ele>74.1</ele>
        <time>2022-09-09T11:27:08Z</time>
      </trkpt>
      <trkpt lat="48.61913" lon="-2.83242">
        <ele>74.1</ele>
        <time>2022-09-09T11:27:12Z</time>
      </trkpt>
      <trkpt lat="48.61919" lon="-2.83227">
        <ele>73.9</ele>
        <time>2022-09-09T11:27:15Z</time>
      </trkpt>
      <trkpt lat="48.61926" lon="-2.83211">
        <ele>73.6</ele>
        <time>2022-09-09T11:27:18Z</time>
      </trkpt>
      <trkpt lat="48.61934" lon="-2.83193">
        <ele>73.4</ele>
        <time>2022-09-09T11:27:21Z</time>
      </trkpt>
      <trkpt lat="48.61939" lon="-2.83182">
        <ele>73.2</ele>
        <time>2022-09-09T11:27:23Z</time>
      </trkpt>
      <trkpt lat="48.61945" lon="-2.8317">
        <ele>73</ele>
        <time>2022-09-09T11:27:25Z</time>
      </trkpt>
      <trkpt lat="48.6195" lon="-2.83158">
        <ele>73</ele>
        <time>2022-09-09T11:27:27Z</time>
      </trkpt>
      <trkpt lat="48.61955" lon="-2.83146">
        <ele>73</ele>
        <time>2022-09-09T11:27:29Z</time>
      </trkpt>
      <trkpt lat="48.61961" lon="-2.83134">
        <ele>73</ele>
        <time>2022-09-09T11:27:31Z</time>
      </trkpt>
      <trkpt lat="48.61966" lon="-2.83122">
        <ele>73</ele>
        <time>2022-09-09T11:27:33Z</time>
      </trkpt>
      <trkpt lat="48.61972" lon="-2.83105">
        <ele>73</ele>
        <time>2022-09-09T11:27:36Z</time>
      </trkpt>
      <trkpt lat="48.61972" lon="-2.83085">
        <ele>73</ele>
        <time>2022-09-09T11:27:39Z</time>
      </trkpt>
      <trkpt lat="48.61969" lon="-2.83071">
        <ele>73</ele>
        <time>2022-09-09T11:27:41Z</time>
      </trkpt>
      <trkpt lat="48.61967" lon="-2.83058">
        <ele>73</ele>
        <time>2022-09-09T11:27:43Z</time>
      </trkpt>
      <trkpt lat="48.61962" lon="-2.83039">
        <ele>73</ele>
        <time>2022-09-09T11:27:46Z</time>
      </trkpt>
      <trkpt lat="48.61957" lon="-2.83023">
        <ele>72.9</ele>
        <time>2022-09-09T11:27:49Z</time>
      </trkpt>
      <trkpt lat="48.61953" lon="-2.83004">
        <ele>72.4</ele>
        <time>2022-09-09T11:27:52Z</time>
      </trkpt>
      <trkpt lat="48.61948" lon="-2.82991">
        <ele>72.1</ele>
        <time>2022-09-09T11:27:54Z</time>
      </trkpt>
      <trkpt lat="48.61942" lon="-2.82979">
        <ele>72.1</ele>
        <time>2022-09-09T11:27:56Z</time>
      </trkpt>
      <trkpt lat="48.61936" lon="-2.82967">
        <ele>72.2</ele>
        <time>2022-09-09T11:27:58Z</time>
      </trkpt>
      <trkpt lat="48.61931" lon="-2.82955">
        <ele>72.2</ele>
        <time>2022-09-09T11:28:00Z</time>
      </trkpt>
      <trkpt lat="48.61927" lon="-2.82943">
        <ele>72</ele>
        <time>2022-09-09T11:28:02Z</time>
      </trkpt>
      <trkpt lat="48.6192" lon="-2.82926">
        <ele>72</ele>
        <time>2022-09-09T11:28:05Z</time>
      </trkpt>
      <trkpt lat="48.61915" lon="-2.82916">
        <ele>72</ele>
        <time>2022-09-09T11:28:07Z</time>
      </trkpt>
      <trkpt lat="48.61904" lon="-2.82902">
        <ele>71.8</ele>
        <time>2022-09-09T11:28:10Z</time>
      </trkpt>
      <trkpt lat="48.61895" lon="-2.82895">
        <ele>71.4</ele>
        <time>2022-09-09T11:28:12Z</time>
      </trkpt>
      <trkpt lat="48.61887" lon="-2.82887">
        <ele>71.1</ele>
        <time>2022-09-09T11:28:14Z</time>
      </trkpt>
      <trkpt lat="48.61878" lon="-2.82884">
        <ele>71.7</ele>
        <time>2022-09-09T11:28:16Z</time>
      </trkpt>
      <trkpt lat="48.61865" lon="-2.82878">
        <ele>72.4</ele>
        <time>2022-09-09T11:28:19Z</time>
      </trkpt>
      <trkpt lat="48.61853" lon="-2.82876">
        <ele>72.8</ele>
        <time>2022-09-09T11:28:22Z</time>
      </trkpt>
      <trkpt lat="48.61841" lon="-2.82874">
        <ele>73.2</ele>
        <time>2022-09-09T11:28:25Z</time>
      </trkpt>
      <trkpt lat="48.61831" lon="-2.8287">
        <ele>73.4</ele>
        <time>2022-09-09T11:28:28Z</time>
      </trkpt>
      <trkpt lat="48.61821" lon="-2.82867">
        <ele>73.6</ele>
        <time>2022-09-09T11:28:31Z</time>
      </trkpt>
      <trkpt lat="48.61811" lon="-2.82862">
        <ele>73.9</ele>
        <time>2022-09-09T11:28:34Z</time>
      </trkpt>
      <trkpt lat="48.61802" lon="-2.82857">
        <ele>74.1</ele>
        <time>2022-09-09T11:28:37Z</time>
      </trkpt>
      <trkpt lat="48.61793" lon="-2.8285">
        <ele>74.5</ele>
        <time>2022-09-09T11:28:40Z</time>
      </trkpt>
      <trkpt lat="48.61782" lon="-2.82847">
        <ele>74.8</ele>
        <time>2022-09-09T11:28:43Z</time>
      </trkpt>
      <trkpt lat="48.61773" lon="-2.82842">
        <ele>75.2</ele>
        <time>2022-09-09T11:28:46Z</time>
      </trkpt>
      <trkpt lat="48.61763" lon="-2.82837">
        <ele>75.5</ele>
        <time>2022-09-09T11:28:49Z</time>
      </trkpt>
      <trkpt lat="48.61753" lon="-2.82832">
        <ele>75.9</ele>
        <time>2022-09-09T11:28:52Z</time>
      </trkpt>
      <trkpt lat="48.61744" lon="-2.82828">
        <ele>76.2</ele>
        <time>2022-09-09T11:28:55Z</time>
      </trkpt>
      <trkpt lat="48.61736" lon="-2.82823">
        <ele>76.5</ele>
        <time>2022-09-09T11:28:58Z</time>
      </trkpt>
      <trkpt lat="48.61727" lon="-2.82817">
        <ele>76.8</ele>
        <time>2022-09-09T11:29:01Z</time>
      </trkpt>
      <trkpt lat="48.61718" lon="-2.82811">
        <ele>77.1</ele>
        <time>2022-09-09T11:29:04Z</time>
      </trkpt>
      <trkpt lat="48.61709" lon="-2.82805">
        <ele>77</ele>
        <time>2022-09-09T11:29:07Z</time>
      </trkpt>
      <trkpt lat="48.61701" lon="-2.82799">
        <ele>77</ele>
        <time>2022-09-09T11:29:10Z</time>
      </trkpt>
      <trkpt lat="48.61691" lon="-2.82794">
        <ele>77.1</ele>
        <time>2022-09-09T11:29:13Z</time>
      </trkpt>
      <trkpt lat="48.61682" lon="-2.82789">
        <ele>77.5</ele>
        <time>2022-09-09T11:29:16Z</time>
      </trkpt>
      <trkpt lat="48.61671" lon="-2.82784">
        <ele>77.8</ele>
        <time>2022-09-09T11:29:19Z</time>
      </trkpt>
      <trkpt lat="48.61661" lon="-2.82779">
        <ele>77.8</ele>
        <time>2022-09-09T11:29:22Z</time>
      </trkpt>
      <trkpt lat="48.6165" lon="-2.82776">
        <ele>77.4</ele>
        <time>2022-09-09T11:29:25Z</time>
      </trkpt>
      <trkpt lat="48.61638" lon="-2.82773">
        <ele>77</ele>
        <time>2022-09-09T11:29:28Z</time>
      </trkpt>
      <trkpt lat="48.61624" lon="-2.82768">
        <ele>76.5</ele>
        <time>2022-09-09T11:29:31Z</time>
      </trkpt>
      <trkpt lat="48.61616" lon="-2.82762">
        <ele>76.2</ele>
        <time>2022-09-09T11:29:33Z</time>
      </trkpt>
      <trkpt lat="48.61605" lon="-2.82755">
        <ele>76</ele>
        <time>2022-09-09T11:29:36Z</time>
      </trkpt>
      <trkpt lat="48.61592" lon="-2.82747">
        <ele>76</ele>
        <time>2022-09-09T11:29:39Z</time>
      </trkpt>
      <trkpt lat="48.61581" lon="-2.82739">
        <ele>75.9</ele>
        <time>2022-09-09T11:29:42Z</time>
      </trkpt>
      <trkpt lat="48.6157" lon="-2.82731">
        <ele>75.8</ele>
        <time>2022-09-09T11:29:45Z</time>
      </trkpt>
      <trkpt lat="48.6156" lon="-2.82722">
        <ele>76</ele>
        <time>2022-09-09T11:29:48Z</time>
      </trkpt>
      <trkpt lat="48.6155" lon="-2.82715">
        <ele>75.9</ele>
        <time>2022-09-09T11:29:51Z</time>
      </trkpt>
      <trkpt lat="48.6154" lon="-2.82707">
        <ele>75.8</ele>
        <time>2022-09-09T11:29:54Z</time>
      </trkpt>
      <trkpt lat="48.61531" lon="-2.827">
        <ele>75.8</ele>
        <time>2022-09-09T11:29:57Z</time>
      </trkpt>
      <trkpt lat="48.61521" lon="-2.82692">
        <ele>76</ele>
        <time>2022-09-09T11:30:00Z</time>
      </trkpt>
      <trkpt lat="48.6151" lon="-2.82686">
        <ele>76</ele>
        <time>2022-09-09T11:30:04Z</time>
      </trkpt>
      <trkpt lat="48.61498" lon="-2.82695">
        <ele>75.9</ele>
        <time>2022-09-09T11:30:07Z</time>
      </trkpt>
      <trkpt lat="48.61488" lon="-2.82708">
        <ele>75.3</ele>
        <time>2022-09-09T11:30:10Z</time>
      </trkpt>
      <trkpt lat="48.61477" lon="-2.8272">
        <ele>75</ele>
        <time>2022-09-09T11:30:13Z</time>
      </trkpt>
      <trkpt lat="48.61469" lon="-2.82728">
        <ele>74.8</ele>
        <time>2022-09-09T11:30:15Z</time>
      </trkpt>
      <trkpt lat="48.6146" lon="-2.82736">
        <ele>74.7</ele>
        <time>2022-09-09T11:30:17Z</time>
      </trkpt>
      <trkpt lat="48.61453" lon="-2.82745">
        <ele>74.7</ele>
        <time>2022-09-09T11:30:19Z</time>
      </trkpt>
      <trkpt lat="48.61446" lon="-2.82754">
        <ele>74.8</ele>
        <time>2022-09-09T11:30:21Z</time>
      </trkpt>
      <trkpt lat="48.61439" lon="-2.82764">
        <ele>74.6</ele>
        <time>2022-09-09T11:30:23Z</time>
      </trkpt>
      <trkpt lat="48.61428" lon="-2.82775">
        <ele>74.6</ele>
        <time>2022-09-09T11:30:26Z</time>
      </trkpt>
      <trkpt lat="48.6142" lon="-2.82787">
        <ele>74.6</ele>
        <time>2022-09-09T11:30:29Z</time>
      </trkpt>
      <trkpt lat="48.61411" lon="-2.82797">
        <ele>74.4</ele>
        <time>2022-09-09T11:30:32Z</time>
      </trkpt>
      <trkpt lat="48.61403" lon="-2.82808">
        <ele>74.5</ele>
        <time>2022-09-09T11:30:35Z</time>
      </trkpt>
      <trkpt lat="48.61394" lon="-2.82819">
        <ele>74.8</ele>
        <time>2022-09-09T11:30:38Z</time>
      </trkpt>
      <trkpt lat="48.61386" lon="-2.82826">
        <ele>75</ele>
        <time>2022-09-09T11:30:57Z</time>
      </trkpt>
      <trkpt lat="48.61378" lon="-2.82817">
        <ele>75</ele>
        <time>2022-09-09T11:31:02Z</time>
      </trkpt>
      <trkpt lat="48.61385" lon="-2.82805">
        <ele>75</ele>
        <time>2022-09-09T11:31:05Z</time>
      </trkpt>
      <trkpt lat="48.61393" lon="-2.8279">
        <ele>74.5</ele>
        <time>2022-09-09T11:31:08Z</time>
      </trkpt>
      <trkpt lat="48.61397" lon="-2.82776">
        <ele>74.3</ele>
        <time>2022-09-09T11:31:10Z</time>
      </trkpt>
      <trkpt lat="48.61397" lon="-2.82761">
        <ele>74.3</ele>
        <time>2022-09-09T11:31:12Z</time>
      </trkpt>
      <trkpt lat="48.61396" lon="-2.82746">
        <ele>74.3</ele>
        <time>2022-09-09T11:31:14Z</time>
      </trkpt>
      <trkpt lat="48.61395" lon="-2.82732">
        <ele>74.4</ele>
        <time>2022-09-09T11:31:16Z</time>
      </trkpt>
      <trkpt lat="48.61393" lon="-2.82712">
        <ele>74.3</ele>
        <time>2022-09-09T11:31:19Z</time>
      </trkpt>
      <trkpt lat="48.61392" lon="-2.82692">
        <ele>74.2</ele>
        <time>2022-09-09T11:31:22Z</time>
      </trkpt>
      <trkpt lat="48.61392" lon="-2.82678">
        <ele>74.1</ele>
        <time>2022-09-09T11:31:24Z</time>
      </trkpt>
      <trkpt lat="48.61391" lon="-2.82663">
        <ele>74</ele>
        <time>2022-09-09T11:31:26Z</time>
      </trkpt>
      <trkpt lat="48.6139" lon="-2.82649">
        <ele>74</ele>
        <time>2022-09-09T11:31:28Z</time>
      </trkpt>
      <trkpt lat="48.6139" lon="-2.82633">
        <ele>74</ele>
        <time>2022-09-09T11:31:30Z</time>
      </trkpt>
      <trkpt lat="48.61389" lon="-2.82619">
        <ele>74</ele>
        <time>2022-09-09T11:31:32Z</time>
      </trkpt>
      <trkpt lat="48.61388" lon="-2.82606">
        <ele>74</ele>
        <time>2022-09-09T11:31:34Z</time>
      </trkpt>
      <trkpt lat="48.61386" lon="-2.82589">
        <ele>74</ele>
        <time>2022-09-09T11:31:37Z</time>
      </trkpt>
      <trkpt lat="48.61386" lon="-2.82572">
        <ele>74</ele>
        <time>2022-09-09T11:31:40Z</time>
      </trkpt>
      <trkpt lat="48.61385" lon="-2.82556">
        <ele>74</ele>
        <time>2022-09-09T11:31:43Z</time>
      </trkpt>
      <trkpt lat="48.61376" lon="-2.8255">
        <ele>74</ele>
        <time>2022-09-09T11:31:46Z</time>
      </trkpt>
      <trkpt lat="48.61365" lon="-2.82548">
        <ele>74</ele>
        <time>2022-09-09T11:31:49Z</time>
      </trkpt>
      <trkpt lat="48.61354" lon="-2.82545">
        <ele>74</ele>
        <time>2022-09-09T11:31:52Z</time>
      </trkpt>
      <trkpt lat="48.61344" lon="-2.82542">
        <ele>74</ele>
        <time>2022-09-09T11:31:55Z</time>
      </trkpt>
      <trkpt lat="48.61332" lon="-2.8254">
        <ele>74</ele>
        <time>2022-09-09T11:31:58Z</time>
      </trkpt>
      <trkpt lat="48.61319" lon="-2.82538">
        <ele>74</ele>
        <time>2022-09-09T11:32:01Z</time>
      </trkpt>
      <trkpt lat="48.6131" lon="-2.82536">
        <ele>74</ele>
        <time>2022-09-09T11:32:03Z</time>
      </trkpt>
      <trkpt lat="48.61301" lon="-2.82534">
        <ele>74</ele>
        <time>2022-09-09T11:32:05Z</time>
      </trkpt>
      <trkpt lat="48.61291" lon="-2.82531">
        <ele>74</ele>
        <time>2022-09-09T11:32:07Z</time>
      </trkpt>
      <trkpt lat="48.61281" lon="-2.82528">
        <ele>74</ele>
        <time>2022-09-09T11:32:09Z</time>
      </trkpt>
      <trkpt lat="48.61272" lon="-2.82526">
        <ele>74</ele>
        <time>2022-09-09T11:32:11Z</time>
      </trkpt>
      <trkpt lat="48.61263" lon="-2.82524">
        <ele>74.1</ele>
        <time>2022-09-09T11:32:13Z</time>
      </trkpt>
      <trkpt lat="48.61254" lon="-2.82521">
        <ele>74.2</ele>
        <time>2022-09-09T11:32:15Z</time>
      </trkpt>
      <trkpt lat="48.61244" lon="-2.82519">
        <ele>74.1</ele>
        <time>2022-09-09T11:32:17Z</time>
      </trkpt>
      <trkpt lat="48.61235" lon="-2.82516">
        <ele>73.9</ele>
        <time>2022-09-09T11:32:19Z</time>
      </trkpt>
      <trkpt lat="48.61224" lon="-2.82515">
        <ele>73.5</ele>
        <time>2022-09-09T11:32:21Z</time>
      </trkpt>
      <trkpt lat="48.61214" lon="-2.82514">
        <ele>73.2</ele>
        <time>2022-09-09T11:32:23Z</time>
      </trkpt>
      <trkpt lat="48.61203" lon="-2.82514">
        <ele>72.8</ele>
        <time>2022-09-09T11:32:25Z</time>
      </trkpt>
      <trkpt lat="48.61193" lon="-2.82516">
        <ele>72.6</ele>
        <time>2022-09-09T11:32:27Z</time>
      </trkpt>
      <trkpt lat="48.61183" lon="-2.82516">
        <ele>72.6</ele>
        <time>2022-09-09T11:32:29Z</time>
      </trkpt>
      <trkpt lat="48.61174" lon="-2.82517">
        <ele>72.6</ele>
        <time>2022-09-09T11:32:31Z</time>
      </trkpt>
      <trkpt lat="48.61163" lon="-2.82517">
        <ele>72.7</ele>
        <time>2022-09-09T11:32:33Z</time>
      </trkpt>
      <trkpt lat="48.61154" lon="-2.82517">
        <ele>72.8</ele>
        <time>2022-09-09T11:32:35Z</time>
      </trkpt>
      <trkpt lat="48.61143" lon="-2.82518">
        <ele>72.9</ele>
        <time>2022-09-09T11:32:37Z</time>
      </trkpt>
      <trkpt lat="48.61132" lon="-2.82519">
        <ele>72.7</ele>
        <time>2022-09-09T11:32:40Z</time>
      </trkpt>
      <trkpt lat="48.61122" lon="-2.8252">
        <ele>72.4</ele>
        <time>2022-09-09T11:32:42Z</time>
      </trkpt>
      <trkpt lat="48.61109" lon="-2.82522">
        <ele>71.9</ele>
        <time>2022-09-09T11:32:45Z</time>
      </trkpt>
      <trkpt lat="48.61099" lon="-2.82525">
        <ele>71.6</ele>
        <time>2022-09-09T11:32:48Z</time>
      </trkpt>
      <trkpt lat="48.61098" lon="-2.82541">
        <ele>71.8</ele>
        <time>2022-09-09T11:32:52Z</time>
      </trkpt>
      <trkpt lat="48.61102" lon="-2.82556">
        <ele>72.4</ele>
        <time>2022-09-09T11:32:56Z</time>
      </trkpt>
      <trkpt lat="48.61105" lon="-2.8257">
        <ele>72.7</ele>
        <time>2022-09-09T11:32:59Z</time>
      </trkpt>
      <trkpt lat="48.61109" lon="-2.82587">
        <ele>72.9</ele>
        <time>2022-09-09T11:33:03Z</time>
      </trkpt>
      <trkpt lat="48.61112" lon="-2.82601">
        <ele>73</ele>
        <time>2022-09-09T11:33:06Z</time>
      </trkpt>
      <trkpt lat="48.61115" lon="-2.82616">
        <ele>73.1</ele>
        <time>2022-09-09T11:33:09Z</time>
      </trkpt>
      <trkpt lat="48.61118" lon="-2.82631">
        <ele>73.3</ele>
        <time>2022-09-09T11:33:12Z</time>
      </trkpt>
      <trkpt lat="48.61121" lon="-2.82645">
        <ele>73.4</ele>
        <time>2022-09-09T11:33:15Z</time>
      </trkpt>
      <trkpt lat="48.6112" lon="-2.82661">
        <ele>73.3</ele>
        <time>2022-09-09T11:33:18Z</time>
      </trkpt>
      <trkpt lat="48.61116" lon="-2.82675">
        <ele>73.1</ele>
        <time>2022-09-09T11:33:21Z</time>
      </trkpt>
      <trkpt lat="48.61108" lon="-2.82689">
        <ele>73</ele>
        <time>2022-09-09T11:33:24Z</time>
      </trkpt>
      <trkpt lat="48.61103" lon="-2.82706">
        <ele>73</ele>
        <time>2022-09-09T11:33:27Z</time>
      </trkpt>
      <trkpt lat="48.61097" lon="-2.82723">
        <ele>73</ele>
        <time>2022-09-09T11:33:30Z</time>
      </trkpt>
      <trkpt lat="48.6109" lon="-2.82739">
        <ele>73</ele>
        <time>2022-09-09T11:33:33Z</time>
      </trkpt>
      <trkpt lat="48.61084" lon="-2.82756">
        <ele>73</ele>
        <time>2022-09-09T11:33:36Z</time>
      </trkpt>
      <trkpt lat="48.61077" lon="-2.82773">
        <ele>72.6</ele>
        <time>2022-09-09T11:33:39Z</time>
      </trkpt>
      <trkpt lat="48.6107" lon="-2.82788">
        <ele>72.4</ele>
        <time>2022-09-09T11:33:42Z</time>
      </trkpt>
      <trkpt lat="48.61066" lon="-2.828">
        <ele>72.5</ele>
        <time>2022-09-09T11:33:44Z</time>
      </trkpt>
      <trkpt lat="48.61061" lon="-2.82813">
        <ele>72.4</ele>
        <time>2022-09-09T11:33:46Z</time>
      </trkpt>
      <trkpt lat="48.61055" lon="-2.82825">
        <ele>72</ele>
        <time>2022-09-09T11:33:48Z</time>
      </trkpt>
      <trkpt lat="48.6105" lon="-2.82837">
        <ele>71.8</ele>
        <time>2022-09-09T11:33:50Z</time>
      </trkpt>
      <trkpt lat="48.61045" lon="-2.82849">
        <ele>71.6</ele>
        <time>2022-09-09T11:33:52Z</time>
      </trkpt>
      <trkpt lat="48.6104" lon="-2.82862">
        <ele>71.4</ele>
        <time>2022-09-09T11:33:54Z</time>
      </trkpt>
      <trkpt lat="48.61035" lon="-2.82875">
        <ele>71.5</ele>
        <time>2022-09-09T11:33:56Z</time>
      </trkpt>
      <trkpt lat="48.61031" lon="-2.82888">
        <ele>71.8</ele>
        <time>2022-09-09T11:33:58Z</time>
      </trkpt>
      <trkpt lat="48.61026" lon="-2.82905">
        <ele>71.3</ele>
        <time>2022-09-09T11:34:01Z</time>
      </trkpt>
      <trkpt lat="48.61023" lon="-2.82923">
        <ele>70.5</ele>
        <time>2022-09-09T11:34:04Z</time>
      </trkpt>
      <trkpt lat="48.61022" lon="-2.82937">
        <ele>70</ele>
        <time>2022-09-09T11:34:06Z</time>
      </trkpt>
      <trkpt lat="48.61021" lon="-2.82953">
        <ele>69.8</ele>
        <time>2022-09-09T11:34:08Z</time>
      </trkpt>
      <trkpt lat="48.6102" lon="-2.82968">
        <ele>69.7</ele>
        <time>2022-09-09T11:34:10Z</time>
      </trkpt>
      <trkpt lat="48.61018" lon="-2.82982">
        <ele>69.7</ele>
        <time>2022-09-09T11:34:12Z</time>
      </trkpt>
      <trkpt lat="48.61017" lon="-2.82995">
        <ele>69.6</ele>
        <time>2022-09-09T11:34:14Z</time>
      </trkpt>
      <trkpt lat="48.61015" lon="-2.83012">
        <ele>69.5</ele>
        <time>2022-09-09T11:34:17Z</time>
      </trkpt>
      <trkpt lat="48.61011" lon="-2.83029">
        <ele>69.4</ele>
        <time>2022-09-09T11:34:20Z</time>
      </trkpt>
      <trkpt lat="48.61006" lon="-2.83047">
        <ele>69.4</ele>
        <time>2022-09-09T11:34:23Z</time>
      </trkpt>
      <trkpt lat="48.60998" lon="-2.83064">
        <ele>68.8</ele>
        <time>2022-09-09T11:34:26Z</time>
      </trkpt>
      <trkpt lat="48.60992" lon="-2.83074">
        <ele>68.2</ele>
        <time>2022-09-09T11:34:28Z</time>
      </trkpt>
      <trkpt lat="48.60986" lon="-2.83085">
        <ele>67.4</ele>
        <time>2022-09-09T11:34:30Z</time>
      </trkpt>
      <trkpt lat="48.60978" lon="-2.83097">
        <ele>66.6</ele>
        <time>2022-09-09T11:34:32Z</time>
      </trkpt>
      <trkpt lat="48.6097" lon="-2.83107">
        <ele>65.8</ele>
        <time>2022-09-09T11:34:34Z</time>
      </trkpt>
      <trkpt lat="48.60964" lon="-2.83119">
        <ele>65.4</ele>
        <time>2022-09-09T11:34:42Z</time>
      </trkpt>
      <trkpt lat="48.60953" lon="-2.83118">
        <ele>64.6</ele>
        <time>2022-09-09T11:34:45Z</time>
      </trkpt>
      <trkpt lat="48.60944" lon="-2.83111">
        <ele>64</ele>
        <time>2022-09-09T11:34:47Z</time>
      </trkpt>
      <trkpt lat="48.60934" lon="-2.83104">
        <ele>63.9</ele>
        <time>2022-09-09T11:34:49Z</time>
      </trkpt>
      <trkpt lat="48.60924" lon="-2.83099">
        <ele>63.7</ele>
        <time>2022-09-09T11:34:51Z</time>
      </trkpt>
      <trkpt lat="48.60914" lon="-2.83093">
        <ele>63.4</ele>
        <time>2022-09-09T11:34:53Z</time>
      </trkpt>
      <trkpt lat="48.60903" lon="-2.83088">
        <ele>62.5</ele>
        <time>2022-09-09T11:34:55Z</time>
      </trkpt>
      <trkpt lat="48.60891" lon="-2.83082">
        <ele>61.2</ele>
        <time>2022-09-09T11:34:57Z</time>
      </trkpt>
      <trkpt lat="48.60879" lon="-2.83076">
        <ele>60.6</ele>
        <time>2022-09-09T11:34:59Z</time>
      </trkpt>
      <trkpt lat="48.60867" lon="-2.83071">
        <ele>60.2</ele>
        <time>2022-09-09T11:35:01Z</time>
      </trkpt>
      <trkpt lat="48.60858" lon="-2.83064">
        <ele>59.9</ele>
        <time>2022-09-09T11:35:03Z</time>
      </trkpt>
      <trkpt lat="48.60848" lon="-2.8306">
        <ele>59.5</ele>
        <time>2022-09-09T11:35:05Z</time>
      </trkpt>
      <trkpt lat="48.60837" lon="-2.83059">
        <ele>59.1</ele>
        <time>2022-09-09T11:35:08Z</time>
      </trkpt>
      <trkpt lat="48.60835" lon="-2.83042">
        <ele>58.6</ele>
        <time>2022-09-09T11:35:11Z</time>
      </trkpt>
      <trkpt lat="48.60826" lon="-2.83029">
        <ele>57.8</ele>
        <time>2022-09-09T11:35:14Z</time>
      </trkpt>
      <trkpt lat="48.60818" lon="-2.8302">
        <ele>57.3</ele>
        <time>2022-09-09T11:35:16Z</time>
      </trkpt>
      <trkpt lat="48.60809" lon="-2.83009">
        <ele>56.5</ele>
        <time>2022-09-09T11:35:18Z</time>
      </trkpt>
      <trkpt lat="48.60799" lon="-2.82997">
        <ele>56.1</ele>
        <time>2022-09-09T11:35:20Z</time>
      </trkpt>
      <trkpt lat="48.60789" lon="-2.82985">
        <ele>55.9</ele>
        <time>2022-09-09T11:35:22Z</time>
      </trkpt>
      <trkpt lat="48.60778" lon="-2.82972">
        <ele>55</ele>
        <time>2022-09-09T11:35:24Z</time>
      </trkpt>
      <trkpt lat="48.60766" lon="-2.82958">
        <ele>54.9</ele>
        <time>2022-09-09T11:35:26Z</time>
      </trkpt>
      <trkpt lat="48.60755" lon="-2.82945">
        <ele>54.3</ele>
        <time>2022-09-09T11:35:28Z</time>
      </trkpt>
      <trkpt lat="48.60744" lon="-2.82931">
        <ele>53.2</ele>
        <time>2022-09-09T11:35:30Z</time>
      </trkpt>
      <trkpt lat="48.60732" lon="-2.82917">
        <ele>51.7</ele>
        <time>2022-09-09T11:35:32Z</time>
      </trkpt>
      <trkpt lat="48.60718" lon="-2.82903">
        <ele>50.4</ele>
        <time>2022-09-09T11:35:34Z</time>
      </trkpt>
      <trkpt lat="48.60704" lon="-2.82891">
        <ele>49.4</ele>
        <time>2022-09-09T11:35:36Z</time>
      </trkpt>
      <trkpt lat="48.60689" lon="-2.82878">
        <ele>48.2</ele>
        <time>2022-09-09T11:35:38Z</time>
      </trkpt>
      <trkpt lat="48.60673" lon="-2.82867">
        <ele>46.6</ele>
        <time>2022-09-09T11:35:40Z</time>
      </trkpt>
      <trkpt lat="48.60657" lon="-2.82856">
        <ele>45.8</ele>
        <time>2022-09-09T11:35:42Z</time>
      </trkpt>
      <trkpt lat="48.60648" lon="-2.82848">
        <ele>45</ele>
        <time>2022-09-09T11:35:43Z</time>
      </trkpt>
      <trkpt lat="48.60634" lon="-2.82837">
        <ele>43.1</ele>
        <time>2022-09-09T11:35:45Z</time>
      </trkpt>
      <trkpt lat="48.60618" lon="-2.82824">
        <ele>42.2</ele>
        <time>2022-09-09T11:35:47Z</time>
      </trkpt>
      <trkpt lat="48.6061" lon="-2.82817">
        <ele>41.4</ele>
        <time>2022-09-09T11:35:48Z</time>
      </trkpt>
      <trkpt lat="48.60598" lon="-2.82806">
        <ele>40.5</ele>
        <time>2022-09-09T11:35:50Z</time>
      </trkpt>
      <trkpt lat="48.60586" lon="-2.82795">
        <ele>39.8</ele>
        <time>2022-09-09T11:35:52Z</time>
      </trkpt>
      <trkpt lat="48.60578" lon="-2.82788">
        <ele>39.4</ele>
        <time>2022-09-09T11:35:54Z</time>
      </trkpt>
      <trkpt lat="48.60568" lon="-2.8278">
        <ele>39.1</ele>
        <time>2022-09-09T11:35:57Z</time>
      </trkpt>
      <trkpt lat="48.60557" lon="-2.8277">
        <ele>38.4</ele>
        <time>2022-09-09T11:36:00Z</time>
      </trkpt>
      <trkpt lat="48.60548" lon="-2.82762">
        <ele>38.1</ele>
        <time>2022-09-09T11:36:02Z</time>
      </trkpt>
      <trkpt lat="48.60539" lon="-2.82754">
        <ele>37.9</ele>
        <time>2022-09-09T11:36:04Z</time>
      </trkpt>
      <trkpt lat="48.60529" lon="-2.82747">
        <ele>37.6</ele>
        <time>2022-09-09T11:36:06Z</time>
      </trkpt>
      <trkpt lat="48.60519" lon="-2.82737">
        <ele>36.7</ele>
        <time>2022-09-09T11:36:08Z</time>
      </trkpt>
      <trkpt lat="48.60509" lon="-2.82725">
        <ele>35.4</ele>
        <time>2022-09-09T11:36:10Z</time>
      </trkpt>
      <trkpt lat="48.60499" lon="-2.8271">
        <ele>34.2</ele>
        <time>2022-09-09T11:36:12Z</time>
      </trkpt>
      <trkpt lat="48.6049" lon="-2.82691">
        <ele>33.8</ele>
        <time>2022-09-09T11:36:14Z</time>
      </trkpt>
      <trkpt lat="48.60483" lon="-2.82674">
        <ele>32.8</ele>
        <time>2022-09-09T11:36:16Z</time>
      </trkpt>
      <trkpt lat="48.60476" lon="-2.82656">
        <ele>30.6</ele>
        <time>2022-09-09T11:36:18Z</time>
      </trkpt>
      <trkpt lat="48.6047" lon="-2.82638">
        <ele>28.1</ele>
        <time>2022-09-09T11:36:20Z</time>
      </trkpt>
      <trkpt lat="48.60464" lon="-2.82625">
        <ele>27.5</ele>
        <time>2022-09-09T11:36:22Z</time>
      </trkpt>
      <trkpt lat="48.60457" lon="-2.82611">
        <ele>26.5</ele>
        <time>2022-09-09T11:36:25Z</time>
      </trkpt>
      <trkpt lat="48.6045" lon="-2.82601">
        <ele>26.3</ele>
        <time>2022-09-09T11:36:28Z</time>
      </trkpt>
      <trkpt lat="48.60443" lon="-2.82593">
        <ele>25.3</ele>
        <time>2022-09-09T11:36:30Z</time>
      </trkpt>
      <trkpt lat="48.60435" lon="-2.82584">
        <ele>24.7</ele>
        <time>2022-09-09T11:36:32Z</time>
      </trkpt>
      <trkpt lat="48.60425" lon="-2.82574">
        <ele>25</ele>
        <time>2022-09-09T11:36:34Z</time>
      </trkpt>
      <trkpt lat="48.60416" lon="-2.82564">
        <ele>24</ele>
        <time>2022-09-09T11:36:36Z</time>
      </trkpt>
      <trkpt lat="48.60405" lon="-2.82554">
        <ele>23.3</ele>
        <time>2022-09-09T11:36:38Z</time>
      </trkpt>
      <trkpt lat="48.60394" lon="-2.82542">
        <ele>23.2</ele>
        <time>2022-09-09T11:36:40Z</time>
      </trkpt>
      <trkpt lat="48.60383" lon="-2.82531">
        <ele>22.3</ele>
        <time>2022-09-09T11:36:42Z</time>
      </trkpt>
      <trkpt lat="48.6037" lon="-2.82524">
        <ele>21.4</ele>
        <time>2022-09-09T11:36:44Z</time>
      </trkpt>
      <trkpt lat="48.60359" lon="-2.82517">
        <ele>20.6</ele>
        <time>2022-09-09T11:36:46Z</time>
      </trkpt>
      <trkpt lat="48.60351" lon="-2.82513">
        <ele>20.3</ele>
        <time>2022-09-09T11:36:48Z</time>
      </trkpt>
      <trkpt lat="48.60341" lon="-2.82509">
        <ele>19.9</ele>
        <time>2022-09-09T11:37:02Z</time>
      </trkpt>
      <trkpt lat="48.60329" lon="-2.82506">
        <ele>19.1</ele>
        <time>2022-09-09T11:37:07Z</time>
      </trkpt>
      <trkpt lat="48.60317" lon="-2.82504">
        <ele>18.1</ele>
        <time>2022-09-09T11:37:10Z</time>
      </trkpt>
      <trkpt lat="48.60306" lon="-2.82504">
        <ele>16.9</ele>
        <time>2022-09-09T11:37:13Z</time>
      </trkpt>
      <trkpt lat="48.60293" lon="-2.82499">
        <ele>16.3</ele>
        <time>2022-09-09T11:37:16Z</time>
      </trkpt>
      <trkpt lat="48.6028" lon="-2.82498">
        <ele>15.6</ele>
        <time>2022-09-09T11:37:18Z</time>
      </trkpt>
      <trkpt lat="48.60266" lon="-2.82494">
        <ele>15</ele>
        <time>2022-09-09T11:37:20Z</time>
      </trkpt>
      <trkpt lat="48.60251" lon="-2.82489">
        <ele>14</ele>
        <time>2022-09-09T11:37:22Z</time>
      </trkpt>
      <trkpt lat="48.60237" lon="-2.82483">
        <ele>12.5</ele>
        <time>2022-09-09T11:37:24Z</time>
      </trkpt>
      <trkpt lat="48.60224" lon="-2.82479">
        <ele>11</ele>
        <time>2022-09-09T11:37:26Z</time>
      </trkpt>
      <trkpt lat="48.60212" lon="-2.82476">
        <ele>10.2</ele>
        <time>2022-09-09T11:37:28Z</time>
      </trkpt>
      <trkpt lat="48.60201" lon="-2.82472">
        <ele>9.5</ele>
        <time>2022-09-09T11:37:30Z</time>
      </trkpt>
      <trkpt lat="48.60188" lon="-2.82469">
        <ele>8.8</ele>
        <time>2022-09-09T11:37:33Z</time>
      </trkpt>
      <trkpt lat="48.60179" lon="-2.82465">
        <ele>8.4</ele>
        <time>2022-09-09T11:37:35Z</time>
      </trkpt>
      <trkpt lat="48.60167" lon="-2.8246">
        <ele>8</ele>
        <time>2022-09-09T11:37:38Z</time>
      </trkpt>
      <trkpt lat="48.60158" lon="-2.82457">
        <ele>7.7</ele>
        <time>2022-09-09T11:37:40Z</time>
      </trkpt>
      <trkpt lat="48.60147" lon="-2.82452">
        <ele>7.3</ele>
        <time>2022-09-09T11:37:43Z</time>
      </trkpt>
      <trkpt lat="48.60137" lon="-2.82452">
        <ele>6.9</ele>
        <time>2022-09-09T11:37:46Z</time>
      </trkpt>
      <trkpt lat="48.6013" lon="-2.82462">
        <ele>6.2</ele>
        <time>2022-09-09T11:37:49Z</time>
      </trkpt>
      <trkpt lat="48.60121" lon="-2.82473">
        <ele>4.5</ele>
        <time>2022-09-09T11:37:52Z</time>
      </trkpt>
      <trkpt lat="48.60117" lon="-2.82489">
        <ele>4.8</ele>
        <time>2022-09-09T11:37:55Z</time>
      </trkpt>
      <trkpt lat="48.60115" lon="-2.82503">
        <ele>5.5</ele>
        <time>2022-09-09T11:37:58Z</time>
      </trkpt>
      <trkpt lat="48.60108" lon="-2.82516">
        <ele>6.2</ele>
        <time>2022-09-09T11:38:03Z</time>
      </trkpt>
      <trkpt lat="48.60108" lon="-2.82532">
        <ele>6.8</ele>
        <time>2022-09-09T11:38:07Z</time>
      </trkpt>
      <trkpt lat="48.601" lon="-2.82537">
        <ele>6.7</ele>
        <time>2022-09-09T11:38:25Z</time>
      </trkpt>
      <trkpt lat="48.60091" lon="-2.8254">
        <ele>6.6</ele>
        <time>2022-09-09T11:38:33Z</time>
      </trkpt>
      <trkpt lat="48.60081" lon="-2.82541">
        <ele>7</ele>
        <time>2022-09-09T11:38:41Z</time>
      </trkpt>
      <trkpt lat="48.60071" lon="-2.82541">
        <ele>7</ele>
        <time>2022-09-09T11:38:48Z</time>
      </trkpt>
      <trkpt lat="48.60062" lon="-2.82539">
        <ele>7</ele>
        <time>2022-09-09T11:38:55Z</time>
      </trkpt>
      <trkpt lat="48.60052" lon="-2.82539">
        <ele>7</ele>
        <time>2022-09-09T11:39:03Z</time>
      </trkpt>
      <trkpt lat="48.60043" lon="-2.82535">
        <ele>7</ele>
        <time>2022-09-09T11:39:42Z</time>
      </trkpt>
      <trkpt lat="48.60034" lon="-2.8253">
        <ele>7</ele>
        <time>2022-09-09T11:39:48Z</time>
      </trkpt>
      <trkpt lat="48.60025" lon="-2.82525">
        <ele>6.8</ele>
        <time>2022-09-09T11:39:52Z</time>
      </trkpt>
      <trkpt lat="48.60015" lon="-2.8252">
        <ele>6.7</ele>
        <time>2022-09-09T11:39:56Z</time>
      </trkpt>
      <trkpt lat="48.60006" lon="-2.82512">
        <ele>6.8</ele>
        <time>2022-09-09T11:39:59Z</time>
      </trkpt>
      <trkpt lat="48.59997" lon="-2.82508">
        <ele>7</ele>
        <time>2022-09-09T11:40:02Z</time>
      </trkpt>
      <trkpt lat="48.59988" lon="-2.82503">
        <ele>7</ele>
        <time>2022-09-09T11:40:05Z</time>
      </trkpt>
      <trkpt lat="48.59978" lon="-2.82505">
        <ele>7</ele>
        <time>2022-09-09T11:40:08Z</time>
      </trkpt>
      <trkpt lat="48.59968" lon="-2.82504">
        <ele>7</ele>
        <time>2022-09-09T11:40:11Z</time>
      </trkpt>
      <trkpt lat="48.59957" lon="-2.825">
        <ele>7</ele>
        <time>2022-09-09T11:40:14Z</time>
      </trkpt>
      <trkpt lat="48.59947" lon="-2.82496">
        <ele>7.2</ele>
        <time>2022-09-09T11:40:17Z</time>
      </trkpt>
      <trkpt lat="48.59938" lon="-2.82491">
        <ele>7.3</ele>
        <time>2022-09-09T11:40:20Z</time>
      </trkpt>
      <trkpt lat="48.59928" lon="-2.82487">
        <ele>7.5</ele>
        <time>2022-09-09T11:40:23Z</time>
      </trkpt>
      <trkpt lat="48.59918" lon="-2.82482">
        <ele>7.7</ele>
        <time>2022-09-09T11:40:27Z</time>
      </trkpt>
      <trkpt lat="48.59909" lon="-2.82477">
        <ele>7.6</ele>
        <time>2022-09-09T11:40:30Z</time>
      </trkpt>
      <trkpt lat="48.599" lon="-2.82473">
        <ele>7.4</ele>
        <time>2022-09-09T11:40:33Z</time>
      </trkpt>
      <trkpt lat="48.59891" lon="-2.82469">
        <ele>7.1</ele>
        <time>2022-09-09T11:40:36Z</time>
      </trkpt>
      <trkpt lat="48.5988" lon="-2.82465">
        <ele>7.3</ele>
        <time>2022-09-09T11:40:39Z</time>
      </trkpt>
      <trkpt lat="48.59869" lon="-2.8246">
        <ele>7.7</ele>
        <time>2022-09-09T11:40:42Z</time>
      </trkpt>
      <trkpt lat="48.59857" lon="-2.82456">
        <ele>7.9</ele>
        <time>2022-09-09T11:40:45Z</time>
      </trkpt>
      <trkpt lat="48.59846" lon="-2.82451">
        <ele>7.9</ele>
        <time>2022-09-09T11:40:48Z</time>
      </trkpt>
      <trkpt lat="48.59834" lon="-2.82446">
        <ele>7.9</ele>
        <time>2022-09-09T11:40:51Z</time>
      </trkpt>
      <trkpt lat="48.59823" lon="-2.82441">
        <ele>7.9</ele>
        <time>2022-09-09T11:40:54Z</time>
      </trkpt>
      <trkpt lat="48.59811" lon="-2.82436">
        <ele>7.7</ele>
        <time>2022-09-09T11:40:57Z</time>
      </trkpt>
      <trkpt lat="48.598" lon="-2.82429">
        <ele>7.6</ele>
        <time>2022-09-09T11:41:00Z</time>
      </trkpt>
      <trkpt lat="48.5979" lon="-2.82422">
        <ele>7.6</ele>
        <time>2022-09-09T11:41:03Z</time>
      </trkpt>
      <trkpt lat="48.59781" lon="-2.82417">
        <ele>7.9</ele>
        <time>2022-09-09T11:41:06Z</time>
      </trkpt>
      <trkpt lat="48.59772" lon="-2.82424">
        <ele>7.9</ele>
        <time>2022-09-09T11:41:10Z</time>
      </trkpt>
      <trkpt lat="48.59762" lon="-2.82424">
        <ele>7.8</ele>
        <time>2022-09-09T11:41:14Z</time>
      </trkpt>
      <trkpt lat="48.59752" lon="-2.8242">
        <ele>7.9</ele>
        <time>2022-09-09T11:41:17Z</time>
      </trkpt>
      <trkpt lat="48.59742" lon="-2.82416">
        <ele>8</ele>
        <time>2022-09-09T11:41:20Z</time>
      </trkpt>
      <trkpt lat="48.59731" lon="-2.82412">
        <ele>8</ele>
        <time>2022-09-09T11:41:23Z</time>
      </trkpt>
      <trkpt lat="48.5972" lon="-2.82408">
        <ele>8</ele>
        <time>2022-09-09T11:41:26Z</time>
      </trkpt>
      <trkpt lat="48.59708" lon="-2.82403">
        <ele>8</ele>
        <time>2022-09-09T11:41:29Z</time>
      </trkpt>
      <trkpt lat="48.59696" lon="-2.824">
        <ele>8</ele>
        <time>2022-09-09T11:41:32Z</time>
      </trkpt>
      <trkpt lat="48.59684" lon="-2.824">
        <ele>8.2</ele>
        <time>2022-09-09T11:41:35Z</time>
      </trkpt>
      <trkpt lat="48.59672" lon="-2.82403">
        <ele>8.4</ele>
        <time>2022-09-09T11:41:38Z</time>
      </trkpt>
      <trkpt lat="48.59661" lon="-2.82409">
        <ele>8.6</ele>
        <time>2022-09-09T11:41:41Z</time>
      </trkpt>
      <trkpt lat="48.59651" lon="-2.82416">
        <ele>9.1</ele>
        <time>2022-09-09T11:41:44Z</time>
      </trkpt>
      <trkpt lat="48.59644" lon="-2.82425">
        <ele>9.5</ele>
        <time>2022-09-09T11:41:47Z</time>
      </trkpt>
      <trkpt lat="48.59636" lon="-2.82433">
        <ele>9.6</ele>
        <time>2022-09-09T11:41:50Z</time>
      </trkpt>
      <trkpt lat="48.59629" lon="-2.82443">
        <ele>9.8</ele>
        <time>2022-09-09T11:41:53Z</time>
      </trkpt>
      <trkpt lat="48.59622" lon="-2.82452">
        <ele>10.3</ele>
        <time>2022-09-09T11:41:56Z</time>
      </trkpt>
      <trkpt lat="48.59614" lon="-2.8246">
        <ele>10.8</ele>
        <time>2022-09-09T11:41:59Z</time>
      </trkpt>
      <trkpt lat="48.59606" lon="-2.82471">
        <ele>11.2</ele>
        <time>2022-09-09T11:42:03Z</time>
      </trkpt>
      <trkpt lat="48.59597" lon="-2.82483">
        <ele>11.5</ele>
        <time>2022-09-09T11:42:07Z</time>
      </trkpt>
      <trkpt lat="48.59587" lon="-2.82493">
        <ele>11.9</ele>
        <time>2022-09-09T11:42:11Z</time>
      </trkpt>
      <trkpt lat="48.59579" lon="-2.82504">
        <ele>12.3</ele>
        <time>2022-09-09T11:42:15Z</time>
      </trkpt>
      <trkpt lat="48.5957" lon="-2.82514">
        <ele>12.7</ele>
        <time>2022-09-09T11:42:19Z</time>
      </trkpt>
      <trkpt lat="48.59561" lon="-2.82525">
        <ele>12.9</ele>
        <time>2022-09-09T11:42:23Z</time>
      </trkpt>
      <trkpt lat="48.59551" lon="-2.82535">
        <ele>14.2</ele>
        <time>2022-09-09T11:42:27Z</time>
      </trkpt>
      <trkpt lat="48.59541" lon="-2.82542">
        <ele>15.8</ele>
        <time>2022-09-09T11:42:31Z</time>
      </trkpt>
      <trkpt lat="48.59531" lon="-2.82548">
        <ele>16.3</ele>
        <time>2022-09-09T11:42:35Z</time>
      </trkpt>
      <trkpt lat="48.59521" lon="-2.82552">
        <ele>16.4</ele>
        <time>2022-09-09T11:42:39Z</time>
      </trkpt>
      <trkpt lat="48.59511" lon="-2.82556">
        <ele>16.2</ele>
        <time>2022-09-09T11:42:43Z</time>
      </trkpt>
      <trkpt lat="48.595" lon="-2.82558">
        <ele>16.9</ele>
        <time>2022-09-09T11:42:47Z</time>
      </trkpt>
      <trkpt lat="48.59491" lon="-2.82562">
        <ele>18.6</ele>
        <time>2022-09-09T11:42:51Z</time>
      </trkpt>
      <trkpt lat="48.5948" lon="-2.82566">
        <ele>20.1</ele>
        <time>2022-09-09T11:42:55Z</time>
      </trkpt>
      <trkpt lat="48.59469" lon="-2.82572">
        <ele>20.1</ele>
        <time>2022-09-09T11:42:59Z</time>
      </trkpt>
      <trkpt lat="48.59459" lon="-2.82574">
        <ele>19.8</ele>
        <time>2022-09-09T11:43:02Z</time>
      </trkpt>
      <trkpt lat="48.59448" lon="-2.82578">
        <ele>19.2</ele>
        <time>2022-09-09T11:43:06Z</time>
      </trkpt>
      <trkpt lat="48.59436" lon="-2.82582">
        <ele>18.9</ele>
        <time>2022-09-09T11:43:10Z</time>
      </trkpt>
      <trkpt lat="48.59426" lon="-2.82586">
        <ele>19.3</ele>
        <time>2022-09-09T11:43:14Z</time>
      </trkpt>
      <trkpt lat="48.59416" lon="-2.82589">
        <ele>19.8</ele>
        <time>2022-09-09T11:43:18Z</time>
      </trkpt>
      <trkpt lat="48.59407" lon="-2.82589">
        <ele>20.4</ele>
        <time>2022-09-09T11:43:22Z</time>
      </trkpt>
      <trkpt lat="48.59407" lon="-2.82575">
        <ele>22.4</ele>
        <time>2022-09-09T11:43:28Z</time>
      </trkpt>
      <trkpt lat="48.59416" lon="-2.82568">
        <ele>23.3</ele>
        <time>2022-09-09T11:43:33Z</time>
      </trkpt>
      <trkpt lat="48.59425" lon="-2.82567">
        <ele>23.2</ele>
        <time>2022-09-09T11:43:37Z</time>
      </trkpt>
      <trkpt lat="48.59435" lon="-2.82565">
        <ele>23</ele>
        <time>2022-09-09T11:43:42Z</time>
      </trkpt>
      <trkpt lat="48.59444" lon="-2.82564">
        <ele>23</ele>
        <time>2022-09-09T11:43:46Z</time>
      </trkpt>
      <trkpt lat="48.59453" lon="-2.82559">
        <ele>23.9</ele>
        <time>2022-09-09T11:43:51Z</time>
      </trkpt>
      <trkpt lat="48.59462" lon="-2.82552">
        <ele>25.1</ele>
        <time>2022-09-09T11:43:56Z</time>
      </trkpt>
      <trkpt lat="48.59471" lon="-2.82544">
        <ele>26.6</ele>
        <time>2022-09-09T11:44:01Z</time>
      </trkpt>
      <trkpt lat="48.59464" lon="-2.82531">
        <ele>29.5</ele>
        <time>2022-09-09T11:44:09Z</time>
      </trkpt>
      <trkpt lat="48.59455" lon="-2.82531">
        <ele>29.9</ele>
        <time>2022-09-09T11:44:15Z</time>
      </trkpt>
      <trkpt lat="48.59445" lon="-2.82529">
        <ele>30.6</ele>
        <time>2022-09-09T11:44:21Z</time>
      </trkpt>
      <trkpt lat="48.59436" lon="-2.82525">
        <ele>32.3</ele>
        <time>2022-09-09T11:44:29Z</time>
      </trkpt>
      <trkpt lat="48.59429" lon="-2.82517">
        <ele>34.4</ele>
        <time>2022-09-09T11:44:34Z</time>
      </trkpt>
      <trkpt lat="48.5942" lon="-2.8251">
        <ele>36.1</ele>
        <time>2022-09-09T11:44:42Z</time>
      </trkpt>
      <trkpt lat="48.59411" lon="-2.82505">
        <ele>36.9</ele>
        <time>2022-09-09T11:44:52Z</time>
      </trkpt>
      <trkpt lat="48.59407" lon="-2.82492">
        <ele>38.8</ele>
        <time>2022-09-09T11:44:59Z</time>
      </trkpt>
      <trkpt lat="48.59399" lon="-2.82486">
        <ele>39.4</ele>
        <time>2022-09-09T11:45:07Z</time>
      </trkpt>
      <trkpt lat="48.59391" lon="-2.82479">
        <ele>40.1</ele>
        <time>2022-09-09T11:45:14Z</time>
      </trkpt>
      <trkpt lat="48.59384" lon="-2.8247">
        <ele>41.1</ele>
        <time>2022-09-09T11:45:21Z</time>
      </trkpt>
      <trkpt lat="48.59377" lon="-2.82459">
        <ele>42.6</ele>
        <time>2022-09-09T11:45:29Z</time>
      </trkpt>
      <trkpt lat="48.59371" lon="-2.82449">
        <ele>43.8</ele>
        <time>2022-09-09T11:45:36Z</time>
      </trkpt>
      <trkpt lat="48.59363" lon="-2.82439">
        <ele>44.8</ele>
        <time>2022-09-09T11:45:43Z</time>
      </trkpt>
      <trkpt lat="48.59357" lon="-2.82429">
        <ele>46.2</ele>
        <time>2022-09-09T11:45:50Z</time>
      </trkpt>
      <trkpt lat="48.5935" lon="-2.8242">
        <ele>47.5</ele>
        <time>2022-09-09T11:45:57Z</time>
      </trkpt>
      <trkpt lat="48.59342" lon="-2.82411">
        <ele>48.6</ele>
        <time>2022-09-09T11:46:04Z</time>
      </trkpt>
      <trkpt lat="48.59334" lon="-2.82403">
        <ele>49.5</ele>
        <time>2022-09-09T11:46:11Z</time>
      </trkpt>
      <trkpt lat="48.59331" lon="-2.8239">
        <ele>51</ele>
        <time>2022-09-09T11:46:19Z</time>
      </trkpt>
      <trkpt lat="48.59333" lon="-2.82376">
        <ele>52.9</ele>
        <time>2022-09-09T11:46:27Z</time>
      </trkpt>
      <trkpt lat="48.5934" lon="-2.82365">
        <ele>54.5</ele>
        <time>2022-09-09T11:46:36Z</time>
      </trkpt>
      <trkpt lat="48.59347" lon="-2.82354">
        <ele>56</ele>
        <time>2022-09-09T11:46:45Z</time>
      </trkpt>
      <trkpt lat="48.59352" lon="-2.82342">
        <ele>57.6</ele>
        <time>2022-09-09T11:46:53Z</time>
      </trkpt>
      <trkpt lat="48.59342" lon="-2.82341">
        <ele>58.2</ele>
        <time>2022-09-09T11:47:01Z</time>
      </trkpt>
      <trkpt lat="48.59332" lon="-2.82338">
        <ele>59.1</ele>
        <time>2022-09-09T11:47:09Z</time>
      </trkpt>
      <trkpt lat="48.59324" lon="-2.8233">
        <ele>60.2</ele>
        <time>2022-09-09T11:47:16Z</time>
      </trkpt>
      <trkpt lat="48.59316" lon="-2.82321">
        <ele>61.2</ele>
        <time>2022-09-09T11:47:24Z</time>
      </trkpt>
      <trkpt lat="48.59307" lon="-2.82315">
        <ele>62.2</ele>
        <time>2022-09-09T11:47:32Z</time>
      </trkpt>
      <trkpt lat="48.59299" lon="-2.82307">
        <ele>63.3</ele>
        <time>2022-09-09T11:47:39Z</time>
      </trkpt>
      <trkpt lat="48.59291" lon="-2.823">
        <ele>63.6</ele>
        <time>2022-09-09T11:47:46Z</time>
      </trkpt>
      <trkpt lat="48.59281" lon="-2.82293">
        <ele>63.9</ele>
        <time>2022-09-09T11:47:55Z</time>
      </trkpt>
      <trkpt lat="48.59274" lon="-2.82287">
        <ele>64.4</ele>
        <time>2022-09-09T11:48:01Z</time>
      </trkpt>
      <trkpt lat="48.59267" lon="-2.82277">
        <ele>65.2</ele>
        <time>2022-09-09T11:48:07Z</time>
      </trkpt>
      <trkpt lat="48.5926" lon="-2.82266">
        <ele>66.1</ele>
        <time>2022-09-09T11:48:13Z</time>
      </trkpt>
      <trkpt lat="48.59253" lon="-2.82254">
        <ele>67.5</ele>
        <time>2022-09-09T11:48:19Z</time>
      </trkpt>
      <trkpt lat="48.59251" lon="-2.8224">
        <ele>68.7</ele>
        <time>2022-09-09T11:48:25Z</time>
      </trkpt>
      <trkpt lat="48.59256" lon="-2.82227">
        <ele>69.7</ele>
        <time>2022-09-09T11:48:33Z</time>
      </trkpt>
      <trkpt lat="48.59262" lon="-2.82215">
        <ele>70.5</ele>
        <time>2022-09-09T11:48:40Z</time>
      </trkpt>
      <trkpt lat="48.59262" lon="-2.822">
        <ele>71.6</ele>
        <time>2022-09-09T11:48:48Z</time>
      </trkpt>
      <trkpt lat="48.59255" lon="-2.82191">
        <ele>72.3</ele>
        <time>2022-09-09T11:48:54Z</time>
      </trkpt>
      <trkpt lat="48.59247" lon="-2.82182">
        <ele>73.1</ele>
        <time>2022-09-09T11:49:01Z</time>
      </trkpt>
      <trkpt lat="48.59241" lon="-2.82172">
        <ele>73.6</ele>
        <time>2022-09-09T11:49:07Z</time>
      </trkpt>
      <trkpt lat="48.59235" lon="-2.82156">
        <ele>73.6</ele>
        <time>2022-09-09T11:49:12Z</time>
      </trkpt>
      <trkpt lat="48.59229" lon="-2.82143">
        <ele>73.4</ele>
        <time>2022-09-09T11:49:16Z</time>
      </trkpt>
      <trkpt lat="48.59222" lon="-2.82131">
        <ele>73.3</ele>
        <time>2022-09-09T11:49:20Z</time>
      </trkpt>
      <trkpt lat="48.59214" lon="-2.82122">
        <ele>73.2</ele>
        <time>2022-09-09T11:49:23Z</time>
      </trkpt>
      <trkpt lat="48.59205" lon="-2.82114">
        <ele>73.2</ele>
        <time>2022-09-09T11:49:26Z</time>
      </trkpt>
      <trkpt lat="48.59197" lon="-2.82106">
        <ele>73.4</ele>
        <time>2022-09-09T11:49:29Z</time>
      </trkpt>
      <trkpt lat="48.59189" lon="-2.821">
        <ele>73.4</ele>
        <time>2022-09-09T11:49:32Z</time>
      </trkpt>
      <trkpt lat="48.5918" lon="-2.82089">
        <ele>73.6</ele>
        <time>2022-09-09T11:49:36Z</time>
      </trkpt>
      <trkpt lat="48.59172" lon="-2.82078">
        <ele>73.7</ele>
        <time>2022-09-09T11:49:40Z</time>
      </trkpt>
      <trkpt lat="48.59164" lon="-2.82068">
        <ele>73.9</ele>
        <time>2022-09-09T11:49:43Z</time>
      </trkpt>
      <trkpt lat="48.59157" lon="-2.82058">
        <ele>74.1</ele>
        <time>2022-09-09T11:49:46Z</time>
      </trkpt>
      <trkpt lat="48.5915" lon="-2.82044">
        <ele>74.4</ele>
        <time>2022-09-09T11:49:50Z</time>
      </trkpt>
      <trkpt lat="48.59144" lon="-2.82034">
        <ele>74.7</ele>
        <time>2022-09-09T11:49:53Z</time>
      </trkpt>
      <trkpt lat="48.59136" lon="-2.82025">
        <ele>75</ele>
        <time>2022-09-09T11:49:56Z</time>
      </trkpt>
      <trkpt lat="48.59129" lon="-2.82014">
        <ele>75.1</ele>
        <time>2022-09-09T11:49:59Z</time>
      </trkpt>
      <trkpt lat="48.59121" lon="-2.82004">
        <ele>74.9</ele>
        <time>2022-09-09T11:50:02Z</time>
      </trkpt>
      <trkpt lat="48.59113" lon="-2.81995">
        <ele>74.5</ele>
        <time>2022-09-09T11:50:05Z</time>
      </trkpt>
      <trkpt lat="48.59104" lon="-2.81987">
        <ele>74.4</ele>
        <time>2022-09-09T11:50:08Z</time>
      </trkpt>
      <trkpt lat="48.59094" lon="-2.81977">
        <ele>74</ele>
        <time>2022-09-09T11:50:11Z</time>
      </trkpt>
      <trkpt lat="48.59087" lon="-2.81967">
        <ele>73.4</ele>
        <time>2022-09-09T11:50:13Z</time>
      </trkpt>
      <trkpt lat="48.59081" lon="-2.81953">
        <ele>73.5</ele>
        <time>2022-09-09T11:50:15Z</time>
      </trkpt>
      <trkpt lat="48.59077" lon="-2.81936">
        <ele>72.5</ele>
        <time>2022-09-09T11:50:18Z</time>
      </trkpt>
      <trkpt lat="48.59075" lon="-2.81921">
        <ele>70.7</ele>
        <time>2022-09-09T11:50:20Z</time>
      </trkpt>
      <trkpt lat="48.59073" lon="-2.81907">
        <ele>69.9</ele>
        <time>2022-09-09T11:50:22Z</time>
      </trkpt>
      <trkpt lat="48.5907" lon="-2.81888">
        <ele>68.9</ele>
        <time>2022-09-09T11:50:25Z</time>
      </trkpt>
      <trkpt lat="48.5906" lon="-2.81877">
        <ele>68.5</ele>
        <time>2022-09-09T11:50:28Z</time>
      </trkpt>
      <trkpt lat="48.59048" lon="-2.81881">
        <ele>69</ele>
        <time>2022-09-09T11:50:31Z</time>
      </trkpt>
      <trkpt lat="48.59037" lon="-2.81885">
        <ele>69.5</ele>
        <time>2022-09-09T11:50:34Z</time>
      </trkpt>
      <trkpt lat="48.59027" lon="-2.81886">
        <ele>69.9</ele>
        <time>2022-09-09T11:50:37Z</time>
      </trkpt>
      <trkpt lat="48.59018" lon="-2.81887">
        <ele>70</ele>
        <time>2022-09-09T11:50:40Z</time>
      </trkpt>
      <trkpt lat="48.59007" lon="-2.81886">
        <ele>70.1</ele>
        <time>2022-09-09T11:50:44Z</time>
      </trkpt>
      <trkpt lat="48.58996" lon="-2.81886">
        <ele>70.4</ele>
        <time>2022-09-09T11:50:48Z</time>
      </trkpt>
      <trkpt lat="48.58986" lon="-2.81887">
        <ele>71.1</ele>
        <time>2022-09-09T11:50:52Z</time>
      </trkpt>
      <trkpt lat="48.58976" lon="-2.81885">
        <ele>71.7</ele>
        <time>2022-09-09T11:50:56Z</time>
      </trkpt>
      <trkpt lat="48.58967" lon="-2.81882">
        <ele>72.6</ele>
        <time>2022-09-09T11:51:00Z</time>
      </trkpt>
      <trkpt lat="48.58958" lon="-2.81876">
        <ele>73.6</ele>
        <time>2022-09-09T11:51:04Z</time>
      </trkpt>
      <trkpt lat="48.58951" lon="-2.81867">
        <ele>74.3</ele>
        <time>2022-09-09T11:51:08Z</time>
      </trkpt>
      <trkpt lat="48.58943" lon="-2.81856">
        <ele>75.3</ele>
        <time>2022-09-09T11:51:14Z</time>
      </trkpt>
      <trkpt lat="48.58933" lon="-2.81848">
        <ele>75.9</ele>
        <time>2022-09-09T11:51:20Z</time>
      </trkpt>
      <trkpt lat="48.58926" lon="-2.81837">
        <ele>76</ele>
        <time>2022-09-09T11:51:25Z</time>
      </trkpt>
      <trkpt lat="48.58919" lon="-2.81829">
        <ele>76.2</ele>
        <time>2022-09-09T11:51:30Z</time>
      </trkpt>
      <trkpt lat="48.58915" lon="-2.81815">
        <ele>76.6</ele>
        <time>2022-09-09T11:51:35Z</time>
      </trkpt>
      <trkpt lat="48.58918" lon="-2.81799">
        <ele>77</ele>
        <time>2022-09-09T11:51:40Z</time>
      </trkpt>
      <trkpt lat="48.58923" lon="-2.81787">
        <ele>77.2</ele>
        <time>2022-09-09T11:51:45Z</time>
      </trkpt>
      <trkpt lat="48.58923" lon="-2.81769">
        <ele>77.1</ele>
        <time>2022-09-09T11:51:50Z</time>
      </trkpt>
      <trkpt lat="48.58919" lon="-2.81755">
        <ele>76.9</ele>
        <time>2022-09-09T11:51:53Z</time>
      </trkpt>
      <trkpt lat="48.58917" lon="-2.81739">
        <ele>76.6</ele>
        <time>2022-09-09T11:51:56Z</time>
      </trkpt>
      <trkpt lat="48.58914" lon="-2.8172">
        <ele>76</ele>
        <time>2022-09-09T11:51:59Z</time>
      </trkpt>
      <trkpt lat="48.58912" lon="-2.81706">
        <ele>76</ele>
        <time>2022-09-09T11:52:01Z</time>
      </trkpt>
      <trkpt lat="48.58911" lon="-2.8169">
        <ele>75.9</ele>
        <time>2022-09-09T11:52:03Z</time>
      </trkpt>
      <trkpt lat="48.5891" lon="-2.81675">
        <ele>75.5</ele>
        <time>2022-09-09T11:52:05Z</time>
      </trkpt>
      <trkpt lat="48.58911" lon="-2.81659">
        <ele>75.3</ele>
        <time>2022-09-09T11:52:07Z</time>
      </trkpt>
      <trkpt lat="48.5891" lon="-2.81643">
        <ele>75.4</ele>
        <time>2022-09-09T11:52:09Z</time>
      </trkpt>
      <trkpt lat="48.5891" lon="-2.81627">
        <ele>75.5</ele>
        <time>2022-09-09T11:52:11Z</time>
      </trkpt>
      <trkpt lat="48.5891" lon="-2.81611">
        <ele>75.5</ele>
        <time>2022-09-09T11:52:13Z</time>
      </trkpt>
      <trkpt lat="48.58913" lon="-2.81597">
        <ele>75.3</ele>
        <time>2022-09-09T11:52:15Z</time>
      </trkpt>
      <trkpt lat="48.58917" lon="-2.8158">
        <ele>75.1</ele>
        <time>2022-09-09T11:52:18Z</time>
      </trkpt>
      <trkpt lat="48.58922" lon="-2.81566">
        <ele>75.3</ele>
        <time>2022-09-09T11:52:21Z</time>
      </trkpt>
      <trkpt lat="48.58925" lon="-2.81551">
        <ele>75.3</ele>
        <time>2022-09-09T11:52:24Z</time>
      </trkpt>
      <trkpt lat="48.58921" lon="-2.81538">
        <ele>75.5</ele>
        <time>2022-09-09T11:52:27Z</time>
      </trkpt>
      <trkpt lat="48.58912" lon="-2.81531">
        <ele>76.2</ele>
        <time>2022-09-09T11:52:31Z</time>
      </trkpt>
      <trkpt lat="48.58902" lon="-2.81527">
        <ele>76.5</ele>
        <time>2022-09-09T11:52:35Z</time>
      </trkpt>
      <trkpt lat="48.58892" lon="-2.81522">
        <ele>76.6</ele>
        <time>2022-09-09T11:52:39Z</time>
      </trkpt>
      <trkpt lat="48.58882" lon="-2.81518">
        <ele>76.7</ele>
        <time>2022-09-09T11:52:43Z</time>
      </trkpt>
      <trkpt lat="48.58871" lon="-2.81512">
        <ele>76.8</ele>
        <time>2022-09-09T11:52:47Z</time>
      </trkpt>
      <trkpt lat="48.58861" lon="-2.81509">
        <ele>77</ele>
        <time>2022-09-09T11:52:50Z</time>
      </trkpt>
      <trkpt lat="48.5885" lon="-2.81504">
        <ele>77.3</ele>
        <time>2022-09-09T11:52:54Z</time>
      </trkpt>
      <trkpt lat="48.58841" lon="-2.81499">
        <ele>77.7</ele>
        <time>2022-09-09T11:52:58Z</time>
      </trkpt>
      <trkpt lat="48.58832" lon="-2.8149">
        <ele>77.7</ele>
        <time>2022-09-09T11:53:02Z</time>
      </trkpt>
      <trkpt lat="48.58824" lon="-2.81481">
        <ele>77.7</ele>
        <time>2022-09-09T11:53:05Z</time>
      </trkpt>
      <trkpt lat="48.58815" lon="-2.81475">
        <ele>77.8</ele>
        <time>2022-09-09T11:53:08Z</time>
      </trkpt>
      <trkpt lat="48.58805" lon="-2.81466">
        <ele>78.2</ele>
        <time>2022-09-09T11:53:12Z</time>
      </trkpt>
      <trkpt lat="48.58798" lon="-2.81458">
        <ele>78.7</ele>
        <time>2022-09-09T11:53:15Z</time>
      </trkpt>
      <trkpt lat="48.5879" lon="-2.81451">
        <ele>78.9</ele>
        <time>2022-09-09T11:53:18Z</time>
      </trkpt>
      <trkpt lat="48.58782" lon="-2.81443">
        <ele>79</ele>
        <time>2022-09-09T11:53:21Z</time>
      </trkpt>
      <trkpt lat="48.58772" lon="-2.81433">
        <ele>79.5</ele>
        <time>2022-09-09T11:53:25Z</time>
      </trkpt>
      <trkpt lat="48.58764" lon="-2.81422">
        <ele>79.9</ele>
        <time>2022-09-09T11:53:28Z</time>
      </trkpt>
      <trkpt lat="48.58756" lon="-2.81413">
        <ele>79.9</ele>
        <time>2022-09-09T11:53:31Z</time>
      </trkpt>
      <trkpt lat="48.58747" lon="-2.81403">
        <ele>79.6</ele>
        <time>2022-09-09T11:53:34Z</time>
      </trkpt>
      <trkpt lat="48.58739" lon="-2.81395">
        <ele>79.5</ele>
        <time>2022-09-09T11:53:37Z</time>
      </trkpt>
      <trkpt lat="48.5873" lon="-2.81384">
        <ele>79.7</ele>
        <time>2022-09-09T11:53:41Z</time>
      </trkpt>
      <trkpt lat="48.5872" lon="-2.81375">
        <ele>80.2</ele>
        <time>2022-09-09T11:53:45Z</time>
      </trkpt>
      <trkpt lat="48.58712" lon="-2.81365">
        <ele>80.7</ele>
        <time>2022-09-09T11:53:48Z</time>
      </trkpt>
      <trkpt lat="48.58704" lon="-2.81356">
        <ele>81.2</ele>
        <time>2022-09-09T11:53:51Z</time>
      </trkpt>
      <trkpt lat="48.58695" lon="-2.81349">
        <ele>81.5</ele>
        <time>2022-09-09T11:53:54Z</time>
      </trkpt>
      <trkpt lat="48.58685" lon="-2.8134">
        <ele>81.2</ele>
        <time>2022-09-09T11:53:57Z</time>
      </trkpt>
      <trkpt lat="48.58674" lon="-2.81332">
        <ele>81</ele>
        <time>2022-09-09T11:54:00Z</time>
      </trkpt>
      <trkpt lat="48.58663" lon="-2.81326">
        <ele>80.9</ele>
        <time>2022-09-09T11:54:03Z</time>
      </trkpt>
      <trkpt lat="48.58653" lon="-2.81322">
        <ele>80.7</ele>
        <time>2022-09-09T11:54:06Z</time>
      </trkpt>
      <trkpt lat="48.58641" lon="-2.81317">
        <ele>80.6</ele>
        <time>2022-09-09T11:54:09Z</time>
      </trkpt>
      <trkpt lat="48.58632" lon="-2.81311">
        <ele>80.6</ele>
        <time>2022-09-09T11:54:11Z</time>
      </trkpt>
      <trkpt lat="48.58622" lon="-2.81304">
        <ele>80.4</ele>
        <time>2022-09-09T11:54:13Z</time>
      </trkpt>
      <trkpt lat="48.58614" lon="-2.813">
        <ele>80.1</ele>
        <time>2022-09-09T11:54:15Z</time>
      </trkpt>
      <trkpt lat="48.58604" lon="-2.81295">
        <ele>80</ele>
        <time>2022-09-09T11:54:17Z</time>
      </trkpt>
      <trkpt lat="48.58591" lon="-2.81291">
        <ele>80</ele>
        <time>2022-09-09T11:54:20Z</time>
      </trkpt>
      <trkpt lat="48.58578" lon="-2.81286">
        <ele>80</ele>
        <time>2022-09-09T11:54:23Z</time>
      </trkpt>
      <trkpt lat="48.58568" lon="-2.81281">
        <ele>80</ele>
        <time>2022-09-09T11:54:25Z</time>
      </trkpt>
      <trkpt lat="48.58557" lon="-2.81275">
        <ele>80</ele>
        <time>2022-09-09T11:54:28Z</time>
      </trkpt>
      <trkpt lat="48.58548" lon="-2.81272">
        <ele>80.5</ele>
        <time>2022-09-09T11:54:30Z</time>
      </trkpt>
      <trkpt lat="48.58537" lon="-2.81267">
        <ele>80.8</ele>
        <time>2022-09-09T11:54:33Z</time>
      </trkpt>
      <trkpt lat="48.58525" lon="-2.81262">
        <ele>80.9</ele>
        <time>2022-09-09T11:54:36Z</time>
      </trkpt>
      <trkpt lat="48.58513" lon="-2.81257">
        <ele>80.9</ele>
        <time>2022-09-09T11:54:39Z</time>
      </trkpt>
      <trkpt lat="48.58504" lon="-2.81252">
        <ele>80.9</ele>
        <time>2022-09-09T11:54:41Z</time>
      </trkpt>
      <trkpt lat="48.58495" lon="-2.81248">
        <ele>80.7</ele>
        <time>2022-09-09T11:54:43Z</time>
      </trkpt>
      <trkpt lat="48.58485" lon="-2.81242">
        <ele>80.2</ele>
        <time>2022-09-09T11:54:45Z</time>
      </trkpt>
      <trkpt lat="48.58475" lon="-2.81238">
        <ele>80</ele>
        <time>2022-09-09T11:54:47Z</time>
      </trkpt>
      <trkpt lat="48.58466" lon="-2.81233">
        <ele>80.1</ele>
        <time>2022-09-09T11:54:49Z</time>
      </trkpt>
      <trkpt lat="48.58456" lon="-2.81229">
        <ele>80.1</ele>
        <time>2022-09-09T11:54:51Z</time>
      </trkpt>
      <trkpt lat="48.58446" lon="-2.81227">
        <ele>80.2</ele>
        <time>2022-09-09T11:54:53Z</time>
      </trkpt>
      <trkpt lat="48.58435" lon="-2.81227">
        <ele>79.6</ele>
        <time>2022-09-09T11:54:55Z</time>
      </trkpt>
      <trkpt lat="48.58425" lon="-2.81228">
        <ele>79.1</ele>
        <time>2022-09-09T11:54:57Z</time>
      </trkpt>
      <trkpt lat="48.58412" lon="-2.81226">
        <ele>78.2</ele>
        <time>2022-09-09T11:54:59Z</time>
      </trkpt>
      <trkpt lat="48.58399" lon="-2.81225">
        <ele>77.5</ele>
        <time>2022-09-09T11:55:01Z</time>
      </trkpt>
      <trkpt lat="48.58386" lon="-2.8123">
        <ele>77.4</ele>
        <time>2022-09-09T11:55:03Z</time>
      </trkpt>
      <trkpt lat="48.58375" lon="-2.81239">
        <ele>78</ele>
        <time>2022-09-09T11:55:05Z</time>
      </trkpt>
      <trkpt lat="48.58365" lon="-2.81249">
        <ele>78</ele>
        <time>2022-09-09T11:55:07Z</time>
      </trkpt>
      <trkpt lat="48.58356" lon="-2.81259">
        <ele>78.4</ele>
        <time>2022-09-09T11:55:09Z</time>
      </trkpt>
      <trkpt lat="48.58347" lon="-2.81267">
        <ele>78.8</ele>
        <time>2022-09-09T11:55:11Z</time>
      </trkpt>
      <trkpt lat="48.58339" lon="-2.81274">
        <ele>79</ele>
        <time>2022-09-09T11:55:13Z</time>
      </trkpt>
      <trkpt lat="48.58325" lon="-2.81281">
        <ele>79</ele>
        <time>2022-09-09T11:55:16Z</time>
      </trkpt>
      <trkpt lat="48.58315" lon="-2.81284">
        <ele>79</ele>
        <time>2022-09-09T11:55:18Z</time>
      </trkpt>
      <trkpt lat="48.58305" lon="-2.81285">
        <ele>79</ele>
        <time>2022-09-09T11:55:20Z</time>
      </trkpt>
      <trkpt lat="48.58295" lon="-2.81283">
        <ele>79.1</ele>
        <time>2022-09-09T11:55:22Z</time>
      </trkpt>
      <trkpt lat="48.58286" lon="-2.81282">
        <ele>79.1</ele>
        <time>2022-09-09T11:55:24Z</time>
      </trkpt>
      <trkpt lat="48.58274" lon="-2.8128">
        <ele>79.1</ele>
        <time>2022-09-09T11:55:27Z</time>
      </trkpt>
      <trkpt lat="48.58263" lon="-2.81277">
        <ele>79</ele>
        <time>2022-09-09T11:55:30Z</time>
      </trkpt>
      <trkpt lat="48.58251" lon="-2.81274">
        <ele>79.2</ele>
        <time>2022-09-09T11:55:33Z</time>
      </trkpt>
      <trkpt lat="48.5824" lon="-2.81274">
        <ele>79.9</ele>
        <time>2022-09-09T11:55:36Z</time>
      </trkpt>
      <trkpt lat="48.58231" lon="-2.81277">
        <ele>80.4</ele>
        <time>2022-09-09T11:55:39Z</time>
      </trkpt>
      <trkpt lat="48.58221" lon="-2.8128">
        <ele>81</ele>
        <time>2022-09-09T11:55:42Z</time>
      </trkpt>
      <trkpt lat="48.58211" lon="-2.81281">
        <ele>81</ele>
        <time>2022-09-09T11:55:45Z</time>
      </trkpt>
      <trkpt lat="48.58202" lon="-2.81282">
        <ele>81</ele>
        <time>2022-09-09T11:55:48Z</time>
      </trkpt>
      <trkpt lat="48.5819" lon="-2.81283">
        <ele>81.2</ele>
        <time>2022-09-09T11:55:52Z</time>
      </trkpt>
      <trkpt lat="48.58181" lon="-2.81285">
        <ele>81.6</ele>
        <time>2022-09-09T11:55:55Z</time>
      </trkpt>
      <trkpt lat="48.5817" lon="-2.81286">
        <ele>82.2</ele>
        <time>2022-09-09T11:55:59Z</time>
      </trkpt>
      <trkpt lat="48.58159" lon="-2.81289">
        <ele>82.6</ele>
        <time>2022-09-09T11:56:03Z</time>
      </trkpt>
      <trkpt lat="48.5815" lon="-2.81291">
        <ele>82.8</ele>
        <time>2022-09-09T11:56:06Z</time>
      </trkpt>
      <trkpt lat="48.5814" lon="-2.81294">
        <ele>83</ele>
        <time>2022-09-09T11:56:09Z</time>
      </trkpt>
      <trkpt lat="48.58131" lon="-2.81295">
        <ele>83</ele>
        <time>2022-09-09T11:56:12Z</time>
      </trkpt>
      <trkpt lat="48.58122" lon="-2.81296">
        <ele>83</ele>
        <time>2022-09-09T11:56:15Z</time>
      </trkpt>
      <trkpt lat="48.58112" lon="-2.81296">
        <ele>83</ele>
        <time>2022-09-09T11:56:18Z</time>
      </trkpt>
      <trkpt lat="48.58102" lon="-2.81295">
        <ele>83</ele>
        <time>2022-09-09T11:56:21Z</time>
      </trkpt>
      <trkpt lat="48.58092" lon="-2.81295">
        <ele>83</ele>
        <time>2022-09-09T11:56:24Z</time>
      </trkpt>
      <trkpt lat="48.58082" lon="-2.81295">
        <ele>83</ele>
        <time>2022-09-09T11:56:27Z</time>
      </trkpt>
      <trkpt lat="48.58071" lon="-2.81293">
        <ele>83.2</ele>
        <time>2022-09-09T11:56:30Z</time>
      </trkpt>
      <trkpt lat="48.5806" lon="-2.81292">
        <ele>83.4</ele>
        <time>2022-09-09T11:56:33Z</time>
      </trkpt>
      <trkpt lat="48.5805" lon="-2.81292">
        <ele>83.8</ele>
        <time>2022-09-09T11:56:36Z</time>
      </trkpt>
      <trkpt lat="48.58039" lon="-2.81292">
        <ele>84.4</ele>
        <time>2022-09-09T11:56:39Z</time>
      </trkpt>
      <trkpt lat="48.58027" lon="-2.81292">
        <ele>85</ele>
        <time>2022-09-09T11:56:42Z</time>
      </trkpt>
      <trkpt lat="48.58017" lon="-2.81292">
        <ele>85</ele>
        <time>2022-09-09T11:56:45Z</time>
      </trkpt>
      <trkpt lat="48.58006" lon="-2.81293">
        <ele>85</ele>
        <time>2022-09-09T11:56:48Z</time>
      </trkpt>
      <trkpt lat="48.57996" lon="-2.81293">
        <ele>85.1</ele>
        <time>2022-09-09T11:56:51Z</time>
      </trkpt>
      <trkpt lat="48.57987" lon="-2.81292">
        <ele>85.2</ele>
        <time>2022-09-09T11:56:54Z</time>
      </trkpt>
      <trkpt lat="48.57978" lon="-2.81292">
        <ele>85.4</ele>
        <time>2022-09-09T11:56:57Z</time>
      </trkpt>
      <trkpt lat="48.57968" lon="-2.81291">
        <ele>85.7</ele>
        <time>2022-09-09T11:57:00Z</time>
      </trkpt>
      <trkpt lat="48.57959" lon="-2.81291">
        <ele>86.2</ele>
        <time>2022-09-09T11:57:03Z</time>
      </trkpt>
      <trkpt lat="48.57951" lon="-2.81298">
        <ele>86.7</ele>
        <time>2022-09-09T11:57:07Z</time>
      </trkpt>
      <trkpt lat="48.57947" lon="-2.81313">
        <ele>86.9</ele>
        <time>2022-09-09T11:57:11Z</time>
      </trkpt>
      <trkpt lat="48.57946" lon="-2.8133">
        <ele>86.9</ele>
        <time>2022-09-09T11:57:15Z</time>
      </trkpt>
      <trkpt lat="48.57944" lon="-2.81348">
        <ele>87</ele>
        <time>2022-09-09T11:57:19Z</time>
      </trkpt>
      <trkpt lat="48.57942" lon="-2.81361">
        <ele>87.2</ele>
        <time>2022-09-09T11:57:22Z</time>
      </trkpt>
      <trkpt lat="48.57939" lon="-2.81376">
        <ele>87.3</ele>
        <time>2022-09-09T11:57:25Z</time>
      </trkpt>
      <trkpt lat="48.57935" lon="-2.8139">
        <ele>87.4</ele>
        <time>2022-09-09T11:57:28Z</time>
      </trkpt>
      <trkpt lat="48.5793" lon="-2.81404">
        <ele>87.8</ele>
        <time>2022-09-09T11:57:31Z</time>
      </trkpt>
      <trkpt lat="48.57925" lon="-2.8142">
        <ele>87.9</ele>
        <time>2022-09-09T11:57:34Z</time>
      </trkpt>
      <trkpt lat="48.57919" lon="-2.81436">
        <ele>87.3</ele>
        <time>2022-09-09T11:57:37Z</time>
      </trkpt>
      <trkpt lat="48.57912" lon="-2.81451">
        <ele>87.1</ele>
        <time>2022-09-09T11:57:40Z</time>
      </trkpt>
      <trkpt lat="48.57905" lon="-2.81469">
        <ele>87.1</ele>
        <time>2022-09-09T11:57:43Z</time>
      </trkpt>
      <trkpt lat="48.579" lon="-2.81481">
        <ele>87</ele>
        <time>2022-09-09T11:57:45Z</time>
      </trkpt>
      <trkpt lat="48.57895" lon="-2.815">
        <ele>87</ele>
        <time>2022-09-09T11:57:48Z</time>
      </trkpt>
      <trkpt lat="48.57892" lon="-2.81514">
        <ele>87</ele>
        <time>2022-09-09T11:57:50Z</time>
      </trkpt>
      <trkpt lat="48.5789" lon="-2.81528">
        <ele>87</ele>
        <time>2022-09-09T11:57:52Z</time>
      </trkpt>
      <trkpt lat="48.57885" lon="-2.81548">
        <ele>87</ele>
        <time>2022-09-09T11:57:55Z</time>
      </trkpt>
      <trkpt lat="48.57882" lon="-2.81561">
        <ele>87</ele>
        <time>2022-09-09T11:57:57Z</time>
      </trkpt>
      <trkpt lat="48.5788" lon="-2.81575">
        <ele>87</ele>
        <time>2022-09-09T11:57:59Z</time>
      </trkpt>
      <trkpt lat="48.57879" lon="-2.81588">
        <ele>87</ele>
        <time>2022-09-09T11:58:01Z</time>
      </trkpt>
      <trkpt lat="48.57876" lon="-2.81602">
        <ele>87</ele>
        <time>2022-09-09T11:58:03Z</time>
      </trkpt>
      <trkpt lat="48.57874" lon="-2.81616">
        <ele>87</ele>
        <time>2022-09-09T11:58:05Z</time>
      </trkpt>
      <trkpt lat="48.57872" lon="-2.8163">
        <ele>87</ele>
        <time>2022-09-09T11:58:07Z</time>
      </trkpt>
      <trkpt lat="48.5787" lon="-2.81644">
        <ele>87</ele>
        <time>2022-09-09T11:58:09Z</time>
      </trkpt>
      <trkpt lat="48.57869" lon="-2.81663">
        <ele>87</ele>
        <time>2022-09-09T11:58:12Z</time>
      </trkpt>
      <trkpt lat="48.57866" lon="-2.81678">
        <ele>87.3</ele>
        <time>2022-09-09T11:58:15Z</time>
      </trkpt>
      <trkpt lat="48.57855" lon="-2.81683">
        <ele>87.4</ele>
        <time>2022-09-09T11:58:18Z</time>
      </trkpt>
      <trkpt lat="48.57842" lon="-2.81679">
        <ele>87.1</ele>
        <time>2022-09-09T11:58:21Z</time>
      </trkpt>
      <trkpt lat="48.57828" lon="-2.81677">
        <ele>87</ele>
        <time>2022-09-09T11:58:24Z</time>
      </trkpt>
      <trkpt lat="48.57818" lon="-2.81676">
        <ele>87</ele>
        <time>2022-09-09T11:58:26Z</time>
      </trkpt>
      <trkpt lat="48.57804" lon="-2.81675">
        <ele>87</ele>
        <time>2022-09-09T11:58:29Z</time>
      </trkpt>
      <trkpt lat="48.57794" lon="-2.81674">
        <ele>87</ele>
        <time>2022-09-09T11:58:31Z</time>
      </trkpt>
      <trkpt lat="48.57784" lon="-2.81672">
        <ele>87</ele>
        <time>2022-09-09T11:58:33Z</time>
      </trkpt>
      <trkpt lat="48.57774" lon="-2.8167">
        <ele>87</ele>
        <time>2022-09-09T11:58:35Z</time>
      </trkpt>
      <trkpt lat="48.57764" lon="-2.81667">
        <ele>87</ele>
        <time>2022-09-09T11:58:37Z</time>
      </trkpt>
      <trkpt lat="48.57756" lon="-2.81664">
        <ele>87.1</ele>
        <time>2022-09-09T11:58:39Z</time>
      </trkpt>
      <trkpt lat="48.57746" lon="-2.81658">
        <ele>87.4</ele>
        <time>2022-09-09T11:58:41Z</time>
      </trkpt>
      <trkpt lat="48.57737" lon="-2.81652">
        <ele>87.8</ele>
        <time>2022-09-09T11:58:43Z</time>
      </trkpt>
      <trkpt lat="48.57728" lon="-2.81647">
        <ele>87.9</ele>
        <time>2022-09-09T11:58:45Z</time>
      </trkpt>
      <trkpt lat="48.57719" lon="-2.81641">
        <ele>88</ele>
        <time>2022-09-09T11:58:47Z</time>
      </trkpt>
      <trkpt lat="48.57709" lon="-2.81635">
        <ele>88</ele>
        <time>2022-09-09T11:58:49Z</time>
      </trkpt>
      <trkpt lat="48.577" lon="-2.81629">
        <ele>88</ele>
        <time>2022-09-09T11:58:51Z</time>
      </trkpt>
      <trkpt lat="48.57691" lon="-2.81624">
        <ele>88</ele>
        <time>2022-09-09T11:58:53Z</time>
      </trkpt>
      <trkpt lat="48.57682" lon="-2.81619">
        <ele>88</ele>
        <time>2022-09-09T11:58:55Z</time>
      </trkpt>
      <trkpt lat="48.57673" lon="-2.81613">
        <ele>88</ele>
        <time>2022-09-09T11:58:57Z</time>
      </trkpt>
      <trkpt lat="48.57661" lon="-2.81605">
        <ele>88.2</ele>
        <time>2022-09-09T11:59:00Z</time>
      </trkpt>
      <trkpt lat="48.57652" lon="-2.81599">
        <ele>88.5</ele>
        <time>2022-09-09T11:59:02Z</time>
      </trkpt>
      <trkpt lat="48.57642" lon="-2.81593">
        <ele>88.9</ele>
        <time>2022-09-09T11:59:04Z</time>
      </trkpt>
      <trkpt lat="48.57634" lon="-2.81588">
        <ele>89</ele>
        <time>2022-09-09T11:59:06Z</time>
      </trkpt>
      <trkpt lat="48.57624" lon="-2.81583">
        <ele>89</ele>
        <time>2022-09-09T11:59:08Z</time>
      </trkpt>
      <trkpt lat="48.57616" lon="-2.81579">
        <ele>89</ele>
        <time>2022-09-09T11:59:10Z</time>
      </trkpt>
      <trkpt lat="48.57607" lon="-2.81574">
        <ele>89.1</ele>
        <time>2022-09-09T11:59:12Z</time>
      </trkpt>
      <trkpt lat="48.57594" lon="-2.8157">
        <ele>89.6</ele>
        <time>2022-09-09T11:59:15Z</time>
      </trkpt>
      <trkpt lat="48.57581" lon="-2.81568">
        <ele>90</ele>
        <time>2022-09-09T11:59:18Z</time>
      </trkpt>
      <trkpt lat="48.57572" lon="-2.81567">
        <ele>90</ele>
        <time>2022-09-09T11:59:20Z</time>
      </trkpt>
      <trkpt lat="48.57558" lon="-2.81567">
        <ele>90</ele>
        <time>2022-09-09T11:59:23Z</time>
      </trkpt>
      <trkpt lat="48.57546" lon="-2.81567">
        <ele>90.3</ele>
        <time>2022-09-09T11:59:26Z</time>
      </trkpt>
      <trkpt lat="48.57533" lon="-2.81565">
        <ele>90.8</ele>
        <time>2022-09-09T11:59:29Z</time>
      </trkpt>
      <trkpt lat="48.57521" lon="-2.81564">
        <ele>91.2</ele>
        <time>2022-09-09T11:59:32Z</time>
      </trkpt>
      <trkpt lat="48.57509" lon="-2.81565">
        <ele>91.4</ele>
        <time>2022-09-09T11:59:35Z</time>
      </trkpt>
      <trkpt lat="48.57498" lon="-2.81564">
        <ele>91.7</ele>
        <time>2022-09-09T11:59:38Z</time>
      </trkpt>
      <trkpt lat="48.57486" lon="-2.81564">
        <ele>91.7</ele>
        <time>2022-09-09T11:59:41Z</time>
      </trkpt>
      <trkpt lat="48.57473" lon="-2.81564">
        <ele>91.7</ele>
        <time>2022-09-09T11:59:44Z</time>
      </trkpt>
      <trkpt lat="48.57461" lon="-2.81563">
        <ele>92</ele>
        <time>2022-09-09T11:59:47Z</time>
      </trkpt>
      <trkpt lat="48.57448" lon="-2.81563">
        <ele>92.2</ele>
        <time>2022-09-09T11:59:50Z</time>
      </trkpt>
      <trkpt lat="48.57436" lon="-2.81562">
        <ele>92.5</ele>
        <time>2022-09-09T11:59:53Z</time>
      </trkpt>
      <trkpt lat="48.57424" lon="-2.81562">
        <ele>92.8</ele>
        <time>2022-09-09T11:59:56Z</time>
      </trkpt>
      <trkpt lat="48.57412" lon="-2.81562">
        <ele>93.2</ele>
        <time>2022-09-09T11:59:59Z</time>
      </trkpt>
      <trkpt lat="48.57401" lon="-2.81561">
        <ele>93.6</ele>
        <time>2022-09-09T12:00:02Z</time>
      </trkpt>
      <trkpt lat="48.5739" lon="-2.81561">
        <ele>94</ele>
        <time>2022-09-09T12:00:05Z</time>
      </trkpt>
      <trkpt lat="48.5738" lon="-2.81563">
        <ele>94.2</ele>
        <time>2022-09-09T12:00:09Z</time>
      </trkpt>
      <trkpt lat="48.5737" lon="-2.81567">
        <ele>94.4</ele>
        <time>2022-09-09T12:00:14Z</time>
      </trkpt>
      <trkpt lat="48.57362" lon="-2.81575">
        <ele>94.3</ele>
        <time>2022-09-09T12:00:20Z</time>
      </trkpt>
      <trkpt lat="48.57357" lon="-2.81587">
        <ele>94</ele>
        <time>2022-09-09T12:00:30Z</time>
      </trkpt>
      <trkpt lat="48.57353" lon="-2.81603">
        <ele>94</ele>
        <time>2022-09-09T12:00:33Z</time>
      </trkpt>
      <trkpt lat="48.57349" lon="-2.81622">
        <ele>94.2</ele>
        <time>2022-09-09T12:00:36Z</time>
      </trkpt>
      <trkpt lat="48.57349" lon="-2.81642">
        <ele>94.5</ele>
        <time>2022-09-09T12:00:39Z</time>
      </trkpt>
      <trkpt lat="48.5735" lon="-2.81661">
        <ele>94.4</ele>
        <time>2022-09-09T12:00:42Z</time>
      </trkpt>
      <trkpt lat="48.57352" lon="-2.81675">
        <ele>94.2</ele>
        <time>2022-09-09T12:00:44Z</time>
      </trkpt>
      <trkpt lat="48.57352" lon="-2.81695">
        <ele>94</ele>
        <time>2022-09-09T12:00:47Z</time>
      </trkpt>
      <trkpt lat="48.5735" lon="-2.81714">
        <ele>94</ele>
        <time>2022-09-09T12:00:50Z</time>
      </trkpt>
      <trkpt lat="48.57346" lon="-2.81733">
        <ele>94</ele>
        <time>2022-09-09T12:00:53Z</time>
      </trkpt>
      <trkpt lat="48.57341" lon="-2.81745">
        <ele>94</ele>
        <time>2022-09-09T12:00:55Z</time>
      </trkpt>
      <trkpt lat="48.57337" lon="-2.81758">
        <ele>94</ele>
        <time>2022-09-09T12:00:57Z</time>
      </trkpt>
      <trkpt lat="48.57332" lon="-2.81769">
        <ele>94</ele>
        <time>2022-09-09T12:00:59Z</time>
      </trkpt>
      <trkpt lat="48.57325" lon="-2.81786">
        <ele>94</ele>
        <time>2022-09-09T12:01:02Z</time>
      </trkpt>
      <trkpt lat="48.57318" lon="-2.81802">
        <ele>93.7</ele>
        <time>2022-09-09T12:01:05Z</time>
      </trkpt>
      <trkpt lat="48.57313" lon="-2.81814">
        <ele>93.7</ele>
        <time>2022-09-09T12:01:07Z</time>
      </trkpt>
      <trkpt lat="48.57308" lon="-2.81826">
        <ele>93.9</ele>
        <time>2022-09-09T12:01:09Z</time>
      </trkpt>
      <trkpt lat="48.57303" lon="-2.81838">
        <ele>94.1</ele>
        <time>2022-09-09T12:01:11Z</time>
      </trkpt>
      <trkpt lat="48.57296" lon="-2.81854">
        <ele>94.1</ele>
        <time>2022-09-09T12:01:14Z</time>
      </trkpt>
      <trkpt lat="48.57289" lon="-2.81872">
        <ele>93.8</ele>
        <time>2022-09-09T12:01:17Z</time>
      </trkpt>
      <trkpt lat="48.57284" lon="-2.81884">
        <ele>93.8</ele>
        <time>2022-09-09T12:01:19Z</time>
      </trkpt>
      <trkpt lat="48.57279" lon="-2.81896">
        <ele>93.7</ele>
        <time>2022-09-09T12:01:21Z</time>
      </trkpt>
      <trkpt lat="48.57275" lon="-2.81909">
        <ele>93.4</ele>
        <time>2022-09-09T12:01:23Z</time>
      </trkpt>
      <trkpt lat="48.5727" lon="-2.81922">
        <ele>93.3</ele>
        <time>2022-09-09T12:01:25Z</time>
      </trkpt>
      <trkpt lat="48.57266" lon="-2.81934">
        <ele>93.4</ele>
        <time>2022-09-09T12:01:27Z</time>
      </trkpt>
      <trkpt lat="48.57261" lon="-2.81946">
        <ele>93.6</ele>
        <time>2022-09-09T12:01:29Z</time>
      </trkpt>
      <trkpt lat="48.57256" lon="-2.81957">
        <ele>93.7</ele>
        <time>2022-09-09T12:01:31Z</time>
      </trkpt>
      <trkpt lat="48.57252" lon="-2.81969">
        <ele>93.9</ele>
        <time>2022-09-09T12:01:33Z</time>
      </trkpt>
      <trkpt lat="48.57244" lon="-2.81985">
        <ele>93.5</ele>
        <time>2022-09-09T12:01:36Z</time>
      </trkpt>
      <trkpt lat="48.57239" lon="-2.81996">
        <ele>93.1</ele>
        <time>2022-09-09T12:01:38Z</time>
      </trkpt>
      <trkpt lat="48.5723" lon="-2.82003">
        <ele>93</ele>
        <time>2022-09-09T12:01:41Z</time>
      </trkpt>
      <trkpt lat="48.5722" lon="-2.81998">
        <ele>93.2</ele>
        <time>2022-09-09T12:01:44Z</time>
      </trkpt>
      <trkpt lat="48.57212" lon="-2.8199">
        <ele>93.9</ele>
        <time>2022-09-09T12:01:47Z</time>
      </trkpt>
      <trkpt lat="48.57205" lon="-2.81982">
        <ele>94.5</ele>
        <time>2022-09-09T12:01:50Z</time>
      </trkpt>
      <trkpt lat="48.57197" lon="-2.81973">
        <ele>94.9</ele>
        <time>2022-09-09T12:01:53Z</time>
      </trkpt>
      <trkpt lat="48.5719" lon="-2.81965">
        <ele>95.5</ele>
        <time>2022-09-09T12:01:56Z</time>
      </trkpt>
      <trkpt lat="48.57182" lon="-2.81957">
        <ele>96</ele>
        <time>2022-09-09T12:01:59Z</time>
      </trkpt>
      <trkpt lat="48.57172" lon="-2.81946">
        <ele>96</ele>
        <time>2022-09-09T12:02:03Z</time>
      </trkpt>
      <trkpt lat="48.57163" lon="-2.81937">
        <ele>96.6</ele>
        <time>2022-09-09T12:02:07Z</time>
      </trkpt>
      <trkpt lat="48.57153" lon="-2.81926">
        <ele>97.5</ele>
        <time>2022-09-09T12:02:11Z</time>
      </trkpt>
      <trkpt lat="48.57144" lon="-2.81919">
        <ele>97.9</ele>
        <time>2022-09-09T12:02:15Z</time>
      </trkpt>
      <trkpt lat="48.57136" lon="-2.81911">
        <ele>98.4</ele>
        <time>2022-09-09T12:02:19Z</time>
      </trkpt>
      <trkpt lat="48.57128" lon="-2.819">
        <ele>99.4</ele>
        <time>2022-09-09T12:02:23Z</time>
      </trkpt>
      <trkpt lat="48.57121" lon="-2.81888">
        <ele>100.3</ele>
        <time>2022-09-09T12:02:27Z</time>
      </trkpt>
      <trkpt lat="48.57115" lon="-2.81876">
        <ele>100.8</ele>
        <time>2022-09-09T12:02:31Z</time>
      </trkpt>
      <trkpt lat="48.5711" lon="-2.81863">
        <ele>101.1</ele>
        <time>2022-09-09T12:02:35Z</time>
      </trkpt>
      <trkpt lat="48.57103" lon="-2.81852">
        <ele>101.4</ele>
        <time>2022-09-09T12:02:39Z</time>
      </trkpt>
      <trkpt lat="48.57096" lon="-2.81841">
        <ele>101.9</ele>
        <time>2022-09-09T12:02:43Z</time>
      </trkpt>
      <trkpt lat="48.57086" lon="-2.81835">
        <ele>102.8</ele>
        <time>2022-09-09T12:02:47Z</time>
      </trkpt>
      <trkpt lat="48.57076" lon="-2.81831">
        <ele>103.2</ele>
        <time>2022-09-09T12:02:51Z</time>
      </trkpt>
      <trkpt lat="48.57066" lon="-2.81826">
        <ele>103.4</ele>
        <time>2022-09-09T12:02:56Z</time>
      </trkpt>
      <trkpt lat="48.57057" lon="-2.81826">
        <ele>103.7</ele>
        <time>2022-09-09T12:03:00Z</time>
      </trkpt>
      <trkpt lat="48.57045" lon="-2.81826">
        <ele>104.2</ele>
        <time>2022-09-09T12:03:04Z</time>
      </trkpt>
      <trkpt lat="48.57034" lon="-2.81826">
        <ele>104.7</ele>
        <time>2022-09-09T12:03:08Z</time>
      </trkpt>
      <trkpt lat="48.57024" lon="-2.81821">
        <ele>105.3</ele>
        <time>2022-09-09T12:03:12Z</time>
      </trkpt>
      <trkpt lat="48.57014" lon="-2.81812">
        <ele>106</ele>
        <time>2022-09-09T12:03:16Z</time>
      </trkpt>
      <trkpt lat="48.57004" lon="-2.81804">
        <ele>106.7</ele>
        <time>2022-09-09T12:03:20Z</time>
      </trkpt>
      <trkpt lat="48.56994" lon="-2.81795">
        <ele>106.6</ele>
        <time>2022-09-09T12:03:24Z</time>
      </trkpt>
      <trkpt lat="48.56985" lon="-2.81784">
        <ele>106.2</ele>
        <time>2022-09-09T12:03:28Z</time>
      </trkpt>
      <trkpt lat="48.56977" lon="-2.81773">
        <ele>106</ele>
        <time>2022-09-09T12:03:32Z</time>
      </trkpt>
      <trkpt lat="48.5697" lon="-2.81764">
        <ele>106</ele>
        <time>2022-09-09T12:03:35Z</time>
      </trkpt>
      <trkpt lat="48.56963" lon="-2.81754">
        <ele>106.1</ele>
        <time>2022-09-09T12:03:38Z</time>
      </trkpt>
      <trkpt lat="48.56956" lon="-2.81745">
        <ele>106</ele>
        <time>2022-09-09T12:03:41Z</time>
      </trkpt>
      <trkpt lat="48.56948" lon="-2.81733">
        <ele>106</ele>
        <time>2022-09-09T12:03:44Z</time>
      </trkpt>
      <trkpt lat="48.5694" lon="-2.81721">
        <ele>106.2</ele>
        <time>2022-09-09T12:03:47Z</time>
      </trkpt>
      <trkpt lat="48.56932" lon="-2.81711">
        <ele>106.5</ele>
        <time>2022-09-09T12:03:50Z</time>
      </trkpt>
      <trkpt lat="48.56923" lon="-2.81703">
        <ele>106.8</ele>
        <time>2022-09-09T12:03:53Z</time>
      </trkpt>
      <trkpt lat="48.56913" lon="-2.81696">
        <ele>107.1</ele>
        <time>2022-09-09T12:03:56Z</time>
      </trkpt>
      <trkpt lat="48.56904" lon="-2.81688">
        <ele>107.4</ele>
        <time>2022-09-09T12:03:59Z</time>
      </trkpt>
      <trkpt lat="48.56894" lon="-2.81679">
        <ele>107.4</ele>
        <time>2022-09-09T12:04:02Z</time>
      </trkpt>
      <trkpt lat="48.56886" lon="-2.81669">
        <ele>107.2</ele>
        <time>2022-09-09T12:04:05Z</time>
      </trkpt>
      <trkpt lat="48.56878" lon="-2.81658">
        <ele>107.5</ele>
        <time>2022-09-09T12:04:08Z</time>
      </trkpt>
      <trkpt lat="48.56867" lon="-2.81648">
        <ele>107.4</ele>
        <time>2022-09-09T12:04:11Z</time>
      </trkpt>
      <trkpt lat="48.56858" lon="-2.81637">
        <ele>107.5</ele>
        <time>2022-09-09T12:04:14Z</time>
      </trkpt>
      <trkpt lat="48.56848" lon="-2.81626">
        <ele>108.5</ele>
        <time>2022-09-09T12:04:17Z</time>
      </trkpt>
      <trkpt lat="48.56838" lon="-2.81614">
        <ele>108.3</ele>
        <time>2022-09-09T12:04:20Z</time>
      </trkpt>
      <trkpt lat="48.56828" lon="-2.81601">
        <ele>108.3</ele>
        <time>2022-09-09T12:04:23Z</time>
      </trkpt>
      <trkpt lat="48.56817" lon="-2.81589">
        <ele>108.7</ele>
        <time>2022-09-09T12:04:26Z</time>
      </trkpt>
      <trkpt lat="48.56807" lon="-2.81577">
        <ele>109</ele>
        <time>2022-09-09T12:04:29Z</time>
      </trkpt>
      <trkpt lat="48.56798" lon="-2.81567">
        <ele>109.1</ele>
        <time>2022-09-09T12:04:32Z</time>
      </trkpt>
      <trkpt lat="48.56789" lon="-2.81557">
        <ele>109</ele>
        <time>2022-09-09T12:04:35Z</time>
      </trkpt>
      <trkpt lat="48.5678" lon="-2.81546">
        <ele>109</ele>
        <time>2022-09-09T12:04:38Z</time>
      </trkpt>
      <trkpt lat="48.56771" lon="-2.81536">
        <ele>109.1</ele>
        <time>2022-09-09T12:04:41Z</time>
      </trkpt>
      <trkpt lat="48.56764" lon="-2.81526">
        <ele>109</ele>
        <time>2022-09-09T12:04:44Z</time>
      </trkpt>
      <trkpt lat="48.56755" lon="-2.81517">
        <ele>109</ele>
        <time>2022-09-09T12:04:47Z</time>
      </trkpt>
      <trkpt lat="48.56745" lon="-2.81509">
        <ele>109.2</ele>
        <time>2022-09-09T12:04:50Z</time>
      </trkpt>
      <trkpt lat="48.56735" lon="-2.815">
        <ele>109.5</ele>
        <time>2022-09-09T12:04:53Z</time>
      </trkpt>
      <trkpt lat="48.56725" lon="-2.81491">
        <ele>109.6</ele>
        <time>2022-09-09T12:04:56Z</time>
      </trkpt>
      <trkpt lat="48.56715" lon="-2.81482">
        <ele>109.5</ele>
        <time>2022-09-09T12:04:59Z</time>
      </trkpt>
      <trkpt lat="48.56705" lon="-2.81474">
        <ele>109.7</ele>
        <time>2022-09-09T12:05:02Z</time>
      </trkpt>
      <trkpt lat="48.56693" lon="-2.81466">
        <ele>110</ele>
        <time>2022-09-09T12:05:05Z</time>
      </trkpt>
      <trkpt lat="48.56682" lon="-2.81459">
        <ele>110</ele>
        <time>2022-09-09T12:05:08Z</time>
      </trkpt>
      <trkpt lat="48.56671" lon="-2.81452">
        <ele>110</ele>
        <time>2022-09-09T12:05:11Z</time>
      </trkpt>
      <trkpt lat="48.5666" lon="-2.81445">
        <ele>110</ele>
        <time>2022-09-09T12:05:14Z</time>
      </trkpt>
      <trkpt lat="48.56648" lon="-2.81437">
        <ele>109.7</ele>
        <time>2022-09-09T12:05:17Z</time>
      </trkpt>
      <trkpt lat="48.56636" lon="-2.81431">
        <ele>109.6</ele>
        <time>2022-09-09T12:05:20Z</time>
      </trkpt>
      <trkpt lat="48.56623" lon="-2.81425">
        <ele>109.7</ele>
        <time>2022-09-09T12:05:23Z</time>
      </trkpt>
      <trkpt lat="48.56615" lon="-2.8142">
        <ele>109.9</ele>
        <time>2022-09-09T12:05:25Z</time>
      </trkpt>
      <trkpt lat="48.56603" lon="-2.81411">
        <ele>109.8</ele>
        <time>2022-09-09T12:05:28Z</time>
      </trkpt>
      <trkpt lat="48.56594" lon="-2.81403">
        <ele>109.5</ele>
        <time>2022-09-09T12:05:30Z</time>
      </trkpt>
      <trkpt lat="48.56583" lon="-2.81394">
        <ele>109.2</ele>
        <time>2022-09-09T12:05:33Z</time>
      </trkpt>
      <trkpt lat="48.56575" lon="-2.81386">
        <ele>108.9</ele>
        <time>2022-09-09T12:05:35Z</time>
      </trkpt>
      <trkpt lat="48.56567" lon="-2.81379">
        <ele>108.9</ele>
        <time>2022-09-09T12:05:37Z</time>
      </trkpt>
      <trkpt lat="48.56559" lon="-2.81373">
        <ele>108.9</ele>
        <time>2022-09-09T12:05:39Z</time>
      </trkpt>
      <trkpt lat="48.56549" lon="-2.8136">
        <ele>109</ele>
        <time>2022-09-09T12:05:42Z</time>
      </trkpt>
      <trkpt lat="48.56542" lon="-2.8135">
        <ele>108.6</ele>
        <time>2022-09-09T12:05:44Z</time>
      </trkpt>
      <trkpt lat="48.56535" lon="-2.81339">
        <ele>108.2</ele>
        <time>2022-09-09T12:05:46Z</time>
      </trkpt>
      <trkpt lat="48.56528" lon="-2.81328">
        <ele>107.8</ele>
        <time>2022-09-09T12:05:48Z</time>
      </trkpt>
      <trkpt lat="48.56521" lon="-2.81316">
        <ele>107.4</ele>
        <time>2022-09-09T12:05:50Z</time>
      </trkpt>
      <trkpt lat="48.56512" lon="-2.81304">
        <ele>106.9</ele>
        <time>2022-09-09T12:05:52Z</time>
      </trkpt>
      <trkpt lat="48.56504" lon="-2.81289">
        <ele>106.4</ele>
        <time>2022-09-09T12:05:54Z</time>
      </trkpt>
      <trkpt lat="48.56495" lon="-2.81276">
        <ele>106.2</ele>
        <time>2022-09-09T12:05:56Z</time>
      </trkpt>
      <trkpt lat="48.56484" lon="-2.81262">
        <ele>105.9</ele>
        <time>2022-09-09T12:05:58Z</time>
      </trkpt>
      <trkpt lat="48.56474" lon="-2.8125">
        <ele>105.1</ele>
        <time>2022-09-09T12:06:00Z</time>
      </trkpt>
      <trkpt lat="48.56464" lon="-2.81237">
        <ele>105.3</ele>
        <time>2022-09-09T12:06:02Z</time>
      </trkpt>
      <trkpt lat="48.56454" lon="-2.81225">
        <ele>105.1</ele>
        <time>2022-09-09T12:06:04Z</time>
      </trkpt>
      <trkpt lat="48.56444" lon="-2.81215">
        <ele>105</ele>
        <time>2022-09-09T12:06:06Z</time>
      </trkpt>
      <trkpt lat="48.56434" lon="-2.81206">
        <ele>105.3</ele>
        <time>2022-09-09T12:06:08Z</time>
      </trkpt>
      <trkpt lat="48.56425" lon="-2.81199">
        <ele>105.2</ele>
        <time>2022-09-09T12:06:10Z</time>
      </trkpt>
      <trkpt lat="48.56417" lon="-2.81193">
        <ele>105</ele>
        <time>2022-09-09T12:06:12Z</time>
      </trkpt>
      <trkpt lat="48.56409" lon="-2.81186">
        <ele>105.5</ele>
        <time>2022-09-09T12:06:14Z</time>
      </trkpt>
      <trkpt lat="48.56398" lon="-2.81178">
        <ele>105.9</ele>
        <time>2022-09-09T12:06:17Z</time>
      </trkpt>
      <trkpt lat="48.56388" lon="-2.81172">
        <ele>106.2</ele>
        <time>2022-09-09T12:06:20Z</time>
      </trkpt>
      <trkpt lat="48.56377" lon="-2.81166">
        <ele>106.4</ele>
        <time>2022-09-09T12:06:23Z</time>
      </trkpt>
      <trkpt lat="48.56368" lon="-2.81161">
        <ele>106.9</ele>
        <time>2022-09-09T12:06:26Z</time>
      </trkpt>
      <trkpt lat="48.56357" lon="-2.81156">
        <ele>107.6</ele>
        <time>2022-09-09T12:06:30Z</time>
      </trkpt>
      <trkpt lat="48.56347" lon="-2.81153">
        <ele>108</ele>
        <time>2022-09-09T12:06:33Z</time>
      </trkpt>
      <trkpt lat="48.56337" lon="-2.81147">
        <ele>108.2</ele>
        <time>2022-09-09T12:06:37Z</time>
      </trkpt>
      <trkpt lat="48.56328" lon="-2.81143">
        <ele>108.3</ele>
        <time>2022-09-09T12:06:40Z</time>
      </trkpt>
      <trkpt lat="48.56319" lon="-2.81138">
        <ele>108.5</ele>
        <time>2022-09-09T12:06:43Z</time>
      </trkpt>
      <trkpt lat="48.5631" lon="-2.81132">
        <ele>108.9</ele>
        <time>2022-09-09T12:06:46Z</time>
      </trkpt>
      <trkpt lat="48.56301" lon="-2.81124">
        <ele>109.3</ele>
        <time>2022-09-09T12:06:49Z</time>
      </trkpt>
      <trkpt lat="48.56292" lon="-2.81119">
        <ele>110</ele>
        <time>2022-09-09T12:06:52Z</time>
      </trkpt>
      <trkpt lat="48.56283" lon="-2.81111">
        <ele>110.6</ele>
        <time>2022-09-09T12:06:56Z</time>
      </trkpt>
      <trkpt lat="48.56274" lon="-2.81104">
        <ele>111.2</ele>
        <time>2022-09-09T12:07:00Z</time>
      </trkpt>
      <trkpt lat="48.56266" lon="-2.81097">
        <ele>111.7</ele>
        <time>2022-09-09T12:07:04Z</time>
      </trkpt>
      <trkpt lat="48.56257" lon="-2.8109">
        <ele>112.3</ele>
        <time>2022-09-09T12:07:08Z</time>
      </trkpt>
      <trkpt lat="48.5625" lon="-2.81082">
        <ele>113</ele>
        <time>2022-09-09T12:07:12Z</time>
      </trkpt>
      <trkpt lat="48.56243" lon="-2.81072">
        <ele>113.2</ele>
        <time>2022-09-09T12:07:16Z</time>
      </trkpt>
      <trkpt lat="48.56237" lon="-2.81061">
        <ele>113.5</ele>
        <time>2022-09-09T12:07:20Z</time>
      </trkpt>
      <trkpt lat="48.5623" lon="-2.81049">
        <ele>113.7</ele>
        <time>2022-09-09T12:07:24Z</time>
      </trkpt>
      <trkpt lat="48.56221" lon="-2.81042">
        <ele>114</ele>
        <time>2022-09-09T12:07:28Z</time>
      </trkpt>
      <trkpt lat="48.56212" lon="-2.81035">
        <ele>114.4</ele>
        <time>2022-09-09T12:07:32Z</time>
      </trkpt>
      <trkpt lat="48.56203" lon="-2.8103">
        <ele>114.7</ele>
        <time>2022-09-09T12:07:37Z</time>
      </trkpt>
      <trkpt lat="48.56194" lon="-2.8103">
        <ele>115</ele>
        <time>2022-09-09T12:07:41Z</time>
      </trkpt>
      <trkpt lat="48.56185" lon="-2.81024">
        <ele>115.4</ele>
        <time>2022-09-09T12:07:45Z</time>
      </trkpt>
      <trkpt lat="48.56179" lon="-2.81014">
        <ele>115.8</ele>
        <time>2022-09-09T12:07:49Z</time>
      </trkpt>
      <trkpt lat="48.56177" lon="-2.80999">
        <ele>116</ele>
        <time>2022-09-09T12:07:53Z</time>
      </trkpt>
      <trkpt lat="48.56181" lon="-2.80983">
        <ele>116.3</ele>
        <time>2022-09-09T12:07:57Z</time>
      </trkpt>
      <trkpt lat="48.56186" lon="-2.80968">
        <ele>116.4</ele>
        <time>2022-09-09T12:08:01Z</time>
      </trkpt>
      <trkpt lat="48.56191" lon="-2.80957">
        <ele>116.6</ele>
        <time>2022-09-09T12:08:04Z</time>
      </trkpt>
      <trkpt lat="48.56197" lon="-2.80946">
        <ele>116.9</ele>
        <time>2022-09-09T12:08:07Z</time>
      </trkpt>
      <trkpt lat="48.56204" lon="-2.80936">
        <ele>116.7</ele>
        <time>2022-09-09T12:08:10Z</time>
      </trkpt>
      <trkpt lat="48.56209" lon="-2.80925">
        <ele>116.5</ele>
        <time>2022-09-09T12:08:38Z</time>
      </trkpt>
      <trkpt lat="48.56215" lon="-2.80913">
        <ele>116.3</ele>
        <time>2022-09-09T12:08:43Z</time>
      </trkpt>
      <trkpt lat="48.56214" lon="-2.80899">
        <ele>116.3</ele>
        <time>2022-09-09T12:08:46Z</time>
      </trkpt>
      <trkpt lat="48.56217" lon="-2.80885">
        <ele>116.3</ele>
        <time>2022-09-09T12:08:49Z</time>
      </trkpt>
      <trkpt lat="48.56219" lon="-2.80869">
        <ele>116.7</ele>
        <time>2022-09-09T12:08:52Z</time>
      </trkpt>
      <trkpt lat="48.56222" lon="-2.80852">
        <ele>117</ele>
        <time>2022-09-09T12:08:55Z</time>
      </trkpt>
      <trkpt lat="48.56225" lon="-2.80833">
        <ele>116.9</ele>
        <time>2022-09-09T12:08:58Z</time>
      </trkpt>
      <trkpt lat="48.56227" lon="-2.8082">
        <ele>116.8</ele>
        <time>2022-09-09T12:09:00Z</time>
      </trkpt>
      <trkpt lat="48.5623" lon="-2.808">
        <ele>116.7</ele>
        <time>2022-09-09T12:09:03Z</time>
      </trkpt>
      <trkpt lat="48.56232" lon="-2.80782">
        <ele>116.7</ele>
        <time>2022-09-09T12:09:06Z</time>
      </trkpt>
      <trkpt lat="48.56235" lon="-2.80765">
        <ele>116.3</ele>
        <time>2022-09-09T12:09:09Z</time>
      </trkpt>
      <trkpt lat="48.56239" lon="-2.80745">
        <ele>116</ele>
        <time>2022-09-09T12:09:12Z</time>
      </trkpt>
      <trkpt lat="48.56242" lon="-2.80732">
        <ele>116</ele>
        <time>2022-09-09T12:09:14Z</time>
      </trkpt>
      <trkpt lat="48.56243" lon="-2.80719">
        <ele>116</ele>
        <time>2022-09-09T12:09:16Z</time>
      </trkpt>
      <trkpt lat="48.56246" lon="-2.80704">
        <ele>116</ele>
        <time>2022-09-09T12:09:18Z</time>
      </trkpt>
      <trkpt lat="48.56247" lon="-2.80687">
        <ele>116</ele>
        <time>2022-09-09T12:09:21Z</time>
      </trkpt>
      <trkpt lat="48.56247" lon="-2.80672">
        <ele>116</ele>
        <time>2022-09-09T12:09:48Z</time>
      </trkpt>
      <trkpt lat="48.56239" lon="-2.80662">
        <ele>115.9</ele>
        <time>2022-09-09T12:09:52Z</time>
      </trkpt>
      <trkpt lat="48.5623" lon="-2.80657">
        <ele>115.9</ele>
        <time>2022-09-09T12:09:55Z</time>
      </trkpt>
      <trkpt lat="48.5622" lon="-2.80651">
        <ele>116</ele>
        <time>2022-09-09T12:09:58Z</time>
      </trkpt>
      <trkpt lat="48.5621" lon="-2.80645">
        <ele>116</ele>
        <time>2022-09-09T12:10:01Z</time>
      </trkpt>
      <trkpt lat="48.56199" lon="-2.80639">
        <ele>116</ele>
        <time>2022-09-09T12:10:04Z</time>
      </trkpt>
      <trkpt lat="48.56188" lon="-2.80631">
        <ele>116</ele>
        <time>2022-09-09T12:10:07Z</time>
      </trkpt>
      <trkpt lat="48.5618" lon="-2.80618">
        <ele>116</ele>
        <time>2022-09-09T12:10:10Z</time>
      </trkpt>
      <trkpt lat="48.56175" lon="-2.80604">
        <ele>116</ele>
        <time>2022-09-09T12:10:13Z</time>
      </trkpt>
      <trkpt lat="48.56172" lon="-2.80589">
        <ele>116</ele>
        <time>2022-09-09T12:10:16Z</time>
      </trkpt>
      <trkpt lat="48.5617" lon="-2.80576">
        <ele>116.3</ele>
        <time>2022-09-09T12:10:19Z</time>
      </trkpt>
      <trkpt lat="48.56168" lon="-2.80559">
        <ele>116.9</ele>
        <time>2022-09-09T12:10:23Z</time>
      </trkpt>
      <trkpt lat="48.56166" lon="-2.80546">
        <ele>117</ele>
        <time>2022-09-09T12:10:26Z</time>
      </trkpt>
      <trkpt lat="48.56164" lon="-2.80532">
        <ele>117</ele>
        <time>2022-09-09T12:10:29Z</time>
      </trkpt>
      <trkpt lat="48.5616" lon="-2.80518">
        <ele>117.3</ele>
        <time>2022-09-09T12:10:32Z</time>
      </trkpt>
      <trkpt lat="48.56153" lon="-2.80505">
        <ele>117.4</ele>
        <time>2022-09-09T12:10:35Z</time>
      </trkpt>
      <trkpt lat="48.56145" lon="-2.80493">
        <ele>117.2</ele>
        <time>2022-09-09T12:10:38Z</time>
      </trkpt>
      <trkpt lat="48.56135" lon="-2.80481">
        <ele>116.8</ele>
        <time>2022-09-09T12:10:41Z</time>
      </trkpt>
      <trkpt lat="48.56128" lon="-2.80471">
        <ele>116.6</ele>
        <time>2022-09-09T12:10:43Z</time>
      </trkpt>
      <trkpt lat="48.5612" lon="-2.80462">
        <ele>116.3</ele>
        <time>2022-09-09T12:10:45Z</time>
      </trkpt>
      <trkpt lat="48.56112" lon="-2.80452">
        <ele>116</ele>
        <time>2022-09-09T12:10:47Z</time>
      </trkpt>
      <trkpt lat="48.56103" lon="-2.80441">
        <ele>115.7</ele>
        <time>2022-09-09T12:10:49Z</time>
      </trkpt>
      <trkpt lat="48.56093" lon="-2.80429">
        <ele>115</ele>
        <time>2022-09-09T12:10:51Z</time>
      </trkpt>
      <trkpt lat="48.56083" lon="-2.80416">
        <ele>114</ele>
        <time>2022-09-09T12:10:53Z</time>
      </trkpt>
      <trkpt lat="48.56074" lon="-2.80405">
        <ele>113.9</ele>
        <time>2022-09-09T12:10:55Z</time>
      </trkpt>
      <trkpt lat="48.56065" lon="-2.80393">
        <ele>113.6</ele>
        <time>2022-09-09T12:10:58Z</time>
      </trkpt>
      <trkpt lat="48.56064" lon="-2.80377">
        <ele>113.3</ele>
        <time>2022-09-09T12:11:24Z</time>
      </trkpt>
      <trkpt lat="48.56066" lon="-2.80357">
        <ele>112.9</ele>
        <time>2022-09-09T12:11:27Z</time>
      </trkpt>
      <trkpt lat="48.56067" lon="-2.80343">
        <ele>112.2</ele>
        <time>2022-09-09T12:11:29Z</time>
      </trkpt>
      <trkpt lat="48.56067" lon="-2.80328">
        <ele>111.7</ele>
        <time>2022-09-09T12:11:31Z</time>
      </trkpt>
      <trkpt lat="48.56067" lon="-2.80309">
        <ele>111.7</ele>
        <time>2022-09-09T12:11:34Z</time>
      </trkpt>
      <trkpt lat="48.56064" lon="-2.80295">
        <ele>111.2</ele>
        <time>2022-09-09T12:11:38Z</time>
      </trkpt>
      <trkpt lat="48.56058" lon="-2.80282">
        <ele>110.4</ele>
        <time>2022-09-09T12:11:42Z</time>
      </trkpt>
      <trkpt lat="48.56053" lon="-2.80267">
        <ele>110.1</ele>
        <time>2022-09-09T12:11:55Z</time>
      </trkpt>
      <trkpt lat="48.5605" lon="-2.80251">
        <ele>110.2</ele>
        <time>2022-09-09T12:11:57Z</time>
      </trkpt>
      <trkpt lat="48.56045" lon="-2.80238">
        <ele>109.9</ele>
        <time>2022-09-09T12:11:59Z</time>
      </trkpt>
      <trkpt lat="48.56043" lon="-2.80222">
        <ele>109.4</ele>
        <time>2022-09-09T12:12:01Z</time>
      </trkpt>
      <trkpt lat="48.56043" lon="-2.80206">
        <ele>108.9</ele>
        <time>2022-09-09T12:12:03Z</time>
      </trkpt>
      <trkpt lat="48.56043" lon="-2.80184">
        <ele>107.7</ele>
        <time>2022-09-09T12:12:05Z</time>
      </trkpt>
      <trkpt lat="48.56042" lon="-2.80163">
        <ele>106.3</ele>
        <time>2022-09-09T12:12:07Z</time>
      </trkpt>
      <trkpt lat="48.56042" lon="-2.80148">
        <ele>105.5</ele>
        <time>2022-09-09T12:12:09Z</time>
      </trkpt>
      <trkpt lat="48.56043" lon="-2.80133">
        <ele>104.6</ele>
        <time>2022-09-09T12:12:11Z</time>
      </trkpt>
      <trkpt lat="48.5604" lon="-2.80113">
        <ele>103.1</ele>
        <time>2022-09-09T12:12:14Z</time>
      </trkpt>
      <trkpt lat="48.5603" lon="-2.80099">
        <ele>102.5</ele>
        <time>2022-09-09T12:12:17Z</time>
      </trkpt>
      <trkpt lat="48.56019" lon="-2.8009">
        <ele>102.1</ele>
        <time>2022-09-09T12:12:19Z</time>
      </trkpt>
      <trkpt lat="48.56009" lon="-2.80083">
        <ele>101.3</ele>
        <time>2022-09-09T12:12:21Z</time>
      </trkpt>
      <trkpt lat="48.55998" lon="-2.80076">
        <ele>99.9</ele>
        <time>2022-09-09T12:12:23Z</time>
      </trkpt>
      <trkpt lat="48.55989" lon="-2.80068">
        <ele>99</ele>
        <time>2022-09-09T12:12:25Z</time>
      </trkpt>
      <trkpt lat="48.55979" lon="-2.80057">
        <ele>98.6</ele>
        <time>2022-09-09T12:12:28Z</time>
      </trkpt>
      <trkpt lat="48.5597" lon="-2.8005">
        <ele>99.3</ele>
        <time>2022-09-09T12:12:31Z</time>
      </trkpt>
      <trkpt lat="48.55962" lon="-2.80042">
        <ele>100.8</ele>
        <time>2022-09-09T12:12:35Z</time>
      </trkpt>
      <trkpt lat="48.55955" lon="-2.80029">
        <ele>102.1</ele>
        <time>2022-09-09T12:12:40Z</time>
      </trkpt>
      <trkpt lat="48.5595" lon="-2.80016">
        <ele>103.1</ele>
        <time>2022-09-09T12:12:45Z</time>
      </trkpt>
      <trkpt lat="48.55948" lon="-2.80002">
        <ele>104</ele>
        <time>2022-09-09T12:12:50Z</time>
      </trkpt>
      <trkpt lat="48.55944" lon="-2.79989">
        <ele>105.5</ele>
        <time>2022-09-09T12:12:55Z</time>
      </trkpt>
      <trkpt lat="48.55941" lon="-2.79974">
        <ele>106.4</ele>
        <time>2022-09-09T12:13:00Z</time>
      </trkpt>
      <trkpt lat="48.55938" lon="-2.79959">
        <ele>104.9</ele>
        <time>2022-09-09T12:13:05Z</time>
      </trkpt>
      <trkpt lat="48.55936" lon="-2.79945">
        <ele>103.2</ele>
        <time>2022-09-09T12:13:09Z</time>
      </trkpt>
      <trkpt lat="48.55933" lon="-2.79928">
        <ele>102.1</ele>
        <time>2022-09-09T12:13:13Z</time>
      </trkpt>
      <trkpt lat="48.55933" lon="-2.79912">
        <ele>100.4</ele>
        <time>2022-09-09T12:13:16Z</time>
      </trkpt>
      <trkpt lat="48.55935" lon="-2.79891">
        <ele>98.7</ele>
        <time>2022-09-09T12:13:19Z</time>
      </trkpt>
      <trkpt lat="48.55933" lon="-2.79877">
        <ele>98.2</ele>
        <time>2022-09-09T12:13:21Z</time>
      </trkpt>
      <trkpt lat="48.55932" lon="-2.79863">
        <ele>97.7</ele>
        <time>2022-09-09T12:13:23Z</time>
      </trkpt>
      <trkpt lat="48.5593" lon="-2.79846">
        <ele>97.1</ele>
        <time>2022-09-09T12:13:25Z</time>
      </trkpt>
      <trkpt lat="48.55928" lon="-2.79828">
        <ele>97</ele>
        <time>2022-09-09T12:13:27Z</time>
      </trkpt>
      <trkpt lat="48.55922" lon="-2.79815">
        <ele>98.7</ele>
        <time>2022-09-09T12:13:29Z</time>
      </trkpt>
      <trkpt lat="48.55913" lon="-2.79808">
        <ele>101.1</ele>
        <time>2022-09-09T12:13:31Z</time>
      </trkpt>
      <trkpt lat="48.55901" lon="-2.79812">
        <ele>101.5</ele>
        <time>2022-09-09T12:13:34Z</time>
      </trkpt>
      <trkpt lat="48.55892" lon="-2.79813">
        <ele>101.8</ele>
        <time>2022-09-09T12:13:37Z</time>
      </trkpt>
      <trkpt lat="48.55883" lon="-2.79816">
        <ele>101.8</ele>
        <time>2022-09-09T12:13:40Z</time>
      </trkpt>
      <trkpt lat="48.55874" lon="-2.79819">
        <ele>101.8</ele>
        <time>2022-09-09T12:13:43Z</time>
      </trkpt>
      <trkpt lat="48.55864" lon="-2.79819">
        <ele>101.5</ele>
        <time>2022-09-09T12:13:46Z</time>
      </trkpt>
      <trkpt lat="48.55853" lon="-2.79817">
        <ele>101.6</ele>
        <time>2022-09-09T12:13:50Z</time>
      </trkpt>
      <trkpt lat="48.55842" lon="-2.79818">
        <ele>102.3</ele>
        <time>2022-09-09T12:13:55Z</time>
      </trkpt>
      <trkpt lat="48.55833" lon="-2.7982">
        <ele>103.1</ele>
        <time>2022-09-09T12:13:59Z</time>
      </trkpt>
      <trkpt lat="48.55823" lon="-2.79819">
        <ele>102.8</ele>
        <time>2022-09-09T12:14:04Z</time>
      </trkpt>
      <trkpt lat="48.55817" lon="-2.79809">
        <ele>100.9</ele>
        <time>2022-09-09T12:14:09Z</time>
      </trkpt>
      <trkpt lat="48.55813" lon="-2.79793">
        <ele>95.2</ele>
        <time>2022-09-09T12:14:13Z</time>
      </trkpt>
      <trkpt lat="48.5581" lon="-2.7978">
        <ele>89.7</ele>
        <time>2022-09-09T12:14:17Z</time>
      </trkpt>
      <trkpt lat="48.55805" lon="-2.79765">
        <ele>83.4</ele>
        <time>2022-09-09T12:14:21Z</time>
      </trkpt>
      <trkpt lat="48.55801" lon="-2.79752">
        <ele>77.3</ele>
        <time>2022-09-09T12:14:24Z</time>
      </trkpt>
      <trkpt lat="48.55796" lon="-2.79737">
        <ele>75.5</ele>
        <time>2022-09-09T12:14:27Z</time>
      </trkpt>
      <trkpt lat="48.55792" lon="-2.79721">
        <ele>75.3</ele>
        <time>2022-09-09T12:14:30Z</time>
      </trkpt>
      <trkpt lat="48.55788" lon="-2.79708">
        <ele>80.1</ele>
        <time>2022-09-09T12:14:33Z</time>
      </trkpt>
      <trkpt lat="48.55784" lon="-2.79693">
        <ele>85.8</ele>
        <time>2022-09-09T12:14:36Z</time>
      </trkpt>
      <trkpt lat="48.5578" lon="-2.79677">
        <ele>93.1</ele>
        <time>2022-09-09T12:14:39Z</time>
      </trkpt>
      <trkpt lat="48.55776" lon="-2.79663">
        <ele>99.2</ele>
        <time>2022-09-09T12:14:42Z</time>
      </trkpt>
      <trkpt lat="48.55772" lon="-2.79649">
        <ele>102.8</ele>
        <time>2022-09-09T12:14:45Z</time>
      </trkpt>
      <trkpt lat="48.55763" lon="-2.79639">
        <ele>106</ele>
        <time>2022-09-09T12:14:48Z</time>
      </trkpt>
      <trkpt lat="48.55752" lon="-2.7964">
        <ele>106.5</ele>
        <time>2022-09-09T12:14:51Z</time>
      </trkpt>
      <trkpt lat="48.55742" lon="-2.79641">
        <ele>106.9</ele>
        <time>2022-09-09T12:14:54Z</time>
      </trkpt>
      <trkpt lat="48.55733" lon="-2.79644">
        <ele>106.7</ele>
        <time>2022-09-09T12:14:57Z</time>
      </trkpt>
      <trkpt lat="48.55722" lon="-2.79647">
        <ele>106.8</ele>
        <time>2022-09-09T12:15:01Z</time>
      </trkpt>
      <trkpt lat="48.55711" lon="-2.79648">
        <ele>107</ele>
        <time>2022-09-09T12:15:05Z</time>
      </trkpt>
      <trkpt lat="48.557" lon="-2.79648">
        <ele>107.3</ele>
        <time>2022-09-09T12:15:09Z</time>
      </trkpt>
      <trkpt lat="48.5569" lon="-2.79648">
        <ele>107.8</ele>
        <time>2022-09-09T12:15:13Z</time>
      </trkpt>
      <trkpt lat="48.5568" lon="-2.79648">
        <ele>108.4</ele>
        <time>2022-09-09T12:15:17Z</time>
      </trkpt>
      <trkpt lat="48.5567" lon="-2.79649">
        <ele>108.8</ele>
        <time>2022-09-09T12:15:21Z</time>
      </trkpt>
      <trkpt lat="48.55661" lon="-2.79649">
        <ele>109.8</ele>
        <time>2022-09-09T12:15:25Z</time>
      </trkpt>
      <trkpt lat="48.55651" lon="-2.79652">
        <ele>110.4</ele>
        <time>2022-09-09T12:15:29Z</time>
      </trkpt>
      <trkpt lat="48.5564" lon="-2.79655">
        <ele>111.1</ele>
        <time>2022-09-09T12:15:33Z</time>
      </trkpt>
      <trkpt lat="48.5563" lon="-2.7966">
        <ele>111.5</ele>
        <time>2022-09-09T12:15:37Z</time>
      </trkpt>
      <trkpt lat="48.5562" lon="-2.79664">
        <ele>112.1</ele>
        <time>2022-09-09T12:15:41Z</time>
      </trkpt>
      <trkpt lat="48.55609" lon="-2.79671">
        <ele>112</ele>
        <time>2022-09-09T12:15:45Z</time>
      </trkpt>
      <trkpt lat="48.55599" lon="-2.79677">
        <ele>110.7</ele>
        <time>2022-09-09T12:15:49Z</time>
      </trkpt>
      <trkpt lat="48.55589" lon="-2.79679">
        <ele>110.7</ele>
        <time>2022-09-09T12:15:52Z</time>
      </trkpt>
      <trkpt lat="48.55579" lon="-2.79674">
        <ele>111.6</ele>
        <time>2022-09-09T12:15:55Z</time>
      </trkpt>
      <trkpt lat="48.55573" lon="-2.79662">
        <ele>112.7</ele>
        <time>2022-09-09T12:15:58Z</time>
      </trkpt>
      <trkpt lat="48.55572" lon="-2.79647">
        <ele>112.9</ele>
        <time>2022-09-09T12:16:01Z</time>
      </trkpt>
      <trkpt lat="48.55573" lon="-2.79632">
        <ele>113.2</ele>
        <time>2022-09-09T12:16:04Z</time>
      </trkpt>
      <trkpt lat="48.55574" lon="-2.79617">
        <ele>113.8</ele>
        <time>2022-09-09T12:16:07Z</time>
      </trkpt>
      <trkpt lat="48.55574" lon="-2.79602">
        <ele>114</ele>
        <time>2022-09-09T12:16:10Z</time>
      </trkpt>
      <trkpt lat="48.55574" lon="-2.79586">
        <ele>114</ele>
        <time>2022-09-09T12:16:13Z</time>
      </trkpt>
      <trkpt lat="48.55574" lon="-2.79569">
        <ele>114</ele>
        <time>2022-09-09T12:16:16Z</time>
      </trkpt>
      <trkpt lat="48.55573" lon="-2.79552">
        <ele>114</ele>
        <time>2022-09-09T12:16:19Z</time>
      </trkpt>
      <trkpt lat="48.5557" lon="-2.79533">
        <ele>114</ele>
        <time>2022-09-09T12:16:22Z</time>
      </trkpt>
      <trkpt lat="48.55568" lon="-2.79518">
        <ele>114.2</ele>
        <time>2022-09-09T12:16:25Z</time>
      </trkpt>
      <trkpt lat="48.55565" lon="-2.79501">
        <ele>114.6</ele>
        <time>2022-09-09T12:16:29Z</time>
      </trkpt>
      <trkpt lat="48.55564" lon="-2.79488">
        <ele>114.4</ele>
        <time>2022-09-09T12:16:32Z</time>
      </trkpt>
      <trkpt lat="48.55563" lon="-2.79473">
        <ele>114</ele>
        <time>2022-09-09T12:16:35Z</time>
      </trkpt>
      <trkpt lat="48.55559" lon="-2.79459">
        <ele>114</ele>
        <time>2022-09-09T12:16:38Z</time>
      </trkpt>
      <trkpt lat="48.55554" lon="-2.79447">
        <ele>114</ele>
        <time>2022-09-09T12:16:41Z</time>
      </trkpt>
      <trkpt lat="48.55549" lon="-2.79435">
        <ele>113.7</ele>
        <time>2022-09-09T12:16:44Z</time>
      </trkpt>
      <trkpt lat="48.55542" lon="-2.79421">
        <ele>113.6</ele>
        <time>2022-09-09T12:16:47Z</time>
      </trkpt>
      <trkpt lat="48.55537" lon="-2.79406">
        <ele>113.4</ele>
        <time>2022-09-09T12:16:50Z</time>
      </trkpt>
      <trkpt lat="48.55532" lon="-2.7939">
        <ele>113</ele>
        <time>2022-09-09T12:16:53Z</time>
      </trkpt>
      <trkpt lat="48.55526" lon="-2.79376">
        <ele>113.1</ele>
        <time>2022-09-09T12:16:56Z</time>
      </trkpt>
      <trkpt lat="48.55514" lon="-2.79379">
        <ele>113.5</ele>
        <time>2022-09-09T12:17:00Z</time>
      </trkpt>
      <trkpt lat="48.55506" lon="-2.79387">
        <ele>113.8</ele>
        <time>2022-09-09T12:17:03Z</time>
      </trkpt>
      <trkpt lat="48.55496" lon="-2.79398">
        <ele>114.3</ele>
        <time>2022-09-09T12:17:07Z</time>
      </trkpt>
      <trkpt lat="48.55487" lon="-2.79405">
        <ele>114.9</ele>
        <time>2022-09-09T12:17:11Z</time>
      </trkpt>
      <trkpt lat="48.55476" lon="-2.79406">
        <ele>115.8</ele>
        <time>2022-09-09T12:17:15Z</time>
      </trkpt>
      <trkpt lat="48.55466" lon="-2.79401">
        <ele>116.1</ele>
        <time>2022-09-09T12:17:22Z</time>
      </trkpt>
      <trkpt lat="48.55458" lon="-2.79394">
        <ele>116.4</ele>
        <time>2022-09-09T12:17:27Z</time>
      </trkpt>
      <trkpt lat="48.5545" lon="-2.79385">
        <ele>116.8</ele>
        <time>2022-09-09T12:17:32Z</time>
      </trkpt>
      <trkpt lat="48.5544" lon="-2.79376">
        <ele>117.1</ele>
        <time>2022-09-09T12:17:38Z</time>
      </trkpt>
      <trkpt lat="48.55435" lon="-2.79364">
        <ele>117.4</ele>
        <time>2022-09-09T12:20:53Z</time>
      </trkpt>
      <trkpt lat="48.55427" lon="-2.79355">
        <ele>117.6</ele>
        <time>2022-09-09T12:20:57Z</time>
      </trkpt>
      <trkpt lat="48.55419" lon="-2.79348">
        <ele>117.9</ele>
        <time>2022-09-09T12:21:12Z</time>
      </trkpt>
      <trkpt lat="48.55412" lon="-2.7934">
        <ele>118.3</ele>
        <time>2022-09-09T12:21:16Z</time>
      </trkpt>
      <trkpt lat="48.55403" lon="-2.79331">
        <ele>119</ele>
        <time>2022-09-09T12:21:20Z</time>
      </trkpt>
      <trkpt lat="48.55395" lon="-2.79321">
        <ele>119.7</ele>
        <time>2022-09-09T12:21:24Z</time>
      </trkpt>
      <trkpt lat="48.55385" lon="-2.79312">
        <ele>120.2</ele>
        <time>2022-09-09T12:21:28Z</time>
      </trkpt>
      <trkpt lat="48.55376" lon="-2.793">
        <ele>120.6</ele>
        <time>2022-09-09T12:21:32Z</time>
      </trkpt>
      <trkpt lat="48.55366" lon="-2.79291">
        <ele>120.9</ele>
        <time>2022-09-09T12:21:36Z</time>
      </trkpt>
      <trkpt lat="48.55357" lon="-2.79281">
        <ele>121.3</ele>
        <time>2022-09-09T12:21:40Z</time>
      </trkpt>
      <trkpt lat="48.55348" lon="-2.79271">
        <ele>122</ele>
        <time>2022-09-09T12:21:44Z</time>
      </trkpt>
      <trkpt lat="48.55341" lon="-2.79262">
        <ele>122.2</ele>
        <time>2022-09-09T12:21:48Z</time>
      </trkpt>
      <trkpt lat="48.55331" lon="-2.79253">
        <ele>122.2</ele>
        <time>2022-09-09T12:21:52Z</time>
      </trkpt>
      <trkpt lat="48.55322" lon="-2.79244">
        <ele>123.1</ele>
        <time>2022-09-09T12:21:56Z</time>
      </trkpt>
      <trkpt lat="48.55312" lon="-2.79234">
        <ele>123.8</ele>
        <time>2022-09-09T12:22:00Z</time>
      </trkpt>
      <trkpt lat="48.55304" lon="-2.79225">
        <ele>124.1</ele>
        <time>2022-09-09T12:22:05Z</time>
      </trkpt>
      <trkpt lat="48.55296" lon="-2.79216">
        <ele>124.8</ele>
        <time>2022-09-09T12:22:10Z</time>
      </trkpt>
      <trkpt lat="48.55287" lon="-2.79208">
        <ele>125.2</ele>
        <time>2022-09-09T12:22:15Z</time>
      </trkpt>
      <trkpt lat="48.55278" lon="-2.79199">
        <ele>125.2</ele>
        <time>2022-09-09T12:22:19Z</time>
      </trkpt>
      <trkpt lat="48.55268" lon="-2.79189">
        <ele>125.7</ele>
        <time>2022-09-09T12:22:23Z</time>
      </trkpt>
      <trkpt lat="48.5526" lon="-2.79181">
        <ele>126.1</ele>
        <time>2022-09-09T12:22:26Z</time>
      </trkpt>
      <trkpt lat="48.5525" lon="-2.79173">
        <ele>126.3</ele>
        <time>2022-09-09T12:22:30Z</time>
      </trkpt>
      <trkpt lat="48.5524" lon="-2.79165">
        <ele>126.4</ele>
        <time>2022-09-09T12:22:34Z</time>
      </trkpt>
      <trkpt lat="48.55232" lon="-2.79158">
        <ele>126.8</ele>
        <time>2022-09-09T12:22:38Z</time>
      </trkpt>
      <trkpt lat="48.55224" lon="-2.7915">
        <ele>127</ele>
        <time>2022-09-09T12:22:41Z</time>
      </trkpt>
      <trkpt lat="48.55214" lon="-2.79139">
        <ele>127.3</ele>
        <time>2022-09-09T12:22:44Z</time>
      </trkpt>
      <trkpt lat="48.55205" lon="-2.7913">
        <ele>127.5</ele>
        <time>2022-09-09T12:22:47Z</time>
      </trkpt>
      <trkpt lat="48.55198" lon="-2.79121">
        <ele>127.4</ele>
        <time>2022-09-09T12:22:52Z</time>
      </trkpt>
      <trkpt lat="48.5519" lon="-2.79114">
        <ele>127.3</ele>
        <time>2022-09-09T12:22:56Z</time>
      </trkpt>
      <trkpt lat="48.55183" lon="-2.79104">
        <ele>127.4</ele>
        <time>2022-09-09T12:22:59Z</time>
      </trkpt>
      <trkpt lat="48.55176" lon="-2.79095">
        <ele>127.5</ele>
        <time>2022-09-09T12:23:02Z</time>
      </trkpt>
      <trkpt lat="48.55167" lon="-2.79085">
        <ele>127.1</ele>
        <time>2022-09-09T12:23:05Z</time>
      </trkpt>
      <trkpt lat="48.55157" lon="-2.79076">
        <ele>127.5</ele>
        <time>2022-09-09T12:23:08Z</time>
      </trkpt>
      <trkpt lat="48.55146" lon="-2.79064">
        <ele>127.9</ele>
        <time>2022-09-09T12:23:11Z</time>
      </trkpt>
      <trkpt lat="48.55136" lon="-2.79053">
        <ele>128</ele>
        <time>2022-09-09T12:23:14Z</time>
      </trkpt>
      <trkpt lat="48.55125" lon="-2.79042">
        <ele>128</ele>
        <time>2022-09-09T12:23:17Z</time>
      </trkpt>
      <trkpt lat="48.55115" lon="-2.7903">
        <ele>128</ele>
        <time>2022-09-09T12:23:20Z</time>
      </trkpt>
      <trkpt lat="48.55105" lon="-2.79017">
        <ele>128</ele>
        <time>2022-09-09T12:23:23Z</time>
      </trkpt>
      <trkpt lat="48.55096" lon="-2.79006">
        <ele>128</ele>
        <time>2022-09-09T12:23:26Z</time>
      </trkpt>
      <trkpt lat="48.55086" lon="-2.78993">
        <ele>128</ele>
        <time>2022-09-09T12:23:29Z</time>
      </trkpt>
      <trkpt lat="48.55077" lon="-2.78983">
        <ele>127.8</ele>
        <time>2022-09-09T12:23:32Z</time>
      </trkpt>
      <trkpt lat="48.55068" lon="-2.78977">
        <ele>127.4</ele>
        <time>2022-09-09T12:23:35Z</time>
      </trkpt>
      <trkpt lat="48.55058" lon="-2.78968">
        <ele>127.1</ele>
        <time>2022-09-09T12:23:38Z</time>
      </trkpt>
      <trkpt lat="48.55049" lon="-2.78958">
        <ele>127</ele>
        <time>2022-09-09T12:23:41Z</time>
      </trkpt>
      <trkpt lat="48.5504" lon="-2.78946">
        <ele>127</ele>
        <time>2022-09-09T12:23:44Z</time>
      </trkpt>
      <trkpt lat="48.55035" lon="-2.78935">
        <ele>127</ele>
        <time>2022-09-09T12:23:46Z</time>
      </trkpt>
      <trkpt lat="48.55026" lon="-2.78922">
        <ele>126.9</ele>
        <time>2022-09-09T12:23:49Z</time>
      </trkpt>
      <trkpt lat="48.55019" lon="-2.78913">
        <ele>126.7</ele>
        <time>2022-09-09T12:23:51Z</time>
      </trkpt>
      <trkpt lat="48.55011" lon="-2.78903">
        <ele>126.4</ele>
        <time>2022-09-09T12:23:53Z</time>
      </trkpt>
      <trkpt lat="48.55004" lon="-2.78892">
        <ele>126.2</ele>
        <time>2022-09-09T12:23:55Z</time>
      </trkpt>
      <trkpt lat="48.54997" lon="-2.78882">
        <ele>125.9</ele>
        <time>2022-09-09T12:23:57Z</time>
      </trkpt>
      <trkpt lat="48.54992" lon="-2.7887">
        <ele>126.1</ele>
        <time>2022-09-09T12:23:59Z</time>
      </trkpt>
      <trkpt lat="48.54993" lon="-2.78856">
        <ele>126.1</ele>
        <time>2022-09-09T12:24:01Z</time>
      </trkpt>
      <trkpt lat="48.54996" lon="-2.78842">
        <ele>125.9</ele>
        <time>2022-09-09T12:24:03Z</time>
      </trkpt>
      <trkpt lat="48.55" lon="-2.78828">
        <ele>125.8</ele>
        <time>2022-09-09T12:24:05Z</time>
      </trkpt>
      <trkpt lat="48.55004" lon="-2.78812">
        <ele>125.3</ele>
        <time>2022-09-09T12:24:07Z</time>
      </trkpt>
      <trkpt lat="48.55008" lon="-2.78797">
        <ele>125.3</ele>
        <time>2022-09-09T12:24:09Z</time>
      </trkpt>
      <trkpt lat="48.55012" lon="-2.78782">
        <ele>125.4</ele>
        <time>2022-09-09T12:24:11Z</time>
      </trkpt>
      <trkpt lat="48.55017" lon="-2.78768">
        <ele>125.6</ele>
        <time>2022-09-09T12:24:13Z</time>
      </trkpt>
      <trkpt lat="48.5502" lon="-2.78752">
        <ele>125.7</ele>
        <time>2022-09-09T12:24:15Z</time>
      </trkpt>
      <trkpt lat="48.55025" lon="-2.78738">
        <ele>125.5</ele>
        <time>2022-09-09T12:24:17Z</time>
      </trkpt>
      <trkpt lat="48.55028" lon="-2.78724">
        <ele>125.1</ele>
        <time>2022-09-09T12:24:19Z</time>
      </trkpt>
      <trkpt lat="48.55032" lon="-2.78709">
        <ele>125.1</ele>
        <time>2022-09-09T12:24:21Z</time>
      </trkpt>
      <trkpt lat="48.55035" lon="-2.78693">
        <ele>125.2</ele>
        <time>2022-09-09T12:24:23Z</time>
      </trkpt>
      <trkpt lat="48.55038" lon="-2.78678">
        <ele>125.1</ele>
        <time>2022-09-09T12:24:25Z</time>
      </trkpt>
      <trkpt lat="48.5504" lon="-2.78663">
        <ele>124.9</ele>
        <time>2022-09-09T12:24:27Z</time>
      </trkpt>
      <trkpt lat="48.55043" lon="-2.78648">
        <ele>124.7</ele>
        <time>2022-09-09T12:24:29Z</time>
      </trkpt>
      <trkpt lat="48.55046" lon="-2.78633">
        <ele>124.7</ele>
        <time>2022-09-09T12:24:31Z</time>
      </trkpt>
      <trkpt lat="48.5505" lon="-2.7862">
        <ele>124.8</ele>
        <time>2022-09-09T12:24:33Z</time>
      </trkpt>
      <trkpt lat="48.55054" lon="-2.786">
        <ele>124.6</ele>
        <time>2022-09-09T12:24:36Z</time>
      </trkpt>
      <trkpt lat="48.55059" lon="-2.78586">
        <ele>124.2</ele>
        <time>2022-09-09T12:24:38Z</time>
      </trkpt>
      <trkpt lat="48.55062" lon="-2.78571">
        <ele>124.2</ele>
        <time>2022-09-09T12:24:40Z</time>
      </trkpt>
      <trkpt lat="48.55066" lon="-2.78555">
        <ele>124.4</ele>
        <time>2022-09-09T12:24:42Z</time>
      </trkpt>
      <trkpt lat="48.5507" lon="-2.78541">
        <ele>124.5</ele>
        <time>2022-09-09T12:24:44Z</time>
      </trkpt>
      <trkpt lat="48.55075" lon="-2.78526">
        <ele>124.7</ele>
        <time>2022-09-09T12:24:46Z</time>
      </trkpt>
      <trkpt lat="48.55081" lon="-2.78512">
        <ele>124.4</ele>
        <time>2022-09-09T12:24:48Z</time>
      </trkpt>
      <trkpt lat="48.55087" lon="-2.785">
        <ele>124.1</ele>
        <time>2022-09-09T12:24:50Z</time>
      </trkpt>
      <trkpt lat="48.55094" lon="-2.78484">
        <ele>124.2</ele>
        <time>2022-09-09T12:24:53Z</time>
      </trkpt>
      <trkpt lat="48.55099" lon="-2.78471">
        <ele>124</ele>
        <time>2022-09-09T12:24:56Z</time>
      </trkpt>
      <trkpt lat="48.55107" lon="-2.78459">
        <ele>123.9</ele>
        <time>2022-09-09T12:24:59Z</time>
      </trkpt>
      <trkpt lat="48.55115" lon="-2.78448">
        <ele>124.2</ele>
        <time>2022-09-09T12:25:02Z</time>
      </trkpt>
      <trkpt lat="48.55124" lon="-2.78436">
        <ele>124.2</ele>
        <time>2022-09-09T12:25:05Z</time>
      </trkpt>
      <trkpt lat="48.55132" lon="-2.78425">
        <ele>124.1</ele>
        <time>2022-09-09T12:25:08Z</time>
      </trkpt>
      <trkpt lat="48.55139" lon="-2.78414">
        <ele>123.9</ele>
        <time>2022-09-09T12:25:11Z</time>
      </trkpt>
      <trkpt lat="48.55147" lon="-2.78403">
        <ele>124.2</ele>
        <time>2022-09-09T12:25:14Z</time>
      </trkpt>
      <trkpt lat="48.55154" lon="-2.7839">
        <ele>124.7</ele>
        <time>2022-09-09T12:25:18Z</time>
      </trkpt>
      <trkpt lat="48.55161" lon="-2.78377">
        <ele>125.1</ele>
        <time>2022-09-09T12:25:22Z</time>
      </trkpt>
      <trkpt lat="48.55167" lon="-2.78365">
        <ele>125.2</ele>
        <time>2022-09-09T12:25:26Z</time>
      </trkpt>
      <trkpt lat="48.55174" lon="-2.78353">
        <ele>125.2</ele>
        <time>2022-09-09T12:25:30Z</time>
      </trkpt>
      <trkpt lat="48.55182" lon="-2.78339">
        <ele>125.3</ele>
        <time>2022-09-09T12:25:34Z</time>
      </trkpt>
      <trkpt lat="48.55189" lon="-2.78326">
        <ele>125.4</ele>
        <time>2022-09-09T12:25:38Z</time>
      </trkpt>
      <trkpt lat="48.55196" lon="-2.78312">
        <ele>125.4</ele>
        <time>2022-09-09T12:25:42Z</time>
      </trkpt>
      <trkpt lat="48.55203" lon="-2.78299">
        <ele>125.4</ele>
        <time>2022-09-09T12:25:46Z</time>
      </trkpt>
      <trkpt lat="48.5521" lon="-2.7829">
        <ele>125.6</ele>
        <time>2022-09-09T12:25:49Z</time>
      </trkpt>
      <trkpt lat="48.55218" lon="-2.78278">
        <ele>125.7</ele>
        <time>2022-09-09T12:25:53Z</time>
      </trkpt>
      <trkpt lat="48.55223" lon="-2.78267">
        <ele>125.6</ele>
        <time>2022-09-09T12:25:56Z</time>
      </trkpt>
      <trkpt lat="48.55228" lon="-2.78254">
        <ele>125.1</ele>
        <time>2022-09-09T12:25:59Z</time>
      </trkpt>
      <trkpt lat="48.55235" lon="-2.78243">
        <ele>124.6</ele>
        <time>2022-09-09T12:26:01Z</time>
      </trkpt>
      <trkpt lat="48.55241" lon="-2.78227">
        <ele>123.9</ele>
        <time>2022-09-09T12:26:04Z</time>
      </trkpt>
      <trkpt lat="48.5524" lon="-2.78212">
        <ele>123.3</ele>
        <time>2022-09-09T12:26:22Z</time>
      </trkpt>
      <trkpt lat="48.5523" lon="-2.78202">
        <ele>122.5</ele>
        <time>2022-09-09T12:26:26Z</time>
      </trkpt>
      <trkpt lat="48.5522" lon="-2.78192">
        <ele>122</ele>
        <time>2022-09-09T12:26:29Z</time>
      </trkpt>
      <trkpt lat="48.55212" lon="-2.78186">
        <ele>121.9</ele>
        <time>2022-09-09T12:26:31Z</time>
      </trkpt>
      <trkpt lat="48.55202" lon="-2.78179">
        <ele>121.6</ele>
        <time>2022-09-09T12:26:33Z</time>
      </trkpt>
      <trkpt lat="48.55192" lon="-2.7817">
        <ele>121</ele>
        <time>2022-09-09T12:26:35Z</time>
      </trkpt>
      <trkpt lat="48.55181" lon="-2.78161">
        <ele>120.3</ele>
        <time>2022-09-09T12:26:37Z</time>
      </trkpt>
      <trkpt lat="48.55169" lon="-2.78149">
        <ele>119.5</ele>
        <time>2022-09-09T12:26:39Z</time>
      </trkpt>
      <trkpt lat="48.55159" lon="-2.78137">
        <ele>118.7</ele>
        <time>2022-09-09T12:26:41Z</time>
      </trkpt>
      <trkpt lat="48.5515" lon="-2.78124">
        <ele>117.9</ele>
        <time>2022-09-09T12:26:43Z</time>
      </trkpt>
      <trkpt lat="48.55145" lon="-2.78107">
        <ele>117.2</ele>
        <time>2022-09-09T12:26:45Z</time>
      </trkpt>
      <trkpt lat="48.55144" lon="-2.78093">
        <ele>117.2</ele>
        <time>2022-09-09T12:26:47Z</time>
      </trkpt>
      <trkpt lat="48.55147" lon="-2.7808">
        <ele>117.1</ele>
        <time>2022-09-09T12:26:53Z</time>
      </trkpt>
      <trkpt lat="48.55144" lon="-2.78095">
        <ele>117.2</ele>
        <time>2022-09-09T12:27:28Z</time>
      </trkpt>
      <trkpt lat="48.55147" lon="-2.78109">
        <ele>117.3</ele>
        <time>2022-09-09T12:27:32Z</time>
      </trkpt>
      <trkpt lat="48.55152" lon="-2.78122">
        <ele>117.9</ele>
        <time>2022-09-09T12:27:36Z</time>
      </trkpt>
      <trkpt lat="48.5516" lon="-2.78135">
        <ele>118.6</ele>
        <time>2022-09-09T12:27:40Z</time>
      </trkpt>
      <trkpt lat="48.55168" lon="-2.78144">
        <ele>119.2</ele>
        <time>2022-09-09T12:27:44Z</time>
      </trkpt>
      <trkpt lat="48.55176" lon="-2.78153">
        <ele>119.9</ele>
        <time>2022-09-09T12:27:48Z</time>
      </trkpt>
      <trkpt lat="48.55186" lon="-2.78161">
        <ele>120.5</ele>
        <time>2022-09-09T12:27:52Z</time>
      </trkpt>
      <trkpt lat="48.55195" lon="-2.78169">
        <ele>121.1</ele>
        <time>2022-09-09T12:27:56Z</time>
      </trkpt>
      <trkpt lat="48.55203" lon="-2.78179">
        <ele>121.6</ele>
        <time>2022-09-09T12:28:01Z</time>
      </trkpt>
      <trkpt lat="48.5521" lon="-2.78187">
        <ele>121.9</ele>
        <time>2022-09-09T12:28:05Z</time>
      </trkpt>
      <trkpt lat="48.55218" lon="-2.78197">
        <ele>122.1</ele>
        <time>2022-09-09T12:28:10Z</time>
      </trkpt>
      <trkpt lat="48.55228" lon="-2.78205">
        <ele>122.6</ele>
        <time>2022-09-09T12:28:15Z</time>
      </trkpt>
      <trkpt lat="48.55236" lon="-2.7821">
        <ele>123.1</ele>
        <time>2022-09-09T12:28:19Z</time>
      </trkpt>
      <trkpt lat="48.55245" lon="-2.78208">
        <ele>123.3</ele>
        <time>2022-09-09T12:28:23Z</time>
      </trkpt>
      <trkpt lat="48.55251" lon="-2.78193">
        <ele>123</ele>
        <time>2022-09-09T12:28:27Z</time>
      </trkpt>
      <trkpt lat="48.55254" lon="-2.78177">
        <ele>122.5</ele>
        <time>2022-09-09T12:28:30Z</time>
      </trkpt>
      <trkpt lat="48.55258" lon="-2.7816">
        <ele>122.3</ele>
        <time>2022-09-09T12:28:33Z</time>
      </trkpt>
      <trkpt lat="48.55259" lon="-2.78146">
        <ele>122.3</ele>
        <time>2022-09-09T12:28:35Z</time>
      </trkpt>
      <trkpt lat="48.55262" lon="-2.78131">
        <ele>122</ele>
        <time>2022-09-09T12:28:37Z</time>
      </trkpt>
      <trkpt lat="48.55267" lon="-2.78117">
        <ele>121.3</ele>
        <time>2022-09-09T12:28:39Z</time>
      </trkpt>
      <trkpt lat="48.55273" lon="-2.78102">
        <ele>120.7</ele>
        <time>2022-09-09T12:28:41Z</time>
      </trkpt>
      <trkpt lat="48.5528" lon="-2.78087">
        <ele>120.2</ele>
        <time>2022-09-09T12:28:43Z</time>
      </trkpt>
      <trkpt lat="48.55287" lon="-2.78071">
        <ele>120.2</ele>
        <time>2022-09-09T12:28:45Z</time>
      </trkpt>
      <trkpt lat="48.55294" lon="-2.78054">
        <ele>120</ele>
        <time>2022-09-09T12:28:47Z</time>
      </trkpt>
      <trkpt lat="48.55298" lon="-2.78034">
        <ele>119.8</ele>
        <time>2022-09-09T12:28:49Z</time>
      </trkpt>
      <trkpt lat="48.55301" lon="-2.78015">
        <ele>119</ele>
        <time>2022-09-09T12:28:51Z</time>
      </trkpt>
      <trkpt lat="48.55301" lon="-2.77993">
        <ele>117.7</ele>
        <time>2022-09-09T12:28:53Z</time>
      </trkpt>
      <trkpt lat="48.55296" lon="-2.77972">
        <ele>117</ele>
        <time>2022-09-09T12:28:55Z</time>
      </trkpt>
      <trkpt lat="48.55286" lon="-2.77956">
        <ele>116.6</ele>
        <time>2022-09-09T12:28:57Z</time>
      </trkpt>
      <trkpt lat="48.55273" lon="-2.77946">
        <ele>116.1</ele>
        <time>2022-09-09T12:28:59Z</time>
      </trkpt>
      <trkpt lat="48.55259" lon="-2.77938">
        <ele>116</ele>
        <time>2022-09-09T12:29:01Z</time>
      </trkpt>
      <trkpt lat="48.55246" lon="-2.77928">
        <ele>115.9</ele>
        <time>2022-09-09T12:29:03Z</time>
      </trkpt>
      <trkpt lat="48.55233" lon="-2.77918">
        <ele>115.4</ele>
        <time>2022-09-09T12:29:05Z</time>
      </trkpt>
      <trkpt lat="48.5522" lon="-2.77907">
        <ele>114.9</ele>
        <time>2022-09-09T12:29:07Z</time>
      </trkpt>
      <trkpt lat="48.5521" lon="-2.77892">
        <ele>114.6</ele>
        <time>2022-09-09T12:29:09Z</time>
      </trkpt>
      <trkpt lat="48.55205" lon="-2.77872">
        <ele>114.4</ele>
        <time>2022-09-09T12:29:11Z</time>
      </trkpt>
      <trkpt lat="48.55205" lon="-2.77852">
        <ele>114.4</ele>
        <time>2022-09-09T12:29:13Z</time>
      </trkpt>
      <trkpt lat="48.55208" lon="-2.77833">
        <ele>114.5</ele>
        <time>2022-09-09T12:29:15Z</time>
      </trkpt>
      <trkpt lat="48.55213" lon="-2.77815">
        <ele>114.2</ele>
        <time>2022-09-09T12:29:17Z</time>
      </trkpt>
      <trkpt lat="48.55218" lon="-2.77795">
        <ele>114</ele>
        <time>2022-09-09T12:29:19Z</time>
      </trkpt>
      <trkpt lat="48.55223" lon="-2.77777">
        <ele>114</ele>
        <time>2022-09-09T12:29:21Z</time>
      </trkpt>
      <trkpt lat="48.55228" lon="-2.7776">
        <ele>113.5</ele>
        <time>2022-09-09T12:29:23Z</time>
      </trkpt>
      <trkpt lat="48.55233" lon="-2.77743">
        <ele>113.3</ele>
        <time>2022-09-09T12:29:25Z</time>
      </trkpt>
      <trkpt lat="48.55237" lon="-2.77726">
        <ele>113.1</ele>
        <time>2022-09-09T12:29:27Z</time>
      </trkpt>
      <trkpt lat="48.55241" lon="-2.77709">
        <ele>113</ele>
        <time>2022-09-09T12:29:29Z</time>
      </trkpt>
      <trkpt lat="48.55244" lon="-2.77693">
        <ele>113</ele>
        <time>2022-09-09T12:29:31Z</time>
      </trkpt>
      <trkpt lat="48.55247" lon="-2.77677">
        <ele>113</ele>
        <time>2022-09-09T12:29:33Z</time>
      </trkpt>
      <trkpt lat="48.5525" lon="-2.77661">
        <ele>112.8</ele>
        <time>2022-09-09T12:29:35Z</time>
      </trkpt>
      <trkpt lat="48.55253" lon="-2.77644">
        <ele>112.3</ele>
        <time>2022-09-09T12:29:37Z</time>
      </trkpt>
      <trkpt lat="48.55257" lon="-2.77629">
        <ele>112.3</ele>
        <time>2022-09-09T12:29:39Z</time>
      </trkpt>
      <trkpt lat="48.55261" lon="-2.77612">
        <ele>112.4</ele>
        <time>2022-09-09T12:29:41Z</time>
      </trkpt>
      <trkpt lat="48.55265" lon="-2.77593">
        <ele>112.5</ele>
        <time>2022-09-09T12:29:43Z</time>
      </trkpt>
      <trkpt lat="48.55268" lon="-2.77573">
        <ele>112.1</ele>
        <time>2022-09-09T12:29:45Z</time>
      </trkpt>
      <trkpt lat="48.5527" lon="-2.77554">
        <ele>111</ele>
        <time>2022-09-09T12:29:47Z</time>
      </trkpt>
      <trkpt lat="48.55268" lon="-2.77535">
        <ele>111</ele>
        <time>2022-09-09T12:29:49Z</time>
      </trkpt>
      <trkpt lat="48.55261" lon="-2.77519">
        <ele>110.7</ele>
        <time>2022-09-09T12:29:51Z</time>
      </trkpt>
      <trkpt lat="48.55254" lon="-2.77505">
        <ele>110.2</ele>
        <time>2022-09-09T12:29:53Z</time>
      </trkpt>
      <trkpt lat="48.55246" lon="-2.7749">
        <ele>109.7</ele>
        <time>2022-09-09T12:29:55Z</time>
      </trkpt>
      <trkpt lat="48.55238" lon="-2.77476">
        <ele>109.1</ele>
        <time>2022-09-09T12:29:57Z</time>
      </trkpt>
      <trkpt lat="48.55234" lon="-2.77458">
        <ele>108.7</ele>
        <time>2022-09-09T12:29:59Z</time>
      </trkpt>
      <trkpt lat="48.55233" lon="-2.77439">
        <ele>108.3</ele>
        <time>2022-09-09T12:30:01Z</time>
      </trkpt>
      <trkpt lat="48.55234" lon="-2.77417">
        <ele>108</ele>
        <time>2022-09-09T12:30:03Z</time>
      </trkpt>
      <trkpt lat="48.55233" lon="-2.77395">
        <ele>107.2</ele>
        <time>2022-09-09T12:30:05Z</time>
      </trkpt>
      <trkpt lat="48.55233" lon="-2.77372">
        <ele>106.6</ele>
        <time>2022-09-09T12:30:07Z</time>
      </trkpt>
      <trkpt lat="48.55232" lon="-2.7735">
        <ele>106.2</ele>
        <time>2022-09-09T12:30:09Z</time>
      </trkpt>
      <trkpt lat="48.5523" lon="-2.77328">
        <ele>106</ele>
        <time>2022-09-09T12:30:11Z</time>
      </trkpt>
      <trkpt lat="48.55227" lon="-2.77307">
        <ele>106</ele>
        <time>2022-09-09T12:30:13Z</time>
      </trkpt>
      <trkpt lat="48.55225" lon="-2.77285">
        <ele>105.4</ele>
        <time>2022-09-09T12:30:15Z</time>
      </trkpt>
      <trkpt lat="48.55223" lon="-2.77263">
        <ele>105</ele>
        <time>2022-09-09T12:30:17Z</time>
      </trkpt>
      <trkpt lat="48.55221" lon="-2.77244">
        <ele>105</ele>
        <time>2022-09-09T12:30:19Z</time>
      </trkpt>
      <trkpt lat="48.55217" lon="-2.77225">
        <ele>105</ele>
        <time>2022-09-09T12:30:21Z</time>
      </trkpt>
      <trkpt lat="48.55213" lon="-2.77212">
        <ele>104.8</ele>
        <time>2022-09-09T12:30:26Z</time>
      </trkpt>
      <trkpt lat="48.55209" lon="-2.77194">
        <ele>104.5</ele>
        <time>2022-09-09T12:31:29Z</time>
      </trkpt>
      <trkpt lat="48.5521" lon="-2.77175">
        <ele>104.1</ele>
        <time>2022-09-09T12:31:32Z</time>
      </trkpt>
      <trkpt lat="48.55211" lon="-2.77159">
        <ele>103.7</ele>
        <time>2022-09-09T12:31:34Z</time>
      </trkpt>
      <trkpt lat="48.55213" lon="-2.77142">
        <ele>103.4</ele>
        <time>2022-09-09T12:31:36Z</time>
      </trkpt>
      <trkpt lat="48.55214" lon="-2.77124">
        <ele>103.1</ele>
        <time>2022-09-09T12:31:38Z</time>
      </trkpt>
      <trkpt lat="48.55216" lon="-2.77106">
        <ele>102.7</ele>
        <time>2022-09-09T12:31:40Z</time>
      </trkpt>
      <trkpt lat="48.55219" lon="-2.77088">
        <ele>101.4</ele>
        <time>2022-09-09T12:31:42Z</time>
      </trkpt>
      <trkpt lat="48.55222" lon="-2.7707">
        <ele>101</ele>
        <time>2022-09-09T12:31:44Z</time>
      </trkpt>
      <trkpt lat="48.55225" lon="-2.77051">
        <ele>100.9</ele>
        <time>2022-09-09T12:31:46Z</time>
      </trkpt>
      <trkpt lat="48.55227" lon="-2.77032">
        <ele>100.3</ele>
        <time>2022-09-09T12:31:48Z</time>
      </trkpt>
      <trkpt lat="48.5523" lon="-2.77013">
        <ele>100.3</ele>
        <time>2022-09-09T12:31:50Z</time>
      </trkpt>
      <trkpt lat="48.55236" lon="-2.76994">
        <ele>100.3</ele>
        <time>2022-09-09T12:31:52Z</time>
      </trkpt>
      <trkpt lat="48.5524" lon="-2.76974">
        <ele>99.7</ele>
        <time>2022-09-09T12:31:54Z</time>
      </trkpt>
      <trkpt lat="48.55243" lon="-2.76954">
        <ele>99.2</ele>
        <time>2022-09-09T12:31:56Z</time>
      </trkpt>
      <trkpt lat="48.55243" lon="-2.76932">
        <ele>98.5</ele>
        <time>2022-09-09T12:31:58Z</time>
      </trkpt>
      <trkpt lat="48.55239" lon="-2.7691">
        <ele>97.8</ele>
        <time>2022-09-09T12:32:00Z</time>
      </trkpt>
      <trkpt lat="48.55232" lon="-2.7689">
        <ele>97</ele>
        <time>2022-09-09T12:32:02Z</time>
      </trkpt>
      <trkpt lat="48.55227" lon="-2.7687">
        <ele>96.4</ele>
        <time>2022-09-09T12:32:04Z</time>
      </trkpt>
      <trkpt lat="48.55226" lon="-2.76848">
        <ele>96.1</ele>
        <time>2022-09-09T12:32:06Z</time>
      </trkpt>
      <trkpt lat="48.55228" lon="-2.76828">
        <ele>96.2</ele>
        <time>2022-09-09T12:32:08Z</time>
      </trkpt>
      <trkpt lat="48.5523" lon="-2.76809">
        <ele>96</ele>
        <time>2022-09-09T12:32:10Z</time>
      </trkpt>
      <trkpt lat="48.55236" lon="-2.76792">
        <ele>96</ele>
        <time>2022-09-09T12:32:12Z</time>
      </trkpt>
      <trkpt lat="48.55241" lon="-2.76775">
        <ele>95.9</ele>
        <time>2022-09-09T12:32:14Z</time>
      </trkpt>
      <trkpt lat="48.55248" lon="-2.76759">
        <ele>95.3</ele>
        <time>2022-09-09T12:32:16Z</time>
      </trkpt>
      <trkpt lat="48.55254" lon="-2.76743">
        <ele>95.2</ele>
        <time>2022-09-09T12:32:18Z</time>
      </trkpt>
      <trkpt lat="48.55261" lon="-2.76728">
        <ele>95.4</ele>
        <time>2022-09-09T12:32:20Z</time>
      </trkpt>
      <trkpt lat="48.55268" lon="-2.76714">
        <ele>95.5</ele>
        <time>2022-09-09T12:32:22Z</time>
      </trkpt>
      <trkpt lat="48.55275" lon="-2.76699">
        <ele>95.1</ele>
        <time>2022-09-09T12:32:24Z</time>
      </trkpt>
      <trkpt lat="48.55282" lon="-2.76684">
        <ele>95</ele>
        <time>2022-09-09T12:32:26Z</time>
      </trkpt>
      <trkpt lat="48.55287" lon="-2.7667">
        <ele>95</ele>
        <time>2022-09-09T12:32:28Z</time>
      </trkpt>
      <trkpt lat="48.55291" lon="-2.76654">
        <ele>95</ele>
        <time>2022-09-09T12:32:30Z</time>
      </trkpt>
      <trkpt lat="48.55295" lon="-2.7664">
        <ele>95</ele>
        <time>2022-09-09T12:32:32Z</time>
      </trkpt>
      <trkpt lat="48.55297" lon="-2.76623">
        <ele>94.6</ele>
        <time>2022-09-09T12:32:34Z</time>
      </trkpt>
      <trkpt lat="48.55297" lon="-2.76607">
        <ele>94.4</ele>
        <time>2022-09-09T12:32:36Z</time>
      </trkpt>
      <trkpt lat="48.55295" lon="-2.76592">
        <ele>94.8</ele>
        <time>2022-09-09T12:32:38Z</time>
      </trkpt>
      <trkpt lat="48.55294" lon="-2.76576">
        <ele>94.8</ele>
        <time>2022-09-09T12:32:40Z</time>
      </trkpt>
      <trkpt lat="48.55293" lon="-2.76561">
        <ele>94.6</ele>
        <time>2022-09-09T12:32:42Z</time>
      </trkpt>
      <trkpt lat="48.55292" lon="-2.76545">
        <ele>94.3</ele>
        <time>2022-09-09T12:32:44Z</time>
      </trkpt>
      <trkpt lat="48.55291" lon="-2.7653">
        <ele>94</ele>
        <time>2022-09-09T12:32:46Z</time>
      </trkpt>
      <trkpt lat="48.5529" lon="-2.76514">
        <ele>94</ele>
        <time>2022-09-09T12:32:48Z</time>
      </trkpt>
      <trkpt lat="48.55289" lon="-2.76498">
        <ele>93.9</ele>
        <time>2022-09-09T12:32:50Z</time>
      </trkpt>
      <trkpt lat="48.55289" lon="-2.76481">
        <ele>93.6</ele>
        <time>2022-09-09T12:32:52Z</time>
      </trkpt>
      <trkpt lat="48.5529" lon="-2.76465">
        <ele>93.3</ele>
        <time>2022-09-09T12:32:54Z</time>
      </trkpt>
      <trkpt lat="48.5529" lon="-2.76449">
        <ele>93.1</ele>
        <time>2022-09-09T12:32:56Z</time>
      </trkpt>
      <trkpt lat="48.5529" lon="-2.76434">
        <ele>92.8</ele>
        <time>2022-09-09T12:32:58Z</time>
      </trkpt>
      <trkpt lat="48.55292" lon="-2.76419">
        <ele>92.6</ele>
        <time>2022-09-09T12:33:00Z</time>
      </trkpt>
      <trkpt lat="48.55294" lon="-2.76404">
        <ele>92.3</ele>
        <time>2022-09-09T12:33:02Z</time>
      </trkpt>
      <trkpt lat="48.55298" lon="-2.76387">
        <ele>92</ele>
        <time>2022-09-09T12:33:04Z</time>
      </trkpt>
      <trkpt lat="48.55301" lon="-2.7637">
        <ele>91.4</ele>
        <time>2022-09-09T12:33:06Z</time>
      </trkpt>
      <trkpt lat="48.55305" lon="-2.76353">
        <ele>91</ele>
        <time>2022-09-09T12:33:08Z</time>
      </trkpt>
      <trkpt lat="48.55311" lon="-2.76337">
        <ele>91.2</ele>
        <time>2022-09-09T12:33:10Z</time>
      </trkpt>
      <trkpt lat="48.55316" lon="-2.76321">
        <ele>91.2</ele>
        <time>2022-09-09T12:33:12Z</time>
      </trkpt>
      <trkpt lat="48.55322" lon="-2.76306">
        <ele>91</ele>
        <time>2022-09-09T12:33:14Z</time>
      </trkpt>
      <trkpt lat="48.55329" lon="-2.7629">
        <ele>90.5</ele>
        <time>2022-09-09T12:33:16Z</time>
      </trkpt>
      <trkpt lat="48.55335" lon="-2.76275">
        <ele>90.1</ele>
        <time>2022-09-09T12:33:18Z</time>
      </trkpt>
      <trkpt lat="48.55341" lon="-2.7626">
        <ele>90.1</ele>
        <time>2022-09-09T12:33:20Z</time>
      </trkpt>
      <trkpt lat="48.55346" lon="-2.76246">
        <ele>89.9</ele>
        <time>2022-09-09T12:33:22Z</time>
      </trkpt>
      <trkpt lat="48.55351" lon="-2.76232">
        <ele>89.6</ele>
        <time>2022-09-09T12:33:50Z</time>
      </trkpt>
      <trkpt lat="48.55355" lon="-2.76216">
        <ele>89.2</ele>
        <time>2022-09-09T12:33:54Z</time>
      </trkpt>
      <trkpt lat="48.5536" lon="-2.76199">
        <ele>89</ele>
        <time>2022-09-09T12:33:57Z</time>
      </trkpt>
      <trkpt lat="48.55365" lon="-2.76181">
        <ele>89.1</ele>
        <time>2022-09-09T12:34:00Z</time>
      </trkpt>
      <trkpt lat="48.55367" lon="-2.76168">
        <ele>89</ele>
        <time>2022-09-09T12:34:02Z</time>
      </trkpt>
      <trkpt lat="48.55369" lon="-2.76153">
        <ele>88.6</ele>
        <time>2022-09-09T12:34:04Z</time>
      </trkpt>
      <trkpt lat="48.5537" lon="-2.76137">
        <ele>88.3</ele>
        <time>2022-09-09T12:34:06Z</time>
      </trkpt>
      <trkpt lat="48.5537" lon="-2.7612">
        <ele>88.3</ele>
        <time>2022-09-09T12:34:08Z</time>
      </trkpt>
      <trkpt lat="48.55369" lon="-2.76104">
        <ele>88.1</ele>
        <time>2022-09-09T12:34:10Z</time>
      </trkpt>
      <trkpt lat="48.55368" lon="-2.76087">
        <ele>87.6</ele>
        <time>2022-09-09T12:34:12Z</time>
      </trkpt>
      <trkpt lat="48.55369" lon="-2.76069">
        <ele>87.4</ele>
        <time>2022-09-09T12:34:14Z</time>
      </trkpt>
      <trkpt lat="48.55368" lon="-2.76052">
        <ele>87.1</ele>
        <time>2022-09-09T12:34:16Z</time>
      </trkpt>
      <trkpt lat="48.5537" lon="-2.76033">
        <ele>86.5</ele>
        <time>2022-09-09T12:34:18Z</time>
      </trkpt>
      <trkpt lat="48.55372" lon="-2.76015">
        <ele>86.2</ele>
        <time>2022-09-09T12:34:20Z</time>
      </trkpt>
      <trkpt lat="48.55374" lon="-2.75997">
        <ele>86</ele>
        <time>2022-09-09T12:34:22Z</time>
      </trkpt>
      <trkpt lat="48.55375" lon="-2.75979">
        <ele>86</ele>
        <time>2022-09-09T12:34:24Z</time>
      </trkpt>
      <trkpt lat="48.55377" lon="-2.75962">
        <ele>85.8</ele>
        <time>2022-09-09T12:34:26Z</time>
      </trkpt>
      <trkpt lat="48.55379" lon="-2.75944">
        <ele>85.3</ele>
        <time>2022-09-09T12:34:28Z</time>
      </trkpt>
      <trkpt lat="48.5538" lon="-2.75926">
        <ele>84.8</ele>
        <time>2022-09-09T12:34:30Z</time>
      </trkpt>
      <trkpt lat="48.55381" lon="-2.7591">
        <ele>84.5</ele>
        <time>2022-09-09T12:34:32Z</time>
      </trkpt>
      <trkpt lat="48.55382" lon="-2.75893">
        <ele>84.3</ele>
        <time>2022-09-09T12:34:34Z</time>
      </trkpt>
      <trkpt lat="48.55381" lon="-2.75877">
        <ele>84.2</ele>
        <time>2022-09-09T12:34:36Z</time>
      </trkpt>
      <trkpt lat="48.55381" lon="-2.75858">
        <ele>83.9</ele>
        <time>2022-09-09T12:34:38Z</time>
      </trkpt>
      <trkpt lat="48.55378" lon="-2.75839">
        <ele>83.5</ele>
        <time>2022-09-09T12:34:40Z</time>
      </trkpt>
      <trkpt lat="48.55376" lon="-2.75819">
        <ele>83</ele>
        <time>2022-09-09T12:34:42Z</time>
      </trkpt>
      <trkpt lat="48.55376" lon="-2.75797">
        <ele>82.4</ele>
        <time>2022-09-09T12:34:44Z</time>
      </trkpt>
      <trkpt lat="48.55378" lon="-2.75775">
        <ele>82</ele>
        <time>2022-09-09T12:34:46Z</time>
      </trkpt>
      <trkpt lat="48.55383" lon="-2.75751">
        <ele>82</ele>
        <time>2022-09-09T12:34:48Z</time>
      </trkpt>
      <trkpt lat="48.55388" lon="-2.75729">
        <ele>80.6</ele>
        <time>2022-09-09T12:34:50Z</time>
      </trkpt>
      <trkpt lat="48.55392" lon="-2.75709">
        <ele>80.1</ele>
        <time>2022-09-09T12:34:52Z</time>
      </trkpt>
      <trkpt lat="48.55398" lon="-2.75691">
        <ele>80.1</ele>
        <time>2022-09-09T12:34:54Z</time>
      </trkpt>
      <trkpt lat="48.55405" lon="-2.75674">
        <ele>80.3</ele>
        <time>2022-09-09T12:34:56Z</time>
      </trkpt>
      <trkpt lat="48.5541" lon="-2.7566">
        <ele>80.1</ele>
        <time>2022-09-09T12:34:58Z</time>
      </trkpt>
      <trkpt lat="48.55415" lon="-2.75648">
        <ele>79.5</ele>
        <time>2022-09-09T12:35:00Z</time>
      </trkpt>
      <trkpt lat="48.55422" lon="-2.7564">
        <ele>79.2</ele>
        <time>2022-09-09T12:35:11Z</time>
      </trkpt>
      <trkpt lat="48.55433" lon="-2.75632">
        <ele>79.4</ele>
        <time>2022-09-09T12:35:15Z</time>
      </trkpt>
      <trkpt lat="48.55441" lon="-2.75623">
        <ele>79</ele>
        <time>2022-09-09T12:35:18Z</time>
      </trkpt>
      <trkpt lat="48.55451" lon="-2.75611">
        <ele>78.6</ele>
        <time>2022-09-09T12:35:21Z</time>
      </trkpt>
      <trkpt lat="48.55461" lon="-2.756">
        <ele>78.8</ele>
        <time>2022-09-09T12:35:24Z</time>
      </trkpt>
      <trkpt lat="48.55469" lon="-2.75592">
        <ele>78.2</ele>
        <time>2022-09-09T12:35:26Z</time>
      </trkpt>
      <trkpt lat="48.55478" lon="-2.75587">
        <ele>77.6</ele>
        <time>2022-09-09T12:35:28Z</time>
      </trkpt>
      <trkpt lat="48.55487" lon="-2.75581">
        <ele>77.4</ele>
        <time>2022-09-09T12:35:30Z</time>
      </trkpt>
      <trkpt lat="48.55501" lon="-2.75577">
        <ele>77.3</ele>
        <time>2022-09-09T12:35:33Z</time>
      </trkpt>
      <trkpt lat="48.55513" lon="-2.75574">
        <ele>77</ele>
        <time>2022-09-09T12:35:35Z</time>
      </trkpt>
      <trkpt lat="48.55524" lon="-2.75573">
        <ele>76.9</ele>
        <time>2022-09-09T12:35:37Z</time>
      </trkpt>
      <trkpt lat="48.55534" lon="-2.75569">
        <ele>76.4</ele>
        <time>2022-09-09T12:35:39Z</time>
      </trkpt>
      <trkpt lat="48.55544" lon="-2.7556">
        <ele>75.4</ele>
        <time>2022-09-09T12:35:41Z</time>
      </trkpt>
      <trkpt lat="48.55553" lon="-2.75549">
        <ele>74.6</ele>
        <time>2022-09-09T12:35:43Z</time>
      </trkpt>
      <trkpt lat="48.55561" lon="-2.75533">
        <ele>74.1</ele>
        <time>2022-09-09T12:35:45Z</time>
      </trkpt>
      <trkpt lat="48.55567" lon="-2.75515">
        <ele>73.9</ele>
        <time>2022-09-09T12:35:47Z</time>
      </trkpt>
      <trkpt lat="48.55573" lon="-2.75496">
        <ele>73.8</ele>
        <time>2022-09-09T12:35:49Z</time>
      </trkpt>
      <trkpt lat="48.55578" lon="-2.75474">
        <ele>72.8</ele>
        <time>2022-09-09T12:35:51Z</time>
      </trkpt>
      <trkpt lat="48.55583" lon="-2.75453">
        <ele>70.9</ele>
        <time>2022-09-09T12:35:53Z</time>
      </trkpt>
      <trkpt lat="48.55588" lon="-2.75433">
        <ele>70.4</ele>
        <time>2022-09-09T12:35:55Z</time>
      </trkpt>
      <trkpt lat="48.55595" lon="-2.75414">
        <ele>70.1</ele>
        <time>2022-09-09T12:35:57Z</time>
      </trkpt>
      <trkpt lat="48.55602" lon="-2.75398">
        <ele>69.3</ele>
        <time>2022-09-09T12:35:59Z</time>
      </trkpt>
      <trkpt lat="48.55612" lon="-2.75383">
        <ele>68.3</ele>
        <time>2022-09-09T12:36:01Z</time>
      </trkpt>
      <trkpt lat="48.55622" lon="-2.75369">
        <ele>67.3</ele>
        <time>2022-09-09T12:36:03Z</time>
      </trkpt>
      <trkpt lat="48.55632" lon="-2.75357">
        <ele>66.6</ele>
        <time>2022-09-09T12:36:05Z</time>
      </trkpt>
      <trkpt lat="48.55647" lon="-2.7535">
        <ele>66.1</ele>
        <time>2022-09-09T12:36:07Z</time>
      </trkpt>
      <trkpt lat="48.55662" lon="-2.75344">
        <ele>65.7</ele>
        <time>2022-09-09T12:36:09Z</time>
      </trkpt>
      <trkpt lat="48.55675" lon="-2.7534">
        <ele>65.4</ele>
        <time>2022-09-09T12:36:11Z</time>
      </trkpt>
      <trkpt lat="48.55688" lon="-2.75332">
        <ele>64.6</ele>
        <time>2022-09-09T12:36:13Z</time>
      </trkpt>
      <trkpt lat="48.55701" lon="-2.75323">
        <ele>64</ele>
        <time>2022-09-09T12:36:15Z</time>
      </trkpt>
      <trkpt lat="48.55715" lon="-2.7531">
        <ele>62.5</ele>
        <time>2022-09-09T12:36:17Z</time>
      </trkpt>
      <trkpt lat="48.55728" lon="-2.75297">
        <ele>61.5</ele>
        <time>2022-09-09T12:36:19Z</time>
      </trkpt>
      <trkpt lat="48.55744" lon="-2.75282">
        <ele>61.1</ele>
        <time>2022-09-09T12:36:21Z</time>
      </trkpt>
      <trkpt lat="48.55756" lon="-2.75273">
        <ele>61.1</ele>
        <time>2022-09-09T12:36:23Z</time>
      </trkpt>
      <trkpt lat="48.55767" lon="-2.75264">
        <ele>60.8</ele>
        <time>2022-09-09T12:36:25Z</time>
      </trkpt>
      <trkpt lat="48.55776" lon="-2.75251">
        <ele>58.9</ele>
        <time>2022-09-09T12:36:27Z</time>
      </trkpt>
      <trkpt lat="48.55788" lon="-2.75243">
        <ele>58.7</ele>
        <time>2022-09-09T12:36:29Z</time>
      </trkpt>
      <trkpt lat="48.55797" lon="-2.75233">
        <ele>57</ele>
        <time>2022-09-09T12:36:31Z</time>
      </trkpt>
      <trkpt lat="48.55809" lon="-2.75225">
        <ele>55.4</ele>
        <time>2022-09-09T12:36:33Z</time>
      </trkpt>
      <trkpt lat="48.55821" lon="-2.7522">
        <ele>55</ele>
        <time>2022-09-09T12:36:35Z</time>
      </trkpt>
      <trkpt lat="48.55835" lon="-2.7522">
        <ele>55.8</ele>
        <time>2022-09-09T12:36:37Z</time>
      </trkpt>
      <trkpt lat="48.55847" lon="-2.75219">
        <ele>54.3</ele>
        <time>2022-09-09T12:36:39Z</time>
      </trkpt>
      <trkpt lat="48.55859" lon="-2.7522">
        <ele>53.4</ele>
        <time>2022-09-09T12:36:41Z</time>
      </trkpt>
      <trkpt lat="48.55872" lon="-2.75226">
        <ele>53.9</ele>
        <time>2022-09-09T12:36:43Z</time>
      </trkpt>
      <trkpt lat="48.55886" lon="-2.75235">
        <ele>54.7</ele>
        <time>2022-09-09T12:36:45Z</time>
      </trkpt>
      <trkpt lat="48.55896" lon="-2.75232">
        <ele>54.3</ele>
        <time>2022-09-09T12:36:47Z</time>
      </trkpt>
      <trkpt lat="48.55905" lon="-2.75227">
        <ele>53.4</ele>
        <time>2022-09-09T12:36:49Z</time>
      </trkpt>
      <trkpt lat="48.55916" lon="-2.75219">
        <ele>51.6</ele>
        <time>2022-09-09T12:36:51Z</time>
      </trkpt>
      <trkpt lat="48.55926" lon="-2.75206">
        <ele>49.9</ele>
        <time>2022-09-09T12:36:53Z</time>
      </trkpt>
      <trkpt lat="48.55937" lon="-2.75193">
        <ele>48.5</ele>
        <time>2022-09-09T12:36:55Z</time>
      </trkpt>
      <trkpt lat="48.5595" lon="-2.75183">
        <ele>47.8</ele>
        <time>2022-09-09T12:36:57Z</time>
      </trkpt>
      <trkpt lat="48.55961" lon="-2.75175">
        <ele>46.2</ele>
        <time>2022-09-09T12:36:59Z</time>
      </trkpt>
      <trkpt lat="48.55974" lon="-2.75168">
        <ele>45.2</ele>
        <time>2022-09-09T12:37:01Z</time>
      </trkpt>
      <trkpt lat="48.55992" lon="-2.7517">
        <ele>43.7</ele>
        <time>2022-09-09T12:37:03Z</time>
      </trkpt>
      <trkpt lat="48.56004" lon="-2.75171">
        <ele>42</ele>
        <time>2022-09-09T12:37:05Z</time>
      </trkpt>
      <trkpt lat="48.56015" lon="-2.75184">
        <ele>41.5</ele>
        <time>2022-09-09T12:37:08Z</time>
      </trkpt>
      <trkpt lat="48.56024" lon="-2.75196">
        <ele>40.5</ele>
        <time>2022-09-09T12:37:10Z</time>
      </trkpt>
      <trkpt lat="48.56032" lon="-2.75212">
        <ele>40.2</ele>
        <time>2022-09-09T12:37:12Z</time>
      </trkpt>
      <trkpt lat="48.56043" lon="-2.75224">
        <ele>38.2</ele>
        <time>2022-09-09T12:37:14Z</time>
      </trkpt>
      <trkpt lat="48.5605" lon="-2.75234">
        <ele>36.7</ele>
        <time>2022-09-09T12:37:15Z</time>
      </trkpt>
      <trkpt lat="48.56058" lon="-2.75249">
        <ele>35.3</ele>
        <time>2022-09-09T12:37:17Z</time>
      </trkpt>
      <trkpt lat="48.56069" lon="-2.75271">
        <ele>34.5</ele>
        <time>2022-09-09T12:37:19Z</time>
      </trkpt>
      <trkpt lat="48.56077" lon="-2.75285">
        <ele>33.3</ele>
        <time>2022-09-09T12:37:21Z</time>
      </trkpt>
      <trkpt lat="48.56085" lon="-2.75301">
        <ele>32.3</ele>
        <time>2022-09-09T12:37:23Z</time>
      </trkpt>
      <trkpt lat="48.56094" lon="-2.75315">
        <ele>31.3</ele>
        <time>2022-09-09T12:37:25Z</time>
      </trkpt>
      <trkpt lat="48.56104" lon="-2.75334">
        <ele>30.7</ele>
        <time>2022-09-09T12:37:27Z</time>
      </trkpt>
      <trkpt lat="48.56115" lon="-2.75353">
        <ele>29.8</ele>
        <time>2022-09-09T12:37:29Z</time>
      </trkpt>
      <trkpt lat="48.56126" lon="-2.7537">
        <ele>30</ele>
        <time>2022-09-09T12:37:31Z</time>
      </trkpt>
      <trkpt lat="48.56135" lon="-2.75386">
        <ele>29.1</ele>
        <time>2022-09-09T12:37:33Z</time>
      </trkpt>
      <trkpt lat="48.56142" lon="-2.75398">
        <ele>27.7</ele>
        <time>2022-09-09T12:37:35Z</time>
      </trkpt>
      <trkpt lat="48.56148" lon="-2.7541">
        <ele>27</ele>
        <time>2022-09-09T12:37:37Z</time>
      </trkpt>
      <trkpt lat="48.56156" lon="-2.75423">
        <ele>26.1</ele>
        <time>2022-09-09T12:37:39Z</time>
      </trkpt>
      <trkpt lat="48.56167" lon="-2.75438">
        <ele>24</ele>
        <time>2022-09-09T12:37:41Z</time>
      </trkpt>
      <trkpt lat="48.56176" lon="-2.75452">
        <ele>23</ele>
        <time>2022-09-09T12:37:43Z</time>
      </trkpt>
      <trkpt lat="48.56185" lon="-2.75466">
        <ele>21.8</ele>
        <time>2022-09-09T12:37:45Z</time>
      </trkpt>
      <trkpt lat="48.56194" lon="-2.7548">
        <ele>20.4</ele>
        <time>2022-09-09T12:37:47Z</time>
      </trkpt>
      <trkpt lat="48.56203" lon="-2.75494">
        <ele>18.9</ele>
        <time>2022-09-09T12:37:49Z</time>
      </trkpt>
      <trkpt lat="48.56212" lon="-2.75506">
        <ele>17.5</ele>
        <time>2022-09-09T12:37:51Z</time>
      </trkpt>
      <trkpt lat="48.56222" lon="-2.75519">
        <ele>16.4</ele>
        <time>2022-09-09T12:37:53Z</time>
      </trkpt>
      <trkpt lat="48.5623" lon="-2.75533">
        <ele>15.6</ele>
        <time>2022-09-09T12:37:55Z</time>
      </trkpt>
      <trkpt lat="48.56239" lon="-2.75547">
        <ele>14.5</ele>
        <time>2022-09-09T12:37:57Z</time>
      </trkpt>
      <trkpt lat="48.56247" lon="-2.75561">
        <ele>13.4</ele>
        <time>2022-09-09T12:37:59Z</time>
      </trkpt>
      <trkpt lat="48.56253" lon="-2.75571">
        <ele>12.7</ele>
        <time>2022-09-09T12:38:01Z</time>
      </trkpt>
      <trkpt lat="48.56261" lon="-2.75581">
        <ele>12.2</ele>
        <time>2022-09-09T12:38:03Z</time>
      </trkpt>
      <trkpt lat="48.56269" lon="-2.75592">
        <ele>12</ele>
        <time>2022-09-09T12:38:05Z</time>
      </trkpt>
      <trkpt lat="48.56276" lon="-2.75604">
        <ele>11.9</ele>
        <time>2022-09-09T12:38:08Z</time>
      </trkpt>
      <trkpt lat="48.56286" lon="-2.75608">
        <ele>11.6</ele>
        <time>2022-09-09T12:38:12Z</time>
      </trkpt>
      <trkpt lat="48.56296" lon="-2.75608">
        <ele>11.2</ele>
        <time>2022-09-09T12:38:15Z</time>
      </trkpt>
      <trkpt lat="48.56305" lon="-2.75608">
        <ele>10.8</ele>
        <time>2022-09-09T12:38:18Z</time>
      </trkpt>
      <trkpt lat="48.56317" lon="-2.75606">
        <ele>10.3</ele>
        <time>2022-09-09T12:38:21Z</time>
      </trkpt>
      <trkpt lat="48.56326" lon="-2.75602">
        <ele>9.8</ele>
        <time>2022-09-09T12:38:24Z</time>
      </trkpt>
      <trkpt lat="48.56328" lon="-2.75586">
        <ele>9.1</ele>
        <time>2022-09-09T12:38:27Z</time>
      </trkpt>
      <trkpt lat="48.56325" lon="-2.75573">
        <ele>8.9</ele>
        <time>2022-09-09T12:38:29Z</time>
      </trkpt>
      <trkpt lat="48.56321" lon="-2.7556">
        <ele>8.6</ele>
        <time>2022-09-09T12:38:31Z</time>
      </trkpt>
      <trkpt lat="48.56317" lon="-2.75542">
        <ele>8.4</ele>
        <time>2022-09-09T12:38:34Z</time>
      </trkpt>
      <trkpt lat="48.56321" lon="-2.75529">
        <ele>8.6</ele>
        <time>2022-09-09T12:38:37Z</time>
      </trkpt>
      <trkpt lat="48.5633" lon="-2.75522">
        <ele>8.5</ele>
        <time>2022-09-09T12:38:40Z</time>
      </trkpt>
    </trkseg>
  </trk>
</gpx>